<?xml version="1.0" encoding="UTF-8" standalone="no" ?>
<gpx xmlns="http://www.topografix.com/GPX/1/1" xmlns:xsi="http://www.w3.org/2001/XMLSchema-instance" xsi:schemaLocation="http://www.topografix.com/GPX/1/1 http://www.topografix.com/GPX/1/1/gpx.xsd" version="1.1" creator="VisuGPX - https://www.visugpx.com">
  <metadata>
    <name>Far_West_Realisé</name>
  </metadata>
  <trk>
    <name><![CDATA[J3 Far west - Saint-Lizier - Montréjeau 😍☀️]]></name>
    <extensions>
      <line xmlns="http://www.topografix.com/GPX/gpx_style/0/2">
        <color>FF00FF</color>
        <width>4</width>
      </line>
    </extensions>
    <trkseg>
      <trkpt lat="43.01402" lon="1.11065">
        <ele>384.6</ele>
        <time>2022-09-04T07:51:56Z</time>
      </trkpt>
      <trkpt lat="43.0141" lon="1.11055">
        <ele>384.6</ele>
        <time>2022-09-04T07:52:02Z</time>
      </trkpt>
      <trkpt lat="43.0142" lon="1.11041">
        <ele>384.4</ele>
        <time>2022-09-04T07:52:09Z</time>
      </trkpt>
      <trkpt lat="43.01428" lon="1.11024">
        <ele>384.2</ele>
        <time>2022-09-04T07:52:15Z</time>
      </trkpt>
      <trkpt lat="43.01437" lon="1.11025">
        <ele>384</ele>
        <time>2022-09-04T07:52:18Z</time>
      </trkpt>
      <trkpt lat="43.01444" lon="1.1103">
        <ele>383.8</ele>
        <time>2022-09-04T07:52:23Z</time>
      </trkpt>
      <trkpt lat="43.01446" lon="1.11031">
        <ele>384</ele>
        <time>2022-09-04T07:52:24Z</time>
      </trkpt>
      <trkpt lat="43.01448" lon="1.11032">
        <ele>384</ele>
        <time>2022-09-04T07:52:25Z</time>
      </trkpt>
      <trkpt lat="43.01454" lon="1.1103">
        <ele>384</ele>
        <time>2022-09-04T07:52:27Z</time>
      </trkpt>
      <trkpt lat="43.01461" lon="1.11021">
        <ele>384</ele>
        <time>2022-09-04T07:52:30Z</time>
      </trkpt>
      <trkpt lat="43.01465" lon="1.11014">
        <ele>384</ele>
        <time>2022-09-04T07:52:32Z</time>
      </trkpt>
      <trkpt lat="43.0148" lon="1.10989">
        <ele>384</ele>
        <time>2022-09-04T07:52:39Z</time>
      </trkpt>
      <trkpt lat="43.01496" lon="1.10978">
        <ele>383.8</ele>
        <time>2022-09-04T07:52:44Z</time>
      </trkpt>
      <trkpt lat="43.01518" lon="1.10965">
        <ele>383.6</ele>
        <time>2022-09-04T07:52:50Z</time>
      </trkpt>
      <trkpt lat="43.01522" lon="1.10964">
        <ele>383.6</ele>
        <time>2022-09-04T07:52:51Z</time>
      </trkpt>
      <trkpt lat="43.01533" lon="1.10971">
        <ele>383.4</ele>
        <time>2022-09-04T07:52:54Z</time>
      </trkpt>
      <trkpt lat="43.01538" lon="1.10978">
        <ele>383.6</ele>
        <time>2022-09-04T07:52:56Z</time>
      </trkpt>
      <trkpt lat="43.01548" lon="1.10992">
        <ele>383.2</ele>
        <time>2022-09-04T07:53:00Z</time>
      </trkpt>
      <trkpt lat="43.01569" lon="1.1102">
        <ele>383</ele>
        <time>2022-09-04T07:53:09Z</time>
      </trkpt>
      <trkpt lat="43.01586" lon="1.11043">
        <ele>383.2</ele>
        <time>2022-09-04T07:53:17Z</time>
      </trkpt>
      <trkpt lat="43.01601" lon="1.11062">
        <ele>383</ele>
        <time>2022-09-04T07:53:24Z</time>
      </trkpt>
      <trkpt lat="43.01606" lon="1.11063">
        <ele>383</ele>
        <time>2022-09-04T07:53:26Z</time>
      </trkpt>
      <trkpt lat="43.01612" lon="1.1106">
        <ele>382.8</ele>
        <time>2022-09-04T07:53:28Z</time>
      </trkpt>
      <trkpt lat="43.01621" lon="1.11057">
        <ele>382.8</ele>
        <time>2022-09-04T07:53:31Z</time>
      </trkpt>
      <trkpt lat="43.01624" lon="1.1106">
        <ele>382.8</ele>
        <time>2022-09-04T07:53:32Z</time>
      </trkpt>
      <trkpt lat="43.01637" lon="1.11077">
        <ele>382.6</ele>
        <time>2022-09-04T07:53:38Z</time>
      </trkpt>
      <trkpt lat="43.01653" lon="1.11101">
        <ele>382.8</ele>
        <time>2022-09-04T07:53:46Z</time>
      </trkpt>
      <trkpt lat="43.01664" lon="1.11118">
        <ele>382.4</ele>
        <time>2022-09-04T07:53:51Z</time>
      </trkpt>
      <trkpt lat="43.0167" lon="1.11128">
        <ele>382.4</ele>
        <time>2022-09-04T07:53:54Z</time>
      </trkpt>
      <trkpt lat="43.01673" lon="1.11135">
        <ele>382.2</ele>
        <time>2022-09-04T07:53:56Z</time>
      </trkpt>
      <trkpt lat="43.01671" lon="1.11141">
        <ele>382.2</ele>
        <time>2022-09-04T07:53:58Z</time>
      </trkpt>
      <trkpt lat="43.01667" lon="1.11146">
        <ele>382.4</ele>
        <time>2022-09-04T07:54:00Z</time>
      </trkpt>
      <trkpt lat="43.01661" lon="1.11155">
        <ele>382.4</ele>
        <time>2022-09-04T07:54:03Z</time>
      </trkpt>
      <trkpt lat="43.01658" lon="1.11174">
        <ele>381.8</ele>
        <time>2022-09-04T07:54:07Z</time>
      </trkpt>
      <trkpt lat="43.01661" lon="1.11184">
        <ele>381.2</ele>
        <time>2022-09-04T07:54:09Z</time>
      </trkpt>
      <trkpt lat="43.01666" lon="1.11192">
        <ele>380.4</ele>
        <time>2022-09-04T07:54:11Z</time>
      </trkpt>
      <trkpt lat="43.01675" lon="1.11201">
        <ele>380.4</ele>
        <time>2022-09-04T07:54:15Z</time>
      </trkpt>
      <trkpt lat="43.01684" lon="1.11194">
        <ele>380.4</ele>
        <time>2022-09-04T07:54:19Z</time>
      </trkpt>
      <trkpt lat="43.01704" lon="1.11172">
        <ele>380.4</ele>
        <time>2022-09-04T07:54:26Z</time>
      </trkpt>
      <trkpt lat="43.01723" lon="1.11151">
        <ele>380.2</ele>
        <time>2022-09-04T07:54:32Z</time>
      </trkpt>
      <trkpt lat="43.01754" lon="1.11116">
        <ele>380.2</ele>
        <time>2022-09-04T07:54:42Z</time>
      </trkpt>
      <trkpt lat="43.01776" lon="1.11093">
        <ele>380.2</ele>
        <time>2022-09-04T07:54:50Z</time>
      </trkpt>
      <trkpt lat="43.01781" lon="1.11087">
        <ele>380.2</ele>
        <time>2022-09-04T07:54:52Z</time>
      </trkpt>
      <trkpt lat="43.0179" lon="1.11077">
        <ele>380.2</ele>
        <time>2022-09-04T07:54:56Z</time>
      </trkpt>
      <trkpt lat="43.018" lon="1.11067">
        <ele>380</ele>
        <time>2022-09-04T07:55:03Z</time>
      </trkpt>
      <trkpt lat="43.01804" lon="1.11062">
        <ele>380</ele>
        <time>2022-09-04T07:55:46Z</time>
      </trkpt>
      <trkpt lat="43.01808" lon="1.11057">
        <ele>380</ele>
        <time>2022-09-04T07:55:48Z</time>
      </trkpt>
      <trkpt lat="43.01826" lon="1.11036">
        <ele>380</ele>
        <time>2022-09-04T07:55:55Z</time>
      </trkpt>
      <trkpt lat="43.01851" lon="1.11008">
        <ele>379.8</ele>
        <time>2022-09-04T07:56:03Z</time>
      </trkpt>
      <trkpt lat="43.01893" lon="1.10961">
        <ele>379.4</ele>
        <time>2022-09-04T07:56:15Z</time>
      </trkpt>
      <trkpt lat="43.01919" lon="1.10933">
        <ele>379</ele>
        <time>2022-09-04T07:56:23Z</time>
      </trkpt>
      <trkpt lat="43.01942" lon="1.10907">
        <ele>378.8</ele>
        <time>2022-09-04T07:56:30Z</time>
      </trkpt>
      <trkpt lat="43.01972" lon="1.10875">
        <ele>378.6</ele>
        <time>2022-09-04T07:56:38Z</time>
      </trkpt>
      <trkpt lat="43.02006" lon="1.10837">
        <ele>378.4</ele>
        <time>2022-09-04T07:56:47Z</time>
      </trkpt>
      <trkpt lat="43.02031" lon="1.10808">
        <ele>378</ele>
        <time>2022-09-04T07:56:54Z</time>
      </trkpt>
      <trkpt lat="43.02064" lon="1.10773">
        <ele>377.8</ele>
        <time>2022-09-04T07:57:03Z</time>
      </trkpt>
      <trkpt lat="43.02089" lon="1.10748">
        <ele>377.6</ele>
        <time>2022-09-04T07:57:10Z</time>
      </trkpt>
      <trkpt lat="43.02107" lon="1.10726">
        <ele>377.2</ele>
        <time>2022-09-04T07:57:16Z</time>
      </trkpt>
      <trkpt lat="43.0211" lon="1.10722">
        <ele>377.2</ele>
        <time>2022-09-04T07:57:17Z</time>
      </trkpt>
      <trkpt lat="43.02127" lon="1.10707">
        <ele>377.2</ele>
        <time>2022-09-04T07:57:22Z</time>
      </trkpt>
      <trkpt lat="43.0213" lon="1.10704">
        <ele>377</ele>
        <time>2022-09-04T07:57:23Z</time>
      </trkpt>
      <trkpt lat="43.02151" lon="1.10679">
        <ele>377</ele>
        <time>2022-09-04T07:57:29Z</time>
      </trkpt>
      <trkpt lat="43.02174" lon="1.10651">
        <ele>377</ele>
        <time>2022-09-04T07:57:35Z</time>
      </trkpt>
      <trkpt lat="43.02177" lon="1.10647">
        <ele>377</ele>
        <time>2022-09-04T07:57:36Z</time>
      </trkpt>
      <trkpt lat="43.02195" lon="1.10623">
        <ele>376.8</ele>
        <time>2022-09-04T07:57:41Z</time>
      </trkpt>
      <trkpt lat="43.02227" lon="1.10588">
        <ele>376.2</ele>
        <time>2022-09-04T07:57:49Z</time>
      </trkpt>
      <trkpt lat="43.0224" lon="1.1057">
        <ele>376</ele>
        <time>2022-09-04T07:57:53Z</time>
      </trkpt>
      <trkpt lat="43.02248" lon="1.10561">
        <ele>375.8</ele>
        <time>2022-09-04T07:57:55Z</time>
      </trkpt>
      <trkpt lat="43.02259" lon="1.10548">
        <ele>375.8</ele>
        <time>2022-09-04T07:57:58Z</time>
      </trkpt>
      <trkpt lat="43.02269" lon="1.10535">
        <ele>375.8</ele>
        <time>2022-09-04T07:58:01Z</time>
      </trkpt>
      <trkpt lat="43.02288" lon="1.10509">
        <ele>375.6</ele>
        <time>2022-09-04T07:58:07Z</time>
      </trkpt>
      <trkpt lat="43.02314" lon="1.10469">
        <ele>375.4</ele>
        <time>2022-09-04T07:58:15Z</time>
      </trkpt>
      <trkpt lat="43.02331" lon="1.10439">
        <ele>375.4</ele>
        <time>2022-09-04T07:58:21Z</time>
      </trkpt>
      <trkpt lat="43.02337" lon="1.10429">
        <ele>375.2</ele>
        <time>2022-09-04T07:58:23Z</time>
      </trkpt>
      <trkpt lat="43.02346" lon="1.10415">
        <ele>375</ele>
        <time>2022-09-04T07:58:26Z</time>
      </trkpt>
      <trkpt lat="43.02363" lon="1.10384">
        <ele>374.8</ele>
        <time>2022-09-04T07:58:32Z</time>
      </trkpt>
      <trkpt lat="43.02381" lon="1.10347">
        <ele>374.6</ele>
        <time>2022-09-04T07:58:39Z</time>
      </trkpt>
      <trkpt lat="43.02396" lon="1.10312">
        <ele>374</ele>
        <time>2022-09-04T07:58:46Z</time>
      </trkpt>
      <trkpt lat="43.0241" lon="1.10275">
        <ele>374.4</ele>
        <time>2022-09-04T07:58:53Z</time>
      </trkpt>
      <trkpt lat="43.02414" lon="1.10238">
        <ele>374.2</ele>
        <time>2022-09-04T07:58:59Z</time>
      </trkpt>
      <trkpt lat="43.02419" lon="1.10195">
        <ele>373.8</ele>
        <time>2022-09-04T07:59:06Z</time>
      </trkpt>
      <trkpt lat="43.02421" lon="1.1019">
        <ele>373.6</ele>
        <time>2022-09-04T07:59:07Z</time>
      </trkpt>
      <trkpt lat="43.02427" lon="1.10166">
        <ele>373.2</ele>
        <time>2022-09-04T07:59:13Z</time>
      </trkpt>
      <trkpt lat="43.02438" lon="1.10132">
        <ele>373.2</ele>
        <time>2022-09-04T07:59:19Z</time>
      </trkpt>
      <trkpt lat="43.02455" lon="1.10068">
        <ele>372.8</ele>
        <time>2022-09-04T07:59:29Z</time>
      </trkpt>
      <trkpt lat="43.02467" lon="1.10022">
        <ele>372.6</ele>
        <time>2022-09-04T07:59:36Z</time>
      </trkpt>
      <trkpt lat="43.02474" lon="1.09989">
        <ele>372.2</ele>
        <time>2022-09-04T07:59:41Z</time>
      </trkpt>
      <trkpt lat="43.02476" lon="1.09984">
        <ele>372.2</ele>
        <time>2022-09-04T07:59:42Z</time>
      </trkpt>
      <trkpt lat="43.02481" lon="1.09968">
        <ele>372.2</ele>
        <time>2022-09-04T07:59:45Z</time>
      </trkpt>
      <trkpt lat="43.02484" lon="1.09956">
        <ele>372</ele>
        <time>2022-09-04T07:59:47Z</time>
      </trkpt>
      <trkpt lat="43.02485" lon="1.0995">
        <ele>372</ele>
        <time>2022-09-04T07:59:48Z</time>
      </trkpt>
      <trkpt lat="43.02491" lon="1.09915">
        <ele>371.8</ele>
        <time>2022-09-04T07:59:54Z</time>
      </trkpt>
      <trkpt lat="43.02499" lon="1.09879">
        <ele>371.6</ele>
        <time>2022-09-04T08:00:00Z</time>
      </trkpt>
      <trkpt lat="43.02499" lon="1.09873">
        <ele>371.4</ele>
        <time>2022-09-04T08:00:01Z</time>
      </trkpt>
      <trkpt lat="43.02506" lon="1.09837">
        <ele>371.2</ele>
        <time>2022-09-04T08:00:07Z</time>
      </trkpt>
      <trkpt lat="43.02509" lon="1.09826">
        <ele>371.2</ele>
        <time>2022-09-04T08:00:09Z</time>
      </trkpt>
      <trkpt lat="43.02515" lon="1.09796">
        <ele>371.2</ele>
        <time>2022-09-04T08:00:14Z</time>
      </trkpt>
      <trkpt lat="43.0252" lon="1.09764">
        <ele>370.8</ele>
        <time>2022-09-04T08:00:19Z</time>
      </trkpt>
      <trkpt lat="43.02521" lon="1.09757">
        <ele>370.8</ele>
        <time>2022-09-04T08:00:20Z</time>
      </trkpt>
      <trkpt lat="43.02524" lon="1.09729">
        <ele>370.8</ele>
        <time>2022-09-04T08:00:24Z</time>
      </trkpt>
      <trkpt lat="43.02527" lon="1.09708">
        <ele>370.8</ele>
        <time>2022-09-04T08:00:27Z</time>
      </trkpt>
      <trkpt lat="43.0253" lon="1.09695">
        <ele>370.6</ele>
        <time>2022-09-04T08:00:29Z</time>
      </trkpt>
      <trkpt lat="43.02535" lon="1.09667">
        <ele>370.4</ele>
        <time>2022-09-04T08:00:33Z</time>
      </trkpt>
      <trkpt lat="43.02537" lon="1.09652">
        <ele>370.2</ele>
        <time>2022-09-04T08:00:35Z</time>
      </trkpt>
      <trkpt lat="43.02541" lon="1.09616">
        <ele>369.8</ele>
        <time>2022-09-04T08:00:40Z</time>
      </trkpt>
      <trkpt lat="43.02543" lon="1.09594">
        <ele>369.6</ele>
        <time>2022-09-04T08:00:43Z</time>
      </trkpt>
      <trkpt lat="43.02548" lon="1.09567">
        <ele>369.6</ele>
        <time>2022-09-04T08:00:47Z</time>
      </trkpt>
      <trkpt lat="43.02559" lon="1.09503">
        <ele>369.2</ele>
        <time>2022-09-04T08:00:56Z</time>
      </trkpt>
      <trkpt lat="43.02561" lon="1.09496">
        <ele>369.4</ele>
        <time>2022-09-04T08:00:57Z</time>
      </trkpt>
      <trkpt lat="43.02569" lon="1.09462">
        <ele>369</ele>
        <time>2022-09-04T08:01:02Z</time>
      </trkpt>
      <trkpt lat="43.02582" lon="1.09416">
        <ele>368.8</ele>
        <time>2022-09-04T08:01:09Z</time>
      </trkpt>
      <trkpt lat="43.02592" lon="1.09384">
        <ele>368.6</ele>
        <time>2022-09-04T08:01:14Z</time>
      </trkpt>
      <trkpt lat="43.02598" lon="1.09365">
        <ele>368.6</ele>
        <time>2022-09-04T08:01:17Z</time>
      </trkpt>
      <trkpt lat="43.02609" lon="1.09337">
        <ele>368.2</ele>
        <time>2022-09-04T08:01:22Z</time>
      </trkpt>
      <trkpt lat="43.02612" lon="1.09332">
        <ele>368.2</ele>
        <time>2022-09-04T08:01:23Z</time>
      </trkpt>
      <trkpt lat="43.02613" lon="1.09327">
        <ele>368.2</ele>
        <time>2022-09-04T08:01:24Z</time>
      </trkpt>
      <trkpt lat="43.02621" lon="1.09305">
        <ele>368</ele>
        <time>2022-09-04T08:01:28Z</time>
      </trkpt>
      <trkpt lat="43.02638" lon="1.09265">
        <ele>367.8</ele>
        <time>2022-09-04T08:01:36Z</time>
      </trkpt>
      <trkpt lat="43.02641" lon="1.09256">
        <ele>367.6</ele>
        <time>2022-09-04T08:01:38Z</time>
      </trkpt>
      <trkpt lat="43.02646" lon="1.09236">
        <ele>367.6</ele>
        <time>2022-09-04T08:01:42Z</time>
      </trkpt>
      <trkpt lat="43.02659" lon="1.09208">
        <ele>367.6</ele>
        <time>2022-09-04T08:01:48Z</time>
      </trkpt>
      <trkpt lat="43.02683" lon="1.09154">
        <ele>367.4</ele>
        <time>2022-09-04T08:01:58Z</time>
      </trkpt>
      <trkpt lat="43.02702" lon="1.09117">
        <ele>367.2</ele>
        <time>2022-09-04T08:02:05Z</time>
      </trkpt>
      <trkpt lat="43.02719" lon="1.09084">
        <ele>366.8</ele>
        <time>2022-09-04T08:02:11Z</time>
      </trkpt>
      <trkpt lat="43.02726" lon="1.09069">
        <ele>366.6</ele>
        <time>2022-09-04T08:02:14Z</time>
      </trkpt>
      <trkpt lat="43.02735" lon="1.09053">
        <ele>366.6</ele>
        <time>2022-09-04T08:02:17Z</time>
      </trkpt>
      <trkpt lat="43.02757" lon="1.09016">
        <ele>366.4</ele>
        <time>2022-09-04T08:02:24Z</time>
      </trkpt>
      <trkpt lat="43.02778" lon="1.08975">
        <ele>366</ele>
        <time>2022-09-04T08:02:31Z</time>
      </trkpt>
      <trkpt lat="43.02804" lon="1.08928">
        <ele>365.4</ele>
        <time>2022-09-04T08:02:39Z</time>
      </trkpt>
      <trkpt lat="43.02807" lon="1.08922">
        <ele>365.4</ele>
        <time>2022-09-04T08:02:40Z</time>
      </trkpt>
      <trkpt lat="43.02823" lon="1.08896">
        <ele>365.2</ele>
        <time>2022-09-04T08:02:45Z</time>
      </trkpt>
      <trkpt lat="43.02839" lon="1.0887">
        <ele>365</ele>
        <time>2022-09-04T08:02:50Z</time>
      </trkpt>
      <trkpt lat="43.02861" lon="1.08833">
        <ele>365</ele>
        <time>2022-09-04T08:02:57Z</time>
      </trkpt>
      <trkpt lat="43.02882" lon="1.08801">
        <ele>364.8</ele>
        <time>2022-09-04T08:03:04Z</time>
      </trkpt>
      <trkpt lat="43.02894" lon="1.08781">
        <ele>364.6</ele>
        <time>2022-09-04T08:03:08Z</time>
      </trkpt>
      <trkpt lat="43.02899" lon="1.08772">
        <ele>364.6</ele>
        <time>2022-09-04T08:03:10Z</time>
      </trkpt>
      <trkpt lat="43.02905" lon="1.08762">
        <ele>364.4</ele>
        <time>2022-09-04T08:03:12Z</time>
      </trkpt>
      <trkpt lat="43.02922" lon="1.08733">
        <ele>364</ele>
        <time>2022-09-04T08:03:18Z</time>
      </trkpt>
      <trkpt lat="43.02941" lon="1.08699">
        <ele>363.8</ele>
        <time>2022-09-04T08:03:25Z</time>
      </trkpt>
      <trkpt lat="43.02967" lon="1.08652">
        <ele>363.8</ele>
        <time>2022-09-04T08:03:34Z</time>
      </trkpt>
      <trkpt lat="43.02985" lon="1.08622">
        <ele>363.4</ele>
        <time>2022-09-04T08:03:40Z</time>
      </trkpt>
      <trkpt lat="43.02991" lon="1.08611">
        <ele>363.4</ele>
        <time>2022-09-04T08:03:42Z</time>
      </trkpt>
      <trkpt lat="43.03011" lon="1.08577">
        <ele>363.4</ele>
        <time>2022-09-04T08:03:49Z</time>
      </trkpt>
      <trkpt lat="43.03036" lon="1.08534">
        <ele>363</ele>
        <time>2022-09-04T08:03:58Z</time>
      </trkpt>
      <trkpt lat="43.03053" lon="1.08507">
        <ele>363.2</ele>
        <time>2022-09-04T08:04:05Z</time>
      </trkpt>
      <trkpt lat="43.03078" lon="1.08464">
        <ele>363</ele>
        <time>2022-09-04T08:04:14Z</time>
      </trkpt>
      <trkpt lat="43.03104" lon="1.0842">
        <ele>363</ele>
        <time>2022-09-04T08:04:23Z</time>
      </trkpt>
      <trkpt lat="43.03115" lon="1.08402">
        <ele>363</ele>
        <time>2022-09-04T08:04:27Z</time>
      </trkpt>
      <trkpt lat="43.03123" lon="1.08388">
        <ele>362.8</ele>
        <time>2022-09-04T08:04:30Z</time>
      </trkpt>
      <trkpt lat="43.03146" lon="1.08348">
        <ele>362.6</ele>
        <time>2022-09-04T08:04:39Z</time>
      </trkpt>
      <trkpt lat="43.03154" lon="1.08336">
        <ele>362.4</ele>
        <time>2022-09-04T08:04:43Z</time>
      </trkpt>
      <trkpt lat="43.03155" lon="1.08332">
        <ele>362.4</ele>
        <time>2022-09-04T08:04:45Z</time>
      </trkpt>
      <trkpt lat="43.0316" lon="1.0832">
        <ele>362.4</ele>
        <time>2022-09-04T08:04:49Z</time>
      </trkpt>
      <trkpt lat="43.03178" lon="1.0829">
        <ele>362</ele>
        <time>2022-09-04T08:04:56Z</time>
      </trkpt>
      <trkpt lat="43.03201" lon="1.08252">
        <ele>361.8</ele>
        <time>2022-09-04T08:05:04Z</time>
      </trkpt>
      <trkpt lat="43.03222" lon="1.08203">
        <ele>361.4</ele>
        <time>2022-09-04T08:05:13Z</time>
      </trkpt>
      <trkpt lat="43.03233" lon="1.08175">
        <ele>361.4</ele>
        <time>2022-09-04T08:05:18Z</time>
      </trkpt>
      <trkpt lat="43.03239" lon="1.08158">
        <ele>361.2</ele>
        <time>2022-09-04T08:05:21Z</time>
      </trkpt>
      <trkpt lat="43.03251" lon="1.08126">
        <ele>360.8</ele>
        <time>2022-09-04T08:05:27Z</time>
      </trkpt>
      <trkpt lat="43.0326" lon="1.08104">
        <ele>361</ele>
        <time>2022-09-04T08:05:31Z</time>
      </trkpt>
      <trkpt lat="43.03266" lon="1.08088">
        <ele>360.8</ele>
        <time>2022-09-04T08:05:34Z</time>
      </trkpt>
      <trkpt lat="43.03278" lon="1.08048">
        <ele>360.6</ele>
        <time>2022-09-04T08:05:41Z</time>
      </trkpt>
      <trkpt lat="43.03285" lon="1.08027">
        <ele>360.4</ele>
        <time>2022-09-04T08:05:45Z</time>
      </trkpt>
      <trkpt lat="43.03288" lon="1.08021">
        <ele>360.6</ele>
        <time>2022-09-04T08:05:46Z</time>
      </trkpt>
      <trkpt lat="43.0329" lon="1.08017">
        <ele>360.6</ele>
        <time>2022-09-04T08:05:47Z</time>
      </trkpt>
      <trkpt lat="43.03297" lon="1.08">
        <ele>360.6</ele>
        <time>2022-09-04T08:05:50Z</time>
      </trkpt>
      <trkpt lat="43.03298" lon="1.07994">
        <ele>360.6</ele>
        <time>2022-09-04T08:05:51Z</time>
      </trkpt>
      <trkpt lat="43.03304" lon="1.07977">
        <ele>360.6</ele>
        <time>2022-09-04T08:05:54Z</time>
      </trkpt>
      <trkpt lat="43.03306" lon="1.0797">
        <ele>360.4</ele>
        <time>2022-09-04T08:05:55Z</time>
      </trkpt>
      <trkpt lat="43.03307" lon="1.07964">
        <ele>360.4</ele>
        <time>2022-09-04T08:05:56Z</time>
      </trkpt>
      <trkpt lat="43.03314" lon="1.07927">
        <ele>360.2</ele>
        <time>2022-09-04T08:06:02Z</time>
      </trkpt>
      <trkpt lat="43.03317" lon="1.07905">
        <ele>360</ele>
        <time>2022-09-04T08:06:06Z</time>
      </trkpt>
      <trkpt lat="43.03327" lon="1.07858">
        <ele>359.8</ele>
        <time>2022-09-04T08:06:14Z</time>
      </trkpt>
      <trkpt lat="43.03336" lon="1.07825">
        <ele>359.6</ele>
        <time>2022-09-04T08:06:21Z</time>
      </trkpt>
      <trkpt lat="43.03345" lon="1.07789">
        <ele>359.8</ele>
        <time>2022-09-04T08:06:28Z</time>
      </trkpt>
      <trkpt lat="43.03354" lon="1.07751">
        <ele>359.4</ele>
        <time>2022-09-04T08:06:35Z</time>
      </trkpt>
      <trkpt lat="43.0336" lon="1.07726">
        <ele>359.4</ele>
        <time>2022-09-04T08:06:39Z</time>
      </trkpt>
      <trkpt lat="43.03361" lon="1.07719">
        <ele>359.4</ele>
        <time>2022-09-04T08:06:40Z</time>
      </trkpt>
      <trkpt lat="43.03364" lon="1.07707">
        <ele>359.2</ele>
        <time>2022-09-04T08:06:42Z</time>
      </trkpt>
      <trkpt lat="43.03378" lon="1.07657">
        <ele>359</ele>
        <time>2022-09-04T08:06:50Z</time>
      </trkpt>
      <trkpt lat="43.03391" lon="1.07601">
        <ele>358.6</ele>
        <time>2022-09-04T08:06:59Z</time>
      </trkpt>
      <trkpt lat="43.03404" lon="1.07544">
        <ele>358.4</ele>
        <time>2022-09-04T08:07:08Z</time>
      </trkpt>
      <trkpt lat="43.03413" lon="1.07512">
        <ele>358.2</ele>
        <time>2022-09-04T08:07:13Z</time>
      </trkpt>
      <trkpt lat="43.03417" lon="1.07501">
        <ele>358</ele>
        <time>2022-09-04T08:07:15Z</time>
      </trkpt>
      <trkpt lat="43.03418" lon="1.07495">
        <ele>358</ele>
        <time>2022-09-04T08:07:16Z</time>
      </trkpt>
      <trkpt lat="43.03431" lon="1.07438">
        <ele>357.8</ele>
        <time>2022-09-04T08:07:25Z</time>
      </trkpt>
      <trkpt lat="43.03441" lon="1.07394">
        <ele>357.8</ele>
        <time>2022-09-04T08:07:32Z</time>
      </trkpt>
      <trkpt lat="43.03444" lon="1.07375">
        <ele>357.6</ele>
        <time>2022-09-04T08:07:35Z</time>
      </trkpt>
      <trkpt lat="43.03449" lon="1.07356">
        <ele>357.8</ele>
        <time>2022-09-04T08:07:38Z</time>
      </trkpt>
      <trkpt lat="43.03464" lon="1.07293">
        <ele>357.6</ele>
        <time>2022-09-04T08:07:48Z</time>
      </trkpt>
      <trkpt lat="43.0348" lon="1.07228">
        <ele>357.4</ele>
        <time>2022-09-04T08:07:58Z</time>
      </trkpt>
      <trkpt lat="43.03488" lon="1.07194">
        <ele>357.2</ele>
        <time>2022-09-04T08:08:03Z</time>
      </trkpt>
      <trkpt lat="43.03493" lon="1.07176">
        <ele>357.2</ele>
        <time>2022-09-04T08:08:06Z</time>
      </trkpt>
      <trkpt lat="43.03495" lon="1.07169">
        <ele>357.2</ele>
        <time>2022-09-04T08:08:07Z</time>
      </trkpt>
      <trkpt lat="43.03498" lon="1.07157">
        <ele>357.2</ele>
        <time>2022-09-04T08:08:09Z</time>
      </trkpt>
      <trkpt lat="43.03506" lon="1.07133">
        <ele>357.2</ele>
        <time>2022-09-04T08:08:13Z</time>
      </trkpt>
      <trkpt lat="43.03526" lon="1.07088">
        <ele>357</ele>
        <time>2022-09-04T08:08:21Z</time>
      </trkpt>
      <trkpt lat="43.03544" lon="1.07041">
        <ele>356.8</ele>
        <time>2022-09-04T08:08:29Z</time>
      </trkpt>
      <trkpt lat="43.03563" lon="1.06998">
        <ele>356.6</ele>
        <time>2022-09-04T08:08:36Z</time>
      </trkpt>
      <trkpt lat="43.03589" lon="1.06944">
        <ele>356.4</ele>
        <time>2022-09-04T08:08:45Z</time>
      </trkpt>
      <trkpt lat="43.0362" lon="1.0688">
        <ele>356.2</ele>
        <time>2022-09-04T08:08:56Z</time>
      </trkpt>
      <trkpt lat="43.03628" lon="1.06862">
        <ele>356.2</ele>
        <time>2022-09-04T08:08:59Z</time>
      </trkpt>
      <trkpt lat="43.03646" lon="1.0682">
        <ele>356.2</ele>
        <time>2022-09-04T08:09:06Z</time>
      </trkpt>
      <trkpt lat="43.03651" lon="1.06807">
        <ele>356</ele>
        <time>2022-09-04T08:09:08Z</time>
      </trkpt>
      <trkpt lat="43.03662" lon="1.06776">
        <ele>356</ele>
        <time>2022-09-04T08:09:13Z</time>
      </trkpt>
      <trkpt lat="43.03682" lon="1.06722">
        <ele>355.8</ele>
        <time>2022-09-04T08:09:22Z</time>
      </trkpt>
      <trkpt lat="43.03704" lon="1.06677">
        <ele>355.6</ele>
        <time>2022-09-04T08:09:30Z</time>
      </trkpt>
      <trkpt lat="43.03725" lon="1.0663">
        <ele>355.4</ele>
        <time>2022-09-04T08:09:38Z</time>
      </trkpt>
      <trkpt lat="43.03736" lon="1.0661">
        <ele>355.2</ele>
        <time>2022-09-04T08:09:42Z</time>
      </trkpt>
      <trkpt lat="43.03748" lon="1.06589">
        <ele>355.2</ele>
        <time>2022-09-04T08:09:46Z</time>
      </trkpt>
      <trkpt lat="43.03772" lon="1.06548">
        <ele>355</ele>
        <time>2022-09-04T08:09:54Z</time>
      </trkpt>
      <trkpt lat="43.03799" lon="1.06503">
        <ele>354.8</ele>
        <time>2022-09-04T08:10:03Z</time>
      </trkpt>
      <trkpt lat="43.03823" lon="1.06456">
        <ele>354.6</ele>
        <time>2022-09-04T08:10:12Z</time>
      </trkpt>
      <trkpt lat="43.03845" lon="1.0642">
        <ele>354.4</ele>
        <time>2022-09-04T08:10:20Z</time>
      </trkpt>
      <trkpt lat="43.03853" lon="1.06401">
        <ele>354</ele>
        <time>2022-09-04T08:10:24Z</time>
      </trkpt>
      <trkpt lat="43.03859" lon="1.06382">
        <ele>353.6</ele>
        <time>2022-09-04T08:10:27Z</time>
      </trkpt>
      <trkpt lat="43.03867" lon="1.06355">
        <ele>353.8</ele>
        <time>2022-09-04T08:10:31Z</time>
      </trkpt>
      <trkpt lat="43.03869" lon="1.06341">
        <ele>353.4</ele>
        <time>2022-09-04T08:10:33Z</time>
      </trkpt>
      <trkpt lat="43.03869" lon="1.06327">
        <ele>353</ele>
        <time>2022-09-04T08:10:35Z</time>
      </trkpt>
      <trkpt lat="43.03868" lon="1.06312">
        <ele>352.8</ele>
        <time>2022-09-04T08:10:37Z</time>
      </trkpt>
      <trkpt lat="43.03869" lon="1.06304">
        <ele>352.6</ele>
        <time>2022-09-04T08:10:38Z</time>
      </trkpt>
      <trkpt lat="43.03877" lon="1.06261">
        <ele>352</ele>
        <time>2022-09-04T08:10:44Z</time>
      </trkpt>
      <trkpt lat="43.03879" lon="1.06254">
        <ele>352</ele>
        <time>2022-09-04T08:10:45Z</time>
      </trkpt>
      <trkpt lat="43.03885" lon="1.06207">
        <ele>351.8</ele>
        <time>2022-09-04T08:10:52Z</time>
      </trkpt>
      <trkpt lat="43.03888" lon="1.06162">
        <ele>351.8</ele>
        <time>2022-09-04T08:10:59Z</time>
      </trkpt>
      <trkpt lat="43.03889" lon="1.06149">
        <ele>351.8</ele>
        <time>2022-09-04T08:11:01Z</time>
      </trkpt>
      <trkpt lat="43.0389" lon="1.06127">
        <ele>351.6</ele>
        <time>2022-09-04T08:11:04Z</time>
      </trkpt>
      <trkpt lat="43.03889" lon="1.06082">
        <ele>351.4</ele>
        <time>2022-09-04T08:11:10Z</time>
      </trkpt>
      <trkpt lat="43.03885" lon="1.06033">
        <ele>350.8</ele>
        <time>2022-09-04T08:11:17Z</time>
      </trkpt>
      <trkpt lat="43.03879" lon="1.05989">
        <ele>350.4</ele>
        <time>2022-09-04T08:11:24Z</time>
      </trkpt>
      <trkpt lat="43.03869" lon="1.05943">
        <ele>350</ele>
        <time>2022-09-04T08:11:32Z</time>
      </trkpt>
      <trkpt lat="43.03861" lon="1.05917">
        <ele>349.8</ele>
        <time>2022-09-04T08:11:37Z</time>
      </trkpt>
      <trkpt lat="43.03858" lon="1.05908">
        <ele>349.8</ele>
        <time>2022-09-04T08:11:39Z</time>
      </trkpt>
      <trkpt lat="43.03847" lon="1.05897">
        <ele>349.6</ele>
        <time>2022-09-04T08:11:43Z</time>
      </trkpt>
      <trkpt lat="43.03843" lon="1.05897">
        <ele>349.6</ele>
        <time>2022-09-04T08:11:44Z</time>
      </trkpt>
      <trkpt lat="43.03834" lon="1.05901">
        <ele>348.8</ele>
        <time>2022-09-04T08:11:48Z</time>
      </trkpt>
      <trkpt lat="43.03832" lon="1.05903">
        <ele>348.8</ele>
        <time>2022-09-04T08:11:49Z</time>
      </trkpt>
      <trkpt lat="43.03821" lon="1.05907">
        <ele>348.6</ele>
        <time>2022-09-04T08:11:51Z</time>
      </trkpt>
      <trkpt lat="43.03814" lon="1.05906">
        <ele>348.6</ele>
        <time>2022-09-04T08:11:52Z</time>
      </trkpt>
      <trkpt lat="43.03802" lon="1.059">
        <ele>348.6</ele>
        <time>2022-09-04T08:11:55Z</time>
      </trkpt>
      <trkpt lat="43.03799" lon="1.05899">
        <ele>348.8</ele>
        <time>2022-09-04T08:11:56Z</time>
      </trkpt>
      <trkpt lat="43.03787" lon="1.0589">
        <ele>349.8</ele>
        <time>2022-09-04T08:12:01Z</time>
      </trkpt>
      <trkpt lat="43.03777" lon="1.0588">
        <ele>351</ele>
        <time>2022-09-04T08:12:06Z</time>
      </trkpt>
      <trkpt lat="43.03774" lon="1.05877">
        <ele>351.4</ele>
        <time>2022-09-04T08:12:08Z</time>
      </trkpt>
      <trkpt lat="43.03768" lon="1.05872">
        <ele>352</ele>
        <time>2022-09-04T08:12:11Z</time>
      </trkpt>
      <trkpt lat="43.03758" lon="1.05863">
        <ele>353</ele>
        <time>2022-09-04T08:12:17Z</time>
      </trkpt>
      <trkpt lat="43.03756" lon="1.05861">
        <ele>353.2</ele>
        <time>2022-09-04T08:12:18Z</time>
      </trkpt>
      <trkpt lat="43.03746" lon="1.0585">
        <ele>353.6</ele>
        <time>2022-09-04T08:12:24Z</time>
      </trkpt>
      <trkpt lat="43.03731" lon="1.05835">
        <ele>353.8</ele>
        <time>2022-09-04T08:12:31Z</time>
      </trkpt>
      <trkpt lat="43.03715" lon="1.05822">
        <ele>354</ele>
        <time>2022-09-04T08:12:38Z</time>
      </trkpt>
      <trkpt lat="43.03696" lon="1.05804">
        <ele>354</ele>
        <time>2022-09-04T08:12:45Z</time>
      </trkpt>
      <trkpt lat="43.03674" lon="1.05775">
        <ele>354</ele>
        <time>2022-09-04T08:12:53Z</time>
      </trkpt>
      <trkpt lat="43.03657" lon="1.05751">
        <ele>353.8</ele>
        <time>2022-09-04T08:13:00Z</time>
      </trkpt>
      <trkpt lat="43.03631" lon="1.05716">
        <ele>353.4</ele>
        <time>2022-09-04T08:13:09Z</time>
      </trkpt>
      <trkpt lat="43.03609" lon="1.05684">
        <ele>353.2</ele>
        <time>2022-09-04T08:13:16Z</time>
      </trkpt>
      <trkpt lat="43.03585" lon="1.05641">
        <ele>352.4</ele>
        <time>2022-09-04T08:13:23Z</time>
      </trkpt>
      <trkpt lat="43.03567" lon="1.05591">
        <ele>352</ele>
        <time>2022-09-04T08:13:30Z</time>
      </trkpt>
      <trkpt lat="43.03565" lon="1.05583">
        <ele>352</ele>
        <time>2022-09-04T08:13:31Z</time>
      </trkpt>
      <trkpt lat="43.03555" lon="1.05532">
        <ele>351.8</ele>
        <time>2022-09-04T08:13:38Z</time>
      </trkpt>
      <trkpt lat="43.03548" lon="1.05472">
        <ele>352</ele>
        <time>2022-09-04T08:13:46Z</time>
      </trkpt>
      <trkpt lat="43.0354" lon="1.05407">
        <ele>352</ele>
        <time>2022-09-04T08:13:55Z</time>
      </trkpt>
      <trkpt lat="43.03528" lon="1.05331">
        <ele>352.2</ele>
        <time>2022-09-04T08:14:06Z</time>
      </trkpt>
      <trkpt lat="43.03516" lon="1.05253">
        <ele>352.2</ele>
        <time>2022-09-04T08:14:17Z</time>
      </trkpt>
      <trkpt lat="43.03507" lon="1.0518">
        <ele>352</ele>
        <time>2022-09-04T08:14:27Z</time>
      </trkpt>
      <trkpt lat="43.035" lon="1.0511">
        <ele>351.6</ele>
        <time>2022-09-04T08:14:36Z</time>
      </trkpt>
      <trkpt lat="43.03494" lon="1.05062">
        <ele>351</ele>
        <time>2022-09-04T08:14:42Z</time>
      </trkpt>
      <trkpt lat="43.03492" lon="1.05037">
        <ele>351</ele>
        <time>2022-09-04T08:14:45Z</time>
      </trkpt>
      <trkpt lat="43.03484" lon="1.04961">
        <ele>350.4</ele>
        <time>2022-09-04T08:14:54Z</time>
      </trkpt>
      <trkpt lat="43.0348" lon="1.04936">
        <ele>350</ele>
        <time>2022-09-04T08:14:57Z</time>
      </trkpt>
      <trkpt lat="43.03479" lon="1.04927">
        <ele>350</ele>
        <time>2022-09-04T08:14:58Z</time>
      </trkpt>
      <trkpt lat="43.0347" lon="1.04849">
        <ele>349.2</ele>
        <time>2022-09-04T08:15:07Z</time>
      </trkpt>
      <trkpt lat="43.03468" lon="1.04832">
        <ele>349</ele>
        <time>2022-09-04T08:15:09Z</time>
      </trkpt>
      <trkpt lat="43.03467" lon="1.04824">
        <ele>348.8</ele>
        <time>2022-09-04T08:15:10Z</time>
      </trkpt>
      <trkpt lat="43.03459" lon="1.04756">
        <ele>348.4</ele>
        <time>2022-09-04T08:15:18Z</time>
      </trkpt>
      <trkpt lat="43.0345" lon="1.04681">
        <ele>348.2</ele>
        <time>2022-09-04T08:15:27Z</time>
      </trkpt>
      <trkpt lat="43.03446" lon="1.04647">
        <ele>347.8</ele>
        <time>2022-09-04T08:15:31Z</time>
      </trkpt>
      <trkpt lat="43.03437" lon="1.04576">
        <ele>347.8</ele>
        <time>2022-09-04T08:15:40Z</time>
      </trkpt>
      <trkpt lat="43.03436" lon="1.04568">
        <ele>347.8</ele>
        <time>2022-09-04T08:15:41Z</time>
      </trkpt>
      <trkpt lat="43.03426" lon="1.04491">
        <ele>347.8</ele>
        <time>2022-09-04T08:15:51Z</time>
      </trkpt>
      <trkpt lat="43.03424" lon="1.04475">
        <ele>347.8</ele>
        <time>2022-09-04T08:15:53Z</time>
      </trkpt>
      <trkpt lat="43.03414" lon="1.04399">
        <ele>347.8</ele>
        <time>2022-09-04T08:16:03Z</time>
      </trkpt>
      <trkpt lat="43.03412" lon="1.04384">
        <ele>348</ele>
        <time>2022-09-04T08:16:05Z</time>
      </trkpt>
      <trkpt lat="43.03405" lon="1.04327">
        <ele>348</ele>
        <time>2022-09-04T08:16:13Z</time>
      </trkpt>
      <trkpt lat="43.03396" lon="1.04257">
        <ele>347.6</ele>
        <time>2022-09-04T08:16:23Z</time>
      </trkpt>
      <trkpt lat="43.03389" lon="1.04191">
        <ele>347.4</ele>
        <time>2022-09-04T08:16:32Z</time>
      </trkpt>
      <trkpt lat="43.03381" lon="1.04117">
        <ele>347.2</ele>
        <time>2022-09-04T08:16:42Z</time>
      </trkpt>
      <trkpt lat="43.03374" lon="1.04058">
        <ele>347</ele>
        <time>2022-09-04T08:16:50Z</time>
      </trkpt>
      <trkpt lat="43.03368" lon="1.04006">
        <ele>346.8</ele>
        <time>2022-09-04T08:16:57Z</time>
      </trkpt>
      <trkpt lat="43.03366" lon="1.03991">
        <ele>346.8</ele>
        <time>2022-09-04T08:16:59Z</time>
      </trkpt>
      <trkpt lat="43.03357" lon="1.03915">
        <ele>346.6</ele>
        <time>2022-09-04T08:17:09Z</time>
      </trkpt>
      <trkpt lat="43.03356" lon="1.03908">
        <ele>346.6</ele>
        <time>2022-09-04T08:17:10Z</time>
      </trkpt>
      <trkpt lat="43.03347" lon="1.03831">
        <ele>346.2</ele>
        <time>2022-09-04T08:17:20Z</time>
      </trkpt>
      <trkpt lat="43.0334" lon="1.03777">
        <ele>345.8</ele>
        <time>2022-09-04T08:17:27Z</time>
      </trkpt>
      <trkpt lat="43.03338" lon="1.03754">
        <ele>345.6</ele>
        <time>2022-09-04T08:17:30Z</time>
      </trkpt>
      <trkpt lat="43.03331" lon="1.0368">
        <ele>345</ele>
        <time>2022-09-04T08:17:40Z</time>
      </trkpt>
      <trkpt lat="43.03333" lon="1.03676">
        <ele>344.8</ele>
        <time>2022-09-04T08:17:41Z</time>
      </trkpt>
      <trkpt lat="43.03333" lon="1.03668">
        <ele>344.4</ele>
        <time>2022-09-04T08:17:43Z</time>
      </trkpt>
      <trkpt lat="43.03331" lon="1.03644">
        <ele>344.2</ele>
        <time>2022-09-04T08:17:48Z</time>
      </trkpt>
      <trkpt lat="43.03328" lon="1.03616">
        <ele>343.8</ele>
        <time>2022-09-04T08:17:53Z</time>
      </trkpt>
      <trkpt lat="43.03325" lon="1.03591">
        <ele>343.8</ele>
        <time>2022-09-04T08:17:57Z</time>
      </trkpt>
      <trkpt lat="43.03319" lon="1.03543">
        <ele>343.4</ele>
        <time>2022-09-04T08:18:04Z</time>
      </trkpt>
      <trkpt lat="43.03311" lon="1.03476">
        <ele>343.2</ele>
        <time>2022-09-04T08:18:13Z</time>
      </trkpt>
      <trkpt lat="43.03307" lon="1.03445">
        <ele>343</ele>
        <time>2022-09-04T08:18:17Z</time>
      </trkpt>
      <trkpt lat="43.03306" lon="1.03437">
        <ele>342.8</ele>
        <time>2022-09-04T08:18:18Z</time>
      </trkpt>
      <trkpt lat="43.03304" lon="1.03422">
        <ele>342.6</ele>
        <time>2022-09-04T08:18:20Z</time>
      </trkpt>
      <trkpt lat="43.03298" lon="1.03375">
        <ele>342.2</ele>
        <time>2022-09-04T08:18:26Z</time>
      </trkpt>
      <trkpt lat="43.0329" lon="1.03316">
        <ele>342</ele>
        <time>2022-09-04T08:18:34Z</time>
      </trkpt>
      <trkpt lat="43.03285" lon="1.03272">
        <ele>341.8</ele>
        <time>2022-09-04T08:18:40Z</time>
      </trkpt>
      <trkpt lat="43.0328" lon="1.03231">
        <ele>341.6</ele>
        <time>2022-09-04T08:18:46Z</time>
      </trkpt>
      <trkpt lat="43.03279" lon="1.03224">
        <ele>341.6</ele>
        <time>2022-09-04T08:18:47Z</time>
      </trkpt>
      <trkpt lat="43.03271" lon="1.03168">
        <ele>342</ele>
        <time>2022-09-04T08:18:55Z</time>
      </trkpt>
      <trkpt lat="43.03265" lon="1.03121">
        <ele>341.8</ele>
        <time>2022-09-04T08:19:02Z</time>
      </trkpt>
      <trkpt lat="43.03259" lon="1.03075">
        <ele>341.8</ele>
        <time>2022-09-04T08:19:10Z</time>
      </trkpt>
      <trkpt lat="43.03257" lon="1.03051">
        <ele>342.6</ele>
        <time>2022-09-04T08:19:15Z</time>
      </trkpt>
      <trkpt lat="43.03256" lon="1.03038">
        <ele>343</ele>
        <time>2022-09-04T08:19:18Z</time>
      </trkpt>
      <trkpt lat="43.03256" lon="1.03006">
        <ele>342.8</ele>
        <time>2022-09-04T08:19:26Z</time>
      </trkpt>
      <trkpt lat="43.03256" lon="1.02989">
        <ele>342.6</ele>
        <time>2022-09-04T08:19:31Z</time>
      </trkpt>
      <trkpt lat="43.03248" lon="1.02985">
        <ele>342.8</ele>
        <time>2022-09-04T08:19:35Z</time>
      </trkpt>
      <trkpt lat="43.03249" lon="1.02972">
        <ele>342.6</ele>
        <time>2022-09-04T08:19:39Z</time>
      </trkpt>
      <trkpt lat="43.03248" lon="1.02941">
        <ele>342.8</ele>
        <time>2022-09-04T08:19:45Z</time>
      </trkpt>
      <trkpt lat="43.03243" lon="1.02884">
        <ele>342.8</ele>
        <time>2022-09-04T08:19:55Z</time>
      </trkpt>
      <trkpt lat="43.03238" lon="1.02862">
        <ele>342.8</ele>
        <time>2022-09-04T08:19:59Z</time>
      </trkpt>
      <trkpt lat="43.03233" lon="1.02853">
        <ele>343</ele>
        <time>2022-09-04T08:20:01Z</time>
      </trkpt>
      <trkpt lat="43.03217" lon="1.02819">
        <ele>343</ele>
        <time>2022-09-04T08:20:09Z</time>
      </trkpt>
      <trkpt lat="43.03219" lon="1.02807">
        <ele>342.6</ele>
        <time>2022-09-04T08:20:13Z</time>
      </trkpt>
      <trkpt lat="43.03227" lon="1.02793">
        <ele>342.8</ele>
        <time>2022-09-04T08:20:18Z</time>
      </trkpt>
      <trkpt lat="43.03243" lon="1.0279">
        <ele>342.8</ele>
        <time>2022-09-04T08:20:23Z</time>
      </trkpt>
      <trkpt lat="43.0326" lon="1.02775">
        <ele>342.6</ele>
        <time>2022-09-04T08:20:30Z</time>
      </trkpt>
      <trkpt lat="43.03258" lon="1.02754">
        <ele>342.6</ele>
        <time>2022-09-04T08:20:34Z</time>
      </trkpt>
      <trkpt lat="43.03254" lon="1.02721">
        <ele>342.6</ele>
        <time>2022-09-04T08:20:40Z</time>
      </trkpt>
      <trkpt lat="43.03253" lon="1.02715">
        <ele>342.6</ele>
        <time>2022-09-04T08:20:41Z</time>
      </trkpt>
      <trkpt lat="43.03246" lon="1.02656">
        <ele>342.6</ele>
        <time>2022-09-04T08:20:51Z</time>
      </trkpt>
      <trkpt lat="43.03242" lon="1.02619">
        <ele>342.4</ele>
        <time>2022-09-04T08:20:58Z</time>
      </trkpt>
      <trkpt lat="43.03236" lon="1.02562">
        <ele>342.2</ele>
        <time>2022-09-04T08:21:08Z</time>
      </trkpt>
      <trkpt lat="43.03232" lon="1.02524">
        <ele>342.4</ele>
        <time>2022-09-04T08:21:15Z</time>
      </trkpt>
      <trkpt lat="43.03226" lon="1.02472">
        <ele>342.4</ele>
        <time>2022-09-04T08:21:23Z</time>
      </trkpt>
      <trkpt lat="43.03217" lon="1.02398">
        <ele>342.4</ele>
        <time>2022-09-04T08:21:34Z</time>
      </trkpt>
      <trkpt lat="43.03216" lon="1.02392">
        <ele>342.2</ele>
        <time>2022-09-04T08:21:35Z</time>
      </trkpt>
      <trkpt lat="43.03209" lon="1.02328">
        <ele>342</ele>
        <time>2022-09-04T08:21:45Z</time>
      </trkpt>
      <trkpt lat="43.03208" lon="1.02312">
        <ele>341.6</ele>
        <time>2022-09-04T08:21:48Z</time>
      </trkpt>
      <trkpt lat="43.03205" lon="1.02289">
        <ele>341.8</ele>
        <time>2022-09-04T08:21:52Z</time>
      </trkpt>
      <trkpt lat="43.032" lon="1.02241">
        <ele>341.2</ele>
        <time>2022-09-04T08:22:00Z</time>
      </trkpt>
      <trkpt lat="43.03194" lon="1.02195">
        <ele>341.4</ele>
        <time>2022-09-04T08:22:08Z</time>
      </trkpt>
      <trkpt lat="43.0319" lon="1.02153">
        <ele>341.2</ele>
        <time>2022-09-04T08:22:17Z</time>
      </trkpt>
      <trkpt lat="43.03185" lon="1.02113">
        <ele>340.8</ele>
        <time>2022-09-04T08:22:26Z</time>
      </trkpt>
      <trkpt lat="43.03182" lon="1.02091">
        <ele>340.6</ele>
        <time>2022-09-04T08:22:31Z</time>
      </trkpt>
      <trkpt lat="43.03182" lon="1.0208">
        <ele>340.4</ele>
        <time>2022-09-04T08:22:33Z</time>
      </trkpt>
      <trkpt lat="43.03181" lon="1.02073">
        <ele>340.4</ele>
        <time>2022-09-04T08:22:34Z</time>
      </trkpt>
      <trkpt lat="43.03179" lon="1.02055">
        <ele>339.2</ele>
        <time>2022-09-04T08:22:37Z</time>
      </trkpt>
      <trkpt lat="43.03178" lon="1.02046">
        <ele>338.8</ele>
        <time>2022-09-04T08:22:39Z</time>
      </trkpt>
      <trkpt lat="43.03176" lon="1.02027">
        <ele>338.4</ele>
        <time>2022-09-04T08:22:44Z</time>
      </trkpt>
      <trkpt lat="43.03176" lon="1.02022">
        <ele>338.2</ele>
        <time>2022-09-04T08:22:45Z</time>
      </trkpt>
      <trkpt lat="43.03171" lon="1.01998">
        <ele>338.2</ele>
        <time>2022-09-04T08:22:52Z</time>
      </trkpt>
      <trkpt lat="43.03171" lon="1.0199">
        <ele>338</ele>
        <time>2022-09-04T08:27:55Z</time>
      </trkpt>
      <trkpt lat="43.0317" lon="1.01981">
        <ele>337.8</ele>
        <time>2022-09-04T08:27:58Z</time>
      </trkpt>
      <trkpt lat="43.0317" lon="1.01978">
        <ele>338</ele>
        <time>2022-09-04T08:27:59Z</time>
      </trkpt>
      <trkpt lat="43.03168" lon="1.01955">
        <ele>338.2</ele>
        <time>2022-09-04T08:28:06Z</time>
      </trkpt>
      <trkpt lat="43.03164" lon="1.01922">
        <ele>338.8</ele>
        <time>2022-09-04T08:28:15Z</time>
      </trkpt>
      <trkpt lat="43.0316" lon="1.01887">
        <ele>339</ele>
        <time>2022-09-04T08:28:23Z</time>
      </trkpt>
      <trkpt lat="43.03158" lon="1.01837">
        <ele>338.8</ele>
        <time>2022-09-04T08:28:32Z</time>
      </trkpt>
      <trkpt lat="43.03157" lon="1.01778">
        <ele>338.6</ele>
        <time>2022-09-04T08:28:42Z</time>
      </trkpt>
      <trkpt lat="43.03158" lon="1.0173">
        <ele>338.4</ele>
        <time>2022-09-04T08:28:50Z</time>
      </trkpt>
      <trkpt lat="43.03164" lon="1.01657">
        <ele>338.2</ele>
        <time>2022-09-04T08:29:02Z</time>
      </trkpt>
      <trkpt lat="43.03168" lon="1.01618">
        <ele>338</ele>
        <time>2022-09-04T08:29:10Z</time>
      </trkpt>
      <trkpt lat="43.03166" lon="1.01617">
        <ele>337.8</ele>
        <time>2022-09-04T08:29:14Z</time>
      </trkpt>
      <trkpt lat="43.03165" lon="1.01617">
        <ele>337.8</ele>
        <time>2022-09-04T08:29:15Z</time>
      </trkpt>
      <trkpt lat="43.03152" lon="1.01616">
        <ele>337.6</ele>
        <time>2022-09-04T08:29:20Z</time>
      </trkpt>
      <trkpt lat="43.03133" lon="1.01613">
        <ele>338</ele>
        <time>2022-09-04T08:29:27Z</time>
      </trkpt>
      <trkpt lat="43.03118" lon="1.01611">
        <ele>338</ele>
        <time>2022-09-04T08:29:34Z</time>
      </trkpt>
      <trkpt lat="43.03109" lon="1.01612">
        <ele>338.2</ele>
        <time>2022-09-04T08:29:39Z</time>
      </trkpt>
      <trkpt lat="43.03105" lon="1.016">
        <ele>338</ele>
        <time>2022-09-04T08:30:32Z</time>
      </trkpt>
      <trkpt lat="43.03108" lon="1.01586">
        <ele>338.2</ele>
        <time>2022-09-04T08:30:36Z</time>
      </trkpt>
      <trkpt lat="43.03118" lon="1.01557">
        <ele>338.2</ele>
        <time>2022-09-04T08:30:42Z</time>
      </trkpt>
      <trkpt lat="43.03135" lon="1.01506">
        <ele>338.2</ele>
        <time>2022-09-04T08:30:51Z</time>
      </trkpt>
      <trkpt lat="43.03146" lon="1.01458">
        <ele>338</ele>
        <time>2022-09-04T08:30:59Z</time>
      </trkpt>
      <trkpt lat="43.03153" lon="1.01398">
        <ele>337.8</ele>
        <time>2022-09-04T08:31:08Z</time>
      </trkpt>
      <trkpt lat="43.03163" lon="1.0132">
        <ele>337.6</ele>
        <time>2022-09-04T08:31:19Z</time>
      </trkpt>
      <trkpt lat="43.03165" lon="1.01306">
        <ele>337.6</ele>
        <time>2022-09-04T08:31:21Z</time>
      </trkpt>
      <trkpt lat="43.03176" lon="1.0123">
        <ele>337.6</ele>
        <time>2022-09-04T08:31:32Z</time>
      </trkpt>
      <trkpt lat="43.03177" lon="1.01223">
        <ele>337.8</ele>
        <time>2022-09-04T08:31:33Z</time>
      </trkpt>
      <trkpt lat="43.03188" lon="1.01157">
        <ele>337.8</ele>
        <time>2022-09-04T08:31:43Z</time>
      </trkpt>
      <trkpt lat="43.03196" lon="1.01102">
        <ele>338</ele>
        <time>2022-09-04T08:31:51Z</time>
      </trkpt>
      <trkpt lat="43.03203" lon="1.0104">
        <ele>338</ele>
        <time>2022-09-04T08:32:00Z</time>
      </trkpt>
      <trkpt lat="43.03211" lon="1.00978">
        <ele>337.8</ele>
        <time>2022-09-04T08:32:09Z</time>
      </trkpt>
      <trkpt lat="43.03215" lon="1.00941">
        <ele>337.2</ele>
        <time>2022-09-04T08:32:14Z</time>
      </trkpt>
      <trkpt lat="43.03219" lon="1.00911">
        <ele>336.8</ele>
        <time>2022-09-04T08:32:18Z</time>
      </trkpt>
      <trkpt lat="43.03231" lon="1.00832">
        <ele>336.8</ele>
        <time>2022-09-04T08:32:28Z</time>
      </trkpt>
      <trkpt lat="43.0324" lon="1.00768">
        <ele>336.2</ele>
        <time>2022-09-04T08:32:36Z</time>
      </trkpt>
      <trkpt lat="43.03244" lon="1.00737">
        <ele>336</ele>
        <time>2022-09-04T08:32:40Z</time>
      </trkpt>
      <trkpt lat="43.03255" lon="1.00659">
        <ele>335.8</ele>
        <time>2022-09-04T08:32:50Z</time>
      </trkpt>
      <trkpt lat="43.03265" lon="1.00583">
        <ele>335.4</ele>
        <time>2022-09-04T08:33:00Z</time>
      </trkpt>
      <trkpt lat="43.03266" lon="1.00575">
        <ele>335.4</ele>
        <time>2022-09-04T08:33:01Z</time>
      </trkpt>
      <trkpt lat="43.0327" lon="1.00553">
        <ele>335.2</ele>
        <time>2022-09-04T08:33:04Z</time>
      </trkpt>
      <trkpt lat="43.03276" lon="1.005">
        <ele>334.8</ele>
        <time>2022-09-04T08:33:11Z</time>
      </trkpt>
      <trkpt lat="43.03281" lon="1.00442">
        <ele>335.4</ele>
        <time>2022-09-04T08:33:19Z</time>
      </trkpt>
      <trkpt lat="43.03277" lon="1.00393">
        <ele>335.2</ele>
        <time>2022-09-04T08:33:26Z</time>
      </trkpt>
      <trkpt lat="43.03267" lon="1.00347">
        <ele>335.4</ele>
        <time>2022-09-04T08:33:33Z</time>
      </trkpt>
      <trkpt lat="43.03264" lon="1.0034">
        <ele>335.4</ele>
        <time>2022-09-04T08:33:34Z</time>
      </trkpt>
      <trkpt lat="43.03249" lon="1.00304">
        <ele>335.6</ele>
        <time>2022-09-04T08:33:40Z</time>
      </trkpt>
      <trkpt lat="43.03233" lon="1.00271">
        <ele>336</ele>
        <time>2022-09-04T08:33:46Z</time>
      </trkpt>
      <trkpt lat="43.0322" lon="1.00241">
        <ele>335.8</ele>
        <time>2022-09-04T08:33:51Z</time>
      </trkpt>
      <trkpt lat="43.03217" lon="1.00229">
        <ele>336</ele>
        <time>2022-09-04T08:33:53Z</time>
      </trkpt>
      <trkpt lat="43.03214" lon="1.00217">
        <ele>336.2</ele>
        <time>2022-09-04T08:33:55Z</time>
      </trkpt>
      <trkpt lat="43.03204" lon="1.00184">
        <ele>336.6</ele>
        <time>2022-09-04T08:34:01Z</time>
      </trkpt>
      <trkpt lat="43.03202" lon="1.00164">
        <ele>337.2</ele>
        <time>2022-09-04T08:34:05Z</time>
      </trkpt>
      <trkpt lat="43.03202" lon="1.00154">
        <ele>337.2</ele>
        <time>2022-09-04T08:34:07Z</time>
      </trkpt>
      <trkpt lat="43.03202" lon="1.00145">
        <ele>337.4</ele>
        <time>2022-09-04T08:34:09Z</time>
      </trkpt>
      <trkpt lat="43.032" lon="1.00137">
        <ele>337.6</ele>
        <time>2022-09-04T08:34:11Z</time>
      </trkpt>
      <trkpt lat="43.03191" lon="1.00129">
        <ele>338</ele>
        <time>2022-09-04T08:34:15Z</time>
      </trkpt>
      <trkpt lat="43.03187" lon="1.00127">
        <ele>338.4</ele>
        <time>2022-09-04T08:34:17Z</time>
      </trkpt>
      <trkpt lat="43.03178" lon="1.00118">
        <ele>338.8</ele>
        <time>2022-09-04T08:34:22Z</time>
      </trkpt>
      <trkpt lat="43.0317" lon="1.00111">
        <ele>339.4</ele>
        <time>2022-09-04T08:34:27Z</time>
      </trkpt>
      <trkpt lat="43.03165" lon="1.00107">
        <ele>339.8</ele>
        <time>2022-09-04T08:34:30Z</time>
      </trkpt>
      <trkpt lat="43.03157" lon="1.001">
        <ele>340.6</ele>
        <time>2022-09-04T08:34:35Z</time>
      </trkpt>
      <trkpt lat="43.03153" lon="1.00097">
        <ele>341</ele>
        <time>2022-09-04T08:34:37Z</time>
      </trkpt>
      <trkpt lat="43.03147" lon="1.00094">
        <ele>341.6</ele>
        <time>2022-09-04T08:34:41Z</time>
      </trkpt>
      <trkpt lat="43.0314" lon="1.00091">
        <ele>342.2</ele>
        <time>2022-09-04T08:34:45Z</time>
      </trkpt>
      <trkpt lat="43.03133" lon="1.00088">
        <ele>342.8</ele>
        <time>2022-09-04T08:34:49Z</time>
      </trkpt>
      <trkpt lat="43.03125" lon="1.00087">
        <ele>343.6</ele>
        <time>2022-09-04T08:34:54Z</time>
      </trkpt>
      <trkpt lat="43.03123" lon="1.00086">
        <ele>343.8</ele>
        <time>2022-09-04T08:34:55Z</time>
      </trkpt>
      <trkpt lat="43.03111" lon="1.00084">
        <ele>344.8</ele>
        <time>2022-09-04T08:35:02Z</time>
      </trkpt>
      <trkpt lat="43.03109" lon="1.00083">
        <ele>345</ele>
        <time>2022-09-04T08:35:03Z</time>
      </trkpt>
      <trkpt lat="43.03097" lon="1.00081">
        <ele>345.8</ele>
        <time>2022-09-04T08:35:09Z</time>
      </trkpt>
      <trkpt lat="43.03093" lon="1.0008">
        <ele>346.2</ele>
        <time>2022-09-04T08:35:12Z</time>
      </trkpt>
      <trkpt lat="43.03081" lon="1.00082">
        <ele>346.8</ele>
        <time>2022-09-04T08:35:18Z</time>
      </trkpt>
      <trkpt lat="43.03077" lon="1.00084">
        <ele>347</ele>
        <time>2022-09-04T08:35:20Z</time>
      </trkpt>
      <trkpt lat="43.03069" lon="1.00089">
        <ele>347.8</ele>
        <time>2022-09-04T08:35:25Z</time>
      </trkpt>
      <trkpt lat="43.03064" lon="1.00093">
        <ele>348.4</ele>
        <time>2022-09-04T08:35:28Z</time>
      </trkpt>
      <trkpt lat="43.03059" lon="1.00103">
        <ele>349</ele>
        <time>2022-09-04T08:35:33Z</time>
      </trkpt>
      <trkpt lat="43.03057" lon="1.00107">
        <ele>349.4</ele>
        <time>2022-09-04T08:35:35Z</time>
      </trkpt>
      <trkpt lat="43.03051" lon="1.0012">
        <ele>350</ele>
        <time>2022-09-04T08:35:41Z</time>
      </trkpt>
      <trkpt lat="43.03041" lon="1.00134">
        <ele>351.2</ele>
        <time>2022-09-04T08:35:49Z</time>
      </trkpt>
      <trkpt lat="43.03037" lon="1.00136">
        <ele>351.2</ele>
        <time>2022-09-04T08:35:51Z</time>
      </trkpt>
      <trkpt lat="43.03029" lon="1.0014">
        <ele>352</ele>
        <time>2022-09-04T08:35:56Z</time>
      </trkpt>
      <trkpt lat="43.03025" lon="1.0014">
        <ele>352.2</ele>
        <time>2022-09-04T08:35:58Z</time>
      </trkpt>
      <trkpt lat="43.03023" lon="1.00141">
        <ele>352.4</ele>
        <time>2022-09-04T08:35:59Z</time>
      </trkpt>
      <trkpt lat="43.03011" lon="1.00141">
        <ele>353.2</ele>
        <time>2022-09-04T08:36:06Z</time>
      </trkpt>
      <trkpt lat="43.02998" lon="1.0014">
        <ele>354</ele>
        <time>2022-09-04T08:36:13Z</time>
      </trkpt>
      <trkpt lat="43.02995" lon="1.00138">
        <ele>354.2</ele>
        <time>2022-09-04T08:36:15Z</time>
      </trkpt>
      <trkpt lat="43.02986" lon="1.00132">
        <ele>355</ele>
        <time>2022-09-04T08:36:20Z</time>
      </trkpt>
      <trkpt lat="43.02982" lon="1.00128">
        <ele>355.4</ele>
        <time>2022-09-04T08:36:23Z</time>
      </trkpt>
      <trkpt lat="43.0298" lon="1.00123">
        <ele>355.6</ele>
        <time>2022-09-04T08:36:26Z</time>
      </trkpt>
      <trkpt lat="43.02979" lon="1.00121">
        <ele>355.8</ele>
        <time>2022-09-04T08:36:27Z</time>
      </trkpt>
      <trkpt lat="43.02977" lon="1.00112">
        <ele>356.4</ele>
        <time>2022-09-04T08:36:31Z</time>
      </trkpt>
      <trkpt lat="43.02975" lon="1.00096">
        <ele>357.4</ele>
        <time>2022-09-04T08:36:37Z</time>
      </trkpt>
      <trkpt lat="43.02975" lon="1.00094">
        <ele>357.4</ele>
        <time>2022-09-04T08:36:38Z</time>
      </trkpt>
      <trkpt lat="43.02976" lon="1.00078">
        <ele>357.8</ele>
        <time>2022-09-04T08:36:44Z</time>
      </trkpt>
      <trkpt lat="43.02977" lon="1.00058">
        <ele>358.6</ele>
        <time>2022-09-04T08:36:51Z</time>
      </trkpt>
      <trkpt lat="43.02978" lon="1.00055">
        <ele>358.6</ele>
        <time>2022-09-04T08:36:52Z</time>
      </trkpt>
      <trkpt lat="43.0298" lon="1.00029">
        <ele>359.8</ele>
        <time>2022-09-04T08:37:01Z</time>
      </trkpt>
      <trkpt lat="43.02982" lon="1.00005">
        <ele>360.6</ele>
        <time>2022-09-04T08:37:09Z</time>
      </trkpt>
      <trkpt lat="43.02983" lon="1">
        <ele>360.8</ele>
        <time>2022-09-04T08:37:11Z</time>
      </trkpt>
      <trkpt lat="43.02985" lon="0.99975">
        <ele>361.6</ele>
        <time>2022-09-04T08:37:19Z</time>
      </trkpt>
      <trkpt lat="43.02986" lon="0.99972">
        <ele>361.8</ele>
        <time>2022-09-04T08:37:20Z</time>
      </trkpt>
      <trkpt lat="43.02988" lon="0.99951">
        <ele>362.6</ele>
        <time>2022-09-04T08:37:27Z</time>
      </trkpt>
      <trkpt lat="43.02988" lon="0.99942">
        <ele>363</ele>
        <time>2022-09-04T08:37:30Z</time>
      </trkpt>
      <trkpt lat="43.0299" lon="0.99926">
        <ele>363.6</ele>
        <time>2022-09-04T08:37:35Z</time>
      </trkpt>
      <trkpt lat="43.02991" lon="0.9991">
        <ele>364</ele>
        <time>2022-09-04T08:37:40Z</time>
      </trkpt>
      <trkpt lat="43.02993" lon="0.99895">
        <ele>364.8</ele>
        <time>2022-09-04T08:37:45Z</time>
      </trkpt>
      <trkpt lat="43.02994" lon="0.99883">
        <ele>365.2</ele>
        <time>2022-09-04T08:37:49Z</time>
      </trkpt>
      <trkpt lat="43.02995" lon="0.99871">
        <ele>365.6</ele>
        <time>2022-09-04T08:37:53Z</time>
      </trkpt>
      <trkpt lat="43.02997" lon="0.99857">
        <ele>366.2</ele>
        <time>2022-09-04T08:37:58Z</time>
      </trkpt>
      <trkpt lat="43.02999" lon="0.99844">
        <ele>366.8</ele>
        <time>2022-09-04T08:38:02Z</time>
      </trkpt>
      <trkpt lat="43.03001" lon="0.99829">
        <ele>367.4</ele>
        <time>2022-09-04T08:38:07Z</time>
      </trkpt>
      <trkpt lat="43.03005" lon="0.99817">
        <ele>367.6</ele>
        <time>2022-09-04T08:38:11Z</time>
      </trkpt>
      <trkpt lat="43.03009" lon="0.99807">
        <ele>368.4</ele>
        <time>2022-09-04T08:38:15Z</time>
      </trkpt>
      <trkpt lat="43.03017" lon="0.99795">
        <ele>368.8</ele>
        <time>2022-09-04T08:38:20Z</time>
      </trkpt>
      <trkpt lat="43.03025" lon="0.99786">
        <ele>369.6</ele>
        <time>2022-09-04T08:38:25Z</time>
      </trkpt>
      <trkpt lat="43.03028" lon="0.99782">
        <ele>370</ele>
        <time>2022-09-04T08:38:27Z</time>
      </trkpt>
      <trkpt lat="43.03035" lon="0.99775">
        <ele>370.6</ele>
        <time>2022-09-04T08:38:31Z</time>
      </trkpt>
      <trkpt lat="43.03046" lon="0.99765">
        <ele>371.2</ele>
        <time>2022-09-04T08:38:37Z</time>
      </trkpt>
      <trkpt lat="43.03054" lon="0.99758">
        <ele>371.6</ele>
        <time>2022-09-04T08:38:41Z</time>
      </trkpt>
      <trkpt lat="43.03066" lon="0.99748">
        <ele>372.4</ele>
        <time>2022-09-04T08:38:47Z</time>
      </trkpt>
      <trkpt lat="43.03072" lon="0.99742">
        <ele>372.6</ele>
        <time>2022-09-04T08:38:50Z</time>
      </trkpt>
      <trkpt lat="43.03084" lon="0.99729">
        <ele>373.4</ele>
        <time>2022-09-04T08:38:57Z</time>
      </trkpt>
      <trkpt lat="43.0309" lon="0.99724">
        <ele>373.8</ele>
        <time>2022-09-04T08:39:00Z</time>
      </trkpt>
      <trkpt lat="43.03099" lon="0.99711">
        <ele>374.2</ele>
        <time>2022-09-04T08:39:06Z</time>
      </trkpt>
      <trkpt lat="43.03101" lon="0.99691">
        <ele>374.6</ele>
        <time>2022-09-04T08:39:13Z</time>
      </trkpt>
      <trkpt lat="43.03098" lon="0.99658">
        <ele>374.6</ele>
        <time>2022-09-04T08:39:23Z</time>
      </trkpt>
      <trkpt lat="43.03096" lon="0.99637">
        <ele>374.8</ele>
        <time>2022-09-04T08:39:29Z</time>
      </trkpt>
      <trkpt lat="43.03095" lon="0.9963">
        <ele>374.8</ele>
        <time>2022-09-04T08:39:31Z</time>
      </trkpt>
      <trkpt lat="43.03093" lon="0.99598">
        <ele>375.2</ele>
        <time>2022-09-04T08:39:39Z</time>
      </trkpt>
      <trkpt lat="43.03087" lon="0.99566">
        <ele>375.6</ele>
        <time>2022-09-04T08:39:48Z</time>
      </trkpt>
      <trkpt lat="43.03084" lon="0.99557">
        <ele>375.8</ele>
        <time>2022-09-04T08:39:51Z</time>
      </trkpt>
      <trkpt lat="43.03078" lon="0.99538">
        <ele>376.4</ele>
        <time>2022-09-04T08:39:57Z</time>
      </trkpt>
      <trkpt lat="43.03076" lon="0.99531">
        <ele>376.8</ele>
        <time>2022-09-04T08:40:00Z</time>
      </trkpt>
      <trkpt lat="43.03073" lon="0.99518">
        <ele>377.6</ele>
        <time>2022-09-04T08:40:05Z</time>
      </trkpt>
      <trkpt lat="43.03069" lon="0.99508">
        <ele>378</ele>
        <time>2022-09-04T08:40:09Z</time>
      </trkpt>
      <trkpt lat="43.03066" lon="0.99494">
        <ele>378.6</ele>
        <time>2022-09-04T08:40:14Z</time>
      </trkpt>
      <trkpt lat="43.03063" lon="0.99482">
        <ele>379</ele>
        <time>2022-09-04T08:40:18Z</time>
      </trkpt>
      <trkpt lat="43.03059" lon="0.99463">
        <ele>379.6</ele>
        <time>2022-09-04T08:40:24Z</time>
      </trkpt>
      <trkpt lat="43.03056" lon="0.99452">
        <ele>380</ele>
        <time>2022-09-04T08:40:28Z</time>
      </trkpt>
      <trkpt lat="43.03053" lon="0.99434">
        <ele>380.8</ele>
        <time>2022-09-04T08:40:34Z</time>
      </trkpt>
      <trkpt lat="43.0305" lon="0.99425">
        <ele>381.4</ele>
        <time>2022-09-04T08:40:37Z</time>
      </trkpt>
      <trkpt lat="43.03047" lon="0.9941">
        <ele>381.8</ele>
        <time>2022-09-04T08:40:42Z</time>
      </trkpt>
      <trkpt lat="43.03044" lon="0.99396">
        <ele>382.6</ele>
        <time>2022-09-04T08:40:47Z</time>
      </trkpt>
      <trkpt lat="43.03042" lon="0.99388">
        <ele>382.8</ele>
        <time>2022-09-04T08:40:50Z</time>
      </trkpt>
      <trkpt lat="43.03039" lon="0.99373">
        <ele>383.6</ele>
        <time>2022-09-04T08:40:55Z</time>
      </trkpt>
      <trkpt lat="43.03037" lon="0.99365">
        <ele>384</ele>
        <time>2022-09-04T08:40:58Z</time>
      </trkpt>
      <trkpt lat="43.03034" lon="0.9935">
        <ele>384.6</ele>
        <time>2022-09-04T08:41:03Z</time>
      </trkpt>
      <trkpt lat="43.03031" lon="0.99338">
        <ele>385.2</ele>
        <time>2022-09-04T08:41:07Z</time>
      </trkpt>
      <trkpt lat="43.03029" lon="0.99326">
        <ele>385.8</ele>
        <time>2022-09-04T08:41:11Z</time>
      </trkpt>
      <trkpt lat="43.03026" lon="0.99315">
        <ele>386</ele>
        <time>2022-09-04T08:41:15Z</time>
      </trkpt>
      <trkpt lat="43.03022" lon="0.99294">
        <ele>386.8</ele>
        <time>2022-09-04T08:41:22Z</time>
      </trkpt>
      <trkpt lat="43.03019" lon="0.99285">
        <ele>387.2</ele>
        <time>2022-09-04T08:41:25Z</time>
      </trkpt>
      <trkpt lat="43.03016" lon="0.9927">
        <ele>388</ele>
        <time>2022-09-04T08:41:30Z</time>
      </trkpt>
      <trkpt lat="43.03012" lon="0.99257">
        <ele>388.4</ele>
        <time>2022-09-04T08:41:35Z</time>
      </trkpt>
      <trkpt lat="43.0301" lon="0.99244">
        <ele>389</ele>
        <time>2022-09-04T08:41:40Z</time>
      </trkpt>
      <trkpt lat="43.03008" lon="0.99236">
        <ele>389.4</ele>
        <time>2022-09-04T08:41:43Z</time>
      </trkpt>
      <trkpt lat="43.03004" lon="0.99219">
        <ele>390.2</ele>
        <time>2022-09-04T08:41:49Z</time>
      </trkpt>
      <trkpt lat="43.03002" lon="0.99211">
        <ele>390.4</ele>
        <time>2022-09-04T08:41:52Z</time>
      </trkpt>
      <trkpt lat="43.02997" lon="0.99192">
        <ele>391.2</ele>
        <time>2022-09-04T08:41:59Z</time>
      </trkpt>
      <trkpt lat="43.02996" lon="0.99186">
        <ele>391.4</ele>
        <time>2022-09-04T08:42:01Z</time>
      </trkpt>
      <trkpt lat="43.02991" lon="0.99167">
        <ele>392.4</ele>
        <time>2022-09-04T08:42:08Z</time>
      </trkpt>
      <trkpt lat="43.02989" lon="0.9916">
        <ele>392.8</ele>
        <time>2022-09-04T08:42:11Z</time>
      </trkpt>
      <trkpt lat="43.02987" lon="0.99152">
        <ele>393.4</ele>
        <time>2022-09-04T08:42:14Z</time>
      </trkpt>
      <trkpt lat="43.02983" lon="0.99138">
        <ele>394.4</ele>
        <time>2022-09-04T08:42:20Z</time>
      </trkpt>
      <trkpt lat="43.02982" lon="0.99135">
        <ele>394.6</ele>
        <time>2022-09-04T08:42:21Z</time>
      </trkpt>
      <trkpt lat="43.02979" lon="0.99121">
        <ele>395.4</ele>
        <time>2022-09-04T08:42:27Z</time>
      </trkpt>
      <trkpt lat="43.02977" lon="0.99113">
        <ele>395.6</ele>
        <time>2022-09-04T08:42:30Z</time>
      </trkpt>
      <trkpt lat="43.02974" lon="0.99101">
        <ele>396.4</ele>
        <time>2022-09-04T08:42:35Z</time>
      </trkpt>
      <trkpt lat="43.02973" lon="0.99096">
        <ele>396.8</ele>
        <time>2022-09-04T08:42:37Z</time>
      </trkpt>
      <trkpt lat="43.0297" lon="0.99086">
        <ele>397.4</ele>
        <time>2022-09-04T08:42:41Z</time>
      </trkpt>
      <trkpt lat="43.02967" lon="0.99076">
        <ele>398</ele>
        <time>2022-09-04T08:42:45Z</time>
      </trkpt>
      <trkpt lat="43.02965" lon="0.99066">
        <ele>398.4</ele>
        <time>2022-09-04T08:42:49Z</time>
      </trkpt>
      <trkpt lat="43.02962" lon="0.99055">
        <ele>399</ele>
        <time>2022-09-04T08:42:53Z</time>
      </trkpt>
      <trkpt lat="43.02959" lon="0.99041">
        <ele>400</ele>
        <time>2022-09-04T08:42:59Z</time>
      </trkpt>
      <trkpt lat="43.02958" lon="0.99038">
        <ele>400.2</ele>
        <time>2022-09-04T08:43:00Z</time>
      </trkpt>
      <trkpt lat="43.02954" lon="0.99022">
        <ele>401.4</ele>
        <time>2022-09-04T08:43:07Z</time>
      </trkpt>
      <trkpt lat="43.02953" lon="0.9902">
        <ele>401.4</ele>
        <time>2022-09-04T08:43:08Z</time>
      </trkpt>
      <trkpt lat="43.02952" lon="0.99018">
        <ele>401.6</ele>
        <time>2022-09-04T08:43:09Z</time>
      </trkpt>
      <trkpt lat="43.02952" lon="0.99012">
        <ele>402</ele>
        <time>2022-09-04T08:43:12Z</time>
      </trkpt>
      <trkpt lat="43.02949" lon="0.99004">
        <ele>402.4</ele>
        <time>2022-09-04T08:43:15Z</time>
      </trkpt>
      <trkpt lat="43.02947" lon="0.98995">
        <ele>403</ele>
        <time>2022-09-04T08:43:19Z</time>
      </trkpt>
      <trkpt lat="43.02947" lon="0.98992">
        <ele>403</ele>
        <time>2022-09-04T08:43:20Z</time>
      </trkpt>
      <trkpt lat="43.02945" lon="0.98988">
        <ele>403.4</ele>
        <time>2022-09-04T08:43:22Z</time>
      </trkpt>
      <trkpt lat="43.02943" lon="0.98981">
        <ele>404.2</ele>
        <time>2022-09-04T08:43:25Z</time>
      </trkpt>
      <trkpt lat="43.02943" lon="0.98976">
        <ele>404.4</ele>
        <time>2022-09-04T08:43:27Z</time>
      </trkpt>
      <trkpt lat="43.02942" lon="0.98971">
        <ele>404.8</ele>
        <time>2022-09-04T08:43:29Z</time>
      </trkpt>
      <trkpt lat="43.02938" lon="0.98957">
        <ele>405.6</ele>
        <time>2022-09-04T08:43:35Z</time>
      </trkpt>
      <trkpt lat="43.02938" lon="0.98953">
        <ele>406</ele>
        <time>2022-09-04T08:43:37Z</time>
      </trkpt>
      <trkpt lat="43.02937" lon="0.9894">
        <ele>406.8</ele>
        <time>2022-09-04T08:43:43Z</time>
      </trkpt>
      <trkpt lat="43.02935" lon="0.98933">
        <ele>407.2</ele>
        <time>2022-09-04T08:43:46Z</time>
      </trkpt>
      <trkpt lat="43.02933" lon="0.98925">
        <ele>407.8</ele>
        <time>2022-09-04T08:43:50Z</time>
      </trkpt>
      <trkpt lat="43.02933" lon="0.98923">
        <ele>408</ele>
        <time>2022-09-04T08:43:51Z</time>
      </trkpt>
      <trkpt lat="43.02932" lon="0.98921">
        <ele>408</ele>
        <time>2022-09-04T08:43:52Z</time>
      </trkpt>
      <trkpt lat="43.02928" lon="0.98911">
        <ele>408.8</ele>
        <time>2022-09-04T08:43:57Z</time>
      </trkpt>
      <trkpt lat="43.02928" lon="0.98909">
        <ele>409</ele>
        <time>2022-09-04T08:43:58Z</time>
      </trkpt>
      <trkpt lat="43.02923" lon="0.98895">
        <ele>409.8</ele>
        <time>2022-09-04T08:44:05Z</time>
      </trkpt>
      <trkpt lat="43.02922" lon="0.98893">
        <ele>410</ele>
        <time>2022-09-04T08:44:06Z</time>
      </trkpt>
      <trkpt lat="43.02915" lon="0.98884">
        <ele>410.8</ele>
        <time>2022-09-04T08:44:11Z</time>
      </trkpt>
      <trkpt lat="43.02913" lon="0.98881">
        <ele>411.2</ele>
        <time>2022-09-04T08:44:13Z</time>
      </trkpt>
      <trkpt lat="43.02908" lon="0.98871">
        <ele>412</ele>
        <time>2022-09-04T08:44:18Z</time>
      </trkpt>
      <trkpt lat="43.02908" lon="0.98868">
        <ele>412.2</ele>
        <time>2022-09-04T08:44:19Z</time>
      </trkpt>
      <trkpt lat="43.02907" lon="0.98866">
        <ele>412.2</ele>
        <time>2022-09-04T08:44:20Z</time>
      </trkpt>
      <trkpt lat="43.02909" lon="0.98859">
        <ele>412.8</ele>
        <time>2022-09-04T08:44:23Z</time>
      </trkpt>
      <trkpt lat="43.02914" lon="0.98857">
        <ele>413.2</ele>
        <time>2022-09-04T08:44:27Z</time>
      </trkpt>
      <trkpt lat="43.02916" lon="0.98858">
        <ele>413.4</ele>
        <time>2022-09-04T08:44:28Z</time>
      </trkpt>
      <trkpt lat="43.02923" lon="0.98867">
        <ele>414</ele>
        <time>2022-09-04T08:44:34Z</time>
      </trkpt>
      <trkpt lat="43.02924" lon="0.98868">
        <ele>414.2</ele>
        <time>2022-09-04T08:44:35Z</time>
      </trkpt>
      <trkpt lat="43.02925" lon="0.98869">
        <ele>414.4</ele>
        <time>2022-09-04T08:44:36Z</time>
      </trkpt>
      <trkpt lat="43.02933" lon="0.98876">
        <ele>414.8</ele>
        <time>2022-09-04T08:44:41Z</time>
      </trkpt>
      <trkpt lat="43.02944" lon="0.98885">
        <ele>415.6</ele>
        <time>2022-09-04T08:44:48Z</time>
      </trkpt>
      <trkpt lat="43.02957" lon="0.98898">
        <ele>416.4</ele>
        <time>2022-09-04T08:44:56Z</time>
      </trkpt>
      <trkpt lat="43.0296" lon="0.98902">
        <ele>416.6</ele>
        <time>2022-09-04T08:44:58Z</time>
      </trkpt>
      <trkpt lat="43.02969" lon="0.98913">
        <ele>417.4</ele>
        <time>2022-09-04T08:45:04Z</time>
      </trkpt>
      <trkpt lat="43.02973" lon="0.98916">
        <ele>417.8</ele>
        <time>2022-09-04T08:45:06Z</time>
      </trkpt>
      <trkpt lat="43.02981" lon="0.98915">
        <ele>418.2</ele>
        <time>2022-09-04T08:45:11Z</time>
      </trkpt>
      <trkpt lat="43.02982" lon="0.98913">
        <ele>418.4</ele>
        <time>2022-09-04T08:45:12Z</time>
      </trkpt>
      <trkpt lat="43.02982" lon="0.98906">
        <ele>418.8</ele>
        <time>2022-09-04T08:45:15Z</time>
      </trkpt>
      <trkpt lat="43.02981" lon="0.98903">
        <ele>418.8</ele>
        <time>2022-09-04T08:45:16Z</time>
      </trkpt>
      <trkpt lat="43.02979" lon="0.98899">
        <ele>419.2</ele>
        <time>2022-09-04T08:45:18Z</time>
      </trkpt>
      <trkpt lat="43.02976" lon="0.98894">
        <ele>419.6</ele>
        <time>2022-09-04T08:45:21Z</time>
      </trkpt>
      <trkpt lat="43.0297" lon="0.98887">
        <ele>420.2</ele>
        <time>2022-09-04T08:45:25Z</time>
      </trkpt>
      <trkpt lat="43.02966" lon="0.98882">
        <ele>420.6</ele>
        <time>2022-09-04T08:45:28Z</time>
      </trkpt>
      <trkpt lat="43.02963" lon="0.98871">
        <ele>421.2</ele>
        <time>2022-09-04T08:45:33Z</time>
      </trkpt>
      <trkpt lat="43.02962" lon="0.98861">
        <ele>421.8</ele>
        <time>2022-09-04T08:45:39Z</time>
      </trkpt>
      <trkpt lat="43.02959" lon="0.98855">
        <ele>422.2</ele>
        <time>2022-09-04T08:45:42Z</time>
      </trkpt>
      <trkpt lat="43.0296" lon="0.9885">
        <ele>422.6</ele>
        <time>2022-09-04T08:45:44Z</time>
      </trkpt>
      <trkpt lat="43.02961" lon="0.98841">
        <ele>423</ele>
        <time>2022-09-04T08:45:48Z</time>
      </trkpt>
      <trkpt lat="43.0296" lon="0.98838">
        <ele>423.2</ele>
        <time>2022-09-04T08:45:49Z</time>
      </trkpt>
      <trkpt lat="43.0296" lon="0.98835">
        <ele>423.4</ele>
        <time>2022-09-04T08:45:50Z</time>
      </trkpt>
      <trkpt lat="43.02962" lon="0.98824">
        <ele>424</ele>
        <time>2022-09-04T08:45:55Z</time>
      </trkpt>
      <trkpt lat="43.02961" lon="0.98815">
        <ele>424.2</ele>
        <time>2022-09-04T08:45:58Z</time>
      </trkpt>
      <trkpt lat="43.02963" lon="0.9881">
        <ele>424.6</ele>
        <time>2022-09-04T08:46:00Z</time>
      </trkpt>
      <trkpt lat="43.02969" lon="0.98794">
        <ele>425.4</ele>
        <time>2022-09-04T08:46:07Z</time>
      </trkpt>
      <trkpt lat="43.02975" lon="0.98784">
        <ele>426.2</ele>
        <time>2022-09-04T08:46:12Z</time>
      </trkpt>
      <trkpt lat="43.02976" lon="0.98779">
        <ele>426.4</ele>
        <time>2022-09-04T08:46:14Z</time>
      </trkpt>
      <trkpt lat="43.02979" lon="0.98772">
        <ele>426.8</ele>
        <time>2022-09-04T08:46:17Z</time>
      </trkpt>
      <trkpt lat="43.02983" lon="0.98761">
        <ele>427.4</ele>
        <time>2022-09-04T08:46:22Z</time>
      </trkpt>
      <trkpt lat="43.02987" lon="0.98749">
        <ele>427.8</ele>
        <time>2022-09-04T08:46:27Z</time>
      </trkpt>
      <trkpt lat="43.02988" lon="0.98747">
        <ele>428</ele>
        <time>2022-09-04T08:46:28Z</time>
      </trkpt>
      <trkpt lat="43.02987" lon="0.98739">
        <ele>428.4</ele>
        <time>2022-09-04T08:46:31Z</time>
      </trkpt>
      <trkpt lat="43.02986" lon="0.98736">
        <ele>428.6</ele>
        <time>2022-09-04T08:46:32Z</time>
      </trkpt>
      <trkpt lat="43.02983" lon="0.98719">
        <ele>429.6</ele>
        <time>2022-09-04T08:46:39Z</time>
      </trkpt>
      <trkpt lat="43.02981" lon="0.98717">
        <ele>429.6</ele>
        <time>2022-09-04T08:46:40Z</time>
      </trkpt>
      <trkpt lat="43.02974" lon="0.98706">
        <ele>430</ele>
        <time>2022-09-04T08:46:46Z</time>
      </trkpt>
      <trkpt lat="43.02969" lon="0.98701">
        <ele>430.6</ele>
        <time>2022-09-04T08:46:49Z</time>
      </trkpt>
      <trkpt lat="43.02963" lon="0.98699">
        <ele>431</ele>
        <time>2022-09-04T08:46:53Z</time>
      </trkpt>
      <trkpt lat="43.02954" lon="0.98698">
        <ele>431.6</ele>
        <time>2022-09-04T08:46:58Z</time>
      </trkpt>
      <trkpt lat="43.02949" lon="0.98701">
        <ele>432.2</ele>
        <time>2022-09-04T08:47:01Z</time>
      </trkpt>
      <trkpt lat="43.02943" lon="0.98704">
        <ele>432.8</ele>
        <time>2022-09-04T08:47:05Z</time>
      </trkpt>
      <trkpt lat="43.02937" lon="0.98707">
        <ele>433.2</ele>
        <time>2022-09-04T08:47:08Z</time>
      </trkpt>
      <trkpt lat="43.02927" lon="0.98714">
        <ele>434</ele>
        <time>2022-09-04T08:47:14Z</time>
      </trkpt>
      <trkpt lat="43.02926" lon="0.98715">
        <ele>434</ele>
        <time>2022-09-04T08:47:15Z</time>
      </trkpt>
      <trkpt lat="43.02918" lon="0.98719">
        <ele>434.6</ele>
        <time>2022-09-04T08:47:20Z</time>
      </trkpt>
      <trkpt lat="43.02911" lon="0.9872">
        <ele>435</ele>
        <time>2022-09-04T08:47:24Z</time>
      </trkpt>
      <trkpt lat="43.02905" lon="0.98721">
        <ele>435.6</ele>
        <time>2022-09-04T08:47:28Z</time>
      </trkpt>
      <trkpt lat="43.02897" lon="0.98718">
        <ele>436</ele>
        <time>2022-09-04T08:48:03Z</time>
      </trkpt>
      <trkpt lat="43.02891" lon="0.98717">
        <ele>436.2</ele>
        <time>2022-09-04T08:48:06Z</time>
      </trkpt>
      <trkpt lat="43.02883" lon="0.98717">
        <ele>436.6</ele>
        <time>2022-09-04T08:48:10Z</time>
      </trkpt>
      <trkpt lat="43.02872" lon="0.98717">
        <ele>437.2</ele>
        <time>2022-09-04T08:48:15Z</time>
      </trkpt>
      <trkpt lat="43.02859" lon="0.98714">
        <ele>438</ele>
        <time>2022-09-04T08:48:21Z</time>
      </trkpt>
      <trkpt lat="43.02855" lon="0.98712">
        <ele>438.2</ele>
        <time>2022-09-04T08:48:23Z</time>
      </trkpt>
      <trkpt lat="43.02841" lon="0.98705">
        <ele>439.2</ele>
        <time>2022-09-04T08:48:29Z</time>
      </trkpt>
      <trkpt lat="43.02839" lon="0.98703">
        <ele>439.4</ele>
        <time>2022-09-04T08:48:30Z</time>
      </trkpt>
      <trkpt lat="43.02834" lon="0.98691">
        <ele>440.2</ele>
        <time>2022-09-04T08:48:34Z</time>
      </trkpt>
      <trkpt lat="43.02834" lon="0.98688">
        <ele>440.4</ele>
        <time>2022-09-04T08:48:35Z</time>
      </trkpt>
      <trkpt lat="43.02834" lon="0.98676">
        <ele>441.4</ele>
        <time>2022-09-04T08:48:39Z</time>
      </trkpt>
      <trkpt lat="43.02834" lon="0.9867">
        <ele>441.8</ele>
        <time>2022-09-04T08:48:41Z</time>
      </trkpt>
      <trkpt lat="43.02835" lon="0.98659">
        <ele>442.4</ele>
        <time>2022-09-04T08:48:45Z</time>
      </trkpt>
      <trkpt lat="43.02836" lon="0.98656">
        <ele>442.6</ele>
        <time>2022-09-04T08:48:46Z</time>
      </trkpt>
      <trkpt lat="43.02838" lon="0.9864">
        <ele>443.4</ele>
        <time>2022-09-04T08:48:52Z</time>
      </trkpt>
      <trkpt lat="43.02838" lon="0.98622">
        <ele>444.4</ele>
        <time>2022-09-04T08:48:58Z</time>
      </trkpt>
      <trkpt lat="43.02837" lon="0.98619">
        <ele>444.4</ele>
        <time>2022-09-04T08:48:59Z</time>
      </trkpt>
      <trkpt lat="43.02834" lon="0.98602">
        <ele>445.2</ele>
        <time>2022-09-04T08:49:05Z</time>
      </trkpt>
      <trkpt lat="43.0283" lon="0.98587">
        <ele>445.4</ele>
        <time>2022-09-04T08:49:10Z</time>
      </trkpt>
      <trkpt lat="43.02828" lon="0.98577">
        <ele>445.8</ele>
        <time>2022-09-04T08:49:14Z</time>
      </trkpt>
      <trkpt lat="43.02823" lon="0.98562">
        <ele>445.8</ele>
        <time>2022-09-04T08:49:22Z</time>
      </trkpt>
      <trkpt lat="43.02821" lon="0.98554">
        <ele>445.6</ele>
        <time>2022-09-04T08:51:09Z</time>
      </trkpt>
      <trkpt lat="43.02821" lon="0.98552">
        <ele>445.4</ele>
        <time>2022-09-04T08:51:10Z</time>
      </trkpt>
      <trkpt lat="43.02818" lon="0.98541">
        <ele>445.4</ele>
        <time>2022-09-04T08:51:13Z</time>
      </trkpt>
      <trkpt lat="43.02816" lon="0.98533">
        <ele>445.4</ele>
        <time>2022-09-04T08:51:15Z</time>
      </trkpt>
      <trkpt lat="43.0281" lon="0.98513">
        <ele>445</ele>
        <time>2022-09-04T08:51:19Z</time>
      </trkpt>
      <trkpt lat="43.02807" lon="0.98502">
        <ele>444.6</ele>
        <time>2022-09-04T08:51:21Z</time>
      </trkpt>
      <trkpt lat="43.02805" lon="0.98496">
        <ele>444.4</ele>
        <time>2022-09-04T08:51:22Z</time>
      </trkpt>
      <trkpt lat="43.02793" lon="0.9846">
        <ele>443.4</ele>
        <time>2022-09-04T08:51:27Z</time>
      </trkpt>
      <trkpt lat="43.02783" lon="0.98427">
        <ele>442.2</ele>
        <time>2022-09-04T08:51:31Z</time>
      </trkpt>
      <trkpt lat="43.02775" lon="0.98398">
        <ele>441.2</ele>
        <time>2022-09-04T08:51:34Z</time>
      </trkpt>
      <trkpt lat="43.02762" lon="0.98357">
        <ele>439.8</ele>
        <time>2022-09-04T08:51:38Z</time>
      </trkpt>
      <trkpt lat="43.02755" lon="0.98335">
        <ele>439.2</ele>
        <time>2022-09-04T08:51:40Z</time>
      </trkpt>
      <trkpt lat="43.02747" lon="0.98312">
        <ele>438.6</ele>
        <time>2022-09-04T08:51:42Z</time>
      </trkpt>
      <trkpt lat="43.02736" lon="0.98277">
        <ele>437.4</ele>
        <time>2022-09-04T08:51:45Z</time>
      </trkpt>
      <trkpt lat="43.02727" lon="0.98252">
        <ele>436.2</ele>
        <time>2022-09-04T08:51:47Z</time>
      </trkpt>
      <trkpt lat="43.02719" lon="0.98226">
        <ele>435</ele>
        <time>2022-09-04T08:51:49Z</time>
      </trkpt>
      <trkpt lat="43.02715" lon="0.98214">
        <ele>434</ele>
        <time>2022-09-04T08:51:50Z</time>
      </trkpt>
      <trkpt lat="43.02706" lon="0.98188">
        <ele>432.8</ele>
        <time>2022-09-04T08:51:52Z</time>
      </trkpt>
      <trkpt lat="43.02703" lon="0.98174">
        <ele>432.2</ele>
        <time>2022-09-04T08:51:53Z</time>
      </trkpt>
      <trkpt lat="43.027" lon="0.9816">
        <ele>431.4</ele>
        <time>2022-09-04T08:51:54Z</time>
      </trkpt>
      <trkpt lat="43.02699" lon="0.98131">
        <ele>429.8</ele>
        <time>2022-09-04T08:51:56Z</time>
      </trkpt>
      <trkpt lat="43.02712" lon="0.98092">
        <ele>428.6</ele>
        <time>2022-09-04T08:51:59Z</time>
      </trkpt>
      <trkpt lat="43.02725" lon="0.98068">
        <ele>427.6</ele>
        <time>2022-09-04T08:52:01Z</time>
      </trkpt>
      <trkpt lat="43.02735" lon="0.98042">
        <ele>426.2</ele>
        <time>2022-09-04T08:52:03Z</time>
      </trkpt>
      <trkpt lat="43.02738" lon="0.98014">
        <ele>425</ele>
        <time>2022-09-04T08:52:05Z</time>
      </trkpt>
      <trkpt lat="43.02737" lon="0.98001">
        <ele>424.6</ele>
        <time>2022-09-04T08:52:06Z</time>
      </trkpt>
      <trkpt lat="43.02731" lon="0.97978">
        <ele>423.8</ele>
        <time>2022-09-04T08:52:08Z</time>
      </trkpt>
      <trkpt lat="43.02726" lon="0.97967">
        <ele>423.4</ele>
        <time>2022-09-04T08:52:09Z</time>
      </trkpt>
      <trkpt lat="43.02705" lon="0.97941">
        <ele>422.6</ele>
        <time>2022-09-04T08:52:12Z</time>
      </trkpt>
      <trkpt lat="43.02697" lon="0.97933">
        <ele>422.2</ele>
        <time>2022-09-04T08:52:13Z</time>
      </trkpt>
      <trkpt lat="43.02689" lon="0.97926">
        <ele>421.4</ele>
        <time>2022-09-04T08:52:14Z</time>
      </trkpt>
      <trkpt lat="43.02674" lon="0.97909">
        <ele>420.4</ele>
        <time>2022-09-04T08:52:16Z</time>
      </trkpt>
      <trkpt lat="43.02651" lon="0.97883">
        <ele>419.2</ele>
        <time>2022-09-04T08:52:19Z</time>
      </trkpt>
      <trkpt lat="43.0263" lon="0.97859">
        <ele>418</ele>
        <time>2022-09-04T08:52:22Z</time>
      </trkpt>
      <trkpt lat="43.02608" lon="0.97835">
        <ele>416.6</ele>
        <time>2022-09-04T08:52:25Z</time>
      </trkpt>
      <trkpt lat="43.02589" lon="0.97808">
        <ele>415.6</ele>
        <time>2022-09-04T08:52:28Z</time>
      </trkpt>
      <trkpt lat="43.02583" lon="0.97796">
        <ele>415</ele>
        <time>2022-09-04T08:52:29Z</time>
      </trkpt>
      <trkpt lat="43.02576" lon="0.9777">
        <ele>414.2</ele>
        <time>2022-09-04T08:52:31Z</time>
      </trkpt>
      <trkpt lat="43.02574" lon="0.97756">
        <ele>413.8</ele>
        <time>2022-09-04T08:52:32Z</time>
      </trkpt>
      <trkpt lat="43.02567" lon="0.97693">
        <ele>413</ele>
        <time>2022-09-04T08:52:37Z</time>
      </trkpt>
      <trkpt lat="43.02564" lon="0.97638">
        <ele>413</ele>
        <time>2022-09-04T08:52:42Z</time>
      </trkpt>
      <trkpt lat="43.02562" lon="0.97607">
        <ele>412.6</ele>
        <time>2022-09-04T08:52:46Z</time>
      </trkpt>
      <trkpt lat="43.0256" lon="0.97579">
        <ele>412.8</ele>
        <time>2022-09-04T08:52:52Z</time>
      </trkpt>
      <trkpt lat="43.02557" lon="0.97549">
        <ele>413.4</ele>
        <time>2022-09-04T08:52:59Z</time>
      </trkpt>
      <trkpt lat="43.02553" lon="0.97518">
        <ele>414</ele>
        <time>2022-09-04T08:53:06Z</time>
      </trkpt>
      <trkpt lat="43.02552" lon="0.97513">
        <ele>414.2</ele>
        <time>2022-09-04T08:53:07Z</time>
      </trkpt>
      <trkpt lat="43.02549" lon="0.97485">
        <ele>414.6</ele>
        <time>2022-09-04T08:53:14Z</time>
      </trkpt>
      <trkpt lat="43.02547" lon="0.9746">
        <ele>415</ele>
        <time>2022-09-04T08:53:21Z</time>
      </trkpt>
      <trkpt lat="43.02547" lon="0.97457">
        <ele>415.2</ele>
        <time>2022-09-04T08:53:22Z</time>
      </trkpt>
      <trkpt lat="43.02547" lon="0.97432">
        <ele>415.4</ele>
        <time>2022-09-04T08:53:28Z</time>
      </trkpt>
      <trkpt lat="43.0255" lon="0.9739">
        <ele>416</ele>
        <time>2022-09-04T08:53:37Z</time>
      </trkpt>
      <trkpt lat="43.02551" lon="0.97358">
        <ele>416</ele>
        <time>2022-09-04T08:53:44Z</time>
      </trkpt>
      <trkpt lat="43.02553" lon="0.97327">
        <ele>416.2</ele>
        <time>2022-09-04T08:53:51Z</time>
      </trkpt>
      <trkpt lat="43.02557" lon="0.97295">
        <ele>416</ele>
        <time>2022-09-04T08:53:58Z</time>
      </trkpt>
      <trkpt lat="43.02558" lon="0.97268">
        <ele>416</ele>
        <time>2022-09-04T08:54:04Z</time>
      </trkpt>
      <trkpt lat="43.0256" lon="0.97237">
        <ele>416</ele>
        <time>2022-09-04T08:54:11Z</time>
      </trkpt>
      <trkpt lat="43.02562" lon="0.97218">
        <ele>415.8</ele>
        <time>2022-09-04T08:54:15Z</time>
      </trkpt>
      <trkpt lat="43.02564" lon="0.972">
        <ele>415.8</ele>
        <time>2022-09-04T08:54:19Z</time>
      </trkpt>
      <trkpt lat="43.02575" lon="0.97176">
        <ele>415.6</ele>
        <time>2022-09-04T08:54:25Z</time>
      </trkpt>
      <trkpt lat="43.02599" lon="0.97155">
        <ele>414.6</ele>
        <time>2022-09-04T08:54:31Z</time>
      </trkpt>
      <trkpt lat="43.02617" lon="0.97138">
        <ele>414</ele>
        <time>2022-09-04T08:54:35Z</time>
      </trkpt>
      <trkpt lat="43.02626" lon="0.97128">
        <ele>413.4</ele>
        <time>2022-09-04T08:54:37Z</time>
      </trkpt>
      <trkpt lat="43.02631" lon="0.97124">
        <ele>412.8</ele>
        <time>2022-09-04T08:54:38Z</time>
      </trkpt>
      <trkpt lat="43.02664" lon="0.97093">
        <ele>411.6</ele>
        <time>2022-09-04T08:54:44Z</time>
      </trkpt>
      <trkpt lat="43.0267" lon="0.97088">
        <ele>411.4</ele>
        <time>2022-09-04T08:54:45Z</time>
      </trkpt>
      <trkpt lat="43.02693" lon="0.97066">
        <ele>410.4</ele>
        <time>2022-09-04T08:54:49Z</time>
      </trkpt>
      <trkpt lat="43.027" lon="0.97059">
        <ele>409.6</ele>
        <time>2022-09-04T08:54:51Z</time>
      </trkpt>
      <trkpt lat="43.02703" lon="0.97057">
        <ele>409.4</ele>
        <time>2022-09-04T08:54:52Z</time>
      </trkpt>
      <trkpt lat="43.02711" lon="0.97047">
        <ele>409</ele>
        <time>2022-09-04T08:54:55Z</time>
      </trkpt>
      <trkpt lat="43.02737" lon="0.97022">
        <ele>408.6</ele>
        <time>2022-09-04T08:55:02Z</time>
      </trkpt>
      <trkpt lat="43.02746" lon="0.97014">
        <ele>408.2</ele>
        <time>2022-09-04T08:55:04Z</time>
      </trkpt>
      <trkpt lat="43.0277" lon="0.96991">
        <ele>407.4</ele>
        <time>2022-09-04T08:55:09Z</time>
      </trkpt>
      <trkpt lat="43.02775" lon="0.96986">
        <ele>407.2</ele>
        <time>2022-09-04T08:55:10Z</time>
      </trkpt>
      <trkpt lat="43.02792" lon="0.96966">
        <ele>406.6</ele>
        <time>2022-09-04T08:55:14Z</time>
      </trkpt>
      <trkpt lat="43.02798" lon="0.96952">
        <ele>406.4</ele>
        <time>2022-09-04T08:55:16Z</time>
      </trkpt>
      <trkpt lat="43.02805" lon="0.96929">
        <ele>406</ele>
        <time>2022-09-04T08:55:19Z</time>
      </trkpt>
      <trkpt lat="43.02808" lon="0.96923">
        <ele>406</ele>
        <time>2022-09-04T08:55:20Z</time>
      </trkpt>
      <trkpt lat="43.02828" lon="0.96902">
        <ele>405.2</ele>
        <time>2022-09-04T08:55:24Z</time>
      </trkpt>
      <trkpt lat="43.02838" lon="0.96892">
        <ele>404.8</ele>
        <time>2022-09-04T08:55:26Z</time>
      </trkpt>
      <trkpt lat="43.02873" lon="0.96863">
        <ele>403.6</ele>
        <time>2022-09-04T08:55:32Z</time>
      </trkpt>
      <trkpt lat="43.0291" lon="0.96833">
        <ele>402.8</ele>
        <time>2022-09-04T08:55:39Z</time>
      </trkpt>
      <trkpt lat="43.02942" lon="0.96806">
        <ele>402.6</ele>
        <time>2022-09-04T08:55:46Z</time>
      </trkpt>
      <trkpt lat="43.0297" lon="0.96781">
        <ele>403.4</ele>
        <time>2022-09-04T08:55:54Z</time>
      </trkpt>
      <trkpt lat="43.02978" lon="0.96774">
        <ele>403.8</ele>
        <time>2022-09-04T08:55:57Z</time>
      </trkpt>
      <trkpt lat="43.02991" lon="0.96763">
        <ele>404.4</ele>
        <time>2022-09-04T08:56:02Z</time>
      </trkpt>
      <trkpt lat="43.02998" lon="0.96757">
        <ele>404.8</ele>
        <time>2022-09-04T08:56:05Z</time>
      </trkpt>
      <trkpt lat="43.03008" lon="0.96749">
        <ele>405.6</ele>
        <time>2022-09-04T08:56:10Z</time>
      </trkpt>
      <trkpt lat="43.03016" lon="0.96742">
        <ele>406.2</ele>
        <time>2022-09-04T08:56:14Z</time>
      </trkpt>
      <trkpt lat="43.03024" lon="0.96731">
        <ele>406.6</ele>
        <time>2022-09-04T08:56:19Z</time>
      </trkpt>
      <trkpt lat="43.0303" lon="0.96718">
        <ele>407.2</ele>
        <time>2022-09-04T08:56:24Z</time>
      </trkpt>
      <trkpt lat="43.03037" lon="0.96704">
        <ele>407.8</ele>
        <time>2022-09-04T08:56:29Z</time>
      </trkpt>
      <trkpt lat="43.03042" lon="0.96694">
        <ele>408.4</ele>
        <time>2022-09-04T08:56:33Z</time>
      </trkpt>
      <trkpt lat="43.03047" lon="0.96681">
        <ele>409</ele>
        <time>2022-09-04T08:56:38Z</time>
      </trkpt>
      <trkpt lat="43.03051" lon="0.96673">
        <ele>409.4</ele>
        <time>2022-09-04T08:56:41Z</time>
      </trkpt>
      <trkpt lat="43.03057" lon="0.96656">
        <ele>410</ele>
        <time>2022-09-04T08:56:47Z</time>
      </trkpt>
      <trkpt lat="43.03061" lon="0.96631">
        <ele>410.6</ele>
        <time>2022-09-04T08:56:54Z</time>
      </trkpt>
      <trkpt lat="43.03062" lon="0.96624">
        <ele>410.8</ele>
        <time>2022-09-04T08:56:56Z</time>
      </trkpt>
      <trkpt lat="43.03064" lon="0.96595">
        <ele>411</ele>
        <time>2022-09-04T08:57:04Z</time>
      </trkpt>
      <trkpt lat="43.03067" lon="0.96565">
        <ele>411.2</ele>
        <time>2022-09-04T08:57:12Z</time>
      </trkpt>
      <trkpt lat="43.03069" lon="0.96538">
        <ele>411.4</ele>
        <time>2022-09-04T08:57:20Z</time>
      </trkpt>
      <trkpt lat="43.03071" lon="0.96526">
        <ele>411.6</ele>
        <time>2022-09-04T08:57:23Z</time>
      </trkpt>
      <trkpt lat="43.03076" lon="0.96503">
        <ele>411.6</ele>
        <time>2022-09-04T08:57:29Z</time>
      </trkpt>
      <trkpt lat="43.03075" lon="0.96475">
        <ele>412.4</ele>
        <time>2022-09-04T08:57:37Z</time>
      </trkpt>
      <trkpt lat="43.03065" lon="0.96464">
        <ele>412.8</ele>
        <time>2022-09-04T08:57:42Z</time>
      </trkpt>
      <trkpt lat="43.03062" lon="0.96462">
        <ele>413</ele>
        <time>2022-09-04T08:57:43Z</time>
      </trkpt>
      <trkpt lat="43.03046" lon="0.96448">
        <ele>413.8</ele>
        <time>2022-09-04T08:57:50Z</time>
      </trkpt>
      <trkpt lat="43.03039" lon="0.96442">
        <ele>414.2</ele>
        <time>2022-09-04T08:57:53Z</time>
      </trkpt>
      <trkpt lat="43.03017" lon="0.96422">
        <ele>414.8</ele>
        <time>2022-09-04T08:58:02Z</time>
      </trkpt>
      <trkpt lat="43.03013" lon="0.96418">
        <ele>415</ele>
        <time>2022-09-04T08:58:04Z</time>
      </trkpt>
      <trkpt lat="43.0299" lon="0.96395">
        <ele>415.4</ele>
        <time>2022-09-04T08:58:13Z</time>
      </trkpt>
      <trkpt lat="43.02967" lon="0.96366">
        <ele>415.6</ele>
        <time>2022-09-04T08:58:23Z</time>
      </trkpt>
      <trkpt lat="43.02958" lon="0.96354">
        <ele>415.8</ele>
        <time>2022-09-04T08:58:27Z</time>
      </trkpt>
      <trkpt lat="43.02951" lon="0.96345">
        <ele>416</ele>
        <time>2022-09-04T08:58:30Z</time>
      </trkpt>
      <trkpt lat="43.02925" lon="0.96308">
        <ele>416.2</ele>
        <time>2022-09-04T08:58:42Z</time>
      </trkpt>
      <trkpt lat="43.02902" lon="0.96265">
        <ele>416.4</ele>
        <time>2022-09-04T08:58:54Z</time>
      </trkpt>
      <trkpt lat="43.02885" lon="0.96234">
        <ele>416.6</ele>
        <time>2022-09-04T08:59:03Z</time>
      </trkpt>
      <trkpt lat="43.0287" lon="0.96208">
        <ele>416.6</ele>
        <time>2022-09-04T08:59:11Z</time>
      </trkpt>
      <trkpt lat="43.02859" lon="0.96193">
        <ele>417</ele>
        <time>2022-09-04T08:59:16Z</time>
      </trkpt>
      <trkpt lat="43.02847" lon="0.96175">
        <ele>417.2</ele>
        <time>2022-09-04T08:59:22Z</time>
      </trkpt>
      <trkpt lat="43.02831" lon="0.96153">
        <ele>418</ele>
        <time>2022-09-04T08:59:30Z</time>
      </trkpt>
      <trkpt lat="43.02828" lon="0.96147">
        <ele>418.2</ele>
        <time>2022-09-04T08:59:32Z</time>
      </trkpt>
      <trkpt lat="43.02816" lon="0.96132">
        <ele>419</ele>
        <time>2022-09-04T08:59:39Z</time>
      </trkpt>
      <trkpt lat="43.02807" lon="0.9612">
        <ele>420</ele>
        <time>2022-09-04T08:59:45Z</time>
      </trkpt>
      <trkpt lat="43.02806" lon="0.96118">
        <ele>420.2</ele>
        <time>2022-09-04T08:59:46Z</time>
      </trkpt>
      <trkpt lat="43.02799" lon="0.96108">
        <ele>420.8</ele>
        <time>2022-09-04T08:59:51Z</time>
      </trkpt>
      <trkpt lat="43.02797" lon="0.96103">
        <ele>421.2</ele>
        <time>2022-09-04T08:59:53Z</time>
      </trkpt>
      <trkpt lat="43.02796" lon="0.96101">
        <ele>421.4</ele>
        <time>2022-09-04T08:59:54Z</time>
      </trkpt>
      <trkpt lat="43.0279" lon="0.96085">
        <ele>422.4</ele>
        <time>2022-09-04T09:00:01Z</time>
      </trkpt>
      <trkpt lat="43.02785" lon="0.96073">
        <ele>423.2</ele>
        <time>2022-09-04T09:00:07Z</time>
      </trkpt>
      <trkpt lat="43.02784" lon="0.96069">
        <ele>423.4</ele>
        <time>2022-09-04T09:00:09Z</time>
      </trkpt>
      <trkpt lat="43.02783" lon="0.96067">
        <ele>423.6</ele>
        <time>2022-09-04T09:00:10Z</time>
      </trkpt>
      <trkpt lat="43.02782" lon="0.96063">
        <ele>424</ele>
        <time>2022-09-04T09:00:12Z</time>
      </trkpt>
      <trkpt lat="43.0278" lon="0.96059">
        <ele>424.2</ele>
        <time>2022-09-04T09:00:14Z</time>
      </trkpt>
      <trkpt lat="43.02779" lon="0.96057">
        <ele>424.4</ele>
        <time>2022-09-04T09:00:15Z</time>
      </trkpt>
      <trkpt lat="43.02777" lon="0.96047">
        <ele>425.4</ele>
        <time>2022-09-04T09:00:20Z</time>
      </trkpt>
      <trkpt lat="43.02776" lon="0.96043">
        <ele>425.6</ele>
        <time>2022-09-04T09:00:22Z</time>
      </trkpt>
      <trkpt lat="43.02772" lon="0.96031">
        <ele>426.6</ele>
        <time>2022-09-04T09:00:28Z</time>
      </trkpt>
      <trkpt lat="43.02771" lon="0.96029">
        <ele>426.8</ele>
        <time>2022-09-04T09:00:29Z</time>
      </trkpt>
      <trkpt lat="43.02767" lon="0.96017">
        <ele>427.8</ele>
        <time>2022-09-04T09:00:35Z</time>
      </trkpt>
      <trkpt lat="43.02767" lon="0.96016">
        <ele>428</ele>
        <time>2022-09-04T09:00:36Z</time>
      </trkpt>
      <trkpt lat="43.02766" lon="0.96009">
        <ele>428.6</ele>
        <time>2022-09-04T09:00:39Z</time>
      </trkpt>
      <trkpt lat="43.02765" lon="0.96006">
        <ele>428.8</ele>
        <time>2022-09-04T09:00:41Z</time>
      </trkpt>
      <trkpt lat="43.02763" lon="0.96001">
        <ele>429.4</ele>
        <time>2022-09-04T09:00:44Z</time>
      </trkpt>
      <trkpt lat="43.02762" lon="0.95995">
        <ele>430</ele>
        <time>2022-09-04T09:00:47Z</time>
      </trkpt>
      <trkpt lat="43.02761" lon="0.95989">
        <ele>430.4</ele>
        <time>2022-09-04T09:00:50Z</time>
      </trkpt>
      <trkpt lat="43.0276" lon="0.95987">
        <ele>430.6</ele>
        <time>2022-09-04T09:00:51Z</time>
      </trkpt>
      <trkpt lat="43.02759" lon="0.95981">
        <ele>431.2</ele>
        <time>2022-09-04T09:00:54Z</time>
      </trkpt>
      <trkpt lat="43.02757" lon="0.95971">
        <ele>432</ele>
        <time>2022-09-04T09:00:59Z</time>
      </trkpt>
      <trkpt lat="43.02756" lon="0.95969">
        <ele>432.2</ele>
        <time>2022-09-04T09:01:00Z</time>
      </trkpt>
      <trkpt lat="43.02755" lon="0.95958">
        <ele>433.4</ele>
        <time>2022-09-04T09:01:05Z</time>
      </trkpt>
      <trkpt lat="43.02754" lon="0.95956">
        <ele>433.6</ele>
        <time>2022-09-04T09:01:06Z</time>
      </trkpt>
      <trkpt lat="43.02752" lon="0.95946">
        <ele>434.4</ele>
        <time>2022-09-04T09:01:11Z</time>
      </trkpt>
      <trkpt lat="43.0275" lon="0.95938">
        <ele>435</ele>
        <time>2022-09-04T09:01:15Z</time>
      </trkpt>
      <trkpt lat="43.02749" lon="0.95929">
        <ele>435.4</ele>
        <time>2022-09-04T09:01:19Z</time>
      </trkpt>
      <trkpt lat="43.02748" lon="0.95923">
        <ele>435.6</ele>
        <time>2022-09-04T09:01:22Z</time>
      </trkpt>
      <trkpt lat="43.02746" lon="0.9591">
        <ele>436.4</ele>
        <time>2022-09-04T09:01:28Z</time>
      </trkpt>
      <trkpt lat="43.02745" lon="0.95904">
        <ele>436.4</ele>
        <time>2022-09-04T09:01:31Z</time>
      </trkpt>
      <trkpt lat="43.02742" lon="0.95895">
        <ele>436.6</ele>
        <time>2022-09-04T09:01:35Z</time>
      </trkpt>
      <trkpt lat="43.02737" lon="0.95875">
        <ele>436.6</ele>
        <time>2022-09-04T09:01:43Z</time>
      </trkpt>
      <trkpt lat="43.02735" lon="0.95855">
        <ele>436.2</ele>
        <time>2022-09-04T09:01:49Z</time>
      </trkpt>
      <trkpt lat="43.02739" lon="0.95833">
        <ele>436.8</ele>
        <time>2022-09-04T09:01:56Z</time>
      </trkpt>
      <trkpt lat="43.02745" lon="0.95808">
        <ele>437.4</ele>
        <time>2022-09-04T09:02:05Z</time>
      </trkpt>
      <trkpt lat="43.02748" lon="0.95796">
        <ele>437.6</ele>
        <time>2022-09-04T09:02:09Z</time>
      </trkpt>
      <trkpt lat="43.02751" lon="0.95788">
        <ele>438</ele>
        <time>2022-09-04T09:02:12Z</time>
      </trkpt>
      <trkpt lat="43.02752" lon="0.95781">
        <ele>438.6</ele>
        <time>2022-09-04T09:02:15Z</time>
      </trkpt>
      <trkpt lat="43.02753" lon="0.95771">
        <ele>439.4</ele>
        <time>2022-09-04T09:02:19Z</time>
      </trkpt>
      <trkpt lat="43.02754" lon="0.95767">
        <ele>439.6</ele>
        <time>2022-09-04T09:02:21Z</time>
      </trkpt>
      <trkpt lat="43.0276" lon="0.95756">
        <ele>440.6</ele>
        <time>2022-09-04T09:02:27Z</time>
      </trkpt>
      <trkpt lat="43.02765" lon="0.95739">
        <ele>441.8</ele>
        <time>2022-09-04T09:02:35Z</time>
      </trkpt>
      <trkpt lat="43.02765" lon="0.95722">
        <ele>442.6</ele>
        <time>2022-09-04T09:02:42Z</time>
      </trkpt>
      <trkpt lat="43.02766" lon="0.9572">
        <ele>442.8</ele>
        <time>2022-09-04T09:02:43Z</time>
      </trkpt>
      <trkpt lat="43.02772" lon="0.95712">
        <ele>443.6</ele>
        <time>2022-09-04T09:02:48Z</time>
      </trkpt>
      <trkpt lat="43.02771" lon="0.95709">
        <ele>444</ele>
        <time>2022-09-04T09:02:49Z</time>
      </trkpt>
      <trkpt lat="43.02776" lon="0.95701">
        <ele>445</ele>
        <time>2022-09-04T09:02:54Z</time>
      </trkpt>
      <trkpt lat="43.02778" lon="0.95699">
        <ele>445.2</ele>
        <time>2022-09-04T09:02:55Z</time>
      </trkpt>
      <trkpt lat="43.02777" lon="0.95696">
        <ele>445.6</ele>
        <time>2022-09-04T09:02:57Z</time>
      </trkpt>
      <trkpt lat="43.02777" lon="0.95694">
        <ele>445.8</ele>
        <time>2022-09-04T09:02:58Z</time>
      </trkpt>
      <trkpt lat="43.02779" lon="0.95692">
        <ele>446</ele>
        <time>2022-09-04T09:02:59Z</time>
      </trkpt>
      <trkpt lat="43.02781" lon="0.9569">
        <ele>446.4</ele>
        <time>2022-09-04T09:03:01Z</time>
      </trkpt>
      <trkpt lat="43.02782" lon="0.95689">
        <ele>446.8</ele>
        <time>2022-09-04T09:03:02Z</time>
      </trkpt>
      <trkpt lat="43.02783" lon="0.95687">
        <ele>447.2</ele>
        <time>2022-09-04T09:03:03Z</time>
      </trkpt>
      <trkpt lat="43.02782" lon="0.95683">
        <ele>447.6</ele>
        <time>2022-09-04T09:03:05Z</time>
      </trkpt>
      <trkpt lat="43.02783" lon="0.95681">
        <ele>447.6</ele>
        <time>2022-09-04T09:03:06Z</time>
      </trkpt>
      <trkpt lat="43.02784" lon="0.95679">
        <ele>447.8</ele>
        <time>2022-09-04T09:03:07Z</time>
      </trkpt>
      <trkpt lat="43.02787" lon="0.95678">
        <ele>448.6</ele>
        <time>2022-09-04T09:03:10Z</time>
      </trkpt>
      <trkpt lat="43.02788" lon="0.95672">
        <ele>449.2</ele>
        <time>2022-09-04T09:03:14Z</time>
      </trkpt>
      <trkpt lat="43.02789" lon="0.95668">
        <ele>449.6</ele>
        <time>2022-09-04T09:03:16Z</time>
      </trkpt>
      <trkpt lat="43.02792" lon="0.95666">
        <ele>450.2</ele>
        <time>2022-09-04T09:03:19Z</time>
      </trkpt>
      <trkpt lat="43.02795" lon="0.95671">
        <ele>450.6</ele>
        <time>2022-09-04T09:03:23Z</time>
      </trkpt>
      <trkpt lat="43.02796" lon="0.95672">
        <ele>450.6</ele>
        <time>2022-09-04T09:03:24Z</time>
      </trkpt>
      <trkpt lat="43.02799" lon="0.95676">
        <ele>451.8</ele>
        <time>2022-09-04T09:03:28Z</time>
      </trkpt>
      <trkpt lat="43.02804" lon="0.95679">
        <ele>452.4</ele>
        <time>2022-09-04T09:03:32Z</time>
      </trkpt>
      <trkpt lat="43.02804" lon="0.95681">
        <ele>452.6</ele>
        <time>2022-09-04T09:03:33Z</time>
      </trkpt>
      <trkpt lat="43.02804" lon="0.95683">
        <ele>453</ele>
        <time>2022-09-04T09:03:34Z</time>
      </trkpt>
      <trkpt lat="43.02807" lon="0.95686">
        <ele>453.4</ele>
        <time>2022-09-04T09:03:37Z</time>
      </trkpt>
      <trkpt lat="43.0281" lon="0.95691">
        <ele>454</ele>
        <time>2022-09-04T09:03:41Z</time>
      </trkpt>
      <trkpt lat="43.02811" lon="0.95693">
        <ele>454.2</ele>
        <time>2022-09-04T09:03:42Z</time>
      </trkpt>
      <trkpt lat="43.02816" lon="0.95698">
        <ele>455</ele>
        <time>2022-09-04T09:03:47Z</time>
      </trkpt>
      <trkpt lat="43.02821" lon="0.95702">
        <ele>455.8</ele>
        <time>2022-09-04T09:03:53Z</time>
      </trkpt>
      <trkpt lat="43.02821" lon="0.95699">
        <ele>456</ele>
        <time>2022-09-04T09:03:55Z</time>
      </trkpt>
      <trkpt lat="43.02823" lon="0.95694">
        <ele>456.4</ele>
        <time>2022-09-04T09:03:58Z</time>
      </trkpt>
      <trkpt lat="43.02825" lon="0.95693">
        <ele>456.8</ele>
        <time>2022-09-04T09:04:00Z</time>
      </trkpt>
      <trkpt lat="43.02826" lon="0.95691">
        <ele>457</ele>
        <time>2022-09-04T09:04:01Z</time>
      </trkpt>
      <trkpt lat="43.02826" lon="0.9569">
        <ele>457.2</ele>
        <time>2022-09-04T09:04:02Z</time>
      </trkpt>
      <trkpt lat="43.02827" lon="0.95685">
        <ele>457.6</ele>
        <time>2022-09-04T09:04:04Z</time>
      </trkpt>
      <trkpt lat="43.0283" lon="0.9568">
        <ele>458.4</ele>
        <time>2022-09-04T09:04:08Z</time>
      </trkpt>
      <trkpt lat="43.0283" lon="0.95679">
        <ele>458.6</ele>
        <time>2022-09-04T09:04:09Z</time>
      </trkpt>
      <trkpt lat="43.02833" lon="0.95674">
        <ele>459.4</ele>
        <time>2022-09-04T09:04:13Z</time>
      </trkpt>
      <trkpt lat="43.02834" lon="0.95673">
        <ele>459.4</ele>
        <time>2022-09-04T09:04:14Z</time>
      </trkpt>
      <trkpt lat="43.02834" lon="0.95671">
        <ele>459.8</ele>
        <time>2022-09-04T09:04:15Z</time>
      </trkpt>
      <trkpt lat="43.02834" lon="0.95666">
        <ele>460.4</ele>
        <time>2022-09-04T09:04:18Z</time>
      </trkpt>
      <trkpt lat="43.02838" lon="0.95663">
        <ele>461</ele>
        <time>2022-09-04T09:04:21Z</time>
      </trkpt>
      <trkpt lat="43.02839" lon="0.9566">
        <ele>461.6</ele>
        <time>2022-09-04T09:04:23Z</time>
      </trkpt>
      <trkpt lat="43.0284" lon="0.95654">
        <ele>462.2</ele>
        <time>2022-09-04T09:04:26Z</time>
      </trkpt>
      <trkpt lat="43.02843" lon="0.95653">
        <ele>462.6</ele>
        <time>2022-09-04T09:04:28Z</time>
      </trkpt>
      <trkpt lat="43.02843" lon="0.95651">
        <ele>462.8</ele>
        <time>2022-09-04T09:04:29Z</time>
      </trkpt>
      <trkpt lat="43.02844" lon="0.9565">
        <ele>463</ele>
        <time>2022-09-04T09:04:30Z</time>
      </trkpt>
      <trkpt lat="43.02844" lon="0.95648">
        <ele>463.2</ele>
        <time>2022-09-04T09:04:31Z</time>
      </trkpt>
      <trkpt lat="43.02846" lon="0.95643">
        <ele>463.6</ele>
        <time>2022-09-04T09:04:34Z</time>
      </trkpt>
      <trkpt lat="43.02847" lon="0.95643">
        <ele>463.8</ele>
        <time>2022-09-04T09:04:35Z</time>
      </trkpt>
      <trkpt lat="43.02849" lon="0.9564">
        <ele>464</ele>
        <time>2022-09-04T09:04:37Z</time>
      </trkpt>
      <trkpt lat="43.02849" lon="0.95634">
        <ele>465</ele>
        <time>2022-09-04T09:04:40Z</time>
      </trkpt>
      <trkpt lat="43.02852" lon="0.95633">
        <ele>465.2</ele>
        <time>2022-09-04T09:04:42Z</time>
      </trkpt>
      <trkpt lat="43.02854" lon="0.95624">
        <ele>466</ele>
        <time>2022-09-04T09:04:47Z</time>
      </trkpt>
      <trkpt lat="43.02857" lon="0.95618">
        <ele>466.8</ele>
        <time>2022-09-04T09:04:52Z</time>
      </trkpt>
      <trkpt lat="43.02858" lon="0.95616">
        <ele>467</ele>
        <time>2022-09-04T09:04:53Z</time>
      </trkpt>
      <trkpt lat="43.02862" lon="0.95613">
        <ele>467.6</ele>
        <time>2022-09-04T09:04:57Z</time>
      </trkpt>
      <trkpt lat="43.02862" lon="0.95611">
        <ele>467.8</ele>
        <time>2022-09-04T09:04:58Z</time>
      </trkpt>
      <trkpt lat="43.02863" lon="0.95606">
        <ele>468.2</ele>
        <time>2022-09-04T09:05:01Z</time>
      </trkpt>
      <trkpt lat="43.02867" lon="0.95602">
        <ele>469</ele>
        <time>2022-09-04T09:05:05Z</time>
      </trkpt>
      <trkpt lat="43.02867" lon="0.95598">
        <ele>469.2</ele>
        <time>2022-09-04T09:05:07Z</time>
      </trkpt>
      <trkpt lat="43.02868" lon="0.95597">
        <ele>469.4</ele>
        <time>2022-09-04T09:05:08Z</time>
      </trkpt>
      <trkpt lat="43.0287" lon="0.95595">
        <ele>469.6</ele>
        <time>2022-09-04T09:05:10Z</time>
      </trkpt>
      <trkpt lat="43.02874" lon="0.95589">
        <ele>470.4</ele>
        <time>2022-09-04T09:05:14Z</time>
      </trkpt>
      <trkpt lat="43.02876" lon="0.95585">
        <ele>471</ele>
        <time>2022-09-04T09:05:17Z</time>
      </trkpt>
      <trkpt lat="43.02879" lon="0.9558">
        <ele>471.2</ele>
        <time>2022-09-04T09:05:20Z</time>
      </trkpt>
      <trkpt lat="43.02879" lon="0.95579">
        <ele>471.4</ele>
        <time>2022-09-04T09:05:21Z</time>
      </trkpt>
      <trkpt lat="43.02881" lon="0.95573">
        <ele>471.8</ele>
        <time>2022-09-04T09:05:24Z</time>
      </trkpt>
      <trkpt lat="43.02883" lon="0.95568">
        <ele>472.4</ele>
        <time>2022-09-04T09:05:27Z</time>
      </trkpt>
      <trkpt lat="43.02887" lon="0.95559">
        <ele>473.2</ele>
        <time>2022-09-04T09:05:33Z</time>
      </trkpt>
      <trkpt lat="43.02888" lon="0.95554">
        <ele>473.6</ele>
        <time>2022-09-04T09:05:35Z</time>
      </trkpt>
      <trkpt lat="43.0289" lon="0.95546">
        <ele>474.2</ele>
        <time>2022-09-04T09:05:39Z</time>
      </trkpt>
      <trkpt lat="43.02892" lon="0.95539">
        <ele>474.6</ele>
        <time>2022-09-04T09:05:43Z</time>
      </trkpt>
      <trkpt lat="43.02895" lon="0.95531">
        <ele>475.4</ele>
        <time>2022-09-04T09:05:47Z</time>
      </trkpt>
      <trkpt lat="43.02896" lon="0.95526">
        <ele>475.8</ele>
        <time>2022-09-04T09:05:49Z</time>
      </trkpt>
      <trkpt lat="43.02899" lon="0.95515">
        <ele>477</ele>
        <time>2022-09-04T09:05:55Z</time>
      </trkpt>
      <trkpt lat="43.029" lon="0.95512">
        <ele>477.2</ele>
        <time>2022-09-04T09:05:57Z</time>
      </trkpt>
      <trkpt lat="43.02902" lon="0.95502">
        <ele>478</ele>
        <time>2022-09-04T09:06:02Z</time>
      </trkpt>
      <trkpt lat="43.02903" lon="0.95497">
        <ele>478.4</ele>
        <time>2022-09-04T09:06:05Z</time>
      </trkpt>
      <trkpt lat="43.02905" lon="0.95485">
        <ele>479</ele>
        <time>2022-09-04T09:06:11Z</time>
      </trkpt>
      <trkpt lat="43.02906" lon="0.95481">
        <ele>479.4</ele>
        <time>2022-09-04T09:06:13Z</time>
      </trkpt>
      <trkpt lat="43.02908" lon="0.95471">
        <ele>480</ele>
        <time>2022-09-04T09:06:19Z</time>
      </trkpt>
      <trkpt lat="43.02909" lon="0.95464">
        <ele>480.4</ele>
        <time>2022-09-04T09:06:22Z</time>
      </trkpt>
      <trkpt lat="43.02911" lon="0.95452">
        <ele>481.2</ele>
        <time>2022-09-04T09:06:28Z</time>
      </trkpt>
      <trkpt lat="43.02912" lon="0.95448">
        <ele>481.4</ele>
        <time>2022-09-04T09:06:30Z</time>
      </trkpt>
      <trkpt lat="43.02914" lon="0.95434">
        <ele>482.4</ele>
        <time>2022-09-04T09:06:37Z</time>
      </trkpt>
      <trkpt lat="43.02915" lon="0.95431">
        <ele>482.4</ele>
        <time>2022-09-04T09:06:39Z</time>
      </trkpt>
      <trkpt lat="43.02918" lon="0.95418">
        <ele>483.4</ele>
        <time>2022-09-04T09:06:46Z</time>
      </trkpt>
      <trkpt lat="43.02918" lon="0.95416">
        <ele>483.4</ele>
        <time>2022-09-04T09:06:47Z</time>
      </trkpt>
      <trkpt lat="43.02922" lon="0.95403">
        <ele>484.4</ele>
        <time>2022-09-04T09:06:54Z</time>
      </trkpt>
      <trkpt lat="43.02922" lon="0.95401">
        <ele>484.6</ele>
        <time>2022-09-04T09:06:55Z</time>
      </trkpt>
      <trkpt lat="43.02926" lon="0.95386">
        <ele>485.6</ele>
        <time>2022-09-04T09:07:03Z</time>
      </trkpt>
      <trkpt lat="43.02926" lon="0.95384">
        <ele>486</ele>
        <time>2022-09-04T09:07:04Z</time>
      </trkpt>
      <trkpt lat="43.02928" lon="0.95373">
        <ele>486.8</ele>
        <time>2022-09-04T09:07:10Z</time>
      </trkpt>
      <trkpt lat="43.0293" lon="0.95368">
        <ele>487.2</ele>
        <time>2022-09-04T09:07:13Z</time>
      </trkpt>
      <trkpt lat="43.0293" lon="0.95367">
        <ele>487.4</ele>
        <time>2022-09-04T09:07:14Z</time>
      </trkpt>
      <trkpt lat="43.0293" lon="0.95361">
        <ele>487.8</ele>
        <time>2022-09-04T09:07:17Z</time>
      </trkpt>
      <trkpt lat="43.02932" lon="0.95354">
        <ele>488.4</ele>
        <time>2022-09-04T09:07:21Z</time>
      </trkpt>
      <trkpt lat="43.02933" lon="0.95348">
        <ele>489</ele>
        <time>2022-09-04T09:07:24Z</time>
      </trkpt>
      <trkpt lat="43.02934" lon="0.95335">
        <ele>489.6</ele>
        <time>2022-09-04T09:07:30Z</time>
      </trkpt>
      <trkpt lat="43.02935" lon="0.95328">
        <ele>490.2</ele>
        <time>2022-09-04T09:07:34Z</time>
      </trkpt>
      <trkpt lat="43.02937" lon="0.95322">
        <ele>490.6</ele>
        <time>2022-09-04T09:07:38Z</time>
      </trkpt>
      <trkpt lat="43.02938" lon="0.95309">
        <ele>491.2</ele>
        <time>2022-09-04T09:07:44Z</time>
      </trkpt>
      <trkpt lat="43.02938" lon="0.95308">
        <ele>491.2</ele>
        <time>2022-09-04T09:07:45Z</time>
      </trkpt>
      <trkpt lat="43.02938" lon="0.95297">
        <ele>492.2</ele>
        <time>2022-09-04T09:07:50Z</time>
      </trkpt>
      <trkpt lat="43.02938" lon="0.95293">
        <ele>492.2</ele>
        <time>2022-09-04T09:07:52Z</time>
      </trkpt>
      <trkpt lat="43.02939" lon="0.95276">
        <ele>493.2</ele>
        <time>2022-09-04T09:08:01Z</time>
      </trkpt>
      <trkpt lat="43.02938" lon="0.95274">
        <ele>493.4</ele>
        <time>2022-09-04T09:08:02Z</time>
      </trkpt>
      <trkpt lat="43.02939" lon="0.95267">
        <ele>494</ele>
        <time>2022-09-04T09:08:05Z</time>
      </trkpt>
      <trkpt lat="43.02939" lon="0.95263">
        <ele>494.4</ele>
        <time>2022-09-04T09:08:07Z</time>
      </trkpt>
      <trkpt lat="43.02938" lon="0.95261">
        <ele>494.6</ele>
        <time>2022-09-04T09:08:08Z</time>
      </trkpt>
      <trkpt lat="43.02937" lon="0.95251">
        <ele>495.4</ele>
        <time>2022-09-04T09:08:14Z</time>
      </trkpt>
      <trkpt lat="43.02937" lon="0.95249">
        <ele>495.4</ele>
        <time>2022-09-04T09:08:15Z</time>
      </trkpt>
      <trkpt lat="43.02937" lon="0.95233">
        <ele>496.6</ele>
        <time>2022-09-04T09:08:23Z</time>
      </trkpt>
      <trkpt lat="43.02937" lon="0.95231">
        <ele>496.8</ele>
        <time>2022-09-04T09:08:24Z</time>
      </trkpt>
      <trkpt lat="43.02937" lon="0.95228">
        <ele>497.2</ele>
        <time>2022-09-04T09:08:26Z</time>
      </trkpt>
      <trkpt lat="43.02936" lon="0.95223">
        <ele>497.6</ele>
        <time>2022-09-04T09:08:28Z</time>
      </trkpt>
      <trkpt lat="43.02937" lon="0.95222">
        <ele>498</ele>
        <time>2022-09-04T09:08:29Z</time>
      </trkpt>
      <trkpt lat="43.02937" lon="0.9522">
        <ele>498.2</ele>
        <time>2022-09-04T09:08:30Z</time>
      </trkpt>
      <trkpt lat="43.0294" lon="0.95213">
        <ele>498.8</ele>
        <time>2022-09-04T09:08:34Z</time>
      </trkpt>
      <trkpt lat="43.02942" lon="0.9521">
        <ele>499.2</ele>
        <time>2022-09-04T09:08:37Z</time>
      </trkpt>
      <trkpt lat="43.02945" lon="0.95209">
        <ele>500</ele>
        <time>2022-09-04T09:08:39Z</time>
      </trkpt>
      <trkpt lat="43.02951" lon="0.95205">
        <ele>500.8</ele>
        <time>2022-09-04T09:08:43Z</time>
      </trkpt>
      <trkpt lat="43.02953" lon="0.95205">
        <ele>501</ele>
        <time>2022-09-04T09:08:44Z</time>
      </trkpt>
      <trkpt lat="43.02961" lon="0.95202">
        <ele>501.6</ele>
        <time>2022-09-04T09:08:48Z</time>
      </trkpt>
      <trkpt lat="43.02964" lon="0.95202">
        <ele>501.8</ele>
        <time>2022-09-04T09:08:50Z</time>
      </trkpt>
      <trkpt lat="43.02967" lon="0.95201">
        <ele>502</ele>
        <time>2022-09-04T09:08:52Z</time>
      </trkpt>
      <trkpt lat="43.02978" lon="0.952">
        <ele>503</ele>
        <time>2022-09-04T09:08:59Z</time>
      </trkpt>
      <trkpt lat="43.0298" lon="0.952">
        <ele>503</ele>
        <time>2022-09-04T09:09:00Z</time>
      </trkpt>
      <trkpt lat="43.02994" lon="0.95197">
        <ele>504</ele>
        <time>2022-09-04T09:09:09Z</time>
      </trkpt>
      <trkpt lat="43.03007" lon="0.95188">
        <ele>504.8</ele>
        <time>2022-09-04T09:09:18Z</time>
      </trkpt>
      <trkpt lat="43.0302" lon="0.95177">
        <ele>504.6</ele>
        <time>2022-09-04T09:09:26Z</time>
      </trkpt>
      <trkpt lat="43.03034" lon="0.95164">
        <ele>504.2</ele>
        <time>2022-09-04T09:09:33Z</time>
      </trkpt>
      <trkpt lat="43.03049" lon="0.95155">
        <ele>503.2</ele>
        <time>2022-09-04T09:09:38Z</time>
      </trkpt>
      <trkpt lat="43.03053" lon="0.95155">
        <ele>502.8</ele>
        <time>2022-09-04T09:09:39Z</time>
      </trkpt>
      <trkpt lat="43.03064" lon="0.95155">
        <ele>501.6</ele>
        <time>2022-09-04T09:09:42Z</time>
      </trkpt>
      <trkpt lat="43.03067" lon="0.95156">
        <ele>501</ele>
        <time>2022-09-04T09:09:43Z</time>
      </trkpt>
      <trkpt lat="43.0307" lon="0.95155">
        <ele>500.4</ele>
        <time>2022-09-04T09:09:44Z</time>
      </trkpt>
      <trkpt lat="43.03077" lon="0.95147">
        <ele>499.4</ele>
        <time>2022-09-04T09:09:47Z</time>
      </trkpt>
      <trkpt lat="43.03076" lon="0.95123">
        <ele>497.2</ele>
        <time>2022-09-04T09:09:50Z</time>
      </trkpt>
      <trkpt lat="43.03078" lon="0.95103">
        <ele>495.2</ele>
        <time>2022-09-04T09:09:52Z</time>
      </trkpt>
      <trkpt lat="43.03082" lon="0.95079">
        <ele>493.8</ele>
        <time>2022-09-04T09:09:54Z</time>
      </trkpt>
      <trkpt lat="43.03086" lon="0.9504">
        <ele>492.4</ele>
        <time>2022-09-04T09:09:57Z</time>
      </trkpt>
      <trkpt lat="43.03089" lon="0.95002">
        <ele>491.4</ele>
        <time>2022-09-04T09:10:00Z</time>
      </trkpt>
      <trkpt lat="43.03091" lon="0.94978">
        <ele>490.2</ele>
        <time>2022-09-04T09:10:02Z</time>
      </trkpt>
      <trkpt lat="43.03093" lon="0.94962">
        <ele>489.2</ele>
        <time>2022-09-04T09:10:04Z</time>
      </trkpt>
      <trkpt lat="43.03095" lon="0.94956">
        <ele>489</ele>
        <time>2022-09-04T09:10:05Z</time>
      </trkpt>
      <trkpt lat="43.03103" lon="0.94932">
        <ele>487.8</ele>
        <time>2022-09-04T09:10:08Z</time>
      </trkpt>
      <trkpt lat="43.03109" lon="0.94915">
        <ele>486.6</ele>
        <time>2022-09-04T09:10:10Z</time>
      </trkpt>
      <trkpt lat="43.03116" lon="0.94895">
        <ele>485.6</ele>
        <time>2022-09-04T09:10:12Z</time>
      </trkpt>
      <trkpt lat="43.03123" lon="0.94874">
        <ele>485.4</ele>
        <time>2022-09-04T09:10:14Z</time>
      </trkpt>
      <trkpt lat="43.03127" lon="0.94864">
        <ele>484.6</ele>
        <time>2022-09-04T09:10:15Z</time>
      </trkpt>
      <trkpt lat="43.03133" lon="0.94845">
        <ele>483.4</ele>
        <time>2022-09-04T09:10:17Z</time>
      </trkpt>
      <trkpt lat="43.03138" lon="0.94831">
        <ele>482.6</ele>
        <time>2022-09-04T09:10:19Z</time>
      </trkpt>
      <trkpt lat="43.03141" lon="0.94825">
        <ele>482.2</ele>
        <time>2022-09-04T09:10:20Z</time>
      </trkpt>
      <trkpt lat="43.03144" lon="0.94818">
        <ele>481.8</ele>
        <time>2022-09-04T09:10:21Z</time>
      </trkpt>
      <trkpt lat="43.03152" lon="0.94805">
        <ele>480.8</ele>
        <time>2022-09-04T09:10:23Z</time>
      </trkpt>
      <trkpt lat="43.03156" lon="0.94798">
        <ele>480.4</ele>
        <time>2022-09-04T09:10:24Z</time>
      </trkpt>
      <trkpt lat="43.03165" lon="0.94785">
        <ele>479.6</ele>
        <time>2022-09-04T09:10:26Z</time>
      </trkpt>
      <trkpt lat="43.03174" lon="0.94779">
        <ele>479</ele>
        <time>2022-09-04T09:10:28Z</time>
      </trkpt>
      <trkpt lat="43.03183" lon="0.94771">
        <ele>478.6</ele>
        <time>2022-09-04T09:10:30Z</time>
      </trkpt>
      <trkpt lat="43.03198" lon="0.94754">
        <ele>477.4</ele>
        <time>2022-09-04T09:10:33Z</time>
      </trkpt>
      <trkpt lat="43.03216" lon="0.94736">
        <ele>476.2</ele>
        <time>2022-09-04T09:10:36Z</time>
      </trkpt>
      <trkpt lat="43.03226" lon="0.94726">
        <ele>475.2</ele>
        <time>2022-09-04T09:10:38Z</time>
      </trkpt>
      <trkpt lat="43.0323" lon="0.94723">
        <ele>475</ele>
        <time>2022-09-04T09:10:39Z</time>
      </trkpt>
      <trkpt lat="43.03234" lon="0.9472">
        <ele>475.2</ele>
        <time>2022-09-04T09:10:40Z</time>
      </trkpt>
      <trkpt lat="43.0324" lon="0.94715">
        <ele>475.2</ele>
        <time>2022-09-04T09:10:42Z</time>
      </trkpt>
      <trkpt lat="43.03245" lon="0.94716">
        <ele>475.4</ele>
        <time>2022-09-04T09:10:44Z</time>
      </trkpt>
      <trkpt lat="43.03248" lon="0.94718">
        <ele>476</ele>
        <time>2022-09-04T09:10:46Z</time>
      </trkpt>
      <trkpt lat="43.0325" lon="0.9472">
        <ele>476.2</ele>
        <time>2022-09-04T09:10:47Z</time>
      </trkpt>
      <trkpt lat="43.03254" lon="0.94723">
        <ele>476.6</ele>
        <time>2022-09-04T09:10:50Z</time>
      </trkpt>
      <trkpt lat="43.0326" lon="0.9473">
        <ele>477.2</ele>
        <time>2022-09-04T09:10:54Z</time>
      </trkpt>
      <trkpt lat="43.03263" lon="0.94733">
        <ele>477.4</ele>
        <time>2022-09-04T09:10:56Z</time>
      </trkpt>
      <trkpt lat="43.03271" lon="0.94745">
        <ele>478.2</ele>
        <time>2022-09-04T09:11:03Z</time>
      </trkpt>
      <trkpt lat="43.03274" lon="0.94748">
        <ele>478.6</ele>
        <time>2022-09-04T09:11:05Z</time>
      </trkpt>
      <trkpt lat="43.03281" lon="0.94755">
        <ele>479.6</ele>
        <time>2022-09-04T09:11:11Z</time>
      </trkpt>
      <trkpt lat="43.03282" lon="0.94757">
        <ele>479.8</ele>
        <time>2022-09-04T09:11:12Z</time>
      </trkpt>
      <trkpt lat="43.03287" lon="0.94761">
        <ele>480.8</ele>
        <time>2022-09-04T09:11:16Z</time>
      </trkpt>
      <trkpt lat="43.0329" lon="0.94763">
        <ele>481.2</ele>
        <time>2022-09-04T09:11:18Z</time>
      </trkpt>
      <trkpt lat="43.03291" lon="0.94764">
        <ele>481.2</ele>
        <time>2022-09-04T09:11:19Z</time>
      </trkpt>
      <trkpt lat="43.03293" lon="0.94767">
        <ele>481.8</ele>
        <time>2022-09-04T09:11:21Z</time>
      </trkpt>
      <trkpt lat="43.03296" lon="0.94772">
        <ele>482.8</ele>
        <time>2022-09-04T09:11:25Z</time>
      </trkpt>
      <trkpt lat="43.03297" lon="0.94773">
        <ele>483</ele>
        <time>2022-09-04T09:11:26Z</time>
      </trkpt>
      <trkpt lat="43.033" lon="0.94777">
        <ele>483.8</ele>
        <time>2022-09-04T09:11:29Z</time>
      </trkpt>
      <trkpt lat="43.03305" lon="0.94783">
        <ele>484.8</ele>
        <time>2022-09-04T09:11:34Z</time>
      </trkpt>
      <trkpt lat="43.0331" lon="0.94789">
        <ele>486.2</ele>
        <time>2022-09-04T09:11:39Z</time>
      </trkpt>
      <trkpt lat="43.03313" lon="0.9479">
        <ele>486.6</ele>
        <time>2022-09-04T09:11:41Z</time>
      </trkpt>
      <trkpt lat="43.03316" lon="0.94795">
        <ele>487.4</ele>
        <time>2022-09-04T09:11:44Z</time>
      </trkpt>
      <trkpt lat="43.0332" lon="0.94796">
        <ele>487.8</ele>
        <time>2022-09-04T09:11:47Z</time>
      </trkpt>
      <trkpt lat="43.03322" lon="0.94798">
        <ele>488.4</ele>
        <time>2022-09-04T09:11:49Z</time>
      </trkpt>
      <trkpt lat="43.03324" lon="0.94802">
        <ele>489</ele>
        <time>2022-09-04T09:11:51Z</time>
      </trkpt>
      <trkpt lat="43.03325" lon="0.94802">
        <ele>489</ele>
        <time>2022-09-04T09:11:52Z</time>
      </trkpt>
      <trkpt lat="43.03326" lon="0.94802">
        <ele>489.2</ele>
        <time>2022-09-04T09:11:53Z</time>
      </trkpt>
      <trkpt lat="43.03327" lon="0.94802">
        <ele>489.4</ele>
        <time>2022-09-04T09:11:54Z</time>
      </trkpt>
      <trkpt lat="43.03334" lon="0.94802">
        <ele>490.6</ele>
        <time>2022-09-04T09:12:00Z</time>
      </trkpt>
      <trkpt lat="43.03342" lon="0.94802">
        <ele>491.6</ele>
        <time>2022-09-04T09:12:07Z</time>
      </trkpt>
      <trkpt lat="43.03349" lon="0.94799">
        <ele>492.4</ele>
        <time>2022-09-04T09:12:13Z</time>
      </trkpt>
      <trkpt lat="43.03351" lon="0.94798">
        <ele>492.4</ele>
        <time>2022-09-04T09:12:14Z</time>
      </trkpt>
      <trkpt lat="43.03353" lon="0.94798">
        <ele>492.8</ele>
        <time>2022-09-04T09:12:16Z</time>
      </trkpt>
      <trkpt lat="43.03363" lon="0.94794">
        <ele>493.6</ele>
        <time>2022-09-04T09:12:23Z</time>
      </trkpt>
      <trkpt lat="43.03364" lon="0.94793">
        <ele>493.8</ele>
        <time>2022-09-04T09:12:24Z</time>
      </trkpt>
      <trkpt lat="43.03372" lon="0.94792">
        <ele>494.2</ele>
        <time>2022-09-04T09:12:30Z</time>
      </trkpt>
      <trkpt lat="43.03381" lon="0.9479">
        <ele>494.4</ele>
        <time>2022-09-04T09:12:36Z</time>
      </trkpt>
      <trkpt lat="43.03396" lon="0.94786">
        <ele>494</ele>
        <time>2022-09-04T09:12:43Z</time>
      </trkpt>
      <trkpt lat="43.03412" lon="0.94782">
        <ele>493.8</ele>
        <time>2022-09-04T09:12:49Z</time>
      </trkpt>
      <trkpt lat="43.03434" lon="0.94778">
        <ele>493.8</ele>
        <time>2022-09-04T09:12:56Z</time>
      </trkpt>
      <trkpt lat="43.03452" lon="0.94778">
        <ele>495</ele>
        <time>2022-09-04T09:13:03Z</time>
      </trkpt>
      <trkpt lat="43.03455" lon="0.94778">
        <ele>495.4</ele>
        <time>2022-09-04T09:13:04Z</time>
      </trkpt>
      <trkpt lat="43.03462" lon="0.94778">
        <ele>496.2</ele>
        <time>2022-09-04T09:13:08Z</time>
      </trkpt>
      <trkpt lat="43.03466" lon="0.94779">
        <ele>496.6</ele>
        <time>2022-09-04T09:13:10Z</time>
      </trkpt>
      <trkpt lat="43.03472" lon="0.94781">
        <ele>497.2</ele>
        <time>2022-09-04T09:13:14Z</time>
      </trkpt>
      <trkpt lat="43.03478" lon="0.94782">
        <ele>498</ele>
        <time>2022-09-04T09:13:17Z</time>
      </trkpt>
      <trkpt lat="43.03487" lon="0.94785">
        <ele>498.4</ele>
        <time>2022-09-04T09:13:22Z</time>
      </trkpt>
      <trkpt lat="43.03492" lon="0.94787">
        <ele>498.6</ele>
        <time>2022-09-04T09:13:25Z</time>
      </trkpt>
      <trkpt lat="43.03505" lon="0.94793">
        <ele>499</ele>
        <time>2022-09-04T09:13:32Z</time>
      </trkpt>
      <trkpt lat="43.03518" lon="0.94806">
        <ele>497.8</ele>
        <time>2022-09-04T09:13:37Z</time>
      </trkpt>
      <trkpt lat="43.0352" lon="0.94818">
        <ele>496.8</ele>
        <time>2022-09-04T09:13:39Z</time>
      </trkpt>
      <trkpt lat="43.03519" lon="0.94824">
        <ele>496.2</ele>
        <time>2022-09-04T09:13:40Z</time>
      </trkpt>
      <trkpt lat="43.03517" lon="0.94835">
        <ele>495.6</ele>
        <time>2022-09-04T09:13:42Z</time>
      </trkpt>
      <trkpt lat="43.03516" lon="0.9485">
        <ele>494.2</ele>
        <time>2022-09-04T09:13:45Z</time>
      </trkpt>
      <trkpt lat="43.0352" lon="0.94871">
        <ele>493.6</ele>
        <time>2022-09-04T09:13:50Z</time>
      </trkpt>
      <trkpt lat="43.03528" lon="0.94891">
        <ele>493.4</ele>
        <time>2022-09-04T09:13:57Z</time>
      </trkpt>
      <trkpt lat="43.03537" lon="0.94895">
        <ele>494.6</ele>
        <time>2022-09-04T09:14:03Z</time>
      </trkpt>
      <trkpt lat="43.0354" lon="0.94898">
        <ele>495.4</ele>
        <time>2022-09-04T09:14:08Z</time>
      </trkpt>
      <trkpt lat="43.03542" lon="0.94899">
        <ele>495.4</ele>
        <time>2022-09-04T09:14:09Z</time>
      </trkpt>
      <trkpt lat="43.03551" lon="0.94901">
        <ele>496.4</ele>
        <time>2022-09-04T09:14:16Z</time>
      </trkpt>
      <trkpt lat="43.03562" lon="0.94898">
        <ele>495.6</ele>
        <time>2022-09-04T09:14:23Z</time>
      </trkpt>
      <trkpt lat="43.03564" lon="0.94897">
        <ele>495.4</ele>
        <time>2022-09-04T09:14:24Z</time>
      </trkpt>
      <trkpt lat="43.03568" lon="0.94893">
        <ele>494.2</ele>
        <time>2022-09-04T09:14:27Z</time>
      </trkpt>
      <trkpt lat="43.03572" lon="0.94892">
        <ele>493.8</ele>
        <time>2022-09-04T09:14:29Z</time>
      </trkpt>
      <trkpt lat="43.03577" lon="0.9489">
        <ele>492.8</ele>
        <time>2022-09-04T09:14:31Z</time>
      </trkpt>
      <trkpt lat="43.0358" lon="0.94887">
        <ele>492.4</ele>
        <time>2022-09-04T09:14:33Z</time>
      </trkpt>
      <trkpt lat="43.03582" lon="0.94885">
        <ele>492</ele>
        <time>2022-09-04T09:14:34Z</time>
      </trkpt>
      <trkpt lat="43.03583" lon="0.94883">
        <ele>491.8</ele>
        <time>2022-09-04T09:14:35Z</time>
      </trkpt>
      <trkpt lat="43.0359" lon="0.94875">
        <ele>490.6</ele>
        <time>2022-09-04T09:14:39Z</time>
      </trkpt>
      <trkpt lat="43.03597" lon="0.94868">
        <ele>489.8</ele>
        <time>2022-09-04T09:14:43Z</time>
      </trkpt>
      <trkpt lat="43.036" lon="0.94866">
        <ele>489.4</ele>
        <time>2022-09-04T09:14:44Z</time>
      </trkpt>
      <trkpt lat="43.03608" lon="0.94859">
        <ele>488.4</ele>
        <time>2022-09-04T09:14:48Z</time>
      </trkpt>
      <trkpt lat="43.0361" lon="0.94856">
        <ele>488.2</ele>
        <time>2022-09-04T09:14:49Z</time>
      </trkpt>
      <trkpt lat="43.03616" lon="0.94851">
        <ele>487.2</ele>
        <time>2022-09-04T09:14:52Z</time>
      </trkpt>
      <trkpt lat="43.03632" lon="0.94841">
        <ele>485.8</ele>
        <time>2022-09-04T09:17:11Z</time>
      </trkpt>
      <trkpt lat="43.03637" lon="0.94842">
        <ele>485.6</ele>
        <time>2022-09-04T09:17:13Z</time>
      </trkpt>
      <trkpt lat="43.03639" lon="0.94841">
        <ele>485.4</ele>
        <time>2022-09-04T09:17:14Z</time>
      </trkpt>
      <trkpt lat="43.03647" lon="0.94843">
        <ele>484.8</ele>
        <time>2022-09-04T09:17:17Z</time>
      </trkpt>
      <trkpt lat="43.03656" lon="0.94846">
        <ele>484.4</ele>
        <time>2022-09-04T09:17:20Z</time>
      </trkpt>
      <trkpt lat="43.03668" lon="0.9485">
        <ele>484</ele>
        <time>2022-09-04T09:17:25Z</time>
      </trkpt>
      <trkpt lat="43.03672" lon="0.94851">
        <ele>483.6</ele>
        <time>2022-09-04T09:17:27Z</time>
      </trkpt>
      <trkpt lat="43.03676" lon="0.94852">
        <ele>484</ele>
        <time>2022-09-04T09:17:30Z</time>
      </trkpt>
      <trkpt lat="43.0369" lon="0.94859">
        <ele>484.2</ele>
        <time>2022-09-04T09:17:39Z</time>
      </trkpt>
      <trkpt lat="43.03702" lon="0.94864">
        <ele>484</ele>
        <time>2022-09-04T09:17:45Z</time>
      </trkpt>
      <trkpt lat="43.03704" lon="0.94864">
        <ele>484</ele>
        <time>2022-09-04T09:17:46Z</time>
      </trkpt>
      <trkpt lat="43.0372" lon="0.94871">
        <ele>484</ele>
        <time>2022-09-04T09:17:53Z</time>
      </trkpt>
      <trkpt lat="43.03765" lon="0.94888">
        <ele>483.2</ele>
        <time>2022-09-04T09:18:12Z</time>
      </trkpt>
      <trkpt lat="43.03767" lon="0.9489">
        <ele>483</ele>
        <time>2022-09-04T09:18:13Z</time>
      </trkpt>
      <trkpt lat="43.03786" lon="0.94896">
        <ele>482.4</ele>
        <time>2022-09-04T09:18:20Z</time>
      </trkpt>
      <trkpt lat="43.03798" lon="0.94903">
        <ele>482</ele>
        <time>2022-09-04T09:18:25Z</time>
      </trkpt>
      <trkpt lat="43.0381" lon="0.94909">
        <ele>481.2</ele>
        <time>2022-09-04T09:18:29Z</time>
      </trkpt>
      <trkpt lat="43.03815" lon="0.94912">
        <ele>481</ele>
        <time>2022-09-04T09:18:31Z</time>
      </trkpt>
      <trkpt lat="43.03834" lon="0.94923">
        <ele>480.2</ele>
        <time>2022-09-04T09:18:37Z</time>
      </trkpt>
      <trkpt lat="43.03845" lon="0.94932">
        <ele>479.6</ele>
        <time>2022-09-04T09:18:41Z</time>
      </trkpt>
      <trkpt lat="43.03849" lon="0.94937">
        <ele>479</ele>
        <time>2022-09-04T09:18:43Z</time>
      </trkpt>
      <trkpt lat="43.03862" lon="0.94951">
        <ele>477.8</ele>
        <time>2022-09-04T09:18:48Z</time>
      </trkpt>
      <trkpt lat="43.03872" lon="0.94962">
        <ele>476.8</ele>
        <time>2022-09-04T09:18:52Z</time>
      </trkpt>
      <trkpt lat="43.03875" lon="0.94965">
        <ele>476.2</ele>
        <time>2022-09-04T09:18:53Z</time>
      </trkpt>
      <trkpt lat="43.0388" lon="0.94969">
        <ele>475.4</ele>
        <time>2022-09-04T09:18:56Z</time>
      </trkpt>
      <trkpt lat="43.03882" lon="0.94968">
        <ele>474.8</ele>
        <time>2022-09-04T09:18:57Z</time>
      </trkpt>
      <trkpt lat="43.03885" lon="0.94967">
        <ele>474.4</ele>
        <time>2022-09-04T09:18:58Z</time>
      </trkpt>
      <trkpt lat="43.0389" lon="0.94963">
        <ele>473.2</ele>
        <time>2022-09-04T09:19:01Z</time>
      </trkpt>
      <trkpt lat="43.03892" lon="0.94961">
        <ele>472.8</ele>
        <time>2022-09-04T09:19:02Z</time>
      </trkpt>
      <trkpt lat="43.03895" lon="0.94959">
        <ele>471.8</ele>
        <time>2022-09-04T09:19:04Z</time>
      </trkpt>
      <trkpt lat="43.039" lon="0.94957">
        <ele>470.6</ele>
        <time>2022-09-04T09:19:07Z</time>
      </trkpt>
      <trkpt lat="43.03901" lon="0.94958">
        <ele>470.2</ele>
        <time>2022-09-04T09:19:08Z</time>
      </trkpt>
      <trkpt lat="43.03904" lon="0.94961">
        <ele>469.6</ele>
        <time>2022-09-04T09:19:10Z</time>
      </trkpt>
      <trkpt lat="43.03912" lon="0.94968">
        <ele>468.6</ele>
        <time>2022-09-04T09:19:13Z</time>
      </trkpt>
      <trkpt lat="43.03913" lon="0.94969">
        <ele>468.2</ele>
        <time>2022-09-04T09:19:14Z</time>
      </trkpt>
      <trkpt lat="43.03914" lon="0.94971">
        <ele>468</ele>
        <time>2022-09-04T09:19:15Z</time>
      </trkpt>
      <trkpt lat="43.03916" lon="0.94975">
        <ele>467.4</ele>
        <time>2022-09-04T09:19:17Z</time>
      </trkpt>
      <trkpt lat="43.03918" lon="0.94977">
        <ele>467.2</ele>
        <time>2022-09-04T09:19:18Z</time>
      </trkpt>
      <trkpt lat="43.03922" lon="0.94976">
        <ele>466</ele>
        <time>2022-09-04T09:19:21Z</time>
      </trkpt>
      <trkpt lat="43.03925" lon="0.94976">
        <ele>465.6</ele>
        <time>2022-09-04T09:19:22Z</time>
      </trkpt>
      <trkpt lat="43.03929" lon="0.94973">
        <ele>464.8</ele>
        <time>2022-09-04T09:19:24Z</time>
      </trkpt>
      <trkpt lat="43.03934" lon="0.94969">
        <ele>463.8</ele>
        <time>2022-09-04T09:19:27Z</time>
      </trkpt>
      <trkpt lat="43.03939" lon="0.94965">
        <ele>462.6</ele>
        <time>2022-09-04T09:19:30Z</time>
      </trkpt>
      <trkpt lat="43.03944" lon="0.94966">
        <ele>461.6</ele>
        <time>2022-09-04T09:19:33Z</time>
      </trkpt>
      <trkpt lat="43.0395" lon="0.94971">
        <ele>460.8</ele>
        <time>2022-09-04T09:19:36Z</time>
      </trkpt>
      <trkpt lat="43.03952" lon="0.94973">
        <ele>460.2</ele>
        <time>2022-09-04T09:19:37Z</time>
      </trkpt>
      <trkpt lat="43.03957" lon="0.94976">
        <ele>459.2</ele>
        <time>2022-09-04T09:19:39Z</time>
      </trkpt>
      <trkpt lat="43.03964" lon="0.94981">
        <ele>458</ele>
        <time>2022-09-04T09:19:42Z</time>
      </trkpt>
      <trkpt lat="43.03968" lon="0.94985">
        <ele>457</ele>
        <time>2022-09-04T09:19:44Z</time>
      </trkpt>
      <trkpt lat="43.03969" lon="0.94986">
        <ele>456.4</ele>
        <time>2022-09-04T09:19:45Z</time>
      </trkpt>
      <trkpt lat="43.03974" lon="0.9499">
        <ele>455.4</ele>
        <time>2022-09-04T09:19:47Z</time>
      </trkpt>
      <trkpt lat="43.03981" lon="0.94996">
        <ele>454.2</ele>
        <time>2022-09-04T09:19:50Z</time>
      </trkpt>
      <trkpt lat="43.03982" lon="0.94998">
        <ele>453.6</ele>
        <time>2022-09-04T09:19:51Z</time>
      </trkpt>
      <trkpt lat="43.03986" lon="0.95003">
        <ele>453</ele>
        <time>2022-09-04T09:19:53Z</time>
      </trkpt>
      <trkpt lat="43.03993" lon="0.95011">
        <ele>451.4</ele>
        <time>2022-09-04T09:19:56Z</time>
      </trkpt>
      <trkpt lat="43.03994" lon="0.95013">
        <ele>451</ele>
        <time>2022-09-04T09:19:57Z</time>
      </trkpt>
      <trkpt lat="43.03996" lon="0.95018">
        <ele>450.4</ele>
        <time>2022-09-04T09:19:59Z</time>
      </trkpt>
      <trkpt lat="43.03999" lon="0.95024">
        <ele>449.4</ele>
        <time>2022-09-04T09:20:02Z</time>
      </trkpt>
      <trkpt lat="43.04004" lon="0.95025">
        <ele>448.2</ele>
        <time>2022-09-04T09:20:05Z</time>
      </trkpt>
      <trkpt lat="43.04008" lon="0.95024">
        <ele>447.8</ele>
        <time>2022-09-04T09:20:07Z</time>
      </trkpt>
      <trkpt lat="43.04012" lon="0.9502">
        <ele>447</ele>
        <time>2022-09-04T09:20:09Z</time>
      </trkpt>
      <trkpt lat="43.04018" lon="0.95013">
        <ele>446</ele>
        <time>2022-09-04T09:20:13Z</time>
      </trkpt>
      <trkpt lat="43.04019" lon="0.95011">
        <ele>445.6</ele>
        <time>2022-09-04T09:20:14Z</time>
      </trkpt>
      <trkpt lat="43.04022" lon="0.95005">
        <ele>444.8</ele>
        <time>2022-09-04T09:20:16Z</time>
      </trkpt>
      <trkpt lat="43.04025" lon="0.94997">
        <ele>443.8</ele>
        <time>2022-09-04T09:20:19Z</time>
      </trkpt>
      <trkpt lat="43.04028" lon="0.94991">
        <ele>443.2</ele>
        <time>2022-09-04T09:20:21Z</time>
      </trkpt>
      <trkpt lat="43.04028" lon="0.94988">
        <ele>442.8</ele>
        <time>2022-09-04T09:20:22Z</time>
      </trkpt>
      <trkpt lat="43.04033" lon="0.94975">
        <ele>441.4</ele>
        <time>2022-09-04T09:20:26Z</time>
      </trkpt>
      <trkpt lat="43.04035" lon="0.94966">
        <ele>440.2</ele>
        <time>2022-09-04T09:20:29Z</time>
      </trkpt>
      <trkpt lat="43.04037" lon="0.94958">
        <ele>439</ele>
        <time>2022-09-04T09:20:32Z</time>
      </trkpt>
      <trkpt lat="43.0404" lon="0.94948">
        <ele>438</ele>
        <time>2022-09-04T09:20:36Z</time>
      </trkpt>
      <trkpt lat="43.04042" lon="0.94943">
        <ele>437</ele>
        <time>2022-09-04T09:20:38Z</time>
      </trkpt>
      <trkpt lat="43.04042" lon="0.9494">
        <ele>436.6</ele>
        <time>2022-09-04T09:20:39Z</time>
      </trkpt>
      <trkpt lat="43.04044" lon="0.94931">
        <ele>435.6</ele>
        <time>2022-09-04T09:20:42Z</time>
      </trkpt>
      <trkpt lat="43.04044" lon="0.94926">
        <ele>434.8</ele>
        <time>2022-09-04T09:20:44Z</time>
      </trkpt>
      <trkpt lat="43.04044" lon="0.94923">
        <ele>434.4</ele>
        <time>2022-09-04T09:20:45Z</time>
      </trkpt>
      <trkpt lat="43.04045" lon="0.94914">
        <ele>433.4</ele>
        <time>2022-09-04T09:20:48Z</time>
      </trkpt>
      <trkpt lat="43.04046" lon="0.94904">
        <ele>432.2</ele>
        <time>2022-09-04T09:20:51Z</time>
      </trkpt>
      <trkpt lat="43.04046" lon="0.94901">
        <ele>432</ele>
        <time>2022-09-04T09:20:52Z</time>
      </trkpt>
      <trkpt lat="43.04046" lon="0.94895">
        <ele>431.2</ele>
        <time>2022-09-04T09:20:54Z</time>
      </trkpt>
      <trkpt lat="43.04047" lon="0.94887">
        <ele>430</ele>
        <time>2022-09-04T09:20:57Z</time>
      </trkpt>
      <trkpt lat="43.04047" lon="0.94884">
        <ele>429.4</ele>
        <time>2022-09-04T09:20:58Z</time>
      </trkpt>
      <trkpt lat="43.04048" lon="0.94876">
        <ele>428.8</ele>
        <time>2022-09-04T09:21:01Z</time>
      </trkpt>
      <trkpt lat="43.04047" lon="0.94869">
        <ele>427.8</ele>
        <time>2022-09-04T09:21:04Z</time>
      </trkpt>
      <trkpt lat="43.04043" lon="0.94835">
        <ele>424.6</ele>
        <time>2022-09-04T09:23:26Z</time>
      </trkpt>
      <trkpt lat="43.04041" lon="0.9483">
        <ele>424</ele>
        <time>2022-09-04T09:23:28Z</time>
      </trkpt>
      <trkpt lat="43.0404" lon="0.94828">
        <ele>423.6</ele>
        <time>2022-09-04T09:23:29Z</time>
      </trkpt>
      <trkpt lat="43.04036" lon="0.94819">
        <ele>422.8</ele>
        <time>2022-09-04T09:23:34Z</time>
      </trkpt>
      <trkpt lat="43.04033" lon="0.94814">
        <ele>422.4</ele>
        <time>2022-09-04T09:23:37Z</time>
      </trkpt>
      <trkpt lat="43.04037" lon="0.9479">
        <ele>417.2</ele>
        <time>2022-09-04T09:24:12Z</time>
      </trkpt>
      <trkpt lat="43.0404" lon="0.94785">
        <ele>417</ele>
        <time>2022-09-04T09:24:14Z</time>
      </trkpt>
      <trkpt lat="43.04044" lon="0.94781">
        <ele>416.6</ele>
        <time>2022-09-04T09:24:16Z</time>
      </trkpt>
      <trkpt lat="43.04051" lon="0.94771">
        <ele>417</ele>
        <time>2022-09-04T09:24:20Z</time>
      </trkpt>
      <trkpt lat="43.04059" lon="0.94751">
        <ele>418.2</ele>
        <time>2022-09-04T09:24:25Z</time>
      </trkpt>
      <trkpt lat="43.04061" lon="0.94747">
        <ele>418.4</ele>
        <time>2022-09-04T09:24:26Z</time>
      </trkpt>
      <trkpt lat="43.04066" lon="0.94738">
        <ele>419.4</ele>
        <time>2022-09-04T09:24:29Z</time>
      </trkpt>
      <trkpt lat="43.04073" lon="0.94726">
        <ele>420.4</ele>
        <time>2022-09-04T09:24:34Z</time>
      </trkpt>
      <trkpt lat="43.04075" lon="0.94724">
        <ele>421.4</ele>
        <time>2022-09-04T09:24:38Z</time>
      </trkpt>
      <trkpt lat="43.04075" lon="0.94723">
        <ele>421.6</ele>
        <time>2022-09-04T09:24:39Z</time>
      </trkpt>
      <trkpt lat="43.04104" lon="0.94697">
        <ele>420</ele>
        <time>2022-09-04T09:27:53Z</time>
      </trkpt>
      <trkpt lat="43.04108" lon="0.94692">
        <ele>419.8</ele>
        <time>2022-09-04T09:27:55Z</time>
      </trkpt>
      <trkpt lat="43.04116" lon="0.94679">
        <ele>419.6</ele>
        <time>2022-09-04T09:28:01Z</time>
      </trkpt>
      <trkpt lat="43.04122" lon="0.94669">
        <ele>420</ele>
        <time>2022-09-04T09:28:07Z</time>
      </trkpt>
      <trkpt lat="43.04123" lon="0.94667">
        <ele>420.2</ele>
        <time>2022-09-04T09:28:08Z</time>
      </trkpt>
      <trkpt lat="43.04124" lon="0.94658">
        <ele>420.6</ele>
        <time>2022-09-04T09:28:12Z</time>
      </trkpt>
      <trkpt lat="43.0413" lon="0.94595">
        <ele>427</ele>
        <time>2022-09-04T09:30:04Z</time>
      </trkpt>
      <trkpt lat="43.04136" lon="0.94579">
        <ele>427.6</ele>
        <time>2022-09-04T09:30:11Z</time>
      </trkpt>
      <trkpt lat="43.04136" lon="0.94577">
        <ele>427.6</ele>
        <time>2022-09-04T09:30:12Z</time>
      </trkpt>
      <trkpt lat="43.04138" lon="0.94572">
        <ele>428</ele>
        <time>2022-09-04T09:30:14Z</time>
      </trkpt>
      <trkpt lat="43.04141" lon="0.94568">
        <ele>428.2</ele>
        <time>2022-09-04T09:30:16Z</time>
      </trkpt>
      <trkpt lat="43.04143" lon="0.9456">
        <ele>428.2</ele>
        <time>2022-09-04T09:30:19Z</time>
      </trkpt>
      <trkpt lat="43.04156" lon="0.94503">
        <ele>428.6</ele>
        <time>2022-09-04T09:30:45Z</time>
      </trkpt>
      <trkpt lat="43.04155" lon="0.94497">
        <ele>428.6</ele>
        <time>2022-09-04T09:30:47Z</time>
      </trkpt>
      <trkpt lat="43.04153" lon="0.94478">
        <ele>428.2</ele>
        <time>2022-09-04T09:30:54Z</time>
      </trkpt>
      <trkpt lat="43.04158" lon="0.94461">
        <ele>428.8</ele>
        <time>2022-09-04T09:31:00Z</time>
      </trkpt>
      <trkpt lat="43.04159" lon="0.94454">
        <ele>429</ele>
        <time>2022-09-04T09:31:02Z</time>
      </trkpt>
      <trkpt lat="43.04161" lon="0.94443">
        <ele>430</ele>
        <time>2022-09-04T09:31:06Z</time>
      </trkpt>
      <trkpt lat="43.04201" lon="0.94377">
        <ele>433.6</ele>
        <time>2022-09-04T09:35:12Z</time>
      </trkpt>
      <trkpt lat="43.04205" lon="0.94376">
        <ele>433.6</ele>
        <time>2022-09-04T09:35:14Z</time>
      </trkpt>
      <trkpt lat="43.04209" lon="0.94375">
        <ele>433.8</ele>
        <time>2022-09-04T09:35:16Z</time>
      </trkpt>
      <trkpt lat="43.04216" lon="0.94374">
        <ele>434.4</ele>
        <time>2022-09-04T09:35:20Z</time>
      </trkpt>
      <trkpt lat="43.04217" lon="0.94374">
        <ele>434.6</ele>
        <time>2022-09-04T09:35:21Z</time>
      </trkpt>
      <trkpt lat="43.04225" lon="0.94372">
        <ele>435.6</ele>
        <time>2022-09-04T09:35:26Z</time>
      </trkpt>
      <trkpt lat="43.04226" lon="0.94371">
        <ele>435.8</ele>
        <time>2022-09-04T09:35:27Z</time>
      </trkpt>
      <trkpt lat="43.04235" lon="0.94369">
        <ele>436.6</ele>
        <time>2022-09-04T09:35:34Z</time>
      </trkpt>
      <trkpt lat="43.04237" lon="0.94369">
        <ele>436.8</ele>
        <time>2022-09-04T09:35:35Z</time>
      </trkpt>
      <trkpt lat="43.04247" lon="0.94372">
        <ele>437.4</ele>
        <time>2022-09-04T09:35:54Z</time>
      </trkpt>
      <trkpt lat="43.04251" lon="0.94378">
        <ele>436.8</ele>
        <time>2022-09-04T09:35:57Z</time>
      </trkpt>
      <trkpt lat="43.04258" lon="0.94385">
        <ele>435.6</ele>
        <time>2022-09-04T09:36:01Z</time>
      </trkpt>
      <trkpt lat="43.0426" lon="0.94387">
        <ele>435.4</ele>
        <time>2022-09-04T09:36:02Z</time>
      </trkpt>
      <trkpt lat="43.04263" lon="0.94392">
        <ele>434.8</ele>
        <time>2022-09-04T09:36:04Z</time>
      </trkpt>
      <trkpt lat="43.04265" lon="0.94394">
        <ele>434.6</ele>
        <time>2022-09-04T09:36:05Z</time>
      </trkpt>
      <trkpt lat="43.04271" lon="0.94402">
        <ele>434</ele>
        <time>2022-09-04T09:36:09Z</time>
      </trkpt>
      <trkpt lat="43.04273" lon="0.94403">
        <ele>434</ele>
        <time>2022-09-04T09:36:10Z</time>
      </trkpt>
      <trkpt lat="43.04278" lon="0.94407">
        <ele>433.6</ele>
        <time>2022-09-04T09:36:13Z</time>
      </trkpt>
      <trkpt lat="43.04282" lon="0.94408">
        <ele>433.6</ele>
        <time>2022-09-04T09:36:15Z</time>
      </trkpt>
      <trkpt lat="43.04284" lon="0.94408">
        <ele>433.4</ele>
        <time>2022-09-04T09:36:16Z</time>
      </trkpt>
      <trkpt lat="43.04289" lon="0.9441">
        <ele>433</ele>
        <time>2022-09-04T09:36:18Z</time>
      </trkpt>
      <trkpt lat="43.04292" lon="0.94412">
        <ele>433</ele>
        <time>2022-09-04T09:36:19Z</time>
      </trkpt>
      <trkpt lat="43.04299" lon="0.94417">
        <ele>432.4</ele>
        <time>2022-09-04T09:36:22Z</time>
      </trkpt>
      <trkpt lat="43.04312" lon="0.94426">
        <ele>431.8</ele>
        <time>2022-09-04T09:36:27Z</time>
      </trkpt>
      <trkpt lat="43.04314" lon="0.94427">
        <ele>431.4</ele>
        <time>2022-09-04T09:36:28Z</time>
      </trkpt>
      <trkpt lat="43.04323" lon="0.9443">
        <ele>430.2</ele>
        <time>2022-09-04T09:36:31Z</time>
      </trkpt>
      <trkpt lat="43.04329" lon="0.94428">
        <ele>429.4</ele>
        <time>2022-09-04T09:36:33Z</time>
      </trkpt>
      <trkpt lat="43.04332" lon="0.94427">
        <ele>429.2</ele>
        <time>2022-09-04T09:36:34Z</time>
      </trkpt>
      <trkpt lat="43.04339" lon="0.94424">
        <ele>428</ele>
        <time>2022-09-04T09:36:36Z</time>
      </trkpt>
      <trkpt lat="43.04346" lon="0.9442">
        <ele>427.4</ele>
        <time>2022-09-04T09:36:39Z</time>
      </trkpt>
      <trkpt lat="43.04348" lon="0.9442">
        <ele>427</ele>
        <time>2022-09-04T09:36:40Z</time>
      </trkpt>
      <trkpt lat="43.04354" lon="0.94417">
        <ele>426</ele>
        <time>2022-09-04T09:36:43Z</time>
      </trkpt>
      <trkpt lat="43.04358" lon="0.94415">
        <ele>425.4</ele>
        <time>2022-09-04T09:36:45Z</time>
      </trkpt>
      <trkpt lat="43.04361" lon="0.94413">
        <ele>424.8</ele>
        <time>2022-09-04T09:36:47Z</time>
      </trkpt>
      <trkpt lat="43.04368" lon="0.94407">
        <ele>423.8</ele>
        <time>2022-09-04T09:36:50Z</time>
      </trkpt>
      <trkpt lat="43.04377" lon="0.94396">
        <ele>422.8</ele>
        <time>2022-09-04T09:36:54Z</time>
      </trkpt>
      <trkpt lat="43.04379" lon="0.94392">
        <ele>422.4</ele>
        <time>2022-09-04T09:36:55Z</time>
      </trkpt>
      <trkpt lat="43.04386" lon="0.9438">
        <ele>421.6</ele>
        <time>2022-09-04T09:36:59Z</time>
      </trkpt>
      <trkpt lat="43.04391" lon="0.94372">
        <ele>420.8</ele>
        <time>2022-09-04T09:37:02Z</time>
      </trkpt>
      <trkpt lat="43.04392" lon="0.9437">
        <ele>420.8</ele>
        <time>2022-09-04T09:37:03Z</time>
      </trkpt>
      <trkpt lat="43.04393" lon="0.94368">
        <ele>420.4</ele>
        <time>2022-09-04T09:37:04Z</time>
      </trkpt>
      <trkpt lat="43.044" lon="0.9436">
        <ele>419.6</ele>
        <time>2022-09-04T09:37:08Z</time>
      </trkpt>
      <trkpt lat="43.04491" lon="0.94219">
        <ele>395.4</ele>
        <time>2022-09-04T09:39:51Z</time>
      </trkpt>
      <trkpt lat="43.04492" lon="0.9422">
        <ele>395</ele>
        <time>2022-09-04T09:39:53Z</time>
      </trkpt>
      <trkpt lat="43.04498" lon="0.94224">
        <ele>394.2</ele>
        <time>2022-09-04T09:39:56Z</time>
      </trkpt>
      <trkpt lat="43.04577" lon="0.94191">
        <ele>389.2</ele>
        <time>2022-09-04T09:41:50Z</time>
      </trkpt>
      <trkpt lat="43.04582" lon="0.94178">
        <ele>389</ele>
        <time>2022-09-04T09:41:56Z</time>
      </trkpt>
      <trkpt lat="43.04589" lon="0.94166">
        <ele>389</ele>
        <time>2022-09-04T09:42:02Z</time>
      </trkpt>
      <trkpt lat="43.0459" lon="0.94165">
        <ele>389.2</ele>
        <time>2022-09-04T09:42:03Z</time>
      </trkpt>
      <trkpt lat="43.04594" lon="0.94158">
        <ele>389</ele>
        <time>2022-09-04T09:42:07Z</time>
      </trkpt>
      <trkpt lat="43.04598" lon="0.94152">
        <ele>389.2</ele>
        <time>2022-09-04T09:42:10Z</time>
      </trkpt>
      <trkpt lat="43.04604" lon="0.9414">
        <ele>389.2</ele>
        <time>2022-09-04T09:42:16Z</time>
      </trkpt>
      <trkpt lat="43.04613" lon="0.94127">
        <ele>389.6</ele>
        <time>2022-09-04T09:42:23Z</time>
      </trkpt>
      <trkpt lat="43.04621" lon="0.94112">
        <ele>389.2</ele>
        <time>2022-09-04T09:42:30Z</time>
      </trkpt>
      <trkpt lat="43.0463" lon="0.94094">
        <ele>388.8</ele>
        <time>2022-09-04T09:42:35Z</time>
      </trkpt>
      <trkpt lat="43.04636" lon="0.94078">
        <ele>388.2</ele>
        <time>2022-09-04T09:42:39Z</time>
      </trkpt>
      <trkpt lat="43.04642" lon="0.94056">
        <ele>387</ele>
        <time>2022-09-04T09:42:45Z</time>
      </trkpt>
      <trkpt lat="43.04643" lon="0.94053">
        <ele>387</ele>
        <time>2022-09-04T09:42:46Z</time>
      </trkpt>
      <trkpt lat="43.0465" lon="0.94028">
        <ele>386.4</ele>
        <time>2022-09-04T09:42:53Z</time>
      </trkpt>
      <trkpt lat="43.04654" lon="0.94012">
        <ele>386.2</ele>
        <time>2022-09-04T09:42:58Z</time>
      </trkpt>
      <trkpt lat="43.04655" lon="0.94005">
        <ele>386</ele>
        <time>2022-09-04T09:43:00Z</time>
      </trkpt>
      <trkpt lat="43.04659" lon="0.93995">
        <ele>385.4</ele>
        <time>2022-09-04T09:43:04Z</time>
      </trkpt>
      <trkpt lat="43.04659" lon="0.93992">
        <ele>385</ele>
        <time>2022-09-04T09:43:07Z</time>
      </trkpt>
      <trkpt lat="43.04665" lon="0.9397">
        <ele>384</ele>
        <time>2022-09-04T09:45:06Z</time>
      </trkpt>
      <trkpt lat="43.04667" lon="0.93965">
        <ele>384</ele>
        <time>2022-09-04T09:45:08Z</time>
      </trkpt>
      <trkpt lat="43.0467" lon="0.93951">
        <ele>383.2</ele>
        <time>2022-09-04T09:45:12Z</time>
      </trkpt>
      <trkpt lat="43.04672" lon="0.93937">
        <ele>382.8</ele>
        <time>2022-09-04T09:45:15Z</time>
      </trkpt>
      <trkpt lat="43.04674" lon="0.93927">
        <ele>382.6</ele>
        <time>2022-09-04T09:45:17Z</time>
      </trkpt>
      <trkpt lat="43.04676" lon="0.93911">
        <ele>381.6</ele>
        <time>2022-09-04T09:45:20Z</time>
      </trkpt>
      <trkpt lat="43.04679" lon="0.93894">
        <ele>381.2</ele>
        <time>2022-09-04T09:45:23Z</time>
      </trkpt>
      <trkpt lat="43.04679" lon="0.93875">
        <ele>380.2</ele>
        <time>2022-09-04T09:45:26Z</time>
      </trkpt>
      <trkpt lat="43.04681" lon="0.9385">
        <ele>379.4</ele>
        <time>2022-09-04T09:45:30Z</time>
      </trkpt>
      <trkpt lat="43.04682" lon="0.93838">
        <ele>379.2</ele>
        <time>2022-09-04T09:45:32Z</time>
      </trkpt>
      <trkpt lat="43.04687" lon="0.93812">
        <ele>378.6</ele>
        <time>2022-09-04T09:45:37Z</time>
      </trkpt>
      <trkpt lat="43.04692" lon="0.93791">
        <ele>378</ele>
        <time>2022-09-04T09:45:42Z</time>
      </trkpt>
      <trkpt lat="43.04693" lon="0.93787">
        <ele>377.6</ele>
        <time>2022-09-04T09:45:43Z</time>
      </trkpt>
      <trkpt lat="43.04695" lon="0.93768">
        <ele>377</ele>
        <time>2022-09-04T09:45:47Z</time>
      </trkpt>
      <trkpt lat="43.04695" lon="0.93763">
        <ele>376.6</ele>
        <time>2022-09-04T09:45:48Z</time>
      </trkpt>
      <trkpt lat="43.04694" lon="0.93746">
        <ele>375.6</ele>
        <time>2022-09-04T09:45:52Z</time>
      </trkpt>
      <trkpt lat="43.04694" lon="0.93741">
        <ele>375.4</ele>
        <time>2022-09-04T09:45:54Z</time>
      </trkpt>
      <trkpt lat="43.04692" lon="0.93719">
        <ele>374</ele>
        <time>2022-09-04T09:46:24Z</time>
      </trkpt>
      <trkpt lat="43.04691" lon="0.93706">
        <ele>372.8</ele>
        <time>2022-09-04T09:46:27Z</time>
      </trkpt>
      <trkpt lat="43.04691" lon="0.93694">
        <ele>371.8</ele>
        <time>2022-09-04T09:46:29Z</time>
      </trkpt>
      <trkpt lat="43.04691" lon="0.93688">
        <ele>371.2</ele>
        <time>2022-09-04T09:46:30Z</time>
      </trkpt>
      <trkpt lat="43.0469" lon="0.93682">
        <ele>370.6</ele>
        <time>2022-09-04T09:46:31Z</time>
      </trkpt>
      <trkpt lat="43.04689" lon="0.9367">
        <ele>369.6</ele>
        <time>2022-09-04T09:46:33Z</time>
      </trkpt>
      <trkpt lat="43.04688" lon="0.93652">
        <ele>368.4</ele>
        <time>2022-09-04T09:46:36Z</time>
      </trkpt>
      <trkpt lat="43.04687" lon="0.93636">
        <ele>367</ele>
        <time>2022-09-04T09:46:39Z</time>
      </trkpt>
      <trkpt lat="43.04687" lon="0.93619">
        <ele>365.6</ele>
        <time>2022-09-04T09:46:42Z</time>
      </trkpt>
      <trkpt lat="43.04687" lon="0.93604">
        <ele>364.2</ele>
        <time>2022-09-04T09:46:44Z</time>
      </trkpt>
      <trkpt lat="43.04686" lon="0.93596">
        <ele>363.8</ele>
        <time>2022-09-04T09:46:45Z</time>
      </trkpt>
      <trkpt lat="43.04686" lon="0.93589">
        <ele>363</ele>
        <time>2022-09-04T09:46:46Z</time>
      </trkpt>
      <trkpt lat="43.04685" lon="0.93574">
        <ele>361.6</ele>
        <time>2022-09-04T09:46:48Z</time>
      </trkpt>
      <trkpt lat="43.04684" lon="0.93552">
        <ele>360.4</ele>
        <time>2022-09-04T09:46:51Z</time>
      </trkpt>
      <trkpt lat="43.04683" lon="0.93544">
        <ele>359.6</ele>
        <time>2022-09-04T09:46:52Z</time>
      </trkpt>
      <trkpt lat="43.04682" lon="0.93536">
        <ele>359.2</ele>
        <time>2022-09-04T09:46:53Z</time>
      </trkpt>
      <trkpt lat="43.04682" lon="0.93522">
        <ele>358</ele>
        <time>2022-09-04T09:46:55Z</time>
      </trkpt>
      <trkpt lat="43.04683" lon="0.93515">
        <ele>357.4</ele>
        <time>2022-09-04T09:46:56Z</time>
      </trkpt>
      <trkpt lat="43.04686" lon="0.935">
        <ele>356.6</ele>
        <time>2022-09-04T09:46:58Z</time>
      </trkpt>
      <trkpt lat="43.04693" lon="0.93479">
        <ele>355.2</ele>
        <time>2022-09-04T09:47:01Z</time>
      </trkpt>
      <trkpt lat="43.04698" lon="0.93465">
        <ele>354.4</ele>
        <time>2022-09-04T09:47:03Z</time>
      </trkpt>
      <trkpt lat="43.04701" lon="0.93459">
        <ele>354.2</ele>
        <time>2022-09-04T09:47:04Z</time>
      </trkpt>
      <trkpt lat="43.04705" lon="0.93447">
        <ele>353</ele>
        <time>2022-09-04T09:47:06Z</time>
      </trkpt>
      <trkpt lat="43.0471" lon="0.93431">
        <ele>351.8</ele>
        <time>2022-09-04T09:47:09Z</time>
      </trkpt>
      <trkpt lat="43.04712" lon="0.93426">
        <ele>351.8</ele>
        <time>2022-09-04T09:47:10Z</time>
      </trkpt>
      <trkpt lat="43.04717" lon="0.9341">
        <ele>350.8</ele>
        <time>2022-09-04T09:47:14Z</time>
      </trkpt>
      <trkpt lat="43.04719" lon="0.93407">
        <ele>350.6</ele>
        <time>2022-09-04T09:47:15Z</time>
      </trkpt>
      <trkpt lat="43.04718" lon="0.93396">
        <ele>350.4</ele>
        <time>2022-09-04T09:47:17Z</time>
      </trkpt>
      <trkpt lat="43.04715" lon="0.93391">
        <ele>350</ele>
        <time>2022-09-04T09:47:18Z</time>
      </trkpt>
      <trkpt lat="43.04711" lon="0.93385">
        <ele>349.6</ele>
        <time>2022-09-04T09:47:19Z</time>
      </trkpt>
      <trkpt lat="43.04699" lon="0.93364">
        <ele>348.6</ele>
        <time>2022-09-04T09:47:22Z</time>
      </trkpt>
      <trkpt lat="43.04695" lon="0.93356">
        <ele>348</ele>
        <time>2022-09-04T09:47:23Z</time>
      </trkpt>
      <trkpt lat="43.04687" lon="0.93336">
        <ele>347</ele>
        <time>2022-09-04T09:47:25Z</time>
      </trkpt>
      <trkpt lat="43.04684" lon="0.93325">
        <ele>346.2</ele>
        <time>2022-09-04T09:47:26Z</time>
      </trkpt>
      <trkpt lat="43.04682" lon="0.93313">
        <ele>345.6</ele>
        <time>2022-09-04T09:47:27Z</time>
      </trkpt>
      <trkpt lat="43.04678" lon="0.93277">
        <ele>344.6</ele>
        <time>2022-09-04T09:47:30Z</time>
      </trkpt>
      <trkpt lat="43.04677" lon="0.93266">
        <ele>344.4</ele>
        <time>2022-09-04T09:47:31Z</time>
      </trkpt>
      <trkpt lat="43.04674" lon="0.93229">
        <ele>343.2</ele>
        <time>2022-09-04T09:47:34Z</time>
      </trkpt>
      <trkpt lat="43.0467" lon="0.93182">
        <ele>342.2</ele>
        <time>2022-09-04T09:47:38Z</time>
      </trkpt>
      <trkpt lat="43.04669" lon="0.9317">
        <ele>342</ele>
        <time>2022-09-04T09:47:39Z</time>
      </trkpt>
      <trkpt lat="43.04665" lon="0.93115">
        <ele>340.8</ele>
        <time>2022-09-04T09:47:44Z</time>
      </trkpt>
      <trkpt lat="43.04664" lon="0.93104">
        <ele>340.8</ele>
        <time>2022-09-04T09:47:45Z</time>
      </trkpt>
      <trkpt lat="43.0466" lon="0.93047">
        <ele>340.4</ele>
        <time>2022-09-04T09:47:51Z</time>
      </trkpt>
      <trkpt lat="43.04655" lon="0.92989">
        <ele>340</ele>
        <time>2022-09-04T09:47:58Z</time>
      </trkpt>
      <trkpt lat="43.04654" lon="0.92981">
        <ele>339.8</ele>
        <time>2022-09-04T09:47:59Z</time>
      </trkpt>
      <trkpt lat="43.0465" lon="0.92929">
        <ele>340</ele>
        <time>2022-09-04T09:48:06Z</time>
      </trkpt>
      <trkpt lat="43.04646" lon="0.92882">
        <ele>340.4</ele>
        <time>2022-09-04T09:48:13Z</time>
      </trkpt>
      <trkpt lat="43.04644" lon="0.92851">
        <ele>340.6</ele>
        <time>2022-09-04T09:48:18Z</time>
      </trkpt>
      <trkpt lat="43.0464" lon="0.92793">
        <ele>340.4</ele>
        <time>2022-09-04T09:48:28Z</time>
      </trkpt>
      <trkpt lat="43.04639" lon="0.92773">
        <ele>340.8</ele>
        <time>2022-09-04T09:48:32Z</time>
      </trkpt>
      <trkpt lat="43.04637" lon="0.92757">
        <ele>341.4</ele>
        <time>2022-09-04T09:48:36Z</time>
      </trkpt>
      <trkpt lat="43.0463" lon="0.92749">
        <ele>341.8</ele>
        <time>2022-09-04T09:48:40Z</time>
      </trkpt>
      <trkpt lat="43.04614" lon="0.9274">
        <ele>342</ele>
        <time>2022-09-04T09:48:46Z</time>
      </trkpt>
      <trkpt lat="43.0459" lon="0.92733">
        <ele>342.4</ele>
        <time>2022-09-04T09:48:54Z</time>
      </trkpt>
      <trkpt lat="43.04571" lon="0.92726">
        <ele>342.8</ele>
        <time>2022-09-04T09:49:01Z</time>
      </trkpt>
      <trkpt lat="43.0457" lon="0.92724">
        <ele>343</ele>
        <time>2022-09-04T09:49:02Z</time>
      </trkpt>
      <trkpt lat="43.0457" lon="0.92721">
        <ele>343.2</ele>
        <time>2022-09-04T09:49:03Z</time>
      </trkpt>
      <trkpt lat="43.0457" lon="0.92713">
        <ele>343.4</ele>
        <time>2022-09-04T09:49:06Z</time>
      </trkpt>
      <trkpt lat="43.0457" lon="0.92698">
        <ele>344</ele>
        <time>2022-09-04T09:49:11Z</time>
      </trkpt>
      <trkpt lat="43.0457" lon="0.92687">
        <ele>344.4</ele>
        <time>2022-09-04T09:49:15Z</time>
      </trkpt>
      <trkpt lat="43.0457" lon="0.92675">
        <ele>345</ele>
        <time>2022-09-04T09:49:19Z</time>
      </trkpt>
      <trkpt lat="43.04573" lon="0.92664">
        <ele>345.4</ele>
        <time>2022-09-04T09:49:23Z</time>
      </trkpt>
      <trkpt lat="43.04584" lon="0.92652">
        <ele>345.8</ele>
        <time>2022-09-04T09:49:30Z</time>
      </trkpt>
      <trkpt lat="43.04588" lon="0.92651">
        <ele>346</ele>
        <time>2022-09-04T09:49:32Z</time>
      </trkpt>
      <trkpt lat="43.04603" lon="0.9265">
        <ele>346</ele>
        <time>2022-09-04T09:49:38Z</time>
      </trkpt>
      <trkpt lat="43.04633" lon="0.92651">
        <ele>345.6</ele>
        <time>2022-09-04T09:49:48Z</time>
      </trkpt>
      <trkpt lat="43.04645" lon="0.92647">
        <ele>345.6</ele>
        <time>2022-09-04T09:49:52Z</time>
      </trkpt>
      <trkpt lat="43.04649" lon="0.92641">
        <ele>345.6</ele>
        <time>2022-09-04T09:49:54Z</time>
      </trkpt>
      <trkpt lat="43.04653" lon="0.92626">
        <ele>345.8</ele>
        <time>2022-09-04T09:49:59Z</time>
      </trkpt>
      <trkpt lat="43.04655" lon="0.92603">
        <ele>346.6</ele>
        <time>2022-09-04T09:50:07Z</time>
      </trkpt>
      <trkpt lat="43.04655" lon="0.92596">
        <ele>347</ele>
        <time>2022-09-04T09:50:10Z</time>
      </trkpt>
      <trkpt lat="43.04656" lon="0.92584">
        <ele>348</ele>
        <time>2022-09-04T09:50:16Z</time>
      </trkpt>
      <trkpt lat="43.04656" lon="0.92582">
        <ele>348</ele>
        <time>2022-09-04T09:50:17Z</time>
      </trkpt>
      <trkpt lat="43.04655" lon="0.92569">
        <ele>349.2</ele>
        <time>2022-09-04T09:50:24Z</time>
      </trkpt>
      <trkpt lat="43.04656" lon="0.92557">
        <ele>350.2</ele>
        <time>2022-09-04T09:50:30Z</time>
      </trkpt>
      <trkpt lat="43.04656" lon="0.92555">
        <ele>350.4</ele>
        <time>2022-09-04T09:50:31Z</time>
      </trkpt>
      <trkpt lat="43.04658" lon="0.92544">
        <ele>351.2</ele>
        <time>2022-09-04T09:50:36Z</time>
      </trkpt>
      <trkpt lat="43.04658" lon="0.9254">
        <ele>351.6</ele>
        <time>2022-09-04T09:50:38Z</time>
      </trkpt>
      <trkpt lat="43.04659" lon="0.92533">
        <ele>352.2</ele>
        <time>2022-09-04T09:50:42Z</time>
      </trkpt>
      <trkpt lat="43.04659" lon="0.92529">
        <ele>352.8</ele>
        <time>2022-09-04T09:50:45Z</time>
      </trkpt>
      <trkpt lat="43.04659" lon="0.92526">
        <ele>353.2</ele>
        <time>2022-09-04T09:50:47Z</time>
      </trkpt>
      <trkpt lat="43.04659" lon="0.92524">
        <ele>353.4</ele>
        <time>2022-09-04T09:50:48Z</time>
      </trkpt>
      <trkpt lat="43.0466" lon="0.92519">
        <ele>353.8</ele>
        <time>2022-09-04T09:50:51Z</time>
      </trkpt>
      <trkpt lat="43.04661" lon="0.92516">
        <ele>353.8</ele>
        <time>2022-09-04T09:50:52Z</time>
      </trkpt>
      <trkpt lat="43.04661" lon="0.92514">
        <ele>354.2</ele>
        <time>2022-09-04T09:50:53Z</time>
      </trkpt>
      <trkpt lat="43.04662" lon="0.9251">
        <ele>354.4</ele>
        <time>2022-09-04T09:50:55Z</time>
      </trkpt>
      <trkpt lat="43.04663" lon="0.92507">
        <ele>354.8</ele>
        <time>2022-09-04T09:50:57Z</time>
      </trkpt>
      <trkpt lat="43.04664" lon="0.92505">
        <ele>355</ele>
        <time>2022-09-04T09:50:59Z</time>
      </trkpt>
      <trkpt lat="43.04666" lon="0.92501">
        <ele>355.6</ele>
        <time>2022-09-04T09:51:02Z</time>
      </trkpt>
      <trkpt lat="43.04683" lon="0.92422">
        <ele>363.8</ele>
        <time>2022-09-04T09:51:51Z</time>
      </trkpt>
      <trkpt lat="43.04682" lon="0.92414">
        <ele>364.4</ele>
        <time>2022-09-04T09:51:55Z</time>
      </trkpt>
      <trkpt lat="43.04682" lon="0.92413">
        <ele>364.6</ele>
        <time>2022-09-04T09:51:56Z</time>
      </trkpt>
      <trkpt lat="43.04683" lon="0.92412">
        <ele>364.8</ele>
        <time>2022-09-04T09:51:57Z</time>
      </trkpt>
      <trkpt lat="43.04683" lon="0.92403">
        <ele>365.8</ele>
        <time>2022-09-04T09:52:02Z</time>
      </trkpt>
      <trkpt lat="43.04682" lon="0.92401">
        <ele>365.8</ele>
        <time>2022-09-04T09:52:03Z</time>
      </trkpt>
      <trkpt lat="43.04683" lon="0.924">
        <ele>366</ele>
        <time>2022-09-04T09:52:04Z</time>
      </trkpt>
      <trkpt lat="43.04683" lon="0.92394">
        <ele>366.6</ele>
        <time>2022-09-04T09:52:08Z</time>
      </trkpt>
      <trkpt lat="43.04682" lon="0.92389">
        <ele>366.8</ele>
        <time>2022-09-04T09:52:11Z</time>
      </trkpt>
      <trkpt lat="43.04683" lon="0.92385">
        <ele>367.2</ele>
        <time>2022-09-04T09:52:13Z</time>
      </trkpt>
      <trkpt lat="43.04684" lon="0.92383">
        <ele>367.4</ele>
        <time>2022-09-04T09:52:14Z</time>
      </trkpt>
      <trkpt lat="43.04683" lon="0.9238">
        <ele>367.6</ele>
        <time>2022-09-04T09:52:16Z</time>
      </trkpt>
      <trkpt lat="43.04683" lon="0.92378">
        <ele>367.8</ele>
        <time>2022-09-04T09:52:17Z</time>
      </trkpt>
      <trkpt lat="43.04682" lon="0.92373">
        <ele>368.2</ele>
        <time>2022-09-04T09:52:20Z</time>
      </trkpt>
      <trkpt lat="43.04682" lon="0.92366">
        <ele>368.8</ele>
        <time>2022-09-04T09:52:24Z</time>
      </trkpt>
      <trkpt lat="43.04682" lon="0.92362">
        <ele>368.8</ele>
        <time>2022-09-04T09:52:26Z</time>
      </trkpt>
      <trkpt lat="43.04682" lon="0.92348">
        <ele>369.8</ele>
        <time>2022-09-04T09:52:33Z</time>
      </trkpt>
      <trkpt lat="43.04682" lon="0.92343">
        <ele>370.2</ele>
        <time>2022-09-04T09:52:36Z</time>
      </trkpt>
      <trkpt lat="43.04681" lon="0.92333">
        <ele>371</ele>
        <time>2022-09-04T09:52:41Z</time>
      </trkpt>
      <trkpt lat="43.04681" lon="0.92324">
        <ele>371.6</ele>
        <time>2022-09-04T09:52:46Z</time>
      </trkpt>
      <trkpt lat="43.0468" lon="0.92316">
        <ele>372.2</ele>
        <time>2022-09-04T09:52:50Z</time>
      </trkpt>
      <trkpt lat="43.04679" lon="0.9231">
        <ele>372.4</ele>
        <time>2022-09-04T09:52:53Z</time>
      </trkpt>
      <trkpt lat="43.04678" lon="0.92303">
        <ele>373</ele>
        <time>2022-09-04T09:52:57Z</time>
      </trkpt>
      <trkpt lat="43.04678" lon="0.92301">
        <ele>373.2</ele>
        <time>2022-09-04T09:52:58Z</time>
      </trkpt>
      <trkpt lat="43.04677" lon="0.92297">
        <ele>373.6</ele>
        <time>2022-09-04T09:53:00Z</time>
      </trkpt>
      <trkpt lat="43.04676" lon="0.92294">
        <ele>373.8</ele>
        <time>2022-09-04T09:53:02Z</time>
      </trkpt>
      <trkpt lat="43.04676" lon="0.92292">
        <ele>374</ele>
        <time>2022-09-04T09:53:03Z</time>
      </trkpt>
      <trkpt lat="43.04676" lon="0.92288">
        <ele>374.2</ele>
        <time>2022-09-04T09:53:05Z</time>
      </trkpt>
      <trkpt lat="43.04676" lon="0.92286">
        <ele>374.4</ele>
        <time>2022-09-04T09:53:06Z</time>
      </trkpt>
      <trkpt lat="43.04673" lon="0.92277">
        <ele>375.4</ele>
        <time>2022-09-04T09:53:12Z</time>
      </trkpt>
      <trkpt lat="43.04673" lon="0.92275">
        <ele>375.4</ele>
        <time>2022-09-04T09:53:13Z</time>
      </trkpt>
      <trkpt lat="43.0467" lon="0.92269">
        <ele>376.2</ele>
        <time>2022-09-04T09:53:17Z</time>
      </trkpt>
      <trkpt lat="43.0467" lon="0.92266">
        <ele>376.6</ele>
        <time>2022-09-04T09:53:19Z</time>
      </trkpt>
      <trkpt lat="43.0467" lon="0.92262">
        <ele>376.8</ele>
        <time>2022-09-04T09:53:21Z</time>
      </trkpt>
      <trkpt lat="43.04668" lon="0.92259">
        <ele>376.8</ele>
        <time>2022-09-04T09:53:23Z</time>
      </trkpt>
      <trkpt lat="43.04664" lon="0.92253">
        <ele>377.2</ele>
        <time>2022-09-04T09:53:27Z</time>
      </trkpt>
      <trkpt lat="43.04665" lon="0.92251">
        <ele>377.6</ele>
        <time>2022-09-04T09:53:28Z</time>
      </trkpt>
      <trkpt lat="43.04663" lon="0.92245">
        <ele>378</ele>
        <time>2022-09-04T09:53:32Z</time>
      </trkpt>
      <trkpt lat="43.04663" lon="0.92243">
        <ele>378.2</ele>
        <time>2022-09-04T09:53:33Z</time>
      </trkpt>
      <trkpt lat="43.04662" lon="0.9224">
        <ele>378.6</ele>
        <time>2022-09-04T09:53:35Z</time>
      </trkpt>
      <trkpt lat="43.04659" lon="0.92228">
        <ele>379.6</ele>
        <time>2022-09-04T09:53:42Z</time>
      </trkpt>
      <trkpt lat="43.04658" lon="0.92226">
        <ele>379.8</ele>
        <time>2022-09-04T09:53:43Z</time>
      </trkpt>
      <trkpt lat="43.04655" lon="0.92212">
        <ele>380.8</ele>
        <time>2022-09-04T09:53:50Z</time>
      </trkpt>
      <trkpt lat="43.04655" lon="0.92211">
        <ele>381</ele>
        <time>2022-09-04T09:53:51Z</time>
      </trkpt>
      <trkpt lat="43.04654" lon="0.92198">
        <ele>382</ele>
        <time>2022-09-04T09:53:57Z</time>
      </trkpt>
      <trkpt lat="43.04653" lon="0.92192">
        <ele>382.2</ele>
        <time>2022-09-04T09:54:00Z</time>
      </trkpt>
      <trkpt lat="43.04653" lon="0.9218">
        <ele>383</ele>
        <time>2022-09-04T09:54:06Z</time>
      </trkpt>
      <trkpt lat="43.04652" lon="0.92175">
        <ele>383.2</ele>
        <time>2022-09-04T09:54:08Z</time>
      </trkpt>
      <trkpt lat="43.04652" lon="0.92161">
        <ele>384</ele>
        <time>2022-09-04T09:54:15Z</time>
      </trkpt>
      <trkpt lat="43.04652" lon="0.92158">
        <ele>384.2</ele>
        <time>2022-09-04T09:54:16Z</time>
      </trkpt>
      <trkpt lat="43.0465" lon="0.92138">
        <ele>385.2</ele>
        <time>2022-09-04T09:54:25Z</time>
      </trkpt>
      <trkpt lat="43.0465" lon="0.92136">
        <ele>385.2</ele>
        <time>2022-09-04T09:54:26Z</time>
      </trkpt>
      <trkpt lat="43.04648" lon="0.9212">
        <ele>386.2</ele>
        <time>2022-09-04T09:54:33Z</time>
      </trkpt>
      <trkpt lat="43.04648" lon="0.92118">
        <ele>386.2</ele>
        <time>2022-09-04T09:54:34Z</time>
      </trkpt>
      <trkpt lat="43.04647" lon="0.92099">
        <ele>387</ele>
        <time>2022-09-04T09:54:42Z</time>
      </trkpt>
      <trkpt lat="43.04647" lon="0.92097">
        <ele>387.2</ele>
        <time>2022-09-04T09:54:43Z</time>
      </trkpt>
      <trkpt lat="43.04647" lon="0.92095">
        <ele>387.4</ele>
        <time>2022-09-04T09:54:44Z</time>
      </trkpt>
      <trkpt lat="43.04647" lon="0.92077">
        <ele>388.2</ele>
        <time>2022-09-04T09:54:52Z</time>
      </trkpt>
      <trkpt lat="43.04648" lon="0.92074">
        <ele>388.2</ele>
        <time>2022-09-04T09:54:53Z</time>
      </trkpt>
      <trkpt lat="43.04653" lon="0.92056">
        <ele>389.2</ele>
        <time>2022-09-04T09:55:01Z</time>
      </trkpt>
      <trkpt lat="43.04654" lon="0.92054">
        <ele>389.4</ele>
        <time>2022-09-04T09:55:02Z</time>
      </trkpt>
      <trkpt lat="43.0466" lon="0.92044">
        <ele>390.2</ele>
        <time>2022-09-04T09:55:07Z</time>
      </trkpt>
      <trkpt lat="43.04662" lon="0.92041">
        <ele>390.4</ele>
        <time>2022-09-04T09:55:09Z</time>
      </trkpt>
      <trkpt lat="43.04668" lon="0.92031">
        <ele>391</ele>
        <time>2022-09-04T09:55:55Z</time>
      </trkpt>
      <trkpt lat="43.04671" lon="0.92026">
        <ele>391.6</ele>
        <time>2022-09-04T09:55:58Z</time>
      </trkpt>
      <trkpt lat="43.04678" lon="0.92013">
        <ele>392.6</ele>
        <time>2022-09-04T09:56:04Z</time>
      </trkpt>
      <trkpt lat="43.04684" lon="0.92">
        <ele>393.6</ele>
        <time>2022-09-04T09:56:10Z</time>
      </trkpt>
      <trkpt lat="43.04685" lon="0.91998">
        <ele>393.8</ele>
        <time>2022-09-04T09:56:11Z</time>
      </trkpt>
      <trkpt lat="43.0469" lon="0.91987">
        <ele>395</ele>
        <time>2022-09-04T09:56:17Z</time>
      </trkpt>
      <trkpt lat="43.04691" lon="0.91985">
        <ele>395</ele>
        <time>2022-09-04T09:56:18Z</time>
      </trkpt>
      <trkpt lat="43.04696" lon="0.91973">
        <ele>396.2</ele>
        <time>2022-09-04T09:56:24Z</time>
      </trkpt>
      <trkpt lat="43.04698" lon="0.91968">
        <ele>396.6</ele>
        <time>2022-09-04T09:56:27Z</time>
      </trkpt>
      <trkpt lat="43.04702" lon="0.91958">
        <ele>397.2</ele>
        <time>2022-09-04T09:56:32Z</time>
      </trkpt>
      <trkpt lat="43.04705" lon="0.91953">
        <ele>397.8</ele>
        <time>2022-09-04T09:56:35Z</time>
      </trkpt>
      <trkpt lat="43.04707" lon="0.91947">
        <ele>398.4</ele>
        <time>2022-09-04T09:56:38Z</time>
      </trkpt>
      <trkpt lat="43.04711" lon="0.91937">
        <ele>398.8</ele>
        <time>2022-09-04T09:56:43Z</time>
      </trkpt>
      <trkpt lat="43.04713" lon="0.91928">
        <ele>399.4</ele>
        <time>2022-09-04T09:56:48Z</time>
      </trkpt>
      <trkpt lat="43.04714" lon="0.91921">
        <ele>399.8</ele>
        <time>2022-09-04T09:56:51Z</time>
      </trkpt>
      <trkpt lat="43.04719" lon="0.91906">
        <ele>400.6</ele>
        <time>2022-09-04T09:56:58Z</time>
      </trkpt>
      <trkpt lat="43.04721" lon="0.919">
        <ele>400.8</ele>
        <time>2022-09-04T09:57:01Z</time>
      </trkpt>
      <trkpt lat="43.04724" lon="0.91887">
        <ele>401.6</ele>
        <time>2022-09-04T09:57:06Z</time>
      </trkpt>
      <trkpt lat="43.04727" lon="0.91876">
        <ele>402.2</ele>
        <time>2022-09-04T09:57:11Z</time>
      </trkpt>
      <trkpt lat="43.04729" lon="0.91868">
        <ele>402.6</ele>
        <time>2022-09-04T09:57:14Z</time>
      </trkpt>
      <trkpt lat="43.04733" lon="0.91853">
        <ele>403.4</ele>
        <time>2022-09-04T09:57:20Z</time>
      </trkpt>
      <trkpt lat="43.04734" lon="0.91848">
        <ele>403.6</ele>
        <time>2022-09-04T09:57:22Z</time>
      </trkpt>
      <trkpt lat="43.04737" lon="0.91831">
        <ele>404.2</ele>
        <time>2022-09-04T09:57:29Z</time>
      </trkpt>
      <trkpt lat="43.04739" lon="0.91824">
        <ele>404.6</ele>
        <time>2022-09-04T09:57:32Z</time>
      </trkpt>
      <trkpt lat="43.04741" lon="0.91811">
        <ele>405</ele>
        <time>2022-09-04T09:57:37Z</time>
      </trkpt>
      <trkpt lat="43.04744" lon="0.91796">
        <ele>405.6</ele>
        <time>2022-09-04T09:57:43Z</time>
      </trkpt>
      <trkpt lat="43.04745" lon="0.91789">
        <ele>405.8</ele>
        <time>2022-09-04T09:57:46Z</time>
      </trkpt>
      <trkpt lat="43.04749" lon="0.91771">
        <ele>406.6</ele>
        <time>2022-09-04T09:57:53Z</time>
      </trkpt>
      <trkpt lat="43.04752" lon="0.91757">
        <ele>406.8</ele>
        <time>2022-09-04T09:57:58Z</time>
      </trkpt>
      <trkpt lat="43.04755" lon="0.91742">
        <ele>407.6</ele>
        <time>2022-09-04T09:58:03Z</time>
      </trkpt>
      <trkpt lat="43.04757" lon="0.91731">
        <ele>407.8</ele>
        <time>2022-09-04T09:58:07Z</time>
      </trkpt>
      <trkpt lat="43.0476" lon="0.91713">
        <ele>408.6</ele>
        <time>2022-09-04T09:58:13Z</time>
      </trkpt>
      <trkpt lat="43.04761" lon="0.91707">
        <ele>408.8</ele>
        <time>2022-09-04T09:58:15Z</time>
      </trkpt>
      <trkpt lat="43.04765" lon="0.91679">
        <ele>409.6</ele>
        <time>2022-09-04T09:58:24Z</time>
      </trkpt>
      <trkpt lat="43.04766" lon="0.91666">
        <ele>410</ele>
        <time>2022-09-04T09:58:28Z</time>
      </trkpt>
      <trkpt lat="43.04769" lon="0.91642">
        <ele>410.2</ele>
        <time>2022-09-04T09:58:36Z</time>
      </trkpt>
      <trkpt lat="43.04774" lon="0.91616">
        <ele>410.4</ele>
        <time>2022-09-04T09:58:45Z</time>
      </trkpt>
      <trkpt lat="43.04775" lon="0.91606">
        <ele>410.2</ele>
        <time>2022-09-04T09:58:49Z</time>
      </trkpt>
      <trkpt lat="43.04776" lon="0.91596">
        <ele>410.2</ele>
        <time>2022-09-04T09:58:53Z</time>
      </trkpt>
      <trkpt lat="43.04778" lon="0.91581">
        <ele>409.8</ele>
        <time>2022-09-04T10:00:50Z</time>
      </trkpt>
      <trkpt lat="43.04779" lon="0.91561">
        <ele>409.8</ele>
        <time>2022-09-04T10:00:56Z</time>
      </trkpt>
      <trkpt lat="43.0478" lon="0.91536">
        <ele>409.6</ele>
        <time>2022-09-04T10:01:03Z</time>
      </trkpt>
      <trkpt lat="43.0478" lon="0.9151">
        <ele>409.4</ele>
        <time>2022-09-04T10:01:10Z</time>
      </trkpt>
      <trkpt lat="43.04785" lon="0.91482">
        <ele>409</ele>
        <time>2022-09-04T10:01:17Z</time>
      </trkpt>
      <trkpt lat="43.04785" lon="0.91477">
        <ele>408.8</ele>
        <time>2022-09-04T10:01:18Z</time>
      </trkpt>
      <trkpt lat="43.04789" lon="0.91446">
        <ele>408.4</ele>
        <time>2022-09-04T10:01:24Z</time>
      </trkpt>
      <trkpt lat="43.0479" lon="0.91429">
        <ele>408</ele>
        <time>2022-09-04T10:01:27Z</time>
      </trkpt>
      <trkpt lat="43.04792" lon="0.91417">
        <ele>407.6</ele>
        <time>2022-09-04T10:01:29Z</time>
      </trkpt>
      <trkpt lat="43.04793" lon="0.91403">
        <ele>407.6</ele>
        <time>2022-09-04T10:01:31Z</time>
      </trkpt>
      <trkpt lat="43.04797" lon="0.91354">
        <ele>406.6</ele>
        <time>2022-09-04T10:01:38Z</time>
      </trkpt>
      <trkpt lat="43.04799" lon="0.91347">
        <ele>406.4</ele>
        <time>2022-09-04T10:01:39Z</time>
      </trkpt>
      <trkpt lat="43.04804" lon="0.91315">
        <ele>405.4</ele>
        <time>2022-09-04T10:01:43Z</time>
      </trkpt>
      <trkpt lat="43.04808" lon="0.91299">
        <ele>405.2</ele>
        <time>2022-09-04T10:01:45Z</time>
      </trkpt>
      <trkpt lat="43.04819" lon="0.91249">
        <ele>404.4</ele>
        <time>2022-09-04T10:01:51Z</time>
      </trkpt>
      <trkpt lat="43.04822" lon="0.9124">
        <ele>404</ele>
        <time>2022-09-04T10:01:52Z</time>
      </trkpt>
      <trkpt lat="43.04829" lon="0.91204">
        <ele>403.2</ele>
        <time>2022-09-04T10:01:56Z</time>
      </trkpt>
      <trkpt lat="43.04833" lon="0.91184">
        <ele>403</ele>
        <time>2022-09-04T10:01:58Z</time>
      </trkpt>
      <trkpt lat="43.04841" lon="0.91154">
        <ele>402.2</ele>
        <time>2022-09-04T10:02:01Z</time>
      </trkpt>
      <trkpt lat="43.04853" lon="0.91119">
        <ele>401.4</ele>
        <time>2022-09-04T10:02:05Z</time>
      </trkpt>
      <trkpt lat="43.04855" lon="0.91114">
        <ele>401</ele>
        <time>2022-09-04T10:02:06Z</time>
      </trkpt>
      <trkpt lat="43.04857" lon="0.91107">
        <ele>400.6</ele>
        <time>2022-09-04T10:02:08Z</time>
      </trkpt>
      <trkpt lat="43.04859" lon="0.91102">
        <ele>400.6</ele>
        <time>2022-09-04T10:02:30Z</time>
      </trkpt>
      <trkpt lat="43.04861" lon="0.91097">
        <ele>400.6</ele>
        <time>2022-09-04T10:02:32Z</time>
      </trkpt>
      <trkpt lat="43.0487" lon="0.91075">
        <ele>401.2</ele>
        <time>2022-09-04T10:02:39Z</time>
      </trkpt>
      <trkpt lat="43.04884" lon="0.91042">
        <ele>401.4</ele>
        <time>2022-09-04T10:02:49Z</time>
      </trkpt>
      <trkpt lat="43.04896" lon="0.91011">
        <ele>401</ele>
        <time>2022-09-04T10:02:58Z</time>
      </trkpt>
      <trkpt lat="43.049" lon="0.91002">
        <ele>401</ele>
        <time>2022-09-04T10:03:03Z</time>
      </trkpt>
      <trkpt lat="43.04902" lon="0.90994">
        <ele>400.8</ele>
        <time>2022-09-04T10:03:13Z</time>
      </trkpt>
      <trkpt lat="43.04902" lon="0.90991">
        <ele>400.8</ele>
        <time>2022-09-04T10:03:14Z</time>
      </trkpt>
      <trkpt lat="43.04907" lon="0.90972">
        <ele>400.2</ele>
        <time>2022-09-04T10:03:19Z</time>
      </trkpt>
      <trkpt lat="43.04911" lon="0.90949">
        <ele>399.8</ele>
        <time>2022-09-04T10:03:23Z</time>
      </trkpt>
      <trkpt lat="43.04914" lon="0.9093">
        <ele>399.6</ele>
        <time>2022-09-04T10:03:26Z</time>
      </trkpt>
      <trkpt lat="43.04914" lon="0.90923">
        <ele>399.6</ele>
        <time>2022-09-04T10:03:27Z</time>
      </trkpt>
      <trkpt lat="43.04916" lon="0.90884">
        <ele>399.4</ele>
        <time>2022-09-04T10:03:33Z</time>
      </trkpt>
      <trkpt lat="43.04917" lon="0.90833">
        <ele>399.6</ele>
        <time>2022-09-04T10:03:41Z</time>
      </trkpt>
      <trkpt lat="43.04917" lon="0.908">
        <ele>400.8</ele>
        <time>2022-09-04T10:03:48Z</time>
      </trkpt>
      <trkpt lat="43.04916" lon="0.90792">
        <ele>401</ele>
        <time>2022-09-04T10:03:50Z</time>
      </trkpt>
      <trkpt lat="43.04916" lon="0.90769">
        <ele>402</ele>
        <time>2022-09-04T10:03:56Z</time>
      </trkpt>
      <trkpt lat="43.04916" lon="0.90766">
        <ele>402.4</ele>
        <time>2022-09-04T10:03:57Z</time>
      </trkpt>
      <trkpt lat="43.04915" lon="0.90752">
        <ele>403.2</ele>
        <time>2022-09-04T10:04:02Z</time>
      </trkpt>
      <trkpt lat="43.04915" lon="0.90747">
        <ele>403.6</ele>
        <time>2022-09-04T10:04:04Z</time>
      </trkpt>
      <trkpt lat="43.04915" lon="0.90738">
        <ele>404.4</ele>
        <time>2022-09-04T10:04:08Z</time>
      </trkpt>
      <trkpt lat="43.04914" lon="0.90731">
        <ele>405.2</ele>
        <time>2022-09-04T10:04:11Z</time>
      </trkpt>
      <trkpt lat="43.04911" lon="0.90728">
        <ele>405.8</ele>
        <time>2022-09-04T10:04:13Z</time>
      </trkpt>
      <trkpt lat="43.04911" lon="0.90726">
        <ele>405.8</ele>
        <time>2022-09-04T10:04:14Z</time>
      </trkpt>
      <trkpt lat="43.0491" lon="0.90721">
        <ele>406.2</ele>
        <time>2022-09-04T10:04:16Z</time>
      </trkpt>
      <trkpt lat="43.0491" lon="0.90717">
        <ele>406.8</ele>
        <time>2022-09-04T10:04:18Z</time>
      </trkpt>
      <trkpt lat="43.04907" lon="0.90706">
        <ele>407.8</ele>
        <time>2022-09-04T10:04:23Z</time>
      </trkpt>
      <trkpt lat="43.04908" lon="0.90697">
        <ele>408.4</ele>
        <time>2022-09-04T10:04:27Z</time>
      </trkpt>
      <trkpt lat="43.04907" lon="0.90692">
        <ele>408.6</ele>
        <time>2022-09-04T10:04:29Z</time>
      </trkpt>
      <trkpt lat="43.04907" lon="0.90684">
        <ele>408.8</ele>
        <time>2022-09-04T10:04:32Z</time>
      </trkpt>
      <trkpt lat="43.04907" lon="0.90681">
        <ele>408.8</ele>
        <time>2022-09-04T10:04:33Z</time>
      </trkpt>
      <trkpt lat="43.04913" lon="0.90658">
        <ele>409</ele>
        <time>2022-09-04T10:04:41Z</time>
      </trkpt>
      <trkpt lat="43.04921" lon="0.9063">
        <ele>409.4</ele>
        <time>2022-09-04T10:04:50Z</time>
      </trkpt>
      <trkpt lat="43.04931" lon="0.906">
        <ele>409.6</ele>
        <time>2022-09-04T10:04:59Z</time>
      </trkpt>
      <trkpt lat="43.04936" lon="0.90583">
        <ele>410</ele>
        <time>2022-09-04T10:05:04Z</time>
      </trkpt>
      <trkpt lat="43.04939" lon="0.90572">
        <ele>410.2</ele>
        <time>2022-09-04T10:05:07Z</time>
      </trkpt>
      <trkpt lat="43.04942" lon="0.90549">
        <ele>411</ele>
        <time>2022-09-04T10:05:14Z</time>
      </trkpt>
      <trkpt lat="43.04942" lon="0.90542">
        <ele>411.4</ele>
        <time>2022-09-04T10:05:16Z</time>
      </trkpt>
      <trkpt lat="43.04947" lon="0.90518">
        <ele>412</ele>
        <time>2022-09-04T10:05:23Z</time>
      </trkpt>
      <trkpt lat="43.0495" lon="0.90495">
        <ele>413.2</ele>
        <time>2022-09-04T10:05:30Z</time>
      </trkpt>
      <trkpt lat="43.04952" lon="0.90487">
        <ele>413.6</ele>
        <time>2022-09-04T10:05:33Z</time>
      </trkpt>
      <trkpt lat="43.04953" lon="0.90484">
        <ele>414.2</ele>
        <time>2022-09-04T10:05:35Z</time>
      </trkpt>
      <trkpt lat="43.04954" lon="0.90482">
        <ele>414.4</ele>
        <time>2022-09-04T10:05:36Z</time>
      </trkpt>
      <trkpt lat="43.04956" lon="0.90477">
        <ele>414.6</ele>
        <time>2022-09-04T10:05:38Z</time>
      </trkpt>
      <trkpt lat="43.04956" lon="0.90462">
        <ele>415.4</ele>
        <time>2022-09-04T10:05:44Z</time>
      </trkpt>
      <trkpt lat="43.04956" lon="0.90459">
        <ele>415.6</ele>
        <time>2022-09-04T10:05:45Z</time>
      </trkpt>
      <trkpt lat="43.04957" lon="0.90445">
        <ele>416.4</ele>
        <time>2022-09-04T10:05:50Z</time>
      </trkpt>
      <trkpt lat="43.04957" lon="0.9044">
        <ele>416.8</ele>
        <time>2022-09-04T10:05:52Z</time>
      </trkpt>
      <trkpt lat="43.04957" lon="0.90431">
        <ele>417.6</ele>
        <time>2022-09-04T10:05:56Z</time>
      </trkpt>
      <trkpt lat="43.04959" lon="0.90424">
        <ele>418</ele>
        <time>2022-09-04T10:05:59Z</time>
      </trkpt>
      <trkpt lat="43.04958" lon="0.90415">
        <ele>418.8</ele>
        <time>2022-09-04T10:06:03Z</time>
      </trkpt>
      <trkpt lat="43.04959" lon="0.90413">
        <ele>418.8</ele>
        <time>2022-09-04T10:06:04Z</time>
      </trkpt>
      <trkpt lat="43.04959" lon="0.90399">
        <ele>419.8</ele>
        <time>2022-09-04T10:06:10Z</time>
      </trkpt>
      <trkpt lat="43.04959" lon="0.90389">
        <ele>420.6</ele>
        <time>2022-09-04T10:06:15Z</time>
      </trkpt>
      <trkpt lat="43.04958" lon="0.90384">
        <ele>421</ele>
        <time>2022-09-04T10:06:17Z</time>
      </trkpt>
      <trkpt lat="43.04959" lon="0.90374">
        <ele>421.6</ele>
        <time>2022-09-04T10:06:21Z</time>
      </trkpt>
      <trkpt lat="43.04958" lon="0.90359">
        <ele>422</ele>
        <time>2022-09-04T10:06:27Z</time>
      </trkpt>
      <trkpt lat="43.04958" lon="0.90355">
        <ele>422.4</ele>
        <time>2022-09-04T10:06:29Z</time>
      </trkpt>
      <trkpt lat="43.04957" lon="0.90334">
        <ele>423</ele>
        <time>2022-09-04T10:06:37Z</time>
      </trkpt>
      <trkpt lat="43.04955" lon="0.90311">
        <ele>424</ele>
        <time>2022-09-04T10:06:45Z</time>
      </trkpt>
      <trkpt lat="43.04955" lon="0.90308">
        <ele>424</ele>
        <time>2022-09-04T10:06:46Z</time>
      </trkpt>
      <trkpt lat="43.04953" lon="0.90291">
        <ele>424.6</ele>
        <time>2022-09-04T10:06:52Z</time>
      </trkpt>
      <trkpt lat="43.04953" lon="0.90288">
        <ele>424.8</ele>
        <time>2022-09-04T10:06:53Z</time>
      </trkpt>
      <trkpt lat="43.04951" lon="0.9028">
        <ele>425</ele>
        <time>2022-09-04T10:06:56Z</time>
      </trkpt>
      <trkpt lat="43.0495" lon="0.90263">
        <ele>425.6</ele>
        <time>2022-09-04T10:07:02Z</time>
      </trkpt>
      <trkpt lat="43.0495" lon="0.90257">
        <ele>425.8</ele>
        <time>2022-09-04T10:07:04Z</time>
      </trkpt>
      <trkpt lat="43.04949" lon="0.90244">
        <ele>426.2</ele>
        <time>2022-09-04T10:07:09Z</time>
      </trkpt>
      <trkpt lat="43.04949" lon="0.90237">
        <ele>426.2</ele>
        <time>2022-09-04T10:07:12Z</time>
      </trkpt>
      <trkpt lat="43.04949" lon="0.90224">
        <ele>426</ele>
        <time>2022-09-04T10:07:17Z</time>
      </trkpt>
      <trkpt lat="43.04949" lon="0.90223">
        <ele>425.8</ele>
        <time>2022-09-04T10:07:18Z</time>
      </trkpt>
      <trkpt lat="43.04947" lon="0.90216">
        <ele>425.6</ele>
        <time>2022-09-04T10:07:30Z</time>
      </trkpt>
      <trkpt lat="43.04946" lon="0.90206">
        <ele>425.4</ele>
        <time>2022-09-04T10:07:33Z</time>
      </trkpt>
      <trkpt lat="43.04946" lon="0.90198">
        <ele>425</ele>
        <time>2022-09-04T10:07:35Z</time>
      </trkpt>
      <trkpt lat="43.04945" lon="0.90181">
        <ele>424.6</ele>
        <time>2022-09-04T10:07:38Z</time>
      </trkpt>
      <trkpt lat="43.04943" lon="0.90162">
        <ele>424.2</ele>
        <time>2022-09-04T10:07:41Z</time>
      </trkpt>
      <trkpt lat="43.04942" lon="0.90155">
        <ele>424</ele>
        <time>2022-09-04T10:07:42Z</time>
      </trkpt>
      <trkpt lat="43.04941" lon="0.90147">
        <ele>424</ele>
        <time>2022-09-04T10:07:43Z</time>
      </trkpt>
      <trkpt lat="43.04939" lon="0.90121">
        <ele>422.8</ele>
        <time>2022-09-04T10:07:46Z</time>
      </trkpt>
      <trkpt lat="43.04937" lon="0.90101">
        <ele>421.8</ele>
        <time>2022-09-04T10:07:48Z</time>
      </trkpt>
      <trkpt lat="43.04936" lon="0.9009">
        <ele>421.2</ele>
        <time>2022-09-04T10:07:49Z</time>
      </trkpt>
      <trkpt lat="43.04934" lon="0.90065">
        <ele>420.2</ele>
        <time>2022-09-04T10:07:51Z</time>
      </trkpt>
      <trkpt lat="43.0493" lon="0.9004">
        <ele>418.4</ele>
        <time>2022-09-04T10:07:53Z</time>
      </trkpt>
      <trkpt lat="43.04927" lon="0.90013">
        <ele>417.4</ele>
        <time>2022-09-04T10:07:55Z</time>
      </trkpt>
      <trkpt lat="43.04919" lon="0.89972">
        <ele>415.4</ele>
        <time>2022-09-04T10:07:58Z</time>
      </trkpt>
      <trkpt lat="43.04915" lon="0.89949">
        <ele>414.2</ele>
        <time>2022-09-04T10:08:00Z</time>
      </trkpt>
      <trkpt lat="43.04912" lon="0.89929">
        <ele>413</ele>
        <time>2022-09-04T10:08:02Z</time>
      </trkpt>
      <trkpt lat="43.04908" lon="0.89906">
        <ele>411.6</ele>
        <time>2022-09-04T10:08:04Z</time>
      </trkpt>
      <trkpt lat="43.04906" lon="0.89895">
        <ele>411</ele>
        <time>2022-09-04T10:08:05Z</time>
      </trkpt>
      <trkpt lat="43.04904" lon="0.89883">
        <ele>410.4</ele>
        <time>2022-09-04T10:08:06Z</time>
      </trkpt>
      <trkpt lat="43.049" lon="0.89857">
        <ele>408.6</ele>
        <time>2022-09-04T10:08:08Z</time>
      </trkpt>
      <trkpt lat="43.04896" lon="0.8983">
        <ele>407.6</ele>
        <time>2022-09-04T10:08:10Z</time>
      </trkpt>
      <trkpt lat="43.04891" lon="0.89804">
        <ele>405.8</ele>
        <time>2022-09-04T10:08:12Z</time>
      </trkpt>
      <trkpt lat="43.04882" lon="0.8975">
        <ele>404.8</ele>
        <time>2022-09-04T10:08:16Z</time>
      </trkpt>
      <trkpt lat="43.04877" lon="0.89723">
        <ele>403.6</ele>
        <time>2022-09-04T10:08:18Z</time>
      </trkpt>
      <trkpt lat="43.04871" lon="0.89697">
        <ele>403.4</ele>
        <time>2022-09-04T10:08:20Z</time>
      </trkpt>
      <trkpt lat="43.04864" lon="0.89672">
        <ele>402.4</ele>
        <time>2022-09-04T10:08:22Z</time>
      </trkpt>
      <trkpt lat="43.04849" lon="0.89611">
        <ele>401.4</ele>
        <time>2022-09-04T10:08:27Z</time>
      </trkpt>
      <trkpt lat="43.04842" lon="0.8959">
        <ele>401</ele>
        <time>2022-09-04T10:08:29Z</time>
      </trkpt>
      <trkpt lat="43.04828" lon="0.89545">
        <ele>401.2</ele>
        <time>2022-09-04T10:08:34Z</time>
      </trkpt>
      <trkpt lat="43.04817" lon="0.8951">
        <ele>401.4</ele>
        <time>2022-09-04T10:08:39Z</time>
      </trkpt>
      <trkpt lat="43.04803" lon="0.89483">
        <ele>402.2</ele>
        <time>2022-09-04T10:08:45Z</time>
      </trkpt>
      <trkpt lat="43.04801" lon="0.89478">
        <ele>402.4</ele>
        <time>2022-09-04T10:08:46Z</time>
      </trkpt>
      <trkpt lat="43.04789" lon="0.89456">
        <ele>402.6</ele>
        <time>2022-09-04T10:08:51Z</time>
      </trkpt>
      <trkpt lat="43.04772" lon="0.89425">
        <ele>403.4</ele>
        <time>2022-09-04T10:08:58Z</time>
      </trkpt>
      <trkpt lat="43.04764" lon="0.89405">
        <ele>404.6</ele>
        <time>2022-09-04T10:09:04Z</time>
      </trkpt>
      <trkpt lat="43.04764" lon="0.89396">
        <ele>405.6</ele>
        <time>2022-09-04T10:09:08Z</time>
      </trkpt>
      <trkpt lat="43.04766" lon="0.89392">
        <ele>405.8</ele>
        <time>2022-09-04T10:09:10Z</time>
      </trkpt>
      <trkpt lat="43.0477" lon="0.89379">
        <ele>406.6</ele>
        <time>2022-09-04T10:09:15Z</time>
      </trkpt>
      <trkpt lat="43.04774" lon="0.89377">
        <ele>406.6</ele>
        <time>2022-09-04T10:09:17Z</time>
      </trkpt>
      <trkpt lat="43.04777" lon="0.89375">
        <ele>407</ele>
        <time>2022-09-04T10:09:19Z</time>
      </trkpt>
      <trkpt lat="43.04781" lon="0.89374">
        <ele>407</ele>
        <time>2022-09-04T10:09:21Z</time>
      </trkpt>
      <trkpt lat="43.0479" lon="0.89369">
        <ele>407.4</ele>
        <time>2022-09-04T10:09:25Z</time>
      </trkpt>
      <trkpt lat="43.04809" lon="0.89357">
        <ele>407</ele>
        <time>2022-09-04T10:09:33Z</time>
      </trkpt>
      <trkpt lat="43.04821" lon="0.89349">
        <ele>406.4</ele>
        <time>2022-09-04T10:09:37Z</time>
      </trkpt>
      <trkpt lat="43.0483" lon="0.89342">
        <ele>405.6</ele>
        <time>2022-09-04T10:09:39Z</time>
      </trkpt>
      <trkpt lat="43.04841" lon="0.89333">
        <ele>405.2</ele>
        <time>2022-09-04T10:09:41Z</time>
      </trkpt>
      <trkpt lat="43.04845" lon="0.89329">
        <ele>404.6</ele>
        <time>2022-09-04T10:09:42Z</time>
      </trkpt>
      <trkpt lat="43.04859" lon="0.89319">
        <ele>403.6</ele>
        <time>2022-09-04T10:09:45Z</time>
      </trkpt>
      <trkpt lat="43.04864" lon="0.89316">
        <ele>403.6</ele>
        <time>2022-09-04T10:09:46Z</time>
      </trkpt>
      <trkpt lat="43.04883" lon="0.89308">
        <ele>402.2</ele>
        <time>2022-09-04T10:09:49Z</time>
      </trkpt>
      <trkpt lat="43.0489" lon="0.89306">
        <ele>401.6</ele>
        <time>2022-09-04T10:09:50Z</time>
      </trkpt>
      <trkpt lat="43.04899" lon="0.89304">
        <ele>401</ele>
        <time>2022-09-04T10:09:51Z</time>
      </trkpt>
      <trkpt lat="43.04918" lon="0.893">
        <ele>399.2</ele>
        <time>2022-09-04T10:09:53Z</time>
      </trkpt>
      <trkpt lat="43.04928" lon="0.89298">
        <ele>398.4</ele>
        <time>2022-09-04T10:09:54Z</time>
      </trkpt>
      <trkpt lat="43.04939" lon="0.89297">
        <ele>397.2</ele>
        <time>2022-09-04T10:09:55Z</time>
      </trkpt>
      <trkpt lat="43.0496" lon="0.89295">
        <ele>396</ele>
        <time>2022-09-04T10:09:57Z</time>
      </trkpt>
      <trkpt lat="43.05" lon="0.89291">
        <ele>395.2</ele>
        <time>2022-09-04T10:10:01Z</time>
      </trkpt>
      <trkpt lat="43.0501" lon="0.89291">
        <ele>394.8</ele>
        <time>2022-09-04T10:10:02Z</time>
      </trkpt>
      <trkpt lat="43.05044" lon="0.8929">
        <ele>394</ele>
        <time>2022-09-04T10:10:06Z</time>
      </trkpt>
      <trkpt lat="43.05058" lon="0.89291">
        <ele>393.6</ele>
        <time>2022-09-04T10:10:08Z</time>
      </trkpt>
      <trkpt lat="43.05071" lon="0.89291">
        <ele>392.4</ele>
        <time>2022-09-04T10:10:10Z</time>
      </trkpt>
      <trkpt lat="43.05077" lon="0.89289">
        <ele>392</ele>
        <time>2022-09-04T10:10:11Z</time>
      </trkpt>
      <trkpt lat="43.05086" lon="0.89276">
        <ele>391.4</ele>
        <time>2022-09-04T10:10:13Z</time>
      </trkpt>
      <trkpt lat="43.05089" lon="0.89268">
        <ele>390.8</ele>
        <time>2022-09-04T10:10:14Z</time>
      </trkpt>
      <trkpt lat="43.05091" lon="0.8926">
        <ele>390.4</ele>
        <time>2022-09-04T10:10:15Z</time>
      </trkpt>
      <trkpt lat="43.05097" lon="0.89242">
        <ele>390.2</ele>
        <time>2022-09-04T10:10:17Z</time>
      </trkpt>
      <trkpt lat="43.05105" lon="0.89212">
        <ele>389</ele>
        <time>2022-09-04T10:10:20Z</time>
      </trkpt>
      <trkpt lat="43.05114" lon="0.89179">
        <ele>388</ele>
        <time>2022-09-04T10:10:23Z</time>
      </trkpt>
      <trkpt lat="43.05123" lon="0.89145">
        <ele>386.8</ele>
        <time>2022-09-04T10:10:26Z</time>
      </trkpt>
      <trkpt lat="43.05126" lon="0.89134">
        <ele>386.2</ele>
        <time>2022-09-04T10:10:27Z</time>
      </trkpt>
      <trkpt lat="43.05129" lon="0.89122">
        <ele>385.6</ele>
        <time>2022-09-04T10:10:28Z</time>
      </trkpt>
      <trkpt lat="43.05139" lon="0.89087">
        <ele>384.4</ele>
        <time>2022-09-04T10:10:31Z</time>
      </trkpt>
      <trkpt lat="43.05152" lon="0.89041">
        <ele>383.4</ele>
        <time>2022-09-04T10:10:35Z</time>
      </trkpt>
      <trkpt lat="43.05155" lon="0.89029">
        <ele>383.2</ele>
        <time>2022-09-04T10:10:36Z</time>
      </trkpt>
      <trkpt lat="43.05165" lon="0.88995">
        <ele>381.8</ele>
        <time>2022-09-04T10:10:39Z</time>
      </trkpt>
      <trkpt lat="43.05179" lon="0.88951">
        <ele>381.2</ele>
        <time>2022-09-04T10:10:43Z</time>
      </trkpt>
      <trkpt lat="43.05187" lon="0.88931">
        <ele>380.8</ele>
        <time>2022-09-04T10:10:45Z</time>
      </trkpt>
      <trkpt lat="43.05197" lon="0.88905">
        <ele>381</ele>
        <time>2022-09-04T10:10:48Z</time>
      </trkpt>
      <trkpt lat="43.05216" lon="0.88864">
        <ele>381.2</ele>
        <time>2022-09-04T10:10:54Z</time>
      </trkpt>
      <trkpt lat="43.0523" lon="0.8883">
        <ele>381.8</ele>
        <time>2022-09-04T10:11:01Z</time>
      </trkpt>
      <trkpt lat="43.05243" lon="0.88791">
        <ele>382.8</ele>
        <time>2022-09-04T10:11:09Z</time>
      </trkpt>
      <trkpt lat="43.05254" lon="0.88745">
        <ele>382.6</ele>
        <time>2022-09-04T10:11:18Z</time>
      </trkpt>
      <trkpt lat="43.05259" lon="0.88708">
        <ele>383</ele>
        <time>2022-09-04T10:11:25Z</time>
      </trkpt>
      <trkpt lat="43.0526" lon="0.88703">
        <ele>383</ele>
        <time>2022-09-04T10:11:26Z</time>
      </trkpt>
      <trkpt lat="43.05264" lon="0.88661">
        <ele>382.8</ele>
        <time>2022-09-04T10:11:34Z</time>
      </trkpt>
      <trkpt lat="43.0527" lon="0.88646">
        <ele>382.8</ele>
        <time>2022-09-04T10:11:37Z</time>
      </trkpt>
      <trkpt lat="43.05277" lon="0.88633">
        <ele>383</ele>
        <time>2022-09-04T10:11:40Z</time>
      </trkpt>
      <trkpt lat="43.05294" lon="0.886">
        <ele>384</ele>
        <time>2022-09-04T10:11:48Z</time>
      </trkpt>
      <trkpt lat="43.053" lon="0.88589">
        <ele>384.2</ele>
        <time>2022-09-04T10:11:51Z</time>
      </trkpt>
      <trkpt lat="43.05309" lon="0.88571">
        <ele>385</ele>
        <time>2022-09-04T10:11:56Z</time>
      </trkpt>
      <trkpt lat="43.05313" lon="0.88562">
        <ele>385.6</ele>
        <time>2022-09-04T10:11:59Z</time>
      </trkpt>
      <trkpt lat="43.05317" lon="0.88553">
        <ele>386</ele>
        <time>2022-09-04T10:12:02Z</time>
      </trkpt>
      <trkpt lat="43.05322" lon="0.88543">
        <ele>386.8</ele>
        <time>2022-09-04T10:12:06Z</time>
      </trkpt>
      <trkpt lat="43.05323" lon="0.88537">
        <ele>387.2</ele>
        <time>2022-09-04T10:12:08Z</time>
      </trkpt>
      <trkpt lat="43.05329" lon="0.88524">
        <ele>388.2</ele>
        <time>2022-09-04T10:12:13Z</time>
      </trkpt>
      <trkpt lat="43.05337" lon="0.88504">
        <ele>389.2</ele>
        <time>2022-09-04T10:12:21Z</time>
      </trkpt>
      <trkpt lat="43.0534" lon="0.88492">
        <ele>389.8</ele>
        <time>2022-09-04T10:12:26Z</time>
      </trkpt>
      <trkpt lat="43.05341" lon="0.88491">
        <ele>389.8</ele>
        <time>2022-09-04T10:12:27Z</time>
      </trkpt>
      <trkpt lat="43.05343" lon="0.88484">
        <ele>389.8</ele>
        <time>2022-09-04T10:14:14Z</time>
      </trkpt>
      <trkpt lat="43.05343" lon="0.88481">
        <ele>390</ele>
        <time>2022-09-04T10:14:15Z</time>
      </trkpt>
      <trkpt lat="43.05346" lon="0.88463">
        <ele>390.4</ele>
        <time>2022-09-04T10:14:20Z</time>
      </trkpt>
      <trkpt lat="43.05349" lon="0.88453">
        <ele>390.6</ele>
        <time>2022-09-04T10:14:23Z</time>
      </trkpt>
      <trkpt lat="43.05355" lon="0.88433">
        <ele>391.4</ele>
        <time>2022-09-04T10:14:30Z</time>
      </trkpt>
      <trkpt lat="43.05357" lon="0.88431">
        <ele>391.6</ele>
        <time>2022-09-04T10:14:31Z</time>
      </trkpt>
      <trkpt lat="43.05365" lon="0.88414">
        <ele>392.4</ele>
        <time>2022-09-04T10:14:38Z</time>
      </trkpt>
      <trkpt lat="43.05367" lon="0.88409">
        <ele>392.6</ele>
        <time>2022-09-04T10:14:40Z</time>
      </trkpt>
      <trkpt lat="43.05373" lon="0.88391">
        <ele>393.4</ele>
        <time>2022-09-04T10:14:47Z</time>
      </trkpt>
      <trkpt lat="43.05374" lon="0.88385">
        <ele>393.6</ele>
        <time>2022-09-04T10:14:49Z</time>
      </trkpt>
      <trkpt lat="43.05378" lon="0.88374">
        <ele>394</ele>
        <time>2022-09-04T10:14:53Z</time>
      </trkpt>
      <trkpt lat="43.05385" lon="0.88355">
        <ele>394.6</ele>
        <time>2022-09-04T10:15:00Z</time>
      </trkpt>
      <trkpt lat="43.05385" lon="0.88352">
        <ele>394.8</ele>
        <time>2022-09-04T10:15:01Z</time>
      </trkpt>
      <trkpt lat="43.05389" lon="0.88324">
        <ele>395.6</ele>
        <time>2022-09-04T10:15:11Z</time>
      </trkpt>
      <trkpt lat="43.05389" lon="0.88321">
        <ele>395.8</ele>
        <time>2022-09-04T10:15:12Z</time>
      </trkpt>
      <trkpt lat="43.0539" lon="0.88299">
        <ele>396.4</ele>
        <time>2022-09-04T10:15:19Z</time>
      </trkpt>
      <trkpt lat="43.0539" lon="0.88289">
        <ele>396.8</ele>
        <time>2022-09-04T10:15:22Z</time>
      </trkpt>
      <trkpt lat="43.05387" lon="0.88274">
        <ele>397.4</ele>
        <time>2022-09-04T10:15:27Z</time>
      </trkpt>
      <trkpt lat="43.05384" lon="0.8827">
        <ele>398</ele>
        <time>2022-09-04T10:15:29Z</time>
      </trkpt>
      <trkpt lat="43.05378" lon="0.88268">
        <ele>398.2</ele>
        <time>2022-09-04T10:15:32Z</time>
      </trkpt>
      <trkpt lat="43.05369" lon="0.88266">
        <ele>399</ele>
        <time>2022-09-04T10:15:37Z</time>
      </trkpt>
      <trkpt lat="43.05365" lon="0.88266">
        <ele>399.2</ele>
        <time>2022-09-04T10:15:39Z</time>
      </trkpt>
      <trkpt lat="43.05357" lon="0.88263">
        <ele>399.8</ele>
        <time>2022-09-04T10:15:43Z</time>
      </trkpt>
      <trkpt lat="43.05355" lon="0.88262">
        <ele>400</ele>
        <time>2022-09-04T10:15:44Z</time>
      </trkpt>
      <trkpt lat="43.05342" lon="0.88259">
        <ele>401.2</ele>
        <time>2022-09-04T10:15:51Z</time>
      </trkpt>
      <trkpt lat="43.05328" lon="0.88257">
        <ele>402.4</ele>
        <time>2022-09-04T10:15:58Z</time>
      </trkpt>
      <trkpt lat="43.05326" lon="0.88257">
        <ele>402.4</ele>
        <time>2022-09-04T10:15:59Z</time>
      </trkpt>
      <trkpt lat="43.05316" lon="0.88255">
        <ele>403.2</ele>
        <time>2022-09-04T10:16:04Z</time>
      </trkpt>
      <trkpt lat="43.05313" lon="0.88255">
        <ele>403.4</ele>
        <time>2022-09-04T10:16:06Z</time>
      </trkpt>
      <trkpt lat="43.05301" lon="0.88252">
        <ele>404.4</ele>
        <time>2022-09-04T10:16:12Z</time>
      </trkpt>
      <trkpt lat="43.05299" lon="0.88251">
        <ele>404.6</ele>
        <time>2022-09-04T10:16:13Z</time>
      </trkpt>
      <trkpt lat="43.05284" lon="0.88249">
        <ele>405.4</ele>
        <time>2022-09-04T10:16:20Z</time>
      </trkpt>
      <trkpt lat="43.0528" lon="0.88248">
        <ele>405.6</ele>
        <time>2022-09-04T10:16:22Z</time>
      </trkpt>
      <trkpt lat="43.05266" lon="0.88245">
        <ele>406</ele>
        <time>2022-09-04T10:16:29Z</time>
      </trkpt>
      <trkpt lat="43.05256" lon="0.88241">
        <ele>406.4</ele>
        <time>2022-09-04T10:16:34Z</time>
      </trkpt>
      <trkpt lat="43.05255" lon="0.88237">
        <ele>406.6</ele>
        <time>2022-09-04T10:16:36Z</time>
      </trkpt>
      <trkpt lat="43.05253" lon="0.88226">
        <ele>407.8</ele>
        <time>2022-09-04T10:16:40Z</time>
      </trkpt>
      <trkpt lat="43.05253" lon="0.88221">
        <ele>408.2</ele>
        <time>2022-09-04T10:16:42Z</time>
      </trkpt>
      <trkpt lat="43.05252" lon="0.8821">
        <ele>408.8</ele>
        <time>2022-09-04T10:16:46Z</time>
      </trkpt>
      <trkpt lat="43.05251" lon="0.88204">
        <ele>409.4</ele>
        <time>2022-09-04T10:16:49Z</time>
      </trkpt>
      <trkpt lat="43.05243" lon="0.88193">
        <ele>409.2</ele>
        <time>2022-09-04T10:16:56Z</time>
      </trkpt>
      <trkpt lat="43.0524" lon="0.8819">
        <ele>408.8</ele>
        <time>2022-09-04T10:16:59Z</time>
      </trkpt>
      <trkpt lat="43.0524" lon="0.88188">
        <ele>408.6</ele>
        <time>2022-09-04T10:17:01Z</time>
      </trkpt>
      <trkpt lat="43.05241" lon="0.88184">
        <ele>408.8</ele>
        <time>2022-09-04T10:17:41Z</time>
      </trkpt>
      <trkpt lat="43.05242" lon="0.88179">
        <ele>409</ele>
        <time>2022-09-04T10:17:43Z</time>
      </trkpt>
      <trkpt lat="43.05249" lon="0.88156">
        <ele>409.6</ele>
        <time>2022-09-04T10:17:51Z</time>
      </trkpt>
      <trkpt lat="43.05254" lon="0.88151">
        <ele>410</ele>
        <time>2022-09-04T10:17:54Z</time>
      </trkpt>
      <trkpt lat="43.05256" lon="0.88151">
        <ele>410</ele>
        <time>2022-09-04T10:17:55Z</time>
      </trkpt>
      <trkpt lat="43.05261" lon="0.88154">
        <ele>411</ele>
        <time>2022-09-04T10:17:58Z</time>
      </trkpt>
      <trkpt lat="43.05266" lon="0.88157">
        <ele>412</ele>
        <time>2022-09-04T10:18:02Z</time>
      </trkpt>
      <trkpt lat="43.05267" lon="0.88157">
        <ele>412.2</ele>
        <time>2022-09-04T10:18:03Z</time>
      </trkpt>
      <trkpt lat="43.05274" lon="0.88152">
        <ele>413.2</ele>
        <time>2022-09-04T10:20:55Z</time>
      </trkpt>
      <trkpt lat="43.05278" lon="0.88152">
        <ele>413.4</ele>
        <time>2022-09-04T10:20:57Z</time>
      </trkpt>
      <trkpt lat="43.05286" lon="0.88147">
        <ele>414</ele>
        <time>2022-09-04T10:21:03Z</time>
      </trkpt>
      <trkpt lat="43.05287" lon="0.88145">
        <ele>414.2</ele>
        <time>2022-09-04T10:21:04Z</time>
      </trkpt>
      <trkpt lat="43.05288" lon="0.88142">
        <ele>414.2</ele>
        <time>2022-09-04T10:21:05Z</time>
      </trkpt>
      <trkpt lat="43.05289" lon="0.8814">
        <ele>413.8</ele>
        <time>2022-09-04T10:21:07Z</time>
      </trkpt>
      <trkpt lat="43.05298" lon="0.88138">
        <ele>414.2</ele>
        <time>2022-09-04T10:21:12Z</time>
      </trkpt>
      <trkpt lat="43.053" lon="0.88138">
        <ele>414.2</ele>
        <time>2022-09-04T10:21:13Z</time>
      </trkpt>
      <trkpt lat="43.0531" lon="0.88131">
        <ele>414.2</ele>
        <time>2022-09-04T10:21:18Z</time>
      </trkpt>
      <trkpt lat="43.0532" lon="0.88122">
        <ele>413.8</ele>
        <time>2022-09-04T10:21:23Z</time>
      </trkpt>
      <trkpt lat="43.05327" lon="0.88108">
        <ele>413</ele>
        <time>2022-09-04T10:21:28Z</time>
      </trkpt>
      <trkpt lat="43.0533" lon="0.88098">
        <ele>412.8</ele>
        <time>2022-09-04T10:21:31Z</time>
      </trkpt>
      <trkpt lat="43.05334" lon="0.88091">
        <ele>412</ele>
        <time>2022-09-04T10:21:34Z</time>
      </trkpt>
      <trkpt lat="43.05342" lon="0.88086">
        <ele>411.2</ele>
        <time>2022-09-04T10:21:37Z</time>
      </trkpt>
      <trkpt lat="43.05346" lon="0.88087">
        <ele>410.8</ele>
        <time>2022-09-04T10:21:38Z</time>
      </trkpt>
      <trkpt lat="43.05357" lon="0.88091">
        <ele>409.8</ele>
        <time>2022-09-04T10:21:40Z</time>
      </trkpt>
      <trkpt lat="43.05364" lon="0.88094">
        <ele>409.2</ele>
        <time>2022-09-04T10:21:41Z</time>
      </trkpt>
      <trkpt lat="43.05379" lon="0.88102">
        <ele>407.6</ele>
        <time>2022-09-04T10:21:43Z</time>
      </trkpt>
      <trkpt lat="43.05386" lon="0.88105">
        <ele>406.8</ele>
        <time>2022-09-04T10:21:44Z</time>
      </trkpt>
      <trkpt lat="43.05393" lon="0.88108">
        <ele>406</ele>
        <time>2022-09-04T10:21:45Z</time>
      </trkpt>
      <trkpt lat="43.05405" lon="0.88113">
        <ele>404.6</ele>
        <time>2022-09-04T10:21:47Z</time>
      </trkpt>
      <trkpt lat="43.05416" lon="0.88118">
        <ele>403.2</ele>
        <time>2022-09-04T10:21:49Z</time>
      </trkpt>
      <trkpt lat="43.0542" lon="0.88119">
        <ele>402.6</ele>
        <time>2022-09-04T10:21:50Z</time>
      </trkpt>
      <trkpt lat="43.05428" lon="0.88122">
        <ele>402</ele>
        <time>2022-09-04T10:21:52Z</time>
      </trkpt>
      <trkpt lat="43.05436" lon="0.88126">
        <ele>401.2</ele>
        <time>2022-09-04T10:21:55Z</time>
      </trkpt>
      <trkpt lat="43.05438" lon="0.88127">
        <ele>401</ele>
        <time>2022-09-04T10:21:56Z</time>
      </trkpt>
      <trkpt lat="43.05439" lon="0.88127">
        <ele>400.8</ele>
        <time>2022-09-04T10:21:57Z</time>
      </trkpt>
      <trkpt lat="43.05443" lon="0.88126">
        <ele>400.4</ele>
        <time>2022-09-04T10:21:59Z</time>
      </trkpt>
      <trkpt lat="43.05447" lon="0.88115">
        <ele>400.4</ele>
        <time>2022-09-04T10:22:03Z</time>
      </trkpt>
      <trkpt lat="43.05448" lon="0.88112">
        <ele>400.4</ele>
        <time>2022-09-04T10:22:04Z</time>
      </trkpt>
      <trkpt lat="43.05454" lon="0.8809">
        <ele>400.4</ele>
        <time>2022-09-04T10:22:10Z</time>
      </trkpt>
      <trkpt lat="43.05458" lon="0.88066">
        <ele>400.6</ele>
        <time>2022-09-04T10:22:16Z</time>
      </trkpt>
      <trkpt lat="43.05466" lon="0.88029">
        <ele>400.8</ele>
        <time>2022-09-04T10:22:24Z</time>
      </trkpt>
      <trkpt lat="43.05473" lon="0.87992">
        <ele>401.2</ele>
        <time>2022-09-04T10:22:32Z</time>
      </trkpt>
      <trkpt lat="43.05475" lon="0.87962">
        <ele>401.4</ele>
        <time>2022-09-04T10:22:38Z</time>
      </trkpt>
      <trkpt lat="43.05479" lon="0.87921">
        <ele>401.6</ele>
        <time>2022-09-04T10:22:46Z</time>
      </trkpt>
      <trkpt lat="43.05483" lon="0.87881">
        <ele>401.6</ele>
        <time>2022-09-04T10:22:54Z</time>
      </trkpt>
      <trkpt lat="43.05486" lon="0.87861">
        <ele>401.4</ele>
        <time>2022-09-04T10:22:58Z</time>
      </trkpt>
      <trkpt lat="43.05488" lon="0.87838">
        <ele>401.2</ele>
        <time>2022-09-04T10:23:02Z</time>
      </trkpt>
      <trkpt lat="43.05489" lon="0.87821">
        <ele>401.2</ele>
        <time>2022-09-04T10:23:05Z</time>
      </trkpt>
      <trkpt lat="43.0549" lon="0.87794">
        <ele>400.8</ele>
        <time>2022-09-04T10:23:10Z</time>
      </trkpt>
      <trkpt lat="43.05486" lon="0.87749">
        <ele>400.8</ele>
        <time>2022-09-04T10:23:18Z</time>
      </trkpt>
      <trkpt lat="43.05485" lon="0.87732">
        <ele>400.8</ele>
        <time>2022-09-04T10:23:22Z</time>
      </trkpt>
      <trkpt lat="43.05485" lon="0.87706">
        <ele>401</ele>
        <time>2022-09-04T10:23:27Z</time>
      </trkpt>
      <trkpt lat="43.05487" lon="0.87694">
        <ele>400.8</ele>
        <time>2022-09-04T10:23:29Z</time>
      </trkpt>
      <trkpt lat="43.05494" lon="0.87679">
        <ele>401.2</ele>
        <time>2022-09-04T10:23:32Z</time>
      </trkpt>
      <trkpt lat="43.05508" lon="0.87649">
        <ele>401.2</ele>
        <time>2022-09-04T10:23:39Z</time>
      </trkpt>
      <trkpt lat="43.0553" lon="0.87614">
        <ele>401.6</ele>
        <time>2022-09-04T10:23:48Z</time>
      </trkpt>
      <trkpt lat="43.05551" lon="0.87583">
        <ele>402.2</ele>
        <time>2022-09-04T10:23:56Z</time>
      </trkpt>
      <trkpt lat="43.05573" lon="0.87543">
        <ele>403</ele>
        <time>2022-09-04T10:24:06Z</time>
      </trkpt>
      <trkpt lat="43.05575" lon="0.8754">
        <ele>403.2</ele>
        <time>2022-09-04T10:24:07Z</time>
      </trkpt>
      <trkpt lat="43.05584" lon="0.8752">
        <ele>404.4</ele>
        <time>2022-09-04T10:24:13Z</time>
      </trkpt>
      <trkpt lat="43.05586" lon="0.87517">
        <ele>404.4</ele>
        <time>2022-09-04T10:24:14Z</time>
      </trkpt>
      <trkpt lat="43.05596" lon="0.87499">
        <ele>405.4</ele>
        <time>2022-09-04T10:24:20Z</time>
      </trkpt>
      <trkpt lat="43.05598" lon="0.87493">
        <ele>405.6</ele>
        <time>2022-09-04T10:24:22Z</time>
      </trkpt>
      <trkpt lat="43.05603" lon="0.87482">
        <ele>406.4</ele>
        <time>2022-09-04T10:24:26Z</time>
      </trkpt>
      <trkpt lat="43.05608" lon="0.87472">
        <ele>407</ele>
        <time>2022-09-04T10:24:30Z</time>
      </trkpt>
      <trkpt lat="43.0561" lon="0.87467">
        <ele>407.6</ele>
        <time>2022-09-04T10:24:32Z</time>
      </trkpt>
      <trkpt lat="43.05614" lon="0.87454">
        <ele>408.2</ele>
        <time>2022-09-04T10:24:37Z</time>
      </trkpt>
      <trkpt lat="43.05617" lon="0.87449">
        <ele>408.8</ele>
        <time>2022-09-04T10:24:39Z</time>
      </trkpt>
      <trkpt lat="43.0562" lon="0.87439">
        <ele>409.4</ele>
        <time>2022-09-04T10:24:43Z</time>
      </trkpt>
      <trkpt lat="43.05623" lon="0.8743">
        <ele>410</ele>
        <time>2022-09-04T10:24:47Z</time>
      </trkpt>
      <trkpt lat="43.05625" lon="0.87423">
        <ele>410.6</ele>
        <time>2022-09-04T10:24:50Z</time>
      </trkpt>
      <trkpt lat="43.05628" lon="0.87417">
        <ele>411</ele>
        <time>2022-09-04T10:24:53Z</time>
      </trkpt>
      <trkpt lat="43.0563" lon="0.8741">
        <ele>411.4</ele>
        <time>2022-09-04T10:24:56Z</time>
      </trkpt>
      <trkpt lat="43.05631" lon="0.87404">
        <ele>412</ele>
        <time>2022-09-04T10:24:59Z</time>
      </trkpt>
      <trkpt lat="43.05634" lon="0.87397">
        <ele>412.4</ele>
        <time>2022-09-04T10:25:03Z</time>
      </trkpt>
      <trkpt lat="43.05637" lon="0.87392">
        <ele>413.2</ele>
        <time>2022-09-04T10:25:06Z</time>
      </trkpt>
      <trkpt lat="43.05639" lon="0.87386">
        <ele>413.6</ele>
        <time>2022-09-04T10:25:10Z</time>
      </trkpt>
      <trkpt lat="43.05643" lon="0.87381">
        <ele>414.2</ele>
        <time>2022-09-04T10:25:14Z</time>
      </trkpt>
      <trkpt lat="43.05643" lon="0.87377">
        <ele>414.6</ele>
        <time>2022-09-04T10:25:16Z</time>
      </trkpt>
      <trkpt lat="43.05644" lon="0.87375">
        <ele>414.6</ele>
        <time>2022-09-04T10:25:17Z</time>
      </trkpt>
      <trkpt lat="43.05646" lon="0.87365">
        <ele>415.4</ele>
        <time>2022-09-04T10:25:23Z</time>
      </trkpt>
      <trkpt lat="43.05646" lon="0.87361">
        <ele>415.8</ele>
        <time>2022-09-04T10:25:25Z</time>
      </trkpt>
      <trkpt lat="43.05649" lon="0.87352">
        <ele>416.6</ele>
        <time>2022-09-04T10:25:30Z</time>
      </trkpt>
      <trkpt lat="43.0565" lon="0.87349">
        <ele>416.8</ele>
        <time>2022-09-04T10:25:32Z</time>
      </trkpt>
      <trkpt lat="43.05652" lon="0.8734">
        <ele>417.6</ele>
        <time>2022-09-04T10:25:36Z</time>
      </trkpt>
      <trkpt lat="43.05653" lon="0.87334">
        <ele>418</ele>
        <time>2022-09-04T10:25:38Z</time>
      </trkpt>
      <trkpt lat="43.05657" lon="0.87325">
        <ele>418.8</ele>
        <time>2022-09-04T10:25:42Z</time>
      </trkpt>
      <trkpt lat="43.0566" lon="0.87316">
        <ele>419.2</ele>
        <time>2022-09-04T10:25:45Z</time>
      </trkpt>
      <trkpt lat="43.0566" lon="0.87313">
        <ele>419.4</ele>
        <time>2022-09-04T10:25:46Z</time>
      </trkpt>
      <trkpt lat="43.05661" lon="0.8731">
        <ele>419.6</ele>
        <time>2022-09-04T10:25:47Z</time>
      </trkpt>
      <trkpt lat="43.05663" lon="0.87304">
        <ele>419.8</ele>
        <time>2022-09-04T10:25:49Z</time>
      </trkpt>
      <trkpt lat="43.05664" lon="0.87298">
        <ele>420.2</ele>
        <time>2022-09-04T10:25:51Z</time>
      </trkpt>
      <trkpt lat="43.05667" lon="0.87291">
        <ele>420.6</ele>
        <time>2022-09-04T10:25:54Z</time>
      </trkpt>
      <trkpt lat="43.05669" lon="0.87286">
        <ele>421</ele>
        <time>2022-09-04T10:25:56Z</time>
      </trkpt>
      <trkpt lat="43.05671" lon="0.87281">
        <ele>421.2</ele>
        <time>2022-09-04T10:25:58Z</time>
      </trkpt>
      <trkpt lat="43.05677" lon="0.87264">
        <ele>421.8</ele>
        <time>2022-09-04T10:26:05Z</time>
      </trkpt>
      <trkpt lat="43.05679" lon="0.8726">
        <ele>422</ele>
        <time>2022-09-04T10:26:07Z</time>
      </trkpt>
      <trkpt lat="43.05685" lon="0.87241">
        <ele>422.2</ele>
        <time>2022-09-04T10:26:14Z</time>
      </trkpt>
      <trkpt lat="43.05693" lon="0.87219">
        <ele>422.2</ele>
        <time>2022-09-04T10:26:21Z</time>
      </trkpt>
      <trkpt lat="43.05706" lon="0.87188">
        <ele>421.8</ele>
        <time>2022-09-04T10:26:29Z</time>
      </trkpt>
      <trkpt lat="43.05721" lon="0.87158">
        <ele>421</ele>
        <time>2022-09-04T10:26:36Z</time>
      </trkpt>
      <trkpt lat="43.05724" lon="0.87153">
        <ele>420.8</ele>
        <time>2022-09-04T10:26:37Z</time>
      </trkpt>
      <trkpt lat="43.05743" lon="0.87114">
        <ele>419.4</ele>
        <time>2022-09-04T10:26:43Z</time>
      </trkpt>
      <trkpt lat="43.05757" lon="0.87085">
        <ele>418.2</ele>
        <time>2022-09-04T10:26:47Z</time>
      </trkpt>
      <trkpt lat="43.05769" lon="0.87061">
        <ele>417.2</ele>
        <time>2022-09-04T10:26:50Z</time>
      </trkpt>
      <trkpt lat="43.05774" lon="0.87053">
        <ele>416.8</ele>
        <time>2022-09-04T10:26:51Z</time>
      </trkpt>
      <trkpt lat="43.05789" lon="0.87027">
        <ele>415.6</ele>
        <time>2022-09-04T10:26:54Z</time>
      </trkpt>
      <trkpt lat="43.05799" lon="0.87007">
        <ele>415</ele>
        <time>2022-09-04T10:26:56Z</time>
      </trkpt>
      <trkpt lat="43.05805" lon="0.86997">
        <ele>414.4</ele>
        <time>2022-09-04T10:26:57Z</time>
      </trkpt>
      <trkpt lat="43.05821" lon="0.86965">
        <ele>413.4</ele>
        <time>2022-09-04T10:27:00Z</time>
      </trkpt>
      <trkpt lat="43.05831" lon="0.86943">
        <ele>412.4</ele>
        <time>2022-09-04T10:27:02Z</time>
      </trkpt>
      <trkpt lat="43.05835" lon="0.86931">
        <ele>411.6</ele>
        <time>2022-09-04T10:27:03Z</time>
      </trkpt>
      <trkpt lat="43.0584" lon="0.86919">
        <ele>411.2</ele>
        <time>2022-09-04T10:27:04Z</time>
      </trkpt>
      <trkpt lat="43.05859" lon="0.8686">
        <ele>410</ele>
        <time>2022-09-04T10:27:09Z</time>
      </trkpt>
      <trkpt lat="43.05862" lon="0.86849">
        <ele>410</ele>
        <time>2022-09-04T10:27:10Z</time>
      </trkpt>
      <trkpt lat="43.05875" lon="0.86802">
        <ele>409</ele>
        <time>2022-09-04T10:27:14Z</time>
      </trkpt>
      <trkpt lat="43.05883" lon="0.86768">
        <ele>407.8</ele>
        <time>2022-09-04T10:27:17Z</time>
      </trkpt>
      <trkpt lat="43.05898" lon="0.86712">
        <ele>406.8</ele>
        <time>2022-09-04T10:27:22Z</time>
      </trkpt>
      <trkpt lat="43.05903" lon="0.86678">
        <ele>406.2</ele>
        <time>2022-09-04T10:27:25Z</time>
      </trkpt>
      <trkpt lat="43.05906" lon="0.86643">
        <ele>405.4</ele>
        <time>2022-09-04T10:27:28Z</time>
      </trkpt>
      <trkpt lat="43.05908" lon="0.86608">
        <ele>404.4</ele>
        <time>2022-09-04T10:27:31Z</time>
      </trkpt>
      <trkpt lat="43.05908" lon="0.86597">
        <ele>404.2</ele>
        <time>2022-09-04T10:27:32Z</time>
      </trkpt>
      <trkpt lat="43.05909" lon="0.86536">
        <ele>404.4</ele>
        <time>2022-09-04T10:27:38Z</time>
      </trkpt>
      <trkpt lat="43.05908" lon="0.86499">
        <ele>405.2</ele>
        <time>2022-09-04T10:27:43Z</time>
      </trkpt>
      <trkpt lat="43.05907" lon="0.86486">
        <ele>405.4</ele>
        <time>2022-09-04T10:27:45Z</time>
      </trkpt>
      <trkpt lat="43.05904" lon="0.86454">
        <ele>405.8</ele>
        <time>2022-09-04T10:27:50Z</time>
      </trkpt>
      <trkpt lat="43.05901" lon="0.86426">
        <ele>406.8</ele>
        <time>2022-09-04T10:27:55Z</time>
      </trkpt>
      <trkpt lat="43.05899" lon="0.86408">
        <ele>407.2</ele>
        <time>2022-09-04T10:27:58Z</time>
      </trkpt>
      <trkpt lat="43.05896" lon="0.86386">
        <ele>407.8</ele>
        <time>2022-09-04T10:28:02Z</time>
      </trkpt>
      <trkpt lat="43.05893" lon="0.8636">
        <ele>408.2</ele>
        <time>2022-09-04T10:28:07Z</time>
      </trkpt>
      <trkpt lat="43.05889" lon="0.86327">
        <ele>409</ele>
        <time>2022-09-04T10:28:13Z</time>
      </trkpt>
      <trkpt lat="43.05887" lon="0.86311">
        <ele>409</ele>
        <time>2022-09-04T10:28:16Z</time>
      </trkpt>
      <trkpt lat="43.05882" lon="0.8626">
        <ele>410</ele>
        <time>2022-09-04T10:28:26Z</time>
      </trkpt>
      <trkpt lat="43.05885" lon="0.8621">
        <ele>410.4</ele>
        <time>2022-09-04T10:28:36Z</time>
      </trkpt>
      <trkpt lat="43.05888" lon="0.86188">
        <ele>410.8</ele>
        <time>2022-09-04T10:28:41Z</time>
      </trkpt>
      <trkpt lat="43.05891" lon="0.86172">
        <ele>410</ele>
        <time>2022-09-04T10:28:44Z</time>
      </trkpt>
      <trkpt lat="43.05894" lon="0.86151">
        <ele>409.6</ele>
        <time>2022-09-04T10:28:47Z</time>
      </trkpt>
      <trkpt lat="43.05896" lon="0.86125">
        <ele>408.6</ele>
        <time>2022-09-04T10:28:50Z</time>
      </trkpt>
      <trkpt lat="43.05898" lon="0.86105">
        <ele>408.2</ele>
        <time>2022-09-04T10:28:52Z</time>
      </trkpt>
      <trkpt lat="43.059" lon="0.86084">
        <ele>407.2</ele>
        <time>2022-09-04T10:28:54Z</time>
      </trkpt>
      <trkpt lat="43.05901" lon="0.86062">
        <ele>406.6</ele>
        <time>2022-09-04T10:28:56Z</time>
      </trkpt>
      <trkpt lat="43.05902" lon="0.86039">
        <ele>406.2</ele>
        <time>2022-09-04T10:28:58Z</time>
      </trkpt>
      <trkpt lat="43.05903" lon="0.86028">
        <ele>406</ele>
        <time>2022-09-04T10:28:59Z</time>
      </trkpt>
      <trkpt lat="43.05907" lon="0.85983">
        <ele>405</ele>
        <time>2022-09-04T10:29:03Z</time>
      </trkpt>
      <trkpt lat="43.05909" lon="0.85959">
        <ele>404.2</ele>
        <time>2022-09-04T10:29:05Z</time>
      </trkpt>
      <trkpt lat="43.0591" lon="0.85947">
        <ele>403.2</ele>
        <time>2022-09-04T10:29:06Z</time>
      </trkpt>
      <trkpt lat="43.05916" lon="0.8591">
        <ele>402.2</ele>
        <time>2022-09-04T10:29:09Z</time>
      </trkpt>
      <trkpt lat="43.05921" lon="0.85885">
        <ele>401.6</ele>
        <time>2022-09-04T10:29:11Z</time>
      </trkpt>
      <trkpt lat="43.05929" lon="0.85861">
        <ele>400.8</ele>
        <time>2022-09-04T10:29:13Z</time>
      </trkpt>
      <trkpt lat="43.05938" lon="0.85838">
        <ele>399.4</ele>
        <time>2022-09-04T10:29:15Z</time>
      </trkpt>
      <trkpt lat="43.05943" lon="0.85827">
        <ele>399</ele>
        <time>2022-09-04T10:29:16Z</time>
      </trkpt>
      <trkpt lat="43.05961" lon="0.85794">
        <ele>398.2</ele>
        <time>2022-09-04T10:29:19Z</time>
      </trkpt>
      <trkpt lat="43.05979" lon="0.85762">
        <ele>397.2</ele>
        <time>2022-09-04T10:29:22Z</time>
      </trkpt>
      <trkpt lat="43.05985" lon="0.85752">
        <ele>396.8</ele>
        <time>2022-09-04T10:29:23Z</time>
      </trkpt>
      <trkpt lat="43.06002" lon="0.85723">
        <ele>396</ele>
        <time>2022-09-04T10:29:26Z</time>
      </trkpt>
      <trkpt lat="43.06024" lon="0.85687">
        <ele>395.4</ele>
        <time>2022-09-04T10:29:30Z</time>
      </trkpt>
      <trkpt lat="43.06044" lon="0.85651">
        <ele>396.2</ele>
        <time>2022-09-04T10:29:35Z</time>
      </trkpt>
      <trkpt lat="43.06055" lon="0.85629">
        <ele>397</ele>
        <time>2022-09-04T10:29:39Z</time>
      </trkpt>
      <trkpt lat="43.06058" lon="0.85617">
        <ele>397.2</ele>
        <time>2022-09-04T10:29:41Z</time>
      </trkpt>
      <trkpt lat="43.06059" lon="0.85587">
        <ele>398</ele>
        <time>2022-09-04T10:29:46Z</time>
      </trkpt>
      <trkpt lat="43.06058" lon="0.85576">
        <ele>398.4</ele>
        <time>2022-09-04T10:29:48Z</time>
      </trkpt>
      <trkpt lat="43.06051" lon="0.85539">
        <ele>398.6</ele>
        <time>2022-09-04T10:29:55Z</time>
      </trkpt>
      <trkpt lat="43.06044" lon="0.85496">
        <ele>399.4</ele>
        <time>2022-09-04T10:30:04Z</time>
      </trkpt>
      <trkpt lat="43.06043" lon="0.85492">
        <ele>399.4</ele>
        <time>2022-09-04T10:30:05Z</time>
      </trkpt>
      <trkpt lat="43.06037" lon="0.85459">
        <ele>400</ele>
        <time>2022-09-04T10:30:12Z</time>
      </trkpt>
      <trkpt lat="43.06033" lon="0.85436">
        <ele>400.4</ele>
        <time>2022-09-04T10:30:17Z</time>
      </trkpt>
      <trkpt lat="43.0603" lon="0.85419">
        <ele>400.8</ele>
        <time>2022-09-04T10:30:21Z</time>
      </trkpt>
      <trkpt lat="43.06023" lon="0.85383">
        <ele>401.4</ele>
        <time>2022-09-04T10:30:29Z</time>
      </trkpt>
      <trkpt lat="43.06022" lon="0.85374">
        <ele>401.6</ele>
        <time>2022-09-04T10:30:31Z</time>
      </trkpt>
      <trkpt lat="43.06017" lon="0.85342">
        <ele>402</ele>
        <time>2022-09-04T10:30:38Z</time>
      </trkpt>
      <trkpt lat="43.06013" lon="0.85316">
        <ele>402.6</ele>
        <time>2022-09-04T10:30:44Z</time>
      </trkpt>
      <trkpt lat="43.0601" lon="0.85299">
        <ele>403</ele>
        <time>2022-09-04T10:30:48Z</time>
      </trkpt>
      <trkpt lat="43.06007" lon="0.85282">
        <ele>403.6</ele>
        <time>2022-09-04T10:30:52Z</time>
      </trkpt>
      <trkpt lat="43.06004" lon="0.85263">
        <ele>404</ele>
        <time>2022-09-04T10:30:57Z</time>
      </trkpt>
      <trkpt lat="43.06002" lon="0.8525">
        <ele>404.8</ele>
        <time>2022-09-04T10:31:01Z</time>
      </trkpt>
      <trkpt lat="43.06" lon="0.85238">
        <ele>405.2</ele>
        <time>2022-09-04T10:31:05Z</time>
      </trkpt>
      <trkpt lat="43.05997" lon="0.85225">
        <ele>405.8</ele>
        <time>2022-09-04T10:31:09Z</time>
      </trkpt>
      <trkpt lat="43.05995" lon="0.8521">
        <ele>406.4</ele>
        <time>2022-09-04T10:31:14Z</time>
      </trkpt>
      <trkpt lat="43.05994" lon="0.85203">
        <ele>406.8</ele>
        <time>2022-09-04T10:31:17Z</time>
      </trkpt>
      <trkpt lat="43.05991" lon="0.85191">
        <ele>407.6</ele>
        <time>2022-09-04T10:31:22Z</time>
      </trkpt>
      <trkpt lat="43.0599" lon="0.8518">
        <ele>408</ele>
        <time>2022-09-04T10:31:26Z</time>
      </trkpt>
      <trkpt lat="43.05989" lon="0.85175">
        <ele>408.2</ele>
        <time>2022-09-04T10:31:29Z</time>
      </trkpt>
      <trkpt lat="43.05987" lon="0.85158">
        <ele>409.2</ele>
        <time>2022-09-04T10:31:36Z</time>
      </trkpt>
      <trkpt lat="43.05986" lon="0.8515">
        <ele>409.6</ele>
        <time>2022-09-04T10:31:39Z</time>
      </trkpt>
      <trkpt lat="43.05984" lon="0.8514">
        <ele>410.2</ele>
        <time>2022-09-04T10:31:43Z</time>
      </trkpt>
      <trkpt lat="43.05981" lon="0.85122">
        <ele>410.8</ele>
        <time>2022-09-04T10:31:50Z</time>
      </trkpt>
      <trkpt lat="43.05979" lon="0.85112">
        <ele>411.2</ele>
        <time>2022-09-04T10:31:54Z</time>
      </trkpt>
      <trkpt lat="43.05977" lon="0.851">
        <ele>412</ele>
        <time>2022-09-04T10:31:59Z</time>
      </trkpt>
      <trkpt lat="43.05975" lon="0.85092">
        <ele>412.4</ele>
        <time>2022-09-04T10:32:02Z</time>
      </trkpt>
      <trkpt lat="43.05973" lon="0.85077">
        <ele>413.2</ele>
        <time>2022-09-04T10:32:08Z</time>
      </trkpt>
      <trkpt lat="43.05973" lon="0.85074">
        <ele>413.4</ele>
        <time>2022-09-04T10:32:09Z</time>
      </trkpt>
      <trkpt lat="43.05971" lon="0.8506">
        <ele>414</ele>
        <time>2022-09-04T10:32:15Z</time>
      </trkpt>
      <trkpt lat="43.0597" lon="0.85052">
        <ele>414.4</ele>
        <time>2022-09-04T10:32:18Z</time>
      </trkpt>
      <trkpt lat="43.05968" lon="0.85038">
        <ele>415.4</ele>
        <time>2022-09-04T10:32:24Z</time>
      </trkpt>
      <trkpt lat="43.05968" lon="0.85026">
        <ele>415.8</ele>
        <time>2022-09-04T10:32:29Z</time>
      </trkpt>
      <trkpt lat="43.05968" lon="0.85019">
        <ele>416.2</ele>
        <time>2022-09-04T10:32:32Z</time>
      </trkpt>
      <trkpt lat="43.05968" lon="0.85012">
        <ele>416.6</ele>
        <time>2022-09-04T10:32:35Z</time>
      </trkpt>
      <trkpt lat="43.05968" lon="0.85009">
        <ele>416.8</ele>
        <time>2022-09-04T10:32:36Z</time>
      </trkpt>
      <trkpt lat="43.05967" lon="0.84992">
        <ele>417.6</ele>
        <time>2022-09-04T10:32:43Z</time>
      </trkpt>
      <trkpt lat="43.05967" lon="0.84973">
        <ele>418.8</ele>
        <time>2022-09-04T10:32:51Z</time>
      </trkpt>
      <trkpt lat="43.05967" lon="0.84952">
        <ele>419.8</ele>
        <time>2022-09-04T10:33:01Z</time>
      </trkpt>
      <trkpt lat="43.05967" lon="0.84949">
        <ele>420</ele>
        <time>2022-09-04T10:33:02Z</time>
      </trkpt>
      <trkpt lat="43.05967" lon="0.84937">
        <ele>420.8</ele>
        <time>2022-09-04T10:33:08Z</time>
      </trkpt>
      <trkpt lat="43.05967" lon="0.84936">
        <ele>421</ele>
        <time>2022-09-04T10:33:09Z</time>
      </trkpt>
      <trkpt lat="43.05967" lon="0.84934">
        <ele>421</ele>
        <time>2022-09-04T10:33:10Z</time>
      </trkpt>
      <trkpt lat="43.05967" lon="0.84931">
        <ele>421.2</ele>
        <time>2022-09-04T10:33:12Z</time>
      </trkpt>
      <trkpt lat="43.05967" lon="0.84923">
        <ele>421.8</ele>
        <time>2022-09-04T10:33:16Z</time>
      </trkpt>
      <trkpt lat="43.05967" lon="0.84919">
        <ele>422.2</ele>
        <time>2022-09-04T10:33:18Z</time>
      </trkpt>
      <trkpt lat="43.05967" lon="0.84909">
        <ele>423</ele>
        <time>2022-09-04T10:33:25Z</time>
      </trkpt>
      <trkpt lat="43.05967" lon="0.84907">
        <ele>423.2</ele>
        <time>2022-09-04T10:33:26Z</time>
      </trkpt>
      <trkpt lat="43.05968" lon="0.84897">
        <ele>424</ele>
        <time>2022-09-04T10:33:32Z</time>
      </trkpt>
      <trkpt lat="43.05968" lon="0.84895">
        <ele>424.2</ele>
        <time>2022-09-04T10:33:33Z</time>
      </trkpt>
      <trkpt lat="43.05971" lon="0.84883">
        <ele>425</ele>
        <time>2022-09-04T10:33:39Z</time>
      </trkpt>
      <trkpt lat="43.0597" lon="0.84881">
        <ele>425.2</ele>
        <time>2022-09-04T10:33:40Z</time>
      </trkpt>
      <trkpt lat="43.05972" lon="0.84875">
        <ele>425.8</ele>
        <time>2022-09-04T10:33:43Z</time>
      </trkpt>
      <trkpt lat="43.05972" lon="0.84869">
        <ele>426.4</ele>
        <time>2022-09-04T10:33:46Z</time>
      </trkpt>
      <trkpt lat="43.05973" lon="0.84864">
        <ele>426.6</ele>
        <time>2022-09-04T10:33:48Z</time>
      </trkpt>
      <trkpt lat="43.05974" lon="0.84856">
        <ele>427.2</ele>
        <time>2022-09-04T10:33:52Z</time>
      </trkpt>
      <trkpt lat="43.05974" lon="0.84853">
        <ele>427.2</ele>
        <time>2022-09-04T10:33:53Z</time>
      </trkpt>
      <trkpt lat="43.05975" lon="0.84849">
        <ele>427.4</ele>
        <time>2022-09-04T10:33:55Z</time>
      </trkpt>
      <trkpt lat="43.05975" lon="0.84847">
        <ele>427.6</ele>
        <time>2022-09-04T10:33:56Z</time>
      </trkpt>
      <trkpt lat="43.05975" lon="0.8484">
        <ele>428</ele>
        <time>2022-09-04T10:33:59Z</time>
      </trkpt>
      <trkpt lat="43.05976" lon="0.84833">
        <ele>428.4</ele>
        <time>2022-09-04T10:34:02Z</time>
      </trkpt>
      <trkpt lat="43.05978" lon="0.8482">
        <ele>429.4</ele>
        <time>2022-09-04T10:34:08Z</time>
      </trkpt>
      <trkpt lat="43.05978" lon="0.84818">
        <ele>429.6</ele>
        <time>2022-09-04T10:34:09Z</time>
      </trkpt>
      <trkpt lat="43.05979" lon="0.84805">
        <ele>430.8</ele>
        <time>2022-09-04T10:34:16Z</time>
      </trkpt>
      <trkpt lat="43.05979" lon="0.84801">
        <ele>431</ele>
        <time>2022-09-04T10:34:18Z</time>
      </trkpt>
      <trkpt lat="43.0598" lon="0.84795">
        <ele>431</ele>
        <time>2022-09-04T10:34:21Z</time>
      </trkpt>
      <trkpt lat="43.0598" lon="0.84792">
        <ele>431.4</ele>
        <time>2022-09-04T10:34:23Z</time>
      </trkpt>
      <trkpt lat="43.0598" lon="0.8479">
        <ele>431.6</ele>
        <time>2022-09-04T10:34:24Z</time>
      </trkpt>
      <trkpt lat="43.05981" lon="0.84787">
        <ele>431.8</ele>
        <time>2022-09-04T10:34:26Z</time>
      </trkpt>
      <trkpt lat="43.05981" lon="0.84783">
        <ele>432.2</ele>
        <time>2022-09-04T10:34:28Z</time>
      </trkpt>
      <trkpt lat="43.05982" lon="0.84776">
        <ele>432.6</ele>
        <time>2022-09-04T10:34:32Z</time>
      </trkpt>
      <trkpt lat="43.05982" lon="0.84774">
        <ele>432.8</ele>
        <time>2022-09-04T10:34:33Z</time>
      </trkpt>
      <trkpt lat="43.05983" lon="0.84768">
        <ele>433.2</ele>
        <time>2022-09-04T10:34:37Z</time>
      </trkpt>
      <trkpt lat="43.05984" lon="0.84766">
        <ele>433.4</ele>
        <time>2022-09-04T10:34:38Z</time>
      </trkpt>
      <trkpt lat="43.05984" lon="0.84758">
        <ele>433.8</ele>
        <time>2022-09-04T10:34:42Z</time>
      </trkpt>
      <trkpt lat="43.05985" lon="0.84755">
        <ele>434.4</ele>
        <time>2022-09-04T10:34:44Z</time>
      </trkpt>
      <trkpt lat="43.05986" lon="0.84745">
        <ele>435</ele>
        <time>2022-09-04T10:34:49Z</time>
      </trkpt>
      <trkpt lat="43.05987" lon="0.8474">
        <ele>435.4</ele>
        <time>2022-09-04T10:34:52Z</time>
      </trkpt>
      <trkpt lat="43.05988" lon="0.84731">
        <ele>436.2</ele>
        <time>2022-09-04T10:34:57Z</time>
      </trkpt>
      <trkpt lat="43.05989" lon="0.84729">
        <ele>436.2</ele>
        <time>2022-09-04T10:34:58Z</time>
      </trkpt>
      <trkpt lat="43.05991" lon="0.84718">
        <ele>437.2</ele>
        <time>2022-09-04T10:35:04Z</time>
      </trkpt>
      <trkpt lat="43.05992" lon="0.8471">
        <ele>437.6</ele>
        <time>2022-09-04T10:35:08Z</time>
      </trkpt>
      <trkpt lat="43.05993" lon="0.84703">
        <ele>438.4</ele>
        <time>2022-09-04T10:35:12Z</time>
      </trkpt>
      <trkpt lat="43.05992" lon="0.84701">
        <ele>438.4</ele>
        <time>2022-09-04T10:35:13Z</time>
      </trkpt>
      <trkpt lat="43.05993" lon="0.847">
        <ele>438.6</ele>
        <time>2022-09-04T10:35:14Z</time>
      </trkpt>
      <trkpt lat="43.05996" lon="0.84691">
        <ele>439.4</ele>
        <time>2022-09-04T10:35:19Z</time>
      </trkpt>
      <trkpt lat="43.05997" lon="0.84685">
        <ele>439.6</ele>
        <time>2022-09-04T10:35:22Z</time>
      </trkpt>
      <trkpt lat="43.05997" lon="0.84683">
        <ele>439.8</ele>
        <time>2022-09-04T10:35:23Z</time>
      </trkpt>
      <trkpt lat="43.05999" lon="0.84678">
        <ele>440.4</ele>
        <time>2022-09-04T10:35:26Z</time>
      </trkpt>
      <trkpt lat="43.05999" lon="0.84673">
        <ele>440.8</ele>
        <time>2022-09-04T10:35:29Z</time>
      </trkpt>
      <trkpt lat="43.06001" lon="0.84665">
        <ele>441.6</ele>
        <time>2022-09-04T10:35:33Z</time>
      </trkpt>
      <trkpt lat="43.06002" lon="0.84662">
        <ele>441.8</ele>
        <time>2022-09-04T10:35:35Z</time>
      </trkpt>
      <trkpt lat="43.06003" lon="0.8466">
        <ele>442</ele>
        <time>2022-09-04T10:35:36Z</time>
      </trkpt>
      <trkpt lat="43.06004" lon="0.84655">
        <ele>442.6</ele>
        <time>2022-09-04T10:35:39Z</time>
      </trkpt>
      <trkpt lat="43.06004" lon="0.84651">
        <ele>442.8</ele>
        <time>2022-09-04T10:35:41Z</time>
      </trkpt>
      <trkpt lat="43.06007" lon="0.84645">
        <ele>443.2</ele>
        <time>2022-09-04T10:35:45Z</time>
      </trkpt>
      <trkpt lat="43.06008" lon="0.84641">
        <ele>443.6</ele>
        <time>2022-09-04T10:35:47Z</time>
      </trkpt>
      <trkpt lat="43.06007" lon="0.84637">
        <ele>444</ele>
        <time>2022-09-04T10:35:49Z</time>
      </trkpt>
      <trkpt lat="43.06008" lon="0.84635">
        <ele>444</ele>
        <time>2022-09-04T10:35:50Z</time>
      </trkpt>
      <trkpt lat="43.06009" lon="0.84634">
        <ele>444.2</ele>
        <time>2022-09-04T10:35:51Z</time>
      </trkpt>
      <trkpt lat="43.06012" lon="0.84626">
        <ele>444.8</ele>
        <time>2022-09-04T10:35:56Z</time>
      </trkpt>
      <trkpt lat="43.06013" lon="0.84624">
        <ele>444.8</ele>
        <time>2022-09-04T10:35:57Z</time>
      </trkpt>
      <trkpt lat="43.06014" lon="0.84618">
        <ele>445.4</ele>
        <time>2022-09-04T10:36:00Z</time>
      </trkpt>
      <trkpt lat="43.06017" lon="0.84608">
        <ele>446</ele>
        <time>2022-09-04T10:36:05Z</time>
      </trkpt>
      <trkpt lat="43.06019" lon="0.84591">
        <ele>446.6</ele>
        <time>2022-09-04T10:36:12Z</time>
      </trkpt>
      <trkpt lat="43.06022" lon="0.84584">
        <ele>447</ele>
        <time>2022-09-04T10:36:15Z</time>
      </trkpt>
      <trkpt lat="43.06024" lon="0.84571">
        <ele>447.4</ele>
        <time>2022-09-04T10:36:20Z</time>
      </trkpt>
      <trkpt lat="43.06031" lon="0.84542">
        <ele>447.8</ele>
        <time>2022-09-04T10:36:30Z</time>
      </trkpt>
      <trkpt lat="43.06036" lon="0.84517">
        <ele>447.8</ele>
        <time>2022-09-04T10:36:38Z</time>
      </trkpt>
      <trkpt lat="43.06042" lon="0.84484">
        <ele>447.8</ele>
        <time>2022-09-04T10:36:47Z</time>
      </trkpt>
      <trkpt lat="43.06047" lon="0.84449">
        <ele>447.2</ele>
        <time>2022-09-04T10:36:55Z</time>
      </trkpt>
      <trkpt lat="43.06051" lon="0.84433">
        <ele>447</ele>
        <time>2022-09-04T10:36:58Z</time>
      </trkpt>
      <trkpt lat="43.06054" lon="0.84416">
        <ele>446.6</ele>
        <time>2022-09-04T10:37:01Z</time>
      </trkpt>
      <trkpt lat="43.06067" lon="0.84364">
        <ele>446</ele>
        <time>2022-09-04T10:37:09Z</time>
      </trkpt>
      <trkpt lat="43.06072" lon="0.84351">
        <ele>445.6</ele>
        <time>2022-09-04T10:37:11Z</time>
      </trkpt>
      <trkpt lat="43.06083" lon="0.8432">
        <ele>445.6</ele>
        <time>2022-09-04T10:37:16Z</time>
      </trkpt>
      <trkpt lat="43.06096" lon="0.84296">
        <ele>445.6</ele>
        <time>2022-09-04T10:37:22Z</time>
      </trkpt>
      <trkpt lat="43.06101" lon="0.84289">
        <ele>445.6</ele>
        <time>2022-09-04T10:37:27Z</time>
      </trkpt>
      <trkpt lat="43.06104" lon="0.84285">
        <ele>446</ele>
        <time>2022-09-04T10:37:56Z</time>
      </trkpt>
      <trkpt lat="43.06108" lon="0.84281">
        <ele>446</ele>
        <time>2022-09-04T10:37:58Z</time>
      </trkpt>
      <trkpt lat="43.06117" lon="0.84268">
        <ele>446.2</ele>
        <time>2022-09-04T10:38:04Z</time>
      </trkpt>
      <trkpt lat="43.06122" lon="0.84261">
        <ele>446.8</ele>
        <time>2022-09-04T10:38:08Z</time>
      </trkpt>
      <trkpt lat="43.06127" lon="0.84254">
        <ele>447</ele>
        <time>2022-09-04T10:38:12Z</time>
      </trkpt>
      <trkpt lat="43.06133" lon="0.84242">
        <ele>447.8</ele>
        <time>2022-09-04T10:38:18Z</time>
      </trkpt>
      <trkpt lat="43.06136" lon="0.84235">
        <ele>448.2</ele>
        <time>2022-09-04T10:38:21Z</time>
      </trkpt>
      <trkpt lat="43.06144" lon="0.84223">
        <ele>448.8</ele>
        <time>2022-09-04T10:38:27Z</time>
      </trkpt>
      <trkpt lat="43.06146" lon="0.84219">
        <ele>449</ele>
        <time>2022-09-04T10:38:29Z</time>
      </trkpt>
      <trkpt lat="43.06155" lon="0.84205">
        <ele>449.8</ele>
        <time>2022-09-04T10:38:36Z</time>
      </trkpt>
      <trkpt lat="43.06156" lon="0.84203">
        <ele>450</ele>
        <time>2022-09-04T10:38:37Z</time>
      </trkpt>
      <trkpt lat="43.06164" lon="0.84189">
        <ele>450.8</ele>
        <time>2022-09-04T10:38:44Z</time>
      </trkpt>
      <trkpt lat="43.06165" lon="0.84187">
        <ele>451</ele>
        <time>2022-09-04T10:38:45Z</time>
      </trkpt>
      <trkpt lat="43.06173" lon="0.84176">
        <ele>452</ele>
        <time>2022-09-04T10:38:51Z</time>
      </trkpt>
      <trkpt lat="43.06175" lon="0.84174">
        <ele>452</ele>
        <time>2022-09-04T10:38:52Z</time>
      </trkpt>
      <trkpt lat="43.06183" lon="0.84161">
        <ele>453</ele>
        <time>2022-09-04T10:38:59Z</time>
      </trkpt>
      <trkpt lat="43.06184" lon="0.84159">
        <ele>453.2</ele>
        <time>2022-09-04T10:39:00Z</time>
      </trkpt>
      <trkpt lat="43.06195" lon="0.84144">
        <ele>454</ele>
        <time>2022-09-04T10:39:08Z</time>
      </trkpt>
      <trkpt lat="43.06208" lon="0.84128">
        <ele>454.4</ele>
        <time>2022-09-04T10:39:17Z</time>
      </trkpt>
      <trkpt lat="43.06221" lon="0.84111">
        <ele>454.2</ele>
        <time>2022-09-04T10:39:24Z</time>
      </trkpt>
      <trkpt lat="43.06241" lon="0.84087">
        <ele>453.6</ele>
        <time>2022-09-04T10:39:31Z</time>
      </trkpt>
      <trkpt lat="43.06249" lon="0.84078">
        <ele>453</ele>
        <time>2022-09-04T10:39:33Z</time>
      </trkpt>
      <trkpt lat="43.06267" lon="0.84056">
        <ele>452</ele>
        <time>2022-09-04T10:39:37Z</time>
      </trkpt>
      <trkpt lat="43.06296" lon="0.84022">
        <ele>450.4</ele>
        <time>2022-09-04T10:39:43Z</time>
      </trkpt>
      <trkpt lat="43.06314" lon="0.84002">
        <ele>449.2</ele>
        <time>2022-09-04T10:39:47Z</time>
      </trkpt>
      <trkpt lat="43.06323" lon="0.83993">
        <ele>448.4</ele>
        <time>2022-09-04T10:39:49Z</time>
      </trkpt>
      <trkpt lat="43.06327" lon="0.83988">
        <ele>447.8</ele>
        <time>2022-09-04T10:39:50Z</time>
      </trkpt>
      <trkpt lat="43.06342" lon="0.83969">
        <ele>446.6</ele>
        <time>2022-09-04T10:39:54Z</time>
      </trkpt>
      <trkpt lat="43.06345" lon="0.83962">
        <ele>446.4</ele>
        <time>2022-09-04T10:39:55Z</time>
      </trkpt>
      <trkpt lat="43.06352" lon="0.83939">
        <ele>445.6</ele>
        <time>2022-09-04T10:39:58Z</time>
      </trkpt>
      <trkpt lat="43.06355" lon="0.83931">
        <ele>445.6</ele>
        <time>2022-09-04T10:39:59Z</time>
      </trkpt>
      <trkpt lat="43.06357" lon="0.83923">
        <ele>445</ele>
        <time>2022-09-04T10:40:00Z</time>
      </trkpt>
      <trkpt lat="43.06359" lon="0.83915">
        <ele>444.6</ele>
        <time>2022-09-04T10:40:01Z</time>
      </trkpt>
      <trkpt lat="43.06361" lon="0.839">
        <ele>443.6</ele>
        <time>2022-09-04T10:40:03Z</time>
      </trkpt>
      <trkpt lat="43.06362" lon="0.83893">
        <ele>443.2</ele>
        <time>2022-09-04T10:40:04Z</time>
      </trkpt>
      <trkpt lat="43.06362" lon="0.83884">
        <ele>443</ele>
        <time>2022-09-04T10:40:05Z</time>
      </trkpt>
      <trkpt lat="43.06362" lon="0.8387">
        <ele>442.4</ele>
        <time>2022-09-04T10:40:07Z</time>
      </trkpt>
      <trkpt lat="43.06363" lon="0.83864">
        <ele>442</ele>
        <time>2022-09-04T10:40:08Z</time>
      </trkpt>
      <trkpt lat="43.06363" lon="0.83847">
        <ele>441</ele>
        <time>2022-09-04T10:40:11Z</time>
      </trkpt>
      <trkpt lat="43.06363" lon="0.83841">
        <ele>440.8</ele>
        <time>2022-09-04T10:40:12Z</time>
      </trkpt>
      <trkpt lat="43.06363" lon="0.83827">
        <ele>440</ele>
        <time>2022-09-04T10:40:14Z</time>
      </trkpt>
      <trkpt lat="43.06363" lon="0.83813">
        <ele>438.4</ele>
        <time>2022-09-04T10:40:16Z</time>
      </trkpt>
      <trkpt lat="43.06361" lon="0.83795">
        <ele>437</ele>
        <time>2022-09-04T10:40:19Z</time>
      </trkpt>
      <trkpt lat="43.06361" lon="0.83777">
        <ele>435.4</ele>
        <time>2022-09-04T10:40:22Z</time>
      </trkpt>
      <trkpt lat="43.0636" lon="0.83764">
        <ele>434.2</ele>
        <time>2022-09-04T10:40:24Z</time>
      </trkpt>
      <trkpt lat="43.0636" lon="0.83749">
        <ele>432.6</ele>
        <time>2022-09-04T10:40:26Z</time>
      </trkpt>
      <trkpt lat="43.06359" lon="0.83742">
        <ele>432.2</ele>
        <time>2022-09-04T10:40:27Z</time>
      </trkpt>
      <trkpt lat="43.06358" lon="0.83735">
        <ele>431.6</ele>
        <time>2022-09-04T10:40:28Z</time>
      </trkpt>
      <trkpt lat="43.06356" lon="0.83721">
        <ele>430.4</ele>
        <time>2022-09-04T10:40:30Z</time>
      </trkpt>
      <trkpt lat="43.06355" lon="0.83701">
        <ele>428.8</ele>
        <time>2022-09-04T10:40:33Z</time>
      </trkpt>
      <trkpt lat="43.06355" lon="0.83694">
        <ele>428.2</ele>
        <time>2022-09-04T10:40:34Z</time>
      </trkpt>
      <trkpt lat="43.06355" lon="0.83688">
        <ele>427.4</ele>
        <time>2022-09-04T10:40:35Z</time>
      </trkpt>
      <trkpt lat="43.06353" lon="0.83675">
        <ele>426.4</ele>
        <time>2022-09-04T10:40:37Z</time>
      </trkpt>
      <trkpt lat="43.06351" lon="0.83659">
        <ele>425.2</ele>
        <time>2022-09-04T10:40:39Z</time>
      </trkpt>
      <trkpt lat="43.0635" lon="0.83651">
        <ele>424.4</ele>
        <time>2022-09-04T10:40:40Z</time>
      </trkpt>
      <trkpt lat="43.06349" lon="0.83643">
        <ele>423.4</ele>
        <time>2022-09-04T10:40:41Z</time>
      </trkpt>
      <trkpt lat="43.06347" lon="0.83629">
        <ele>422.2</ele>
        <time>2022-09-04T10:40:43Z</time>
      </trkpt>
      <trkpt lat="43.06344" lon="0.8361">
        <ele>421</ele>
        <time>2022-09-04T10:40:46Z</time>
      </trkpt>
      <trkpt lat="43.06341" lon="0.83593">
        <ele>419.6</ele>
        <time>2022-09-04T10:40:49Z</time>
      </trkpt>
      <trkpt lat="43.06339" lon="0.83576">
        <ele>418.4</ele>
        <time>2022-09-04T10:40:52Z</time>
      </trkpt>
      <trkpt lat="43.06337" lon="0.83544">
        <ele>417</ele>
        <time>2022-09-04T10:40:56Z</time>
      </trkpt>
      <trkpt lat="43.06337" lon="0.8353">
        <ele>415.6</ele>
        <time>2022-09-04T10:40:58Z</time>
      </trkpt>
      <trkpt lat="43.06336" lon="0.83521">
        <ele>414.4</ele>
        <time>2022-09-04T10:41:00Z</time>
      </trkpt>
      <trkpt lat="43.06336" lon="0.83518">
        <ele>413.6</ele>
        <time>2022-09-04T10:41:03Z</time>
      </trkpt>
      <trkpt lat="43.06335" lon="0.83509">
        <ele>414</ele>
        <time>2022-09-04T10:44:23Z</time>
      </trkpt>
      <trkpt lat="43.06335" lon="0.83499">
        <ele>413.6</ele>
        <time>2022-09-04T10:44:25Z</time>
      </trkpt>
      <trkpt lat="43.06335" lon="0.83493">
        <ele>413.2</ele>
        <time>2022-09-04T10:44:26Z</time>
      </trkpt>
      <trkpt lat="43.06335" lon="0.83473">
        <ele>412.2</ele>
        <time>2022-09-04T10:44:29Z</time>
      </trkpt>
      <trkpt lat="43.06335" lon="0.83465">
        <ele>411.6</ele>
        <time>2022-09-04T10:44:30Z</time>
      </trkpt>
      <trkpt lat="43.06335" lon="0.83457">
        <ele>411</ele>
        <time>2022-09-04T10:44:31Z</time>
      </trkpt>
      <trkpt lat="43.06335" lon="0.8344">
        <ele>409.8</ele>
        <time>2022-09-04T10:44:33Z</time>
      </trkpt>
      <trkpt lat="43.06336" lon="0.83417">
        <ele>408.4</ele>
        <time>2022-09-04T10:44:35Z</time>
      </trkpt>
      <trkpt lat="43.06336" lon="0.83394">
        <ele>407.2</ele>
        <time>2022-09-04T10:44:37Z</time>
      </trkpt>
      <trkpt lat="43.06335" lon="0.83369">
        <ele>405.8</ele>
        <time>2022-09-04T10:44:39Z</time>
      </trkpt>
      <trkpt lat="43.06333" lon="0.83345">
        <ele>404.4</ele>
        <time>2022-09-04T10:44:41Z</time>
      </trkpt>
      <trkpt lat="43.06331" lon="0.83321">
        <ele>402.6</ele>
        <time>2022-09-04T10:44:43Z</time>
      </trkpt>
      <trkpt lat="43.06329" lon="0.83283">
        <ele>401.2</ele>
        <time>2022-09-04T10:44:46Z</time>
      </trkpt>
      <trkpt lat="43.06329" lon="0.8326">
        <ele>400.2</ele>
        <time>2022-09-04T10:44:48Z</time>
      </trkpt>
      <trkpt lat="43.06329" lon="0.83238">
        <ele>398.6</ele>
        <time>2022-09-04T10:44:50Z</time>
      </trkpt>
      <trkpt lat="43.06329" lon="0.83216">
        <ele>397.4</ele>
        <time>2022-09-04T10:44:52Z</time>
      </trkpt>
      <trkpt lat="43.06329" lon="0.83205">
        <ele>396.8</ele>
        <time>2022-09-04T10:44:53Z</time>
      </trkpt>
      <trkpt lat="43.06328" lon="0.83195">
        <ele>396</ele>
        <time>2022-09-04T10:44:54Z</time>
      </trkpt>
      <trkpt lat="43.06327" lon="0.83176">
        <ele>394.4</ele>
        <time>2022-09-04T10:44:56Z</time>
      </trkpt>
      <trkpt lat="43.06328" lon="0.83159">
        <ele>393.2</ele>
        <time>2022-09-04T10:44:58Z</time>
      </trkpt>
      <trkpt lat="43.06327" lon="0.83138">
        <ele>392</ele>
        <time>2022-09-04T10:45:01Z</time>
      </trkpt>
      <trkpt lat="43.06326" lon="0.83126">
        <ele>391.2</ele>
        <time>2022-09-04T10:45:03Z</time>
      </trkpt>
      <trkpt lat="43.06326" lon="0.83118">
        <ele>390.8</ele>
        <time>2022-09-04T10:45:05Z</time>
      </trkpt>
      <trkpt lat="43.06327" lon="0.83115">
        <ele>390.4</ele>
        <time>2022-09-04T10:45:07Z</time>
      </trkpt>
      <trkpt lat="43.06332" lon="0.83106">
        <ele>390.2</ele>
        <time>2022-09-04T10:45:13Z</time>
      </trkpt>
      <trkpt lat="43.06333" lon="0.83106">
        <ele>390.2</ele>
        <time>2022-09-04T10:45:14Z</time>
      </trkpt>
      <trkpt lat="43.06339" lon="0.83109">
        <ele>390.4</ele>
        <time>2022-09-04T10:45:18Z</time>
      </trkpt>
      <trkpt lat="43.06341" lon="0.83111">
        <ele>390.6</ele>
        <time>2022-09-04T10:45:19Z</time>
      </trkpt>
      <trkpt lat="43.06353" lon="0.83119">
        <ele>390.8</ele>
        <time>2022-09-04T10:45:24Z</time>
      </trkpt>
      <trkpt lat="43.06367" lon="0.83125">
        <ele>390.6</ele>
        <time>2022-09-04T10:45:29Z</time>
      </trkpt>
      <trkpt lat="43.06385" lon="0.83132">
        <ele>390.4</ele>
        <time>2022-09-04T10:45:35Z</time>
      </trkpt>
      <trkpt lat="43.06398" lon="0.83134">
        <ele>390</ele>
        <time>2022-09-04T10:45:40Z</time>
      </trkpt>
      <trkpt lat="43.06401" lon="0.83135">
        <ele>389.8</ele>
        <time>2022-09-04T10:45:41Z</time>
      </trkpt>
      <trkpt lat="43.06407" lon="0.83132">
        <ele>389.4</ele>
        <time>2022-09-04T10:45:44Z</time>
      </trkpt>
      <trkpt lat="43.0641" lon="0.83128">
        <ele>389.2</ele>
        <time>2022-09-04T10:45:46Z</time>
      </trkpt>
      <trkpt lat="43.06408" lon="0.83124">
        <ele>389</ele>
        <time>2022-09-04T10:45:50Z</time>
      </trkpt>
      <trkpt lat="43.06402" lon="0.83124">
        <ele>389.6</ele>
        <time>2022-09-04T10:45:55Z</time>
      </trkpt>
      <trkpt lat="43.06398" lon="0.83125">
        <ele>389.6</ele>
        <time>2022-09-04T10:45:58Z</time>
      </trkpt>
      <trkpt lat="43.06394" lon="0.83122">
        <ele>394</ele>
        <time>2022-09-04T11:24:25Z</time>
      </trkpt>
      <trkpt lat="43.06399" lon="0.83123">
        <ele>393.8</ele>
        <time>2022-09-04T11:24:28Z</time>
      </trkpt>
      <trkpt lat="43.06406" lon="0.83124">
        <ele>393.6</ele>
        <time>2022-09-04T11:24:34Z</time>
      </trkpt>
      <trkpt lat="43.06413" lon="0.83125">
        <ele>393.4</ele>
        <time>2022-09-04T11:24:39Z</time>
      </trkpt>
      <trkpt lat="43.06416" lon="0.83125">
        <ele>393.6</ele>
        <time>2022-09-04T11:24:41Z</time>
      </trkpt>
      <trkpt lat="43.06425" lon="0.83121">
        <ele>393</ele>
        <time>2022-09-04T11:24:45Z</time>
      </trkpt>
      <trkpt lat="43.06431" lon="0.83118">
        <ele>393</ele>
        <time>2022-09-04T11:24:47Z</time>
      </trkpt>
      <trkpt lat="43.06441" lon="0.83107">
        <ele>393</ele>
        <time>2022-09-04T11:24:53Z</time>
      </trkpt>
      <trkpt lat="43.0644" lon="0.83098">
        <ele>393.2</ele>
        <time>2022-09-04T11:24:57Z</time>
      </trkpt>
      <trkpt lat="43.06439" lon="0.83096">
        <ele>393.2</ele>
        <time>2022-09-04T11:24:58Z</time>
      </trkpt>
      <trkpt lat="43.06431" lon="0.83083">
        <ele>393.6</ele>
        <time>2022-09-04T11:25:06Z</time>
      </trkpt>
      <trkpt lat="43.06427" lon="0.8307">
        <ele>393.4</ele>
        <time>2022-09-04T11:31:52Z</time>
      </trkpt>
      <trkpt lat="43.06424" lon="0.83065">
        <ele>393.4</ele>
        <time>2022-09-04T11:31:55Z</time>
      </trkpt>
      <trkpt lat="43.06416" lon="0.83049">
        <ele>393.8</ele>
        <time>2022-09-04T11:32:02Z</time>
      </trkpt>
      <trkpt lat="43.06413" lon="0.83045">
        <ele>394</ele>
        <time>2022-09-04T11:32:04Z</time>
      </trkpt>
      <trkpt lat="43.06406" lon="0.83031">
        <ele>394.6</ele>
        <time>2022-09-04T11:32:10Z</time>
      </trkpt>
      <trkpt lat="43.06395" lon="0.83018">
        <ele>395.2</ele>
        <time>2022-09-04T11:32:17Z</time>
      </trkpt>
      <trkpt lat="43.0639" lon="0.83012">
        <ele>395.6</ele>
        <time>2022-09-04T11:32:20Z</time>
      </trkpt>
      <trkpt lat="43.06378" lon="0.82996">
        <ele>396.2</ele>
        <time>2022-09-04T11:32:28Z</time>
      </trkpt>
      <trkpt lat="43.06374" lon="0.82992">
        <ele>396.2</ele>
        <time>2022-09-04T11:32:30Z</time>
      </trkpt>
      <trkpt lat="43.06363" lon="0.82976">
        <ele>396.8</ele>
        <time>2022-09-04T11:32:37Z</time>
      </trkpt>
      <trkpt lat="43.06349" lon="0.82957">
        <ele>397</ele>
        <time>2022-09-04T11:32:46Z</time>
      </trkpt>
      <trkpt lat="43.06339" lon="0.82935">
        <ele>396.6</ele>
        <time>2022-09-04T11:32:51Z</time>
      </trkpt>
      <trkpt lat="43.06324" lon="0.82906">
        <ele>395.4</ele>
        <time>2022-09-04T11:32:56Z</time>
      </trkpt>
      <trkpt lat="43.0632" lon="0.82898">
        <ele>395.2</ele>
        <time>2022-09-04T11:32:57Z</time>
      </trkpt>
      <trkpt lat="43.06306" lon="0.82875">
        <ele>394</ele>
        <time>2022-09-04T11:33:00Z</time>
      </trkpt>
      <trkpt lat="43.06302" lon="0.82866">
        <ele>393.8</ele>
        <time>2022-09-04T11:33:01Z</time>
      </trkpt>
      <trkpt lat="43.06293" lon="0.82849">
        <ele>393</ele>
        <time>2022-09-04T11:33:03Z</time>
      </trkpt>
      <trkpt lat="43.06273" lon="0.82814">
        <ele>392.2</ele>
        <time>2022-09-04T11:33:07Z</time>
      </trkpt>
      <trkpt lat="43.06268" lon="0.82806">
        <ele>392</ele>
        <time>2022-09-04T11:33:08Z</time>
      </trkpt>
      <trkpt lat="43.06264" lon="0.82797">
        <ele>391.6</ele>
        <time>2022-09-04T11:33:09Z</time>
      </trkpt>
      <trkpt lat="43.0625" lon="0.82769">
        <ele>390.8</ele>
        <time>2022-09-04T11:33:12Z</time>
      </trkpt>
      <trkpt lat="43.06243" lon="0.82749">
        <ele>390.6</ele>
        <time>2022-09-04T11:33:14Z</time>
      </trkpt>
      <trkpt lat="43.06237" lon="0.82728">
        <ele>390.2</ele>
        <time>2022-09-04T11:33:16Z</time>
      </trkpt>
      <trkpt lat="43.06234" lon="0.82698">
        <ele>390</ele>
        <time>2022-09-04T11:33:19Z</time>
      </trkpt>
      <trkpt lat="43.06233" lon="0.82643">
        <ele>390</ele>
        <time>2022-09-04T11:33:25Z</time>
      </trkpt>
      <trkpt lat="43.06234" lon="0.82635">
        <ele>390</ele>
        <time>2022-09-04T11:33:26Z</time>
      </trkpt>
      <trkpt lat="43.06239" lon="0.82601">
        <ele>390.6</ele>
        <time>2022-09-04T11:33:31Z</time>
      </trkpt>
      <trkpt lat="43.06239" lon="0.82595">
        <ele>390.6</ele>
        <time>2022-09-04T11:33:32Z</time>
      </trkpt>
      <trkpt lat="43.06237" lon="0.82537">
        <ele>390.2</ele>
        <time>2022-09-04T11:33:41Z</time>
      </trkpt>
      <trkpt lat="43.06236" lon="0.82522">
        <ele>389.6</ele>
        <time>2022-09-04T11:33:43Z</time>
      </trkpt>
      <trkpt lat="43.06234" lon="0.82483">
        <ele>389</ele>
        <time>2022-09-04T11:33:48Z</time>
      </trkpt>
      <trkpt lat="43.06234" lon="0.82474">
        <ele>388.8</ele>
        <time>2022-09-04T11:33:49Z</time>
      </trkpt>
      <trkpt lat="43.06236" lon="0.82458">
        <ele>388.6</ele>
        <time>2022-09-04T11:33:51Z</time>
      </trkpt>
      <trkpt lat="43.06244" lon="0.82418">
        <ele>388.4</ele>
        <time>2022-09-04T11:33:56Z</time>
      </trkpt>
      <trkpt lat="43.06258" lon="0.8236">
        <ele>388.2</ele>
        <time>2022-09-04T11:34:04Z</time>
      </trkpt>
      <trkpt lat="43.06263" lon="0.82335">
        <ele>387.4</ele>
        <time>2022-09-04T11:34:07Z</time>
      </trkpt>
      <trkpt lat="43.06269" lon="0.82306">
        <ele>386.6</ele>
        <time>2022-09-04T11:34:10Z</time>
      </trkpt>
      <trkpt lat="43.06271" lon="0.82296">
        <ele>386</ele>
        <time>2022-09-04T11:34:11Z</time>
      </trkpt>
      <trkpt lat="43.06277" lon="0.82266">
        <ele>384.6</ele>
        <time>2022-09-04T11:34:14Z</time>
      </trkpt>
      <trkpt lat="43.06281" lon="0.82247">
        <ele>383.2</ele>
        <time>2022-09-04T11:34:16Z</time>
      </trkpt>
      <trkpt lat="43.06286" lon="0.82224">
        <ele>382</ele>
        <time>2022-09-04T11:34:18Z</time>
      </trkpt>
      <trkpt lat="43.0629" lon="0.82197">
        <ele>380.8</ele>
        <time>2022-09-04T11:34:20Z</time>
      </trkpt>
      <trkpt lat="43.06292" lon="0.82168">
        <ele>379.6</ele>
        <time>2022-09-04T11:34:22Z</time>
      </trkpt>
      <trkpt lat="43.0629" lon="0.8214">
        <ele>378</ele>
        <time>2022-09-04T11:34:24Z</time>
      </trkpt>
      <trkpt lat="43.06279" lon="0.82102">
        <ele>378.2</ele>
        <time>2022-09-04T11:34:27Z</time>
      </trkpt>
      <trkpt lat="43.06269" lon="0.82081">
        <ele>377.2</ele>
        <time>2022-09-04T11:34:29Z</time>
      </trkpt>
      <trkpt lat="43.06264" lon="0.82071">
        <ele>377</ele>
        <time>2022-09-04T11:34:30Z</time>
      </trkpt>
      <trkpt lat="43.06259" lon="0.82063">
        <ele>376.8</ele>
        <time>2022-09-04T11:34:31Z</time>
      </trkpt>
      <trkpt lat="43.06247" lon="0.82044">
        <ele>376</ele>
        <time>2022-09-04T11:34:34Z</time>
      </trkpt>
      <trkpt lat="43.06246" lon="0.82038">
        <ele>375.8</ele>
        <time>2022-09-04T11:34:35Z</time>
      </trkpt>
      <trkpt lat="43.06247" lon="0.82026">
        <ele>376</ele>
        <time>2022-09-04T11:34:37Z</time>
      </trkpt>
      <trkpt lat="43.0625" lon="0.82016">
        <ele>375.8</ele>
        <time>2022-09-04T11:34:39Z</time>
      </trkpt>
      <trkpt lat="43.06256" lon="0.81997">
        <ele>376.2</ele>
        <time>2022-09-04T11:34:43Z</time>
      </trkpt>
      <trkpt lat="43.06266" lon="0.81968">
        <ele>376.2</ele>
        <time>2022-09-04T11:34:50Z</time>
      </trkpt>
      <trkpt lat="43.06273" lon="0.81947">
        <ele>376.6</ele>
        <time>2022-09-04T11:34:56Z</time>
      </trkpt>
      <trkpt lat="43.06274" lon="0.8193">
        <ele>376.8</ele>
        <time>2022-09-04T11:35:00Z</time>
      </trkpt>
      <trkpt lat="43.06276" lon="0.81913">
        <ele>377.2</ele>
        <time>2022-09-04T11:35:04Z</time>
      </trkpt>
      <trkpt lat="43.06275" lon="0.81882">
        <ele>377.8</ele>
        <time>2022-09-04T11:35:12Z</time>
      </trkpt>
      <trkpt lat="43.06275" lon="0.81879">
        <ele>378</ele>
        <time>2022-09-04T11:35:13Z</time>
      </trkpt>
      <trkpt lat="43.06275" lon="0.81872">
        <ele>378.2</ele>
        <time>2022-09-04T11:35:15Z</time>
      </trkpt>
      <trkpt lat="43.06275" lon="0.81855">
        <ele>379</ele>
        <time>2022-09-04T11:35:20Z</time>
      </trkpt>
      <trkpt lat="43.06275" lon="0.81852">
        <ele>379.2</ele>
        <time>2022-09-04T11:35:21Z</time>
      </trkpt>
      <trkpt lat="43.06275" lon="0.81829">
        <ele>380</ele>
        <time>2022-09-04T11:35:29Z</time>
      </trkpt>
      <trkpt lat="43.06275" lon="0.81826">
        <ele>380</ele>
        <time>2022-09-04T11:35:30Z</time>
      </trkpt>
      <trkpt lat="43.06275" lon="0.818">
        <ele>380.8</ele>
        <time>2022-09-04T11:35:39Z</time>
      </trkpt>
      <trkpt lat="43.06275" lon="0.81794">
        <ele>381.2</ele>
        <time>2022-09-04T11:35:41Z</time>
      </trkpt>
      <trkpt lat="43.06276" lon="0.81768">
        <ele>382.2</ele>
        <time>2022-09-04T11:35:51Z</time>
      </trkpt>
      <trkpt lat="43.06278" lon="0.81741">
        <ele>383.4</ele>
        <time>2022-09-04T11:36:01Z</time>
      </trkpt>
      <trkpt lat="43.0628" lon="0.81716">
        <ele>384.2</ele>
        <time>2022-09-04T11:36:10Z</time>
      </trkpt>
      <trkpt lat="43.0628" lon="0.81713">
        <ele>384.4</ele>
        <time>2022-09-04T11:36:11Z</time>
      </trkpt>
      <trkpt lat="43.06281" lon="0.81687">
        <ele>385.2</ele>
        <time>2022-09-04T11:36:20Z</time>
      </trkpt>
      <trkpt lat="43.0628" lon="0.81675">
        <ele>385.4</ele>
        <time>2022-09-04T11:36:24Z</time>
      </trkpt>
      <trkpt lat="43.06281" lon="0.81657">
        <ele>385.8</ele>
        <time>2022-09-04T11:36:30Z</time>
      </trkpt>
      <trkpt lat="43.06281" lon="0.81645">
        <ele>386.2</ele>
        <time>2022-09-04T11:36:34Z</time>
      </trkpt>
      <trkpt lat="43.06281" lon="0.81636">
        <ele>386.6</ele>
        <time>2022-09-04T11:36:37Z</time>
      </trkpt>
      <trkpt lat="43.06281" lon="0.81633">
        <ele>386.6</ele>
        <time>2022-09-04T11:36:38Z</time>
      </trkpt>
      <trkpt lat="43.06281" lon="0.81605">
        <ele>387.4</ele>
        <time>2022-09-04T11:36:47Z</time>
      </trkpt>
      <trkpt lat="43.06281" lon="0.81603">
        <ele>387.6</ele>
        <time>2022-09-04T11:36:48Z</time>
      </trkpt>
      <trkpt lat="43.06281" lon="0.81586">
        <ele>388</ele>
        <time>2022-09-04T11:36:54Z</time>
      </trkpt>
      <trkpt lat="43.0628" lon="0.81584">
        <ele>388.2</ele>
        <time>2022-09-04T11:36:55Z</time>
      </trkpt>
      <trkpt lat="43.06276" lon="0.81581">
        <ele>388.6</ele>
        <time>2022-09-04T11:36:57Z</time>
      </trkpt>
      <trkpt lat="43.06274" lon="0.81581">
        <ele>388.8</ele>
        <time>2022-09-04T11:36:58Z</time>
      </trkpt>
      <trkpt lat="43.0627" lon="0.81581">
        <ele>388.8</ele>
        <time>2022-09-04T11:37:00Z</time>
      </trkpt>
      <trkpt lat="43.06262" lon="0.8158">
        <ele>388.8</ele>
        <time>2022-09-04T11:37:04Z</time>
      </trkpt>
      <trkpt lat="43.06242" lon="0.81578">
        <ele>389</ele>
        <time>2022-09-04T11:37:12Z</time>
      </trkpt>
      <trkpt lat="43.06216" lon="0.81574">
        <ele>389</ele>
        <time>2022-09-04T11:37:21Z</time>
      </trkpt>
      <trkpt lat="43.06195" lon="0.81574">
        <ele>389</ele>
        <time>2022-09-04T11:37:28Z</time>
      </trkpt>
      <trkpt lat="43.06172" lon="0.81572">
        <ele>389</ele>
        <time>2022-09-04T11:37:36Z</time>
      </trkpt>
      <trkpt lat="43.06149" lon="0.81569">
        <ele>389.2</ele>
        <time>2022-09-04T11:37:43Z</time>
      </trkpt>
      <trkpt lat="43.06119" lon="0.81565">
        <ele>389.4</ele>
        <time>2022-09-04T11:37:51Z</time>
      </trkpt>
      <trkpt lat="43.06099" lon="0.81559">
        <ele>389</ele>
        <time>2022-09-04T11:37:57Z</time>
      </trkpt>
      <trkpt lat="43.06071" lon="0.81553">
        <ele>389</ele>
        <time>2022-09-04T11:38:05Z</time>
      </trkpt>
      <trkpt lat="43.06043" lon="0.81549">
        <ele>389.2</ele>
        <time>2022-09-04T11:38:13Z</time>
      </trkpt>
      <trkpt lat="43.06017" lon="0.8155">
        <ele>389.6</ele>
        <time>2022-09-04T11:38:21Z</time>
      </trkpt>
      <trkpt lat="43.06012" lon="0.8155">
        <ele>389.8</ele>
        <time>2022-09-04T11:38:23Z</time>
      </trkpt>
      <trkpt lat="43.06001" lon="0.81548">
        <ele>390.4</ele>
        <time>2022-09-04T11:38:28Z</time>
      </trkpt>
      <trkpt lat="43.06" lon="0.81546">
        <ele>390.6</ele>
        <time>2022-09-04T11:38:29Z</time>
      </trkpt>
      <trkpt lat="43.05999" lon="0.81543">
        <ele>390.8</ele>
        <time>2022-09-04T11:38:30Z</time>
      </trkpt>
      <trkpt lat="43.05996" lon="0.81537">
        <ele>390.8</ele>
        <time>2022-09-04T11:38:32Z</time>
      </trkpt>
      <trkpt lat="43.05988" lon="0.81505">
        <ele>391.6</ele>
        <time>2022-09-04T11:38:41Z</time>
      </trkpt>
      <trkpt lat="43.05984" lon="0.81494">
        <ele>391.8</ele>
        <time>2022-09-04T11:38:44Z</time>
      </trkpt>
      <trkpt lat="43.05978" lon="0.81468">
        <ele>392.6</ele>
        <time>2022-09-04T11:38:51Z</time>
      </trkpt>
      <trkpt lat="43.05976" lon="0.81457">
        <ele>392.8</ele>
        <time>2022-09-04T11:38:54Z</time>
      </trkpt>
      <trkpt lat="43.05969" lon="0.81429">
        <ele>393.8</ele>
        <time>2022-09-04T11:39:02Z</time>
      </trkpt>
      <trkpt lat="43.05968" lon="0.81426">
        <ele>394</ele>
        <time>2022-09-04T11:39:03Z</time>
      </trkpt>
      <trkpt lat="43.05963" lon="0.81399">
        <ele>395</ele>
        <time>2022-09-04T11:39:11Z</time>
      </trkpt>
      <trkpt lat="43.05961" lon="0.81393">
        <ele>395.2</ele>
        <time>2022-09-04T11:39:13Z</time>
      </trkpt>
      <trkpt lat="43.05957" lon="0.81375">
        <ele>396.4</ele>
        <time>2022-09-04T11:39:19Z</time>
      </trkpt>
      <trkpt lat="43.05955" lon="0.81366">
        <ele>396.6</ele>
        <time>2022-09-04T11:39:22Z</time>
      </trkpt>
      <trkpt lat="43.05953" lon="0.81351">
        <ele>397.4</ele>
        <time>2022-09-04T11:39:27Z</time>
      </trkpt>
      <trkpt lat="43.0595" lon="0.8134">
        <ele>398.2</ele>
        <time>2022-09-04T11:39:31Z</time>
      </trkpt>
      <trkpt lat="43.05949" lon="0.81334">
        <ele>398.6</ele>
        <time>2022-09-04T11:39:33Z</time>
      </trkpt>
      <trkpt lat="43.05946" lon="0.8132">
        <ele>399.2</ele>
        <time>2022-09-04T11:39:38Z</time>
      </trkpt>
      <trkpt lat="43.05944" lon="0.81311">
        <ele>399.6</ele>
        <time>2022-09-04T11:39:41Z</time>
      </trkpt>
      <trkpt lat="43.0594" lon="0.81301">
        <ele>400.6</ele>
        <time>2022-09-04T11:39:45Z</time>
      </trkpt>
      <trkpt lat="43.0594" lon="0.81298">
        <ele>400.8</ele>
        <time>2022-09-04T11:39:46Z</time>
      </trkpt>
      <trkpt lat="43.0594" lon="0.81295">
        <ele>401</ele>
        <time>2022-09-04T11:39:47Z</time>
      </trkpt>
      <trkpt lat="43.0594" lon="0.81287">
        <ele>401.2</ele>
        <time>2022-09-04T11:39:50Z</time>
      </trkpt>
      <trkpt lat="43.05939" lon="0.81285">
        <ele>401.4</ele>
        <time>2022-09-04T11:39:51Z</time>
      </trkpt>
      <trkpt lat="43.05936" lon="0.81274">
        <ele>401.8</ele>
        <time>2022-09-04T11:39:55Z</time>
      </trkpt>
      <trkpt lat="43.05936" lon="0.81269">
        <ele>402.2</ele>
        <time>2022-09-04T11:39:57Z</time>
      </trkpt>
      <trkpt lat="43.05932" lon="0.81252">
        <ele>403.2</ele>
        <time>2022-09-04T11:40:03Z</time>
      </trkpt>
      <trkpt lat="43.0593" lon="0.81245">
        <ele>403.6</ele>
        <time>2022-09-04T11:40:06Z</time>
      </trkpt>
      <trkpt lat="43.05928" lon="0.81234">
        <ele>404.4</ele>
        <time>2022-09-04T11:40:10Z</time>
      </trkpt>
      <trkpt lat="43.05925" lon="0.8122">
        <ele>404.8</ele>
        <time>2022-09-04T11:40:15Z</time>
      </trkpt>
      <trkpt lat="43.05922" lon="0.8121">
        <ele>405.4</ele>
        <time>2022-09-04T11:40:19Z</time>
      </trkpt>
      <trkpt lat="43.05921" lon="0.81206">
        <ele>405.6</ele>
        <time>2022-09-04T11:40:21Z</time>
      </trkpt>
      <trkpt lat="43.05921" lon="0.81203">
        <ele>405.8</ele>
        <time>2022-09-04T11:40:22Z</time>
      </trkpt>
      <trkpt lat="43.05916" lon="0.81191">
        <ele>406.6</ele>
        <time>2022-09-04T11:40:27Z</time>
      </trkpt>
      <trkpt lat="43.05916" lon="0.81189">
        <ele>406.6</ele>
        <time>2022-09-04T11:40:28Z</time>
      </trkpt>
      <trkpt lat="43.05914" lon="0.81173">
        <ele>407.6</ele>
        <time>2022-09-04T11:40:34Z</time>
      </trkpt>
      <trkpt lat="43.05914" lon="0.81171">
        <ele>407.6</ele>
        <time>2022-09-04T11:40:35Z</time>
      </trkpt>
      <trkpt lat="43.05911" lon="0.81156">
        <ele>408.6</ele>
        <time>2022-09-04T11:40:41Z</time>
      </trkpt>
      <trkpt lat="43.05911" lon="0.81151">
        <ele>408.8</ele>
        <time>2022-09-04T11:40:43Z</time>
      </trkpt>
      <trkpt lat="43.05908" lon="0.81143">
        <ele>409.6</ele>
        <time>2022-09-04T11:40:47Z</time>
      </trkpt>
      <trkpt lat="43.05909" lon="0.81141">
        <ele>409.8</ele>
        <time>2022-09-04T11:40:48Z</time>
      </trkpt>
      <trkpt lat="43.05908" lon="0.81127">
        <ele>410.4</ele>
        <time>2022-09-04T11:40:54Z</time>
      </trkpt>
      <trkpt lat="43.05908" lon="0.81125">
        <ele>410.6</ele>
        <time>2022-09-04T11:40:55Z</time>
      </trkpt>
      <trkpt lat="43.0591" lon="0.81116">
        <ele>411.2</ele>
        <time>2022-09-04T11:40:59Z</time>
      </trkpt>
      <trkpt lat="43.05909" lon="0.81105">
        <ele>411.6</ele>
        <time>2022-09-04T11:41:04Z</time>
      </trkpt>
      <trkpt lat="43.05909" lon="0.81102">
        <ele>411.8</ele>
        <time>2022-09-04T11:41:05Z</time>
      </trkpt>
      <trkpt lat="43.0591" lon="0.811">
        <ele>412</ele>
        <time>2022-09-04T11:41:06Z</time>
      </trkpt>
      <trkpt lat="43.05913" lon="0.81093">
        <ele>412.2</ele>
        <time>2022-09-04T11:41:09Z</time>
      </trkpt>
      <trkpt lat="43.05913" lon="0.81079">
        <ele>412.8</ele>
        <time>2022-09-04T11:41:14Z</time>
      </trkpt>
      <trkpt lat="43.05913" lon="0.81077">
        <ele>412.8</ele>
        <time>2022-09-04T11:41:15Z</time>
      </trkpt>
      <trkpt lat="43.05917" lon="0.81058">
        <ele>414</ele>
        <time>2022-09-04T11:41:22Z</time>
      </trkpt>
      <trkpt lat="43.05918" lon="0.8104">
        <ele>414.8</ele>
        <time>2022-09-04T11:41:29Z</time>
      </trkpt>
      <trkpt lat="43.05918" lon="0.81032">
        <ele>415</ele>
        <time>2022-09-04T11:41:32Z</time>
      </trkpt>
      <trkpt lat="43.05921" lon="0.81016">
        <ele>415.8</ele>
        <time>2022-09-04T11:41:38Z</time>
      </trkpt>
      <trkpt lat="43.05921" lon="0.81008">
        <ele>416</ele>
        <time>2022-09-04T11:41:41Z</time>
      </trkpt>
      <trkpt lat="43.05924" lon="0.80991">
        <ele>417</ele>
        <time>2022-09-04T11:41:47Z</time>
      </trkpt>
      <trkpt lat="43.05924" lon="0.80989">
        <ele>417</ele>
        <time>2022-09-04T11:41:48Z</time>
      </trkpt>
      <trkpt lat="43.05926" lon="0.80966">
        <ele>417.8</ele>
        <time>2022-09-04T11:41:56Z</time>
      </trkpt>
      <trkpt lat="43.05927" lon="0.80952">
        <ele>418</ele>
        <time>2022-09-04T11:42:01Z</time>
      </trkpt>
      <trkpt lat="43.05929" lon="0.80943">
        <ele>418.4</ele>
        <time>2022-09-04T11:42:04Z</time>
      </trkpt>
      <trkpt lat="43.05933" lon="0.80928">
        <ele>419.2</ele>
        <time>2022-09-04T11:42:09Z</time>
      </trkpt>
      <trkpt lat="43.05935" lon="0.80917">
        <ele>419.6</ele>
        <time>2022-09-04T11:42:13Z</time>
      </trkpt>
      <trkpt lat="43.05938" lon="0.80908">
        <ele>420.2</ele>
        <time>2022-09-04T11:42:17Z</time>
      </trkpt>
      <trkpt lat="43.0594" lon="0.80906">
        <ele>420.4</ele>
        <time>2022-09-04T11:42:18Z</time>
      </trkpt>
      <trkpt lat="43.05945" lon="0.80891">
        <ele>421.2</ele>
        <time>2022-09-04T11:42:24Z</time>
      </trkpt>
      <trkpt lat="43.05951" lon="0.80884">
        <ele>421.8</ele>
        <time>2022-09-04T11:42:28Z</time>
      </trkpt>
      <trkpt lat="43.05955" lon="0.80877">
        <ele>422.6</ele>
        <time>2022-09-04T11:42:31Z</time>
      </trkpt>
      <trkpt lat="43.05958" lon="0.8087">
        <ele>423.2</ele>
        <time>2022-09-04T11:42:34Z</time>
      </trkpt>
      <trkpt lat="43.05963" lon="0.80862">
        <ele>423.8</ele>
        <time>2022-09-04T11:42:38Z</time>
      </trkpt>
      <trkpt lat="43.05967" lon="0.80854">
        <ele>424.4</ele>
        <time>2022-09-04T11:42:42Z</time>
      </trkpt>
      <trkpt lat="43.05971" lon="0.80848">
        <ele>425</ele>
        <time>2022-09-04T11:42:45Z</time>
      </trkpt>
      <trkpt lat="43.05974" lon="0.80838">
        <ele>425.6</ele>
        <time>2022-09-04T11:42:49Z</time>
      </trkpt>
      <trkpt lat="43.05977" lon="0.80831">
        <ele>426</ele>
        <time>2022-09-04T11:42:52Z</time>
      </trkpt>
      <trkpt lat="43.0598" lon="0.80823">
        <ele>426.4</ele>
        <time>2022-09-04T11:42:55Z</time>
      </trkpt>
      <trkpt lat="43.05985" lon="0.80811">
        <ele>427</ele>
        <time>2022-09-04T11:43:00Z</time>
      </trkpt>
      <trkpt lat="43.05988" lon="0.808">
        <ele>427.4</ele>
        <time>2022-09-04T11:43:04Z</time>
      </trkpt>
      <trkpt lat="43.05992" lon="0.80785">
        <ele>428</ele>
        <time>2022-09-04T11:43:10Z</time>
      </trkpt>
      <trkpt lat="43.05993" lon="0.80777">
        <ele>428.4</ele>
        <time>2022-09-04T11:43:13Z</time>
      </trkpt>
      <trkpt lat="43.05991" lon="0.80756">
        <ele>428.8</ele>
        <time>2022-09-04T11:43:20Z</time>
      </trkpt>
      <trkpt lat="43.0599" lon="0.80747">
        <ele>429.2</ele>
        <time>2022-09-04T11:43:23Z</time>
      </trkpt>
      <trkpt lat="43.05987" lon="0.80733">
        <ele>429.4</ele>
        <time>2022-09-04T11:43:28Z</time>
      </trkpt>
      <trkpt lat="43.05977" lon="0.80708">
        <ele>430</ele>
        <time>2022-09-04T11:43:37Z</time>
      </trkpt>
      <trkpt lat="43.05966" lon="0.80681">
        <ele>430.2</ele>
        <time>2022-09-04T11:43:45Z</time>
      </trkpt>
      <trkpt lat="43.05961" lon="0.80667">
        <ele>430.2</ele>
        <time>2022-09-04T11:43:49Z</time>
      </trkpt>
      <trkpt lat="43.05954" lon="0.8065">
        <ele>430.4</ele>
        <time>2022-09-04T11:43:54Z</time>
      </trkpt>
      <trkpt lat="43.0594" lon="0.80619">
        <ele>430.2</ele>
        <time>2022-09-04T11:44:02Z</time>
      </trkpt>
      <trkpt lat="43.05925" lon="0.80583">
        <ele>429.8</ele>
        <time>2022-09-04T11:44:10Z</time>
      </trkpt>
      <trkpt lat="43.05909" lon="0.80542">
        <ele>429.6</ele>
        <time>2022-09-04T11:44:18Z</time>
      </trkpt>
      <trkpt lat="43.05897" lon="0.80514">
        <ele>429</ele>
        <time>2022-09-04T11:44:23Z</time>
      </trkpt>
      <trkpt lat="43.05888" lon="0.80492">
        <ele>429.2</ele>
        <time>2022-09-04T11:44:27Z</time>
      </trkpt>
      <trkpt lat="43.05874" lon="0.80459">
        <ele>429</ele>
        <time>2022-09-04T11:44:34Z</time>
      </trkpt>
      <trkpt lat="43.05861" lon="0.80428">
        <ele>429.6</ele>
        <time>2022-09-04T11:44:40Z</time>
      </trkpt>
      <trkpt lat="43.05854" lon="0.80412">
        <ele>430.2</ele>
        <time>2022-09-04T11:44:43Z</time>
      </trkpt>
      <trkpt lat="43.05846" lon="0.8039">
        <ele>430.6</ele>
        <time>2022-09-04T11:44:47Z</time>
      </trkpt>
      <trkpt lat="43.05839" lon="0.80374">
        <ele>431.2</ele>
        <time>2022-09-04T11:44:50Z</time>
      </trkpt>
      <trkpt lat="43.0583" lon="0.80354">
        <ele>431.4</ele>
        <time>2022-09-04T11:44:54Z</time>
      </trkpt>
      <trkpt lat="43.05818" lon="0.80324">
        <ele>432.2</ele>
        <time>2022-09-04T11:45:01Z</time>
      </trkpt>
      <trkpt lat="43.05803" lon="0.80289">
        <ele>433</ele>
        <time>2022-09-04T11:45:10Z</time>
      </trkpt>
      <trkpt lat="43.05799" lon="0.80277">
        <ele>433.4</ele>
        <time>2022-09-04T11:45:13Z</time>
      </trkpt>
      <trkpt lat="43.05785" lon="0.80245">
        <ele>434</ele>
        <time>2022-09-04T11:45:21Z</time>
      </trkpt>
      <trkpt lat="43.05772" lon="0.80212">
        <ele>434.4</ele>
        <time>2022-09-04T11:45:29Z</time>
      </trkpt>
      <trkpt lat="43.0577" lon="0.80208">
        <ele>434.4</ele>
        <time>2022-09-04T11:45:30Z</time>
      </trkpt>
      <trkpt lat="43.05754" lon="0.80166">
        <ele>434.4</ele>
        <time>2022-09-04T11:45:40Z</time>
      </trkpt>
      <trkpt lat="43.05737" lon="0.80132">
        <ele>434.4</ele>
        <time>2022-09-04T11:45:48Z</time>
      </trkpt>
      <trkpt lat="43.05713" lon="0.8009">
        <ele>433.6</ele>
        <time>2022-09-04T11:45:57Z</time>
      </trkpt>
      <trkpt lat="43.05709" lon="0.80086">
        <ele>433.6</ele>
        <time>2022-09-04T11:45:58Z</time>
      </trkpt>
      <trkpt lat="43.05703" lon="0.80075">
        <ele>433.2</ele>
        <time>2022-09-04T11:46:00Z</time>
      </trkpt>
      <trkpt lat="43.05695" lon="0.80061">
        <ele>432.8</ele>
        <time>2022-09-04T11:46:03Z</time>
      </trkpt>
      <trkpt lat="43.05692" lon="0.80057">
        <ele>432.6</ele>
        <time>2022-09-04T11:46:04Z</time>
      </trkpt>
      <trkpt lat="43.05683" lon="0.80041">
        <ele>431.8</ele>
        <time>2022-09-04T11:46:07Z</time>
      </trkpt>
      <trkpt lat="43.0568" lon="0.80034">
        <ele>431.6</ele>
        <time>2022-09-04T11:46:08Z</time>
      </trkpt>
      <trkpt lat="43.05661" lon="0.79996">
        <ele>430.8</ele>
        <time>2022-09-04T11:46:13Z</time>
      </trkpt>
      <trkpt lat="43.05657" lon="0.79987">
        <ele>430.4</ele>
        <time>2022-09-04T11:46:14Z</time>
      </trkpt>
      <trkpt lat="43.05639" lon="0.79949">
        <ele>429.4</ele>
        <time>2022-09-04T11:46:18Z</time>
      </trkpt>
      <trkpt lat="43.05633" lon="0.7994">
        <ele>429.2</ele>
        <time>2022-09-04T11:46:19Z</time>
      </trkpt>
      <trkpt lat="43.05598" lon="0.79886">
        <ele>428.2</ele>
        <time>2022-09-04T11:46:25Z</time>
      </trkpt>
      <trkpt lat="43.05586" lon="0.79869">
        <ele>427.2</ele>
        <time>2022-09-04T11:46:27Z</time>
      </trkpt>
      <trkpt lat="43.05548" lon="0.79814">
        <ele>427.2</ele>
        <time>2022-09-04T11:46:34Z</time>
      </trkpt>
      <trkpt lat="43.05518" lon="0.79769">
        <ele>427.6</ele>
        <time>2022-09-04T11:46:41Z</time>
      </trkpt>
      <trkpt lat="43.05491" lon="0.79725">
        <ele>427.8</ele>
        <time>2022-09-04T11:46:49Z</time>
      </trkpt>
      <trkpt lat="43.0546" lon="0.79675">
        <ele>427</ele>
        <time>2022-09-04T11:46:58Z</time>
      </trkpt>
      <trkpt lat="43.05425" lon="0.79618">
        <ele>427.2</ele>
        <time>2022-09-04T11:47:07Z</time>
      </trkpt>
      <trkpt lat="43.05418" lon="0.79606">
        <ele>427.2</ele>
        <time>2022-09-04T11:47:09Z</time>
      </trkpt>
      <trkpt lat="43.05381" lon="0.79547">
        <ele>427.4</ele>
        <time>2022-09-04T11:47:19Z</time>
      </trkpt>
      <trkpt lat="43.0534" lon="0.79493">
        <ele>427.8</ele>
        <time>2022-09-04T11:47:29Z</time>
      </trkpt>
      <trkpt lat="43.05328" lon="0.79477">
        <ele>428.2</ele>
        <time>2022-09-04T11:47:32Z</time>
      </trkpt>
      <trkpt lat="43.05298" lon="0.79438">
        <ele>428.4</ele>
        <time>2022-09-04T11:47:40Z</time>
      </trkpt>
      <trkpt lat="43.05263" lon="0.79392">
        <ele>428.4</ele>
        <time>2022-09-04T11:47:49Z</time>
      </trkpt>
      <trkpt lat="43.05229" lon="0.79333">
        <ele>427.4</ele>
        <time>2022-09-04T11:47:59Z</time>
      </trkpt>
      <trkpt lat="43.0522" lon="0.79312">
        <ele>427</ele>
        <time>2022-09-04T11:48:02Z</time>
      </trkpt>
      <trkpt lat="43.05206" lon="0.79281">
        <ele>427.2</ele>
        <time>2022-09-04T11:48:06Z</time>
      </trkpt>
      <trkpt lat="43.05176" lon="0.79214">
        <ele>426.8</ele>
        <time>2022-09-04T11:48:15Z</time>
      </trkpt>
      <trkpt lat="43.05155" lon="0.79165">
        <ele>427.4</ele>
        <time>2022-09-04T11:48:22Z</time>
      </trkpt>
      <trkpt lat="43.05134" lon="0.79112">
        <ele>428</ele>
        <time>2022-09-04T11:48:30Z</time>
      </trkpt>
      <trkpt lat="43.05131" lon="0.79106">
        <ele>428.2</ele>
        <time>2022-09-04T11:48:31Z</time>
      </trkpt>
      <trkpt lat="43.05114" lon="0.79065">
        <ele>429</ele>
        <time>2022-09-04T11:48:38Z</time>
      </trkpt>
      <trkpt lat="43.05108" lon="0.79048">
        <ele>429.2</ele>
        <time>2022-09-04T11:48:41Z</time>
      </trkpt>
      <trkpt lat="43.05088" lon="0.79001">
        <ele>429.6</ele>
        <time>2022-09-04T11:48:50Z</time>
      </trkpt>
      <trkpt lat="43.05072" lon="0.78955">
        <ele>429.8</ele>
        <time>2022-09-04T11:48:59Z</time>
      </trkpt>
      <trkpt lat="43.05056" lon="0.78911">
        <ele>429.4</ele>
        <time>2022-09-04T11:49:07Z</time>
      </trkpt>
      <trkpt lat="43.05044" lon="0.78874">
        <ele>429.6</ele>
        <time>2022-09-04T11:49:14Z</time>
      </trkpt>
      <trkpt lat="43.0503" lon="0.78835">
        <ele>430.4</ele>
        <time>2022-09-04T11:49:21Z</time>
      </trkpt>
      <trkpt lat="43.05024" lon="0.78819">
        <ele>430.6</ele>
        <time>2022-09-04T11:49:24Z</time>
      </trkpt>
      <trkpt lat="43.05009" lon="0.78768">
        <ele>430.8</ele>
        <time>2022-09-04T11:49:33Z</time>
      </trkpt>
      <trkpt lat="43.05006" lon="0.78756">
        <ele>430.6</ele>
        <time>2022-09-04T11:49:35Z</time>
      </trkpt>
      <trkpt lat="43.05001" lon="0.78726">
        <ele>430.6</ele>
        <time>2022-09-04T11:49:40Z</time>
      </trkpt>
      <trkpt lat="43.0499" lon="0.78663">
        <ele>430.2</ele>
        <time>2022-09-04T11:49:50Z</time>
      </trkpt>
      <trkpt lat="43.04979" lon="0.78602">
        <ele>429.4</ele>
        <time>2022-09-04T11:49:59Z</time>
      </trkpt>
      <trkpt lat="43.04975" lon="0.78551">
        <ele>429.2</ele>
        <time>2022-09-04T11:50:06Z</time>
      </trkpt>
      <trkpt lat="43.04974" lon="0.78544">
        <ele>429</ele>
        <time>2022-09-04T11:50:07Z</time>
      </trkpt>
      <trkpt lat="43.04969" lon="0.78491">
        <ele>428.2</ele>
        <time>2022-09-04T11:50:14Z</time>
      </trkpt>
      <trkpt lat="43.04967" lon="0.78475">
        <ele>427.8</ele>
        <time>2022-09-04T11:50:16Z</time>
      </trkpt>
      <trkpt lat="43.04961" lon="0.78409">
        <ele>427.2</ele>
        <time>2022-09-04T11:50:24Z</time>
      </trkpt>
      <trkpt lat="43.0496" lon="0.784">
        <ele>427</ele>
        <time>2022-09-04T11:50:25Z</time>
      </trkpt>
      <trkpt lat="43.04959" lon="0.78348">
        <ele>426.4</ele>
        <time>2022-09-04T11:50:31Z</time>
      </trkpt>
      <trkpt lat="43.04962" lon="0.7834">
        <ele>426.6</ele>
        <time>2022-09-04T11:50:32Z</time>
      </trkpt>
      <trkpt lat="43.04976" lon="0.78325">
        <ele>426</ele>
        <time>2022-09-04T11:50:35Z</time>
      </trkpt>
      <trkpt lat="43.04979" lon="0.78323">
        <ele>425.6</ele>
        <time>2022-09-04T11:50:36Z</time>
      </trkpt>
      <trkpt lat="43.04987" lon="0.78319">
        <ele>425.2</ele>
        <time>2022-09-04T11:50:39Z</time>
      </trkpt>
      <trkpt lat="43.0501" lon="0.78306">
        <ele>424.8</ele>
        <time>2022-09-04T11:50:47Z</time>
      </trkpt>
      <trkpt lat="43.05028" lon="0.78289">
        <ele>424.2</ele>
        <time>2022-09-04T11:50:52Z</time>
      </trkpt>
      <trkpt lat="43.05033" lon="0.7827">
        <ele>423.6</ele>
        <time>2022-09-04T11:50:55Z</time>
      </trkpt>
      <trkpt lat="43.05031" lon="0.78257">
        <ele>422.4</ele>
        <time>2022-09-04T11:50:58Z</time>
      </trkpt>
      <trkpt lat="43.05022" lon="0.78244">
        <ele>421.8</ele>
        <time>2022-09-04T11:51:01Z</time>
      </trkpt>
      <trkpt lat="43.05018" lon="0.78239">
        <ele>421.6</ele>
        <time>2022-09-04T11:51:02Z</time>
      </trkpt>
      <trkpt lat="43.0501" lon="0.78225">
        <ele>421</ele>
        <time>2022-09-04T11:51:04Z</time>
      </trkpt>
      <trkpt lat="43.04997" lon="0.78202">
        <ele>420</ele>
        <time>2022-09-04T11:51:07Z</time>
      </trkpt>
      <trkpt lat="43.04991" lon="0.78195">
        <ele>419.8</ele>
        <time>2022-09-04T11:51:08Z</time>
      </trkpt>
      <trkpt lat="43.04969" lon="0.78174">
        <ele>418</ele>
        <time>2022-09-04T11:51:11Z</time>
      </trkpt>
      <trkpt lat="43.04952" lon="0.78158">
        <ele>416.2</ele>
        <time>2022-09-04T11:51:13Z</time>
      </trkpt>
      <trkpt lat="43.04934" lon="0.78142">
        <ele>415</ele>
        <time>2022-09-04T11:51:15Z</time>
      </trkpt>
      <trkpt lat="43.04925" lon="0.78134">
        <ele>414.6</ele>
        <time>2022-09-04T11:51:16Z</time>
      </trkpt>
      <trkpt lat="43.04916" lon="0.78126">
        <ele>414</ele>
        <time>2022-09-04T11:51:17Z</time>
      </trkpt>
      <trkpt lat="43.04907" lon="0.78119">
        <ele>412.8</ele>
        <time>2022-09-04T11:51:18Z</time>
      </trkpt>
      <trkpt lat="43.04897" lon="0.78113">
        <ele>412</ele>
        <time>2022-09-04T11:51:19Z</time>
      </trkpt>
      <trkpt lat="43.04887" lon="0.78108">
        <ele>410.2</ele>
        <time>2022-09-04T11:51:20Z</time>
      </trkpt>
      <trkpt lat="43.04877" lon="0.78104">
        <ele>408.8</ele>
        <time>2022-09-04T11:51:21Z</time>
      </trkpt>
      <trkpt lat="43.04867" lon="0.781">
        <ele>407.6</ele>
        <time>2022-09-04T11:51:22Z</time>
      </trkpt>
      <trkpt lat="43.04849" lon="0.78096">
        <ele>405.8</ele>
        <time>2022-09-04T11:51:24Z</time>
      </trkpt>
      <trkpt lat="43.04842" lon="0.78095">
        <ele>404.6</ele>
        <time>2022-09-04T11:51:25Z</time>
      </trkpt>
      <trkpt lat="43.04836" lon="0.78093">
        <ele>403.4</ele>
        <time>2022-09-04T11:51:26Z</time>
      </trkpt>
      <trkpt lat="43.0483" lon="0.78092">
        <ele>402.2</ele>
        <time>2022-09-04T11:51:27Z</time>
      </trkpt>
      <trkpt lat="43.0482" lon="0.7809">
        <ele>401</ele>
        <time>2022-09-04T11:51:29Z</time>
      </trkpt>
      <trkpt lat="43.04816" lon="0.78088">
        <ele>400.4</ele>
        <time>2022-09-04T11:51:30Z</time>
      </trkpt>
      <trkpt lat="43.04806" lon="0.78081">
        <ele>399.6</ele>
        <time>2022-09-04T11:51:32Z</time>
      </trkpt>
      <trkpt lat="43.04799" lon="0.78072">
        <ele>398.6</ele>
        <time>2022-09-04T11:51:34Z</time>
      </trkpt>
      <trkpt lat="43.04793" lon="0.78064">
        <ele>397.8</ele>
        <time>2022-09-04T11:51:36Z</time>
      </trkpt>
      <trkpt lat="43.04787" lon="0.78058">
        <ele>397.4</ele>
        <time>2022-09-04T11:51:38Z</time>
      </trkpt>
      <trkpt lat="43.04781" lon="0.78056">
        <ele>397</ele>
        <time>2022-09-04T11:51:40Z</time>
      </trkpt>
      <trkpt lat="43.04768" lon="0.78047">
        <ele>397.2</ele>
        <time>2022-09-04T11:51:45Z</time>
      </trkpt>
      <trkpt lat="43.04764" lon="0.7803">
        <ele>396.8</ele>
        <time>2022-09-04T11:51:51Z</time>
      </trkpt>
      <trkpt lat="43.04761" lon="0.78012">
        <ele>396.6</ele>
        <time>2022-09-04T11:51:56Z</time>
      </trkpt>
      <trkpt lat="43.0476" lon="0.78009">
        <ele>396.4</ele>
        <time>2022-09-04T11:51:57Z</time>
      </trkpt>
      <trkpt lat="43.0476" lon="0.78006">
        <ele>396.2</ele>
        <time>2022-09-04T11:51:58Z</time>
      </trkpt>
      <trkpt lat="43.0476" lon="0.78001">
        <ele>396</ele>
        <time>2022-09-04T11:52:00Z</time>
      </trkpt>
      <trkpt lat="43.04759" lon="0.78004">
        <ele>396</ele>
        <time>2022-09-04T11:52:03Z</time>
      </trkpt>
      <trkpt lat="43.04765" lon="0.78014">
        <ele>396.2</ele>
        <time>2022-09-04T11:52:08Z</time>
      </trkpt>
      <trkpt lat="43.04767" lon="0.78013">
        <ele>396.2</ele>
        <time>2022-09-04T11:52:09Z</time>
      </trkpt>
      <trkpt lat="43.04768" lon="0.78012">
        <ele>396</ele>
        <time>2022-09-04T11:52:10Z</time>
      </trkpt>
      <trkpt lat="43.04773" lon="0.78011">
        <ele>395.4</ele>
        <time>2022-09-04T11:52:13Z</time>
      </trkpt>
      <trkpt lat="43.04772" lon="0.78011">
        <ele>395.2</ele>
        <time>2022-09-04T11:52:14Z</time>
      </trkpt>
      <trkpt lat="43.0477" lon="0.78013">
        <ele>395.4</ele>
        <time>2022-09-04T11:52:44Z</time>
      </trkpt>
      <trkpt lat="43.04769" lon="0.78013">
        <ele>395.6</ele>
        <time>2022-09-04T11:52:45Z</time>
      </trkpt>
      <trkpt lat="43.04764" lon="0.7802">
        <ele>396.2</ele>
        <time>2022-09-04T11:52:52Z</time>
      </trkpt>
      <trkpt lat="43.04765" lon="0.78021">
        <ele>396.4</ele>
        <time>2022-09-04T11:52:53Z</time>
      </trkpt>
      <trkpt lat="43.04764" lon="0.78021">
        <ele>396.6</ele>
        <time>2022-09-04T11:54:04Z</time>
      </trkpt>
      <trkpt lat="43.04762" lon="0.78009">
        <ele>396.2</ele>
        <time>2022-09-04T11:54:08Z</time>
      </trkpt>
      <trkpt lat="43.0476" lon="0.78001">
        <ele>396</ele>
        <time>2022-09-04T11:54:10Z</time>
      </trkpt>
      <trkpt lat="43.04755" lon="0.77966">
        <ele>395.8</ele>
        <time>2022-09-04T11:54:19Z</time>
      </trkpt>
      <trkpt lat="43.04752" lon="0.77933">
        <ele>395.6</ele>
        <time>2022-09-04T11:54:27Z</time>
      </trkpt>
      <trkpt lat="43.0475" lon="0.77903">
        <ele>395.4</ele>
        <time>2022-09-04T11:54:34Z</time>
      </trkpt>
      <trkpt lat="43.04752" lon="0.77864">
        <ele>395.4</ele>
        <time>2022-09-04T11:54:43Z</time>
      </trkpt>
      <trkpt lat="43.04753" lon="0.77837">
        <ele>395.6</ele>
        <time>2022-09-04T11:54:50Z</time>
      </trkpt>
      <trkpt lat="43.04751" lon="0.77808">
        <ele>395.6</ele>
        <time>2022-09-04T11:54:57Z</time>
      </trkpt>
      <trkpt lat="43.04749" lon="0.77776">
        <ele>396</ele>
        <time>2022-09-04T11:55:05Z</time>
      </trkpt>
      <trkpt lat="43.04747" lon="0.7775">
        <ele>397</ele>
        <time>2022-09-04T11:55:12Z</time>
      </trkpt>
      <trkpt lat="43.04746" lon="0.77735">
        <ele>397.2</ele>
        <time>2022-09-04T11:55:16Z</time>
      </trkpt>
      <trkpt lat="43.04744" lon="0.77721">
        <ele>397.6</ele>
        <time>2022-09-04T11:55:20Z</time>
      </trkpt>
      <trkpt lat="43.04745" lon="0.777">
        <ele>398.4</ele>
        <time>2022-09-04T11:55:26Z</time>
      </trkpt>
      <trkpt lat="43.04754" lon="0.77677">
        <ele>398.8</ele>
        <time>2022-09-04T11:55:33Z</time>
      </trkpt>
      <trkpt lat="43.0475" lon="0.77661">
        <ele>398.8</ele>
        <time>2022-09-04T11:55:37Z</time>
      </trkpt>
      <trkpt lat="43.04736" lon="0.77647">
        <ele>399.2</ele>
        <time>2022-09-04T11:55:43Z</time>
      </trkpt>
      <trkpt lat="43.04729" lon="0.77626">
        <ele>399.4</ele>
        <time>2022-09-04T11:55:48Z</time>
      </trkpt>
      <trkpt lat="43.04724" lon="0.77581">
        <ele>399.2</ele>
        <time>2022-09-04T11:55:57Z</time>
      </trkpt>
      <trkpt lat="43.04717" lon="0.77529">
        <ele>398.8</ele>
        <time>2022-09-04T11:56:08Z</time>
      </trkpt>
      <trkpt lat="43.04715" lon="0.77488">
        <ele>399</ele>
        <time>2022-09-04T11:56:16Z</time>
      </trkpt>
      <trkpt lat="43.04721" lon="0.77447">
        <ele>398.8</ele>
        <time>2022-09-04T11:56:23Z</time>
      </trkpt>
      <trkpt lat="43.04735" lon="0.77385">
        <ele>398.8</ele>
        <time>2022-09-04T11:56:33Z</time>
      </trkpt>
      <trkpt lat="43.04743" lon="0.77342">
        <ele>398.6</ele>
        <time>2022-09-04T11:56:40Z</time>
      </trkpt>
      <trkpt lat="43.04749" lon="0.7727">
        <ele>398.2</ele>
        <time>2022-09-04T11:56:51Z</time>
      </trkpt>
      <trkpt lat="43.04753" lon="0.77217">
        <ele>398.4</ele>
        <time>2022-09-04T11:56:59Z</time>
      </trkpt>
      <trkpt lat="43.04758" lon="0.77171">
        <ele>398.4</ele>
        <time>2022-09-04T11:57:06Z</time>
      </trkpt>
      <trkpt lat="43.04763" lon="0.77104">
        <ele>398.2</ele>
        <time>2022-09-04T11:57:16Z</time>
      </trkpt>
      <trkpt lat="43.04768" lon="0.77051">
        <ele>398.2</ele>
        <time>2022-09-04T11:57:24Z</time>
      </trkpt>
      <trkpt lat="43.04773" lon="0.76989">
        <ele>398.2</ele>
        <time>2022-09-04T11:57:33Z</time>
      </trkpt>
      <trkpt lat="43.04777" lon="0.76924">
        <ele>398.4</ele>
        <time>2022-09-04T11:57:43Z</time>
      </trkpt>
      <trkpt lat="43.0478" lon="0.76872">
        <ele>399</ele>
        <time>2022-09-04T11:57:51Z</time>
      </trkpt>
      <trkpt lat="43.04783" lon="0.76815">
        <ele>399.4</ele>
        <time>2022-09-04T11:58:00Z</time>
      </trkpt>
      <trkpt lat="43.04783" lon="0.76809">
        <ele>399.4</ele>
        <time>2022-09-04T11:58:01Z</time>
      </trkpt>
      <trkpt lat="43.0479" lon="0.76758">
        <ele>400.2</ele>
        <time>2022-09-04T11:58:10Z</time>
      </trkpt>
      <trkpt lat="43.04796" lon="0.76736">
        <ele>400.6</ele>
        <time>2022-09-04T11:58:14Z</time>
      </trkpt>
      <trkpt lat="43.04802" lon="0.76721">
        <ele>401</ele>
        <time>2022-09-04T11:58:17Z</time>
      </trkpt>
      <trkpt lat="43.04821" lon="0.76676">
        <ele>401.4</ele>
        <time>2022-09-04T11:58:26Z</time>
      </trkpt>
      <trkpt lat="43.04825" lon="0.76665">
        <ele>401.6</ele>
        <time>2022-09-04T11:58:28Z</time>
      </trkpt>
      <trkpt lat="43.0484" lon="0.76629">
        <ele>401.6</ele>
        <time>2022-09-04T11:58:35Z</time>
      </trkpt>
      <trkpt lat="43.04861" lon="0.76578">
        <ele>402.2</ele>
        <time>2022-09-04T11:58:45Z</time>
      </trkpt>
      <trkpt lat="43.04869" lon="0.76558">
        <ele>402.6</ele>
        <time>2022-09-04T11:58:49Z</time>
      </trkpt>
      <trkpt lat="43.0488" lon="0.76534">
        <ele>403.4</ele>
        <time>2022-09-04T11:58:54Z</time>
      </trkpt>
      <trkpt lat="43.04882" lon="0.76529">
        <ele>403.6</ele>
        <time>2022-09-04T11:58:55Z</time>
      </trkpt>
      <trkpt lat="43.04891" lon="0.76506">
        <ele>404.6</ele>
        <time>2022-09-04T11:59:00Z</time>
      </trkpt>
      <trkpt lat="43.04895" lon="0.76497">
        <ele>405</ele>
        <time>2022-09-04T11:59:02Z</time>
      </trkpt>
      <trkpt lat="43.049" lon="0.76485">
        <ele>405.8</ele>
        <time>2022-09-04T11:59:05Z</time>
      </trkpt>
      <trkpt lat="43.04905" lon="0.76474">
        <ele>406.6</ele>
        <time>2022-09-04T11:59:08Z</time>
      </trkpt>
      <trkpt lat="43.04906" lon="0.76471">
        <ele>406.8</ele>
        <time>2022-09-04T11:59:09Z</time>
      </trkpt>
      <trkpt lat="43.04912" lon="0.76455">
        <ele>408</ele>
        <time>2022-09-04T11:59:14Z</time>
      </trkpt>
      <trkpt lat="43.04915" lon="0.7645">
        <ele>408.4</ele>
        <time>2022-09-04T11:59:16Z</time>
      </trkpt>
      <trkpt lat="43.04916" lon="0.76448">
        <ele>408.6</ele>
        <time>2022-09-04T11:59:17Z</time>
      </trkpt>
      <trkpt lat="43.04919" lon="0.76443">
        <ele>409</ele>
        <time>2022-09-04T11:59:19Z</time>
      </trkpt>
      <trkpt lat="43.04923" lon="0.76435">
        <ele>409.4</ele>
        <time>2022-09-04T11:59:22Z</time>
      </trkpt>
      <trkpt lat="43.04929" lon="0.76424">
        <ele>410</ele>
        <time>2022-09-04T11:59:26Z</time>
      </trkpt>
      <trkpt lat="43.04932" lon="0.76415">
        <ele>410.4</ele>
        <time>2022-09-04T11:59:29Z</time>
      </trkpt>
      <trkpt lat="43.04934" lon="0.76413">
        <ele>410.4</ele>
        <time>2022-09-04T11:59:30Z</time>
      </trkpt>
      <trkpt lat="43.04938" lon="0.76404">
        <ele>410.6</ele>
        <time>2022-09-04T11:59:33Z</time>
      </trkpt>
      <trkpt lat="43.04945" lon="0.76386">
        <ele>411</ele>
        <time>2022-09-04T11:59:39Z</time>
      </trkpt>
      <trkpt lat="43.04948" lon="0.76381">
        <ele>411.2</ele>
        <time>2022-09-04T11:59:41Z</time>
      </trkpt>
      <trkpt lat="43.04958" lon="0.76358">
        <ele>411.6</ele>
        <time>2022-09-04T11:59:48Z</time>
      </trkpt>
      <trkpt lat="43.04968" lon="0.76332">
        <ele>411.8</ele>
        <time>2022-09-04T11:59:55Z</time>
      </trkpt>
      <trkpt lat="43.0498" lon="0.76299">
        <ele>411.6</ele>
        <time>2022-09-04T12:00:01Z</time>
      </trkpt>
      <trkpt lat="43.04984" lon="0.76286">
        <ele>411.6</ele>
        <time>2022-09-04T12:00:03Z</time>
      </trkpt>
      <trkpt lat="43.04989" lon="0.76258">
        <ele>411.4</ele>
        <time>2022-09-04T12:00:07Z</time>
      </trkpt>
      <trkpt lat="43.04996" lon="0.76189">
        <ele>411.4</ele>
        <time>2022-09-04T12:00:16Z</time>
      </trkpt>
      <trkpt lat="43.05001" lon="0.76136">
        <ele>411.6</ele>
        <time>2022-09-04T12:00:23Z</time>
      </trkpt>
      <trkpt lat="43.05006" lon="0.76073">
        <ele>410.8</ele>
        <time>2022-09-04T12:00:31Z</time>
      </trkpt>
      <trkpt lat="43.05013" lon="0.76008">
        <ele>410</ele>
        <time>2022-09-04T12:00:39Z</time>
      </trkpt>
      <trkpt lat="43.05014" lon="0.76001">
        <ele>410</ele>
        <time>2022-09-04T12:00:40Z</time>
      </trkpt>
      <trkpt lat="43.05015" lon="0.75984">
        <ele>409.8</ele>
        <time>2022-09-04T12:00:42Z</time>
      </trkpt>
      <trkpt lat="43.05017" lon="0.7596">
        <ele>409</ele>
        <time>2022-09-04T12:00:45Z</time>
      </trkpt>
      <trkpt lat="43.05018" lon="0.75951">
        <ele>409</ele>
        <time>2022-09-04T12:00:46Z</time>
      </trkpt>
      <trkpt lat="43.05022" lon="0.75906">
        <ele>407.8</ele>
        <time>2022-09-04T12:00:51Z</time>
      </trkpt>
      <trkpt lat="43.05022" lon="0.75896">
        <ele>407.8</ele>
        <time>2022-09-04T12:00:52Z</time>
      </trkpt>
      <trkpt lat="43.05025" lon="0.75867">
        <ele>407</ele>
        <time>2022-09-04T12:00:55Z</time>
      </trkpt>
      <trkpt lat="43.05026" lon="0.75857">
        <ele>406.6</ele>
        <time>2022-09-04T12:00:56Z</time>
      </trkpt>
      <trkpt lat="43.05027" lon="0.75834">
        <ele>405.8</ele>
        <time>2022-09-04T12:00:58Z</time>
      </trkpt>
      <trkpt lat="43.05026" lon="0.75811">
        <ele>405.4</ele>
        <time>2022-09-04T12:01:00Z</time>
      </trkpt>
      <trkpt lat="43.05026" lon="0.75774">
        <ele>405.2</ele>
        <time>2022-09-04T12:01:03Z</time>
      </trkpt>
      <trkpt lat="43.05028" lon="0.75749">
        <ele>404.2</ele>
        <time>2022-09-04T12:01:05Z</time>
      </trkpt>
      <trkpt lat="43.05034" lon="0.75711">
        <ele>403.8</ele>
        <time>2022-09-04T12:01:08Z</time>
      </trkpt>
      <trkpt lat="43.05037" lon="0.75698">
        <ele>403</ele>
        <time>2022-09-04T12:01:09Z</time>
      </trkpt>
      <trkpt lat="43.05042" lon="0.75672">
        <ele>401.8</ele>
        <time>2022-09-04T12:01:11Z</time>
      </trkpt>
      <trkpt lat="43.0505" lon="0.75636">
        <ele>400.6</ele>
        <time>2022-09-04T12:01:14Z</time>
      </trkpt>
      <trkpt lat="43.05052" lon="0.75624">
        <ele>400</ele>
        <time>2022-09-04T12:01:15Z</time>
      </trkpt>
      <trkpt lat="43.05061" lon="0.75569">
        <ele>399.4</ele>
        <time>2022-09-04T12:01:20Z</time>
      </trkpt>
      <trkpt lat="43.05064" lon="0.75516">
        <ele>399.8</ele>
        <time>2022-09-04T12:01:26Z</time>
      </trkpt>
      <trkpt lat="43.05065" lon="0.75493">
        <ele>400.4</ele>
        <time>2022-09-04T12:01:29Z</time>
      </trkpt>
      <trkpt lat="43.05065" lon="0.75463">
        <ele>400.8</ele>
        <time>2022-09-04T12:01:33Z</time>
      </trkpt>
      <trkpt lat="43.05065" lon="0.75442">
        <ele>400.8</ele>
        <time>2022-09-04T12:01:36Z</time>
      </trkpt>
      <trkpt lat="43.05064" lon="0.75417">
        <ele>400.4</ele>
        <time>2022-09-04T12:01:39Z</time>
      </trkpt>
      <trkpt lat="43.05066" lon="0.75359">
        <ele>399.4</ele>
        <time>2022-09-04T12:01:45Z</time>
      </trkpt>
      <trkpt lat="43.05074" lon="0.75282">
        <ele>398.2</ele>
        <time>2022-09-04T12:01:53Z</time>
      </trkpt>
      <trkpt lat="43.05082" lon="0.75206">
        <ele>397</ele>
        <time>2022-09-04T12:02:01Z</time>
      </trkpt>
      <trkpt lat="43.05082" lon="0.75197">
        <ele>396.8</ele>
        <time>2022-09-04T12:02:02Z</time>
      </trkpt>
      <trkpt lat="43.05084" lon="0.75122">
        <ele>396.2</ele>
        <time>2022-09-04T12:02:10Z</time>
      </trkpt>
      <trkpt lat="43.05086" lon="0.75068">
        <ele>396</ele>
        <time>2022-09-04T12:02:16Z</time>
      </trkpt>
      <trkpt lat="43.05087" lon="0.75042">
        <ele>396</ele>
        <time>2022-09-04T12:02:19Z</time>
      </trkpt>
      <trkpt lat="43.05089" lon="0.74966">
        <ele>396.2</ele>
        <time>2022-09-04T12:02:28Z</time>
      </trkpt>
      <trkpt lat="43.05089" lon="0.74957">
        <ele>396</ele>
        <time>2022-09-04T12:02:29Z</time>
      </trkpt>
      <trkpt lat="43.0509" lon="0.74882">
        <ele>395.4</ele>
        <time>2022-09-04T12:02:38Z</time>
      </trkpt>
      <trkpt lat="43.05091" lon="0.74849">
        <ele>395.2</ele>
        <time>2022-09-04T12:02:42Z</time>
      </trkpt>
      <trkpt lat="43.05091" lon="0.74842">
        <ele>395</ele>
        <time>2022-09-04T12:02:43Z</time>
      </trkpt>
      <trkpt lat="43.0509" lon="0.74826">
        <ele>394.8</ele>
        <time>2022-09-04T12:02:45Z</time>
      </trkpt>
      <trkpt lat="43.05084" lon="0.74761">
        <ele>394.8</ele>
        <time>2022-09-04T12:02:53Z</time>
      </trkpt>
      <trkpt lat="43.05075" lon="0.74706">
        <ele>393.8</ele>
        <time>2022-09-04T12:03:00Z</time>
      </trkpt>
      <trkpt lat="43.05072" lon="0.7469">
        <ele>394</ele>
        <time>2022-09-04T12:03:02Z</time>
      </trkpt>
      <trkpt lat="43.05059" lon="0.74634">
        <ele>393.4</ele>
        <time>2022-09-04T12:03:10Z</time>
      </trkpt>
      <trkpt lat="43.05052" lon="0.74604">
        <ele>392.8</ele>
        <time>2022-09-04T12:03:14Z</time>
      </trkpt>
      <trkpt lat="43.05049" lon="0.74597">
        <ele>392.8</ele>
        <time>2022-09-04T12:03:15Z</time>
      </trkpt>
      <trkpt lat="43.05047" lon="0.74589">
        <ele>392.6</ele>
        <time>2022-09-04T12:03:16Z</time>
      </trkpt>
      <trkpt lat="43.05025" lon="0.74517">
        <ele>391.8</ele>
        <time>2022-09-04T12:03:25Z</time>
      </trkpt>
      <trkpt lat="43.05023" lon="0.74509">
        <ele>391.4</ele>
        <time>2022-09-04T12:03:26Z</time>
      </trkpt>
      <trkpt lat="43.05014" lon="0.74479">
        <ele>390.2</ele>
        <time>2022-09-04T12:03:30Z</time>
      </trkpt>
      <trkpt lat="43.05012" lon="0.74475">
        <ele>390</ele>
        <time>2022-09-04T12:03:31Z</time>
      </trkpt>
      <trkpt lat="43.05005" lon="0.74457">
        <ele>389.8</ele>
        <time>2022-09-04T12:03:36Z</time>
      </trkpt>
      <trkpt lat="43.04989" lon="0.74429">
        <ele>389.8</ele>
        <time>2022-09-04T12:03:43Z</time>
      </trkpt>
      <trkpt lat="43.04976" lon="0.7441">
        <ele>389.6</ele>
        <time>2022-09-04T12:03:49Z</time>
      </trkpt>
      <trkpt lat="43.04964" lon="0.74398">
        <ele>389.6</ele>
        <time>2022-09-04T12:03:56Z</time>
      </trkpt>
      <trkpt lat="43.0495" lon="0.74379">
        <ele>389.6</ele>
        <time>2022-09-04T12:04:05Z</time>
      </trkpt>
      <trkpt lat="43.04937" lon="0.74366">
        <ele>389.6</ele>
        <time>2022-09-04T12:04:12Z</time>
      </trkpt>
      <trkpt lat="43.04932" lon="0.74364">
        <ele>389.2</ele>
        <time>2022-09-04T12:04:16Z</time>
      </trkpt>
      <trkpt lat="43.04933" lon="0.74364">
        <ele>389.2</ele>
        <time>2022-09-04T12:04:17Z</time>
      </trkpt>
      <trkpt lat="43.04929" lon="0.74357">
        <ele>389.4</ele>
        <time>2022-09-04T12:06:08Z</time>
      </trkpt>
      <trkpt lat="43.04926" lon="0.74352">
        <ele>389.6</ele>
        <time>2022-09-04T12:06:10Z</time>
      </trkpt>
      <trkpt lat="43.04913" lon="0.74341">
        <ele>389</ele>
        <time>2022-09-04T12:06:15Z</time>
      </trkpt>
      <trkpt lat="43.049" lon="0.74325">
        <ele>388.6</ele>
        <time>2022-09-04T12:06:20Z</time>
      </trkpt>
      <trkpt lat="43.04905" lon="0.74312">
        <ele>388.4</ele>
        <time>2022-09-04T12:06:23Z</time>
      </trkpt>
      <trkpt lat="43.04908" lon="0.74307">
        <ele>388.2</ele>
        <time>2022-09-04T12:06:24Z</time>
      </trkpt>
      <trkpt lat="43.04912" lon="0.74296">
        <ele>388.2</ele>
        <time>2022-09-04T12:06:26Z</time>
      </trkpt>
      <trkpt lat="43.0492" lon="0.74278">
        <ele>387.8</ele>
        <time>2022-09-04T12:06:29Z</time>
      </trkpt>
      <trkpt lat="43.04932" lon="0.74253">
        <ele>387</ele>
        <time>2022-09-04T12:06:33Z</time>
      </trkpt>
      <trkpt lat="43.0494" lon="0.74235">
        <ele>386.4</ele>
        <time>2022-09-04T12:06:36Z</time>
      </trkpt>
      <trkpt lat="43.04944" lon="0.74225">
        <ele>386</ele>
        <time>2022-09-04T12:06:38Z</time>
      </trkpt>
      <trkpt lat="43.04948" lon="0.74215">
        <ele>385.4</ele>
        <time>2022-09-04T12:06:41Z</time>
      </trkpt>
      <trkpt lat="43.04954" lon="0.74208">
        <ele>385.2</ele>
        <time>2022-09-04T12:06:45Z</time>
      </trkpt>
      <trkpt lat="43.04956" lon="0.74209">
        <ele>385</ele>
        <time>2022-09-04T12:06:46Z</time>
      </trkpt>
      <trkpt lat="43.04967" lon="0.74216">
        <ele>385.2</ele>
        <time>2022-09-04T12:06:52Z</time>
      </trkpt>
      <trkpt lat="43.04969" lon="0.74217">
        <ele>385.2</ele>
        <time>2022-09-04T12:06:53Z</time>
      </trkpt>
      <trkpt lat="43.04977" lon="0.74225">
        <ele>385.4</ele>
        <time>2022-09-04T12:06:59Z</time>
      </trkpt>
      <trkpt lat="43.04992" lon="0.74235">
        <ele>385.4</ele>
        <time>2022-09-04T12:07:07Z</time>
      </trkpt>
      <trkpt lat="43.04999" lon="0.74228">
        <ele>385.2</ele>
        <time>2022-09-04T12:07:12Z</time>
      </trkpt>
      <trkpt lat="43.05008" lon="0.74224">
        <ele>385.4</ele>
        <time>2022-09-04T12:07:19Z</time>
      </trkpt>
      <trkpt lat="43.05013" lon="0.74224">
        <ele>385.6</ele>
        <time>2022-09-04T12:07:23Z</time>
      </trkpt>
      <trkpt lat="43.05014" lon="0.74222">
        <ele>385.6</ele>
        <time>2022-09-04T12:07:25Z</time>
      </trkpt>
      <trkpt lat="43.05005" lon="0.74219">
        <ele>386</ele>
        <time>2022-09-04T12:11:34Z</time>
      </trkpt>
      <trkpt lat="43.05003" lon="0.74219">
        <ele>385.8</ele>
        <time>2022-09-04T12:11:35Z</time>
      </trkpt>
      <trkpt lat="43.0499" lon="0.74219">
        <ele>386</ele>
        <time>2022-09-04T12:11:41Z</time>
      </trkpt>
      <trkpt lat="43.04982" lon="0.74219">
        <ele>386</ele>
        <time>2022-09-04T12:11:45Z</time>
      </trkpt>
      <trkpt lat="43.0498" lon="0.74218">
        <ele>386</ele>
        <time>2022-09-04T12:11:46Z</time>
      </trkpt>
      <trkpt lat="43.04972" lon="0.74213">
        <ele>386</ele>
        <time>2022-09-04T12:11:50Z</time>
      </trkpt>
      <trkpt lat="43.04964" lon="0.74208">
        <ele>386.2</ele>
        <time>2022-09-04T12:11:53Z</time>
      </trkpt>
      <trkpt lat="43.04942" lon="0.74193">
        <ele>386</ele>
        <time>2022-09-04T12:12:01Z</time>
      </trkpt>
      <trkpt lat="43.04918" lon="0.74182">
        <ele>386.6</ele>
        <time>2022-09-04T12:12:10Z</time>
      </trkpt>
      <trkpt lat="43.04903" lon="0.74181">
        <ele>386.8</ele>
        <time>2022-09-04T12:12:16Z</time>
      </trkpt>
      <trkpt lat="43.04899" lon="0.7418">
        <ele>387.2</ele>
        <time>2022-09-04T12:12:18Z</time>
      </trkpt>
      <trkpt lat="43.04888" lon="0.74175">
        <ele>388</ele>
        <time>2022-09-04T12:12:24Z</time>
      </trkpt>
      <trkpt lat="43.04886" lon="0.7417">
        <ele>388.2</ele>
        <time>2022-09-04T12:12:26Z</time>
      </trkpt>
      <trkpt lat="43.04887" lon="0.74162">
        <ele>388.2</ele>
        <time>2022-09-04T12:12:29Z</time>
      </trkpt>
      <trkpt lat="43.04888" lon="0.74159">
        <ele>388.2</ele>
        <time>2022-09-04T12:12:30Z</time>
      </trkpt>
      <trkpt lat="43.04893" lon="0.74138">
        <ele>387.8</ele>
        <time>2022-09-04T12:12:35Z</time>
      </trkpt>
      <trkpt lat="43.04897" lon="0.74116">
        <ele>387.2</ele>
        <time>2022-09-04T12:12:39Z</time>
      </trkpt>
      <trkpt lat="43.04899" lon="0.74109">
        <ele>387</ele>
        <time>2022-09-04T12:12:40Z</time>
      </trkpt>
      <trkpt lat="43.04906" lon="0.74057">
        <ele>386.6</ele>
        <time>2022-09-04T12:12:48Z</time>
      </trkpt>
      <trkpt lat="43.04911" lon="0.74019">
        <ele>386.6</ele>
        <time>2022-09-04T12:12:55Z</time>
      </trkpt>
      <trkpt lat="43.04913" lon="0.73978">
        <ele>387.2</ele>
        <time>2022-09-04T12:13:03Z</time>
      </trkpt>
      <trkpt lat="43.04912" lon="0.73937">
        <ele>388.4</ele>
        <time>2022-09-04T12:13:12Z</time>
      </trkpt>
      <trkpt lat="43.04912" lon="0.73934">
        <ele>388.6</ele>
        <time>2022-09-04T12:13:13Z</time>
      </trkpt>
      <trkpt lat="43.04912" lon="0.73916">
        <ele>389.6</ele>
        <time>2022-09-04T12:13:18Z</time>
      </trkpt>
      <trkpt lat="43.04911" lon="0.73901">
        <ele>390.6</ele>
        <time>2022-09-04T12:13:23Z</time>
      </trkpt>
      <trkpt lat="43.04909" lon="0.73883">
        <ele>391.8</ele>
        <time>2022-09-04T12:13:30Z</time>
      </trkpt>
      <trkpt lat="43.0491" lon="0.73881">
        <ele>391.8</ele>
        <time>2022-09-04T12:13:31Z</time>
      </trkpt>
      <trkpt lat="43.04912" lon="0.73873">
        <ele>392.6</ele>
        <time>2022-09-04T12:13:35Z</time>
      </trkpt>
      <trkpt lat="43.04913" lon="0.73872">
        <ele>392.8</ele>
        <time>2022-09-04T12:13:36Z</time>
      </trkpt>
      <trkpt lat="43.04915" lon="0.73871">
        <ele>392.8</ele>
        <time>2022-09-04T12:13:37Z</time>
      </trkpt>
      <trkpt lat="43.04918" lon="0.73869">
        <ele>393.2</ele>
        <time>2022-09-04T12:13:39Z</time>
      </trkpt>
      <trkpt lat="43.04929" lon="0.73863">
        <ele>393.4</ele>
        <time>2022-09-04T12:13:44Z</time>
      </trkpt>
      <trkpt lat="43.04953" lon="0.73844">
        <ele>393.8</ele>
        <time>2022-09-04T12:13:54Z</time>
      </trkpt>
      <trkpt lat="43.04973" lon="0.73825">
        <ele>393.6</ele>
        <time>2022-09-04T12:14:02Z</time>
      </trkpt>
      <trkpt lat="43.04991" lon="0.73803">
        <ele>393.6</ele>
        <time>2022-09-04T12:14:10Z</time>
      </trkpt>
      <trkpt lat="43.04994" lon="0.73778">
        <ele>394.2</ele>
        <time>2022-09-04T12:14:16Z</time>
      </trkpt>
      <trkpt lat="43.04997" lon="0.73734">
        <ele>394.8</ele>
        <time>2022-09-04T12:14:26Z</time>
      </trkpt>
      <trkpt lat="43.04997" lon="0.73698">
        <ele>395.4</ele>
        <time>2022-09-04T12:14:34Z</time>
      </trkpt>
      <trkpt lat="43.04995" lon="0.73681">
        <ele>395.8</ele>
        <time>2022-09-04T12:14:38Z</time>
      </trkpt>
      <trkpt lat="43.04993" lon="0.73669">
        <ele>396.2</ele>
        <time>2022-09-04T12:14:41Z</time>
      </trkpt>
      <trkpt lat="43.04991" lon="0.7366">
        <ele>396</ele>
        <time>2022-09-04T12:14:43Z</time>
      </trkpt>
      <trkpt lat="43.04984" lon="0.73623">
        <ele>396</ele>
        <time>2022-09-04T12:14:52Z</time>
      </trkpt>
      <trkpt lat="43.04977" lon="0.73578">
        <ele>396.6</ele>
        <time>2022-09-04T12:15:02Z</time>
      </trkpt>
      <trkpt lat="43.04977" lon="0.7356">
        <ele>396.8</ele>
        <time>2022-09-04T12:15:06Z</time>
      </trkpt>
      <trkpt lat="43.04977" lon="0.73542">
        <ele>397.2</ele>
        <time>2022-09-04T12:15:10Z</time>
      </trkpt>
      <trkpt lat="43.0498" lon="0.73505">
        <ele>397.8</ele>
        <time>2022-09-04T12:15:18Z</time>
      </trkpt>
      <trkpt lat="43.04982" lon="0.73496">
        <ele>398</ele>
        <time>2022-09-04T12:15:20Z</time>
      </trkpt>
      <trkpt lat="43.04985" lon="0.73475">
        <ele>398.2</ele>
        <time>2022-09-04T12:15:25Z</time>
      </trkpt>
      <trkpt lat="43.04993" lon="0.73437">
        <ele>398.8</ele>
        <time>2022-09-04T12:15:34Z</time>
      </trkpt>
      <trkpt lat="43.04994" lon="0.73433">
        <ele>399</ele>
        <time>2022-09-04T12:15:35Z</time>
      </trkpt>
      <trkpt lat="43.05006" lon="0.73413">
        <ele>399.2</ele>
        <time>2022-09-04T12:15:41Z</time>
      </trkpt>
      <trkpt lat="43.05022" lon="0.73395">
        <ele>399.8</ele>
        <time>2022-09-04T12:15:48Z</time>
      </trkpt>
      <trkpt lat="43.05025" lon="0.73392">
        <ele>400</ele>
        <time>2022-09-04T12:15:50Z</time>
      </trkpt>
      <trkpt lat="43.05031" lon="0.73387">
        <ele>400.4</ele>
        <time>2022-09-04T12:15:53Z</time>
      </trkpt>
      <trkpt lat="43.05044" lon="0.7337">
        <ele>401.2</ele>
        <time>2022-09-04T12:16:00Z</time>
      </trkpt>
      <trkpt lat="43.05055" lon="0.73349">
        <ele>402.2</ele>
        <time>2022-09-04T12:16:08Z</time>
      </trkpt>
      <trkpt lat="43.05063" lon="0.73329">
        <ele>402.6</ele>
        <time>2022-09-04T12:16:16Z</time>
      </trkpt>
      <trkpt lat="43.05072" lon="0.73313">
        <ele>403</ele>
        <time>2022-09-04T12:16:22Z</time>
      </trkpt>
      <trkpt lat="43.05078" lon="0.73291">
        <ele>402.8</ele>
        <time>2022-09-04T12:16:28Z</time>
      </trkpt>
      <trkpt lat="43.05071" lon="0.73268">
        <ele>402.8</ele>
        <time>2022-09-04T12:16:34Z</time>
      </trkpt>
      <trkpt lat="43.05061" lon="0.73237">
        <ele>403.4</ele>
        <time>2022-09-04T12:16:41Z</time>
      </trkpt>
      <trkpt lat="43.0506" lon="0.73233">
        <ele>403.4</ele>
        <time>2022-09-04T12:16:42Z</time>
      </trkpt>
      <trkpt lat="43.05051" lon="0.73202">
        <ele>404</ele>
        <time>2022-09-04T12:16:49Z</time>
      </trkpt>
      <trkpt lat="43.05047" lon="0.73184">
        <ele>404.6</ele>
        <time>2022-09-04T12:16:53Z</time>
      </trkpt>
      <trkpt lat="43.05042" lon="0.73168">
        <ele>405</ele>
        <time>2022-09-04T12:16:57Z</time>
      </trkpt>
      <trkpt lat="43.05039" lon="0.73151">
        <ele>405.6</ele>
        <time>2022-09-04T12:17:01Z</time>
      </trkpt>
      <trkpt lat="43.05036" lon="0.73129">
        <ele>405.8</ele>
        <time>2022-09-04T12:17:06Z</time>
      </trkpt>
      <trkpt lat="43.0503" lon="0.73094">
        <ele>406</ele>
        <time>2022-09-04T12:17:14Z</time>
      </trkpt>
      <trkpt lat="43.05024" lon="0.73069">
        <ele>406.6</ele>
        <time>2022-09-04T12:17:20Z</time>
      </trkpt>
      <trkpt lat="43.05022" lon="0.73061">
        <ele>406.6</ele>
        <time>2022-09-04T12:17:22Z</time>
      </trkpt>
      <trkpt lat="43.05015" lon="0.73038">
        <ele>406.8</ele>
        <time>2022-09-04T12:17:28Z</time>
      </trkpt>
      <trkpt lat="43.05013" lon="0.73013">
        <ele>407</ele>
        <time>2022-09-04T12:17:34Z</time>
      </trkpt>
      <trkpt lat="43.05016" lon="0.72986">
        <ele>406.8</ele>
        <time>2022-09-04T12:17:39Z</time>
      </trkpt>
      <trkpt lat="43.05021" lon="0.72945">
        <ele>406</ele>
        <time>2022-09-04T12:17:45Z</time>
      </trkpt>
      <trkpt lat="43.05021" lon="0.7293">
        <ele>405.4</ele>
        <time>2022-09-04T12:17:47Z</time>
      </trkpt>
      <trkpt lat="43.05023" lon="0.72891">
        <ele>404.8</ele>
        <time>2022-09-04T12:17:52Z</time>
      </trkpt>
      <trkpt lat="43.05023" lon="0.72873">
        <ele>404.2</ele>
        <time>2022-09-04T12:17:54Z</time>
      </trkpt>
      <trkpt lat="43.05024" lon="0.72843">
        <ele>403</ele>
        <time>2022-09-04T12:17:57Z</time>
      </trkpt>
      <trkpt lat="43.05024" lon="0.72821">
        <ele>402</ele>
        <time>2022-09-04T12:17:59Z</time>
      </trkpt>
      <trkpt lat="43.05022" lon="0.72786">
        <ele>400.8</ele>
        <time>2022-09-04T12:18:02Z</time>
      </trkpt>
      <trkpt lat="43.05024" lon="0.72758">
        <ele>399.6</ele>
        <time>2022-09-04T12:18:04Z</time>
      </trkpt>
      <trkpt lat="43.05031" lon="0.72731">
        <ele>398.2</ele>
        <time>2022-09-04T12:18:06Z</time>
      </trkpt>
      <trkpt lat="43.05035" lon="0.72717">
        <ele>397.8</ele>
        <time>2022-09-04T12:18:07Z</time>
      </trkpt>
      <trkpt lat="43.05043" lon="0.72679">
        <ele>397.2</ele>
        <time>2022-09-04T12:18:10Z</time>
      </trkpt>
      <trkpt lat="43.05044" lon="0.72666">
        <ele>397</ele>
        <time>2022-09-04T12:18:11Z</time>
      </trkpt>
      <trkpt lat="43.05038" lon="0.72633">
        <ele>397.6</ele>
        <time>2022-09-04T12:18:14Z</time>
      </trkpt>
      <trkpt lat="43.0503" lon="0.72614">
        <ele>396.8</ele>
        <time>2022-09-04T12:18:16Z</time>
      </trkpt>
      <trkpt lat="43.05024" lon="0.72597">
        <ele>396.2</ele>
        <time>2022-09-04T12:18:18Z</time>
      </trkpt>
      <trkpt lat="43.05015" lon="0.7257">
        <ele>397.4</ele>
        <time>2022-09-04T12:18:22Z</time>
      </trkpt>
      <trkpt lat="43.05011" lon="0.72554">
        <ele>398.2</ele>
        <time>2022-09-04T12:18:26Z</time>
      </trkpt>
      <trkpt lat="43.05009" lon="0.72547">
        <ele>398.8</ele>
        <time>2022-09-04T12:18:28Z</time>
      </trkpt>
      <trkpt lat="43.05007" lon="0.7254">
        <ele>399.4</ele>
        <time>2022-09-04T12:18:30Z</time>
      </trkpt>
      <trkpt lat="43.05005" lon="0.72527">
        <ele>400.6</ele>
        <time>2022-09-04T12:18:35Z</time>
      </trkpt>
      <trkpt lat="43.05004" lon="0.7251">
        <ele>401.6</ele>
        <time>2022-09-04T12:18:42Z</time>
      </trkpt>
      <trkpt lat="43.05004" lon="0.72508">
        <ele>401.8</ele>
        <time>2022-09-04T12:18:43Z</time>
      </trkpt>
      <trkpt lat="43.05004" lon="0.72501">
        <ele>402.4</ele>
        <time>2022-09-04T12:18:46Z</time>
      </trkpt>
      <trkpt lat="43.05004" lon="0.72499">
        <ele>402.6</ele>
        <time>2022-09-04T12:18:47Z</time>
      </trkpt>
      <trkpt lat="43.05004" lon="0.72497">
        <ele>402.8</ele>
        <time>2022-09-04T12:18:48Z</time>
      </trkpt>
      <trkpt lat="43.05006" lon="0.72495">
        <ele>403</ele>
        <time>2022-09-04T12:18:49Z</time>
      </trkpt>
      <trkpt lat="43.05009" lon="0.72489">
        <ele>403.6</ele>
        <time>2022-09-04T12:18:53Z</time>
      </trkpt>
      <trkpt lat="43.05009" lon="0.72487">
        <ele>403.8</ele>
        <time>2022-09-04T12:18:54Z</time>
      </trkpt>
      <trkpt lat="43.05008" lon="0.72485">
        <ele>404.2</ele>
        <time>2022-09-04T12:18:55Z</time>
      </trkpt>
      <trkpt lat="43.05007" lon="0.72479">
        <ele>404.4</ele>
        <time>2022-09-04T12:18:58Z</time>
      </trkpt>
      <trkpt lat="43.05009" lon="0.72477">
        <ele>405.2</ele>
        <time>2022-09-04T12:19:00Z</time>
      </trkpt>
      <trkpt lat="43.05014" lon="0.7247">
        <ele>406</ele>
        <time>2022-09-04T12:19:06Z</time>
      </trkpt>
      <trkpt lat="43.05013" lon="0.72469">
        <ele>406.2</ele>
        <time>2022-09-04T12:19:07Z</time>
      </trkpt>
      <trkpt lat="43.05012" lon="0.72468">
        <ele>406.2</ele>
        <time>2022-09-04T12:19:08Z</time>
      </trkpt>
      <trkpt lat="43.05007" lon="0.72463">
        <ele>406.4</ele>
        <time>2022-09-04T12:19:12Z</time>
      </trkpt>
      <trkpt lat="43.05002" lon="0.72447">
        <ele>407.2</ele>
        <time>2022-09-04T12:19:20Z</time>
      </trkpt>
      <trkpt lat="43.05002" lon="0.72446">
        <ele>407.2</ele>
        <time>2022-09-04T12:19:21Z</time>
      </trkpt>
      <trkpt lat="43.04998" lon="0.72437">
        <ele>408</ele>
        <time>2022-09-04T12:19:26Z</time>
      </trkpt>
      <trkpt lat="43.04997" lon="0.72434">
        <ele>408.4</ele>
        <time>2022-09-04T12:19:28Z</time>
      </trkpt>
      <trkpt lat="43.05" lon="0.72437">
        <ele>408.8</ele>
        <time>2022-09-04T12:25:35Z</time>
      </trkpt>
      <trkpt lat="43.05002" lon="0.72446">
        <ele>408.6</ele>
        <time>2022-09-04T12:25:37Z</time>
      </trkpt>
      <trkpt lat="43.05007" lon="0.7247">
        <ele>407.2</ele>
        <time>2022-09-04T12:25:42Z</time>
      </trkpt>
      <trkpt lat="43.05007" lon="0.72474">
        <ele>406.8</ele>
        <time>2022-09-04T12:25:43Z</time>
      </trkpt>
      <trkpt lat="43.05003" lon="0.72481">
        <ele>405.8</ele>
        <time>2022-09-04T12:25:45Z</time>
      </trkpt>
      <trkpt lat="43.04999" lon="0.72482">
        <ele>405.6</ele>
        <time>2022-09-04T12:25:46Z</time>
      </trkpt>
      <trkpt lat="43.04995" lon="0.72482">
        <ele>404.6</ele>
        <time>2022-09-04T12:25:47Z</time>
      </trkpt>
      <trkpt lat="43.04984" lon="0.72477">
        <ele>403.8</ele>
        <time>2022-09-04T12:25:49Z</time>
      </trkpt>
      <trkpt lat="43.04977" lon="0.72475">
        <ele>403.4</ele>
        <time>2022-09-04T12:25:50Z</time>
      </trkpt>
      <trkpt lat="43.04954" lon="0.72471">
        <ele>402</ele>
        <time>2022-09-04T12:25:53Z</time>
      </trkpt>
      <trkpt lat="43.04931" lon="0.72482">
        <ele>400.8</ele>
        <time>2022-09-04T12:25:56Z</time>
      </trkpt>
      <trkpt lat="43.04909" lon="0.72489">
        <ele>400.6</ele>
        <time>2022-09-04T12:25:59Z</time>
      </trkpt>
      <trkpt lat="43.04896" lon="0.72486">
        <ele>400.4</ele>
        <time>2022-09-04T12:26:01Z</time>
      </trkpt>
      <trkpt lat="43.0488" lon="0.72477">
        <ele>401.2</ele>
        <time>2022-09-04T12:26:05Z</time>
      </trkpt>
      <trkpt lat="43.04871" lon="0.72471">
        <ele>402</ele>
        <time>2022-09-04T12:26:10Z</time>
      </trkpt>
      <trkpt lat="43.04865" lon="0.72463">
        <ele>403.2</ele>
        <time>2022-09-04T12:26:15Z</time>
      </trkpt>
      <trkpt lat="43.04861" lon="0.72459">
        <ele>403.8</ele>
        <time>2022-09-04T12:26:18Z</time>
      </trkpt>
      <trkpt lat="43.04857" lon="0.72454">
        <ele>404.4</ele>
        <time>2022-09-04T12:26:21Z</time>
      </trkpt>
      <trkpt lat="43.04852" lon="0.72448">
        <ele>405.2</ele>
        <time>2022-09-04T12:26:25Z</time>
      </trkpt>
      <trkpt lat="43.04849" lon="0.72445">
        <ele>405.4</ele>
        <time>2022-09-04T12:26:27Z</time>
      </trkpt>
      <trkpt lat="43.04843" lon="0.72439">
        <ele>406.2</ele>
        <time>2022-09-04T12:26:32Z</time>
      </trkpt>
      <trkpt lat="43.0484" lon="0.72434">
        <ele>406.8</ele>
        <time>2022-09-04T12:26:35Z</time>
      </trkpt>
      <trkpt lat="43.04836" lon="0.72428">
        <ele>407.4</ele>
        <time>2022-09-04T12:26:39Z</time>
      </trkpt>
      <trkpt lat="43.0483" lon="0.72422">
        <ele>408</ele>
        <time>2022-09-04T12:26:44Z</time>
      </trkpt>
      <trkpt lat="43.04828" lon="0.7242">
        <ele>408.2</ele>
        <time>2022-09-04T12:26:46Z</time>
      </trkpt>
      <trkpt lat="43.0482" lon="0.72412">
        <ele>409</ele>
        <time>2022-09-04T12:26:53Z</time>
      </trkpt>
      <trkpt lat="43.04818" lon="0.72411">
        <ele>409</ele>
        <time>2022-09-04T12:26:54Z</time>
      </trkpt>
      <trkpt lat="43.04816" lon="0.72408">
        <ele>409.4</ele>
        <time>2022-09-04T12:26:57Z</time>
      </trkpt>
      <trkpt lat="43.04812" lon="0.72405">
        <ele>410</ele>
        <time>2022-09-04T12:27:00Z</time>
      </trkpt>
      <trkpt lat="43.04811" lon="0.72404">
        <ele>410</ele>
        <time>2022-09-04T12:27:01Z</time>
      </trkpt>
      <trkpt lat="43.04806" lon="0.724">
        <ele>410.4</ele>
        <time>2022-09-04T12:27:05Z</time>
      </trkpt>
      <trkpt lat="43.04804" lon="0.724">
        <ele>410.4</ele>
        <time>2022-09-04T12:27:06Z</time>
      </trkpt>
      <trkpt lat="43.04799" lon="0.72397">
        <ele>411.2</ele>
        <time>2022-09-04T12:27:10Z</time>
      </trkpt>
      <trkpt lat="43.04795" lon="0.72393">
        <ele>411.6</ele>
        <time>2022-09-04T12:27:13Z</time>
      </trkpt>
      <trkpt lat="43.04787" lon="0.72393">
        <ele>412.2</ele>
        <time>2022-09-04T12:27:18Z</time>
      </trkpt>
      <trkpt lat="43.04784" lon="0.72391">
        <ele>412.4</ele>
        <time>2022-09-04T12:27:20Z</time>
      </trkpt>
      <trkpt lat="43.04784" lon="0.72389">
        <ele>412.4</ele>
        <time>2022-09-04T12:27:21Z</time>
      </trkpt>
      <trkpt lat="43.0478" lon="0.72386">
        <ele>413.2</ele>
        <time>2022-09-04T12:27:25Z</time>
      </trkpt>
      <trkpt lat="43.04774" lon="0.72385">
        <ele>414</ele>
        <time>2022-09-04T12:27:30Z</time>
      </trkpt>
      <trkpt lat="43.04771" lon="0.72385">
        <ele>414.2</ele>
        <time>2022-09-04T12:27:32Z</time>
      </trkpt>
      <trkpt lat="43.04766" lon="0.72383">
        <ele>414.6</ele>
        <time>2022-09-04T12:27:35Z</time>
      </trkpt>
      <trkpt lat="43.04765" lon="0.72383">
        <ele>414.6</ele>
        <time>2022-09-04T12:27:36Z</time>
      </trkpt>
      <trkpt lat="43.04756" lon="0.72384">
        <ele>415.2</ele>
        <time>2022-09-04T12:27:41Z</time>
      </trkpt>
      <trkpt lat="43.04754" lon="0.72383">
        <ele>415.6</ele>
        <time>2022-09-04T12:27:43Z</time>
      </trkpt>
      <trkpt lat="43.04747" lon="0.72384">
        <ele>416.2</ele>
        <time>2022-09-04T12:27:48Z</time>
      </trkpt>
      <trkpt lat="43.04745" lon="0.72383">
        <ele>416.4</ele>
        <time>2022-09-04T12:27:49Z</time>
      </trkpt>
      <trkpt lat="43.04732" lon="0.72385">
        <ele>417.2</ele>
        <time>2022-09-04T12:27:57Z</time>
      </trkpt>
      <trkpt lat="43.04731" lon="0.72385">
        <ele>417.2</ele>
        <time>2022-09-04T12:27:58Z</time>
      </trkpt>
      <trkpt lat="43.0472" lon="0.72383">
        <ele>417.8</ele>
        <time>2022-09-04T12:28:06Z</time>
      </trkpt>
      <trkpt lat="43.04714" lon="0.72384">
        <ele>418.4</ele>
        <time>2022-09-04T12:30:16Z</time>
      </trkpt>
      <trkpt lat="43.04712" lon="0.72383">
        <ele>418.4</ele>
        <time>2022-09-04T12:30:17Z</time>
      </trkpt>
      <trkpt lat="43.04695" lon="0.72378">
        <ele>419</ele>
        <time>2022-09-04T12:30:24Z</time>
      </trkpt>
      <trkpt lat="43.04688" lon="0.72375">
        <ele>419.4</ele>
        <time>2022-09-04T12:30:27Z</time>
      </trkpt>
      <trkpt lat="43.04675" lon="0.72369">
        <ele>420</ele>
        <time>2022-09-04T12:30:33Z</time>
      </trkpt>
      <trkpt lat="43.04668" lon="0.72365">
        <ele>420.6</ele>
        <time>2022-09-04T12:30:36Z</time>
      </trkpt>
      <trkpt lat="43.04655" lon="0.72356">
        <ele>421.2</ele>
        <time>2022-09-04T12:30:42Z</time>
      </trkpt>
      <trkpt lat="43.04649" lon="0.72351">
        <ele>421.6</ele>
        <time>2022-09-04T12:30:45Z</time>
      </trkpt>
      <trkpt lat="43.04636" lon="0.72339">
        <ele>422.6</ele>
        <time>2022-09-04T12:30:52Z</time>
      </trkpt>
      <trkpt lat="43.04629" lon="0.72331">
        <ele>422.8</ele>
        <time>2022-09-04T12:30:56Z</time>
      </trkpt>
      <trkpt lat="43.0462" lon="0.72321">
        <ele>423.4</ele>
        <time>2022-09-04T12:31:01Z</time>
      </trkpt>
      <trkpt lat="43.04607" lon="0.72307">
        <ele>423.8</ele>
        <time>2022-09-04T12:31:08Z</time>
      </trkpt>
      <trkpt lat="43.04603" lon="0.72302">
        <ele>424</ele>
        <time>2022-09-04T12:31:10Z</time>
      </trkpt>
      <trkpt lat="43.04589" lon="0.72287">
        <ele>424.8</ele>
        <time>2022-09-04T12:31:18Z</time>
      </trkpt>
      <trkpt lat="43.04587" lon="0.72285">
        <ele>425</ele>
        <time>2022-09-04T12:31:19Z</time>
      </trkpt>
      <trkpt lat="43.04577" lon="0.72273">
        <ele>425.8</ele>
        <time>2022-09-04T12:31:25Z</time>
      </trkpt>
      <trkpt lat="43.04573" lon="0.7227">
        <ele>426.2</ele>
        <time>2022-09-04T12:31:27Z</time>
      </trkpt>
      <trkpt lat="43.04558" lon="0.72254">
        <ele>426.8</ele>
        <time>2022-09-04T12:31:35Z</time>
      </trkpt>
      <trkpt lat="43.04554" lon="0.7225">
        <ele>427</ele>
        <time>2022-09-04T12:31:37Z</time>
      </trkpt>
      <trkpt lat="43.0454" lon="0.72235">
        <ele>427.6</ele>
        <time>2022-09-04T12:31:44Z</time>
      </trkpt>
      <trkpt lat="43.0452" lon="0.72216">
        <ele>427.8</ele>
        <time>2022-09-04T12:31:52Z</time>
      </trkpt>
      <trkpt lat="43.04498" lon="0.72189">
        <ele>427.4</ele>
        <time>2022-09-04T12:32:01Z</time>
      </trkpt>
      <trkpt lat="43.04471" lon="0.72151">
        <ele>426.8</ele>
        <time>2022-09-04T12:32:10Z</time>
      </trkpt>
      <trkpt lat="43.04447" lon="0.72111">
        <ele>427.2</ele>
        <time>2022-09-04T12:32:19Z</time>
      </trkpt>
      <trkpt lat="43.04424" lon="0.72084">
        <ele>427.4</ele>
        <time>2022-09-04T12:32:26Z</time>
      </trkpt>
      <trkpt lat="43.044" lon="0.72062">
        <ele>427.8</ele>
        <time>2022-09-04T12:32:33Z</time>
      </trkpt>
      <trkpt lat="43.0439" lon="0.72053">
        <ele>428.4</ele>
        <time>2022-09-04T12:32:36Z</time>
      </trkpt>
      <trkpt lat="43.04381" lon="0.72045">
        <ele>429</ele>
        <time>2022-09-04T12:32:39Z</time>
      </trkpt>
      <trkpt lat="43.04369" lon="0.72034">
        <ele>429.6</ele>
        <time>2022-09-04T12:32:43Z</time>
      </trkpt>
      <trkpt lat="43.04353" lon="0.7202">
        <ele>430.2</ele>
        <time>2022-09-04T12:32:48Z</time>
      </trkpt>
      <trkpt lat="43.04342" lon="0.72009">
        <ele>430.6</ele>
        <time>2022-09-04T12:32:52Z</time>
      </trkpt>
      <trkpt lat="43.04323" lon="0.71991">
        <ele>431.2</ele>
        <time>2022-09-04T12:32:59Z</time>
      </trkpt>
      <trkpt lat="43.04315" lon="0.71984">
        <ele>431.4</ele>
        <time>2022-09-04T12:33:02Z</time>
      </trkpt>
      <trkpt lat="43.04293" lon="0.71966">
        <ele>432.2</ele>
        <time>2022-09-04T12:33:11Z</time>
      </trkpt>
      <trkpt lat="43.0429" lon="0.71964">
        <ele>432.2</ele>
        <time>2022-09-04T12:33:12Z</time>
      </trkpt>
      <trkpt lat="43.04277" lon="0.71953">
        <ele>433</ele>
        <time>2022-09-04T12:33:18Z</time>
      </trkpt>
      <trkpt lat="43.04262" lon="0.71939">
        <ele>432.6</ele>
        <time>2022-09-04T12:33:24Z</time>
      </trkpt>
      <trkpt lat="43.0424" lon="0.71912">
        <ele>432.2</ele>
        <time>2022-09-04T12:33:31Z</time>
      </trkpt>
      <trkpt lat="43.0421" lon="0.71876">
        <ele>432.2</ele>
        <time>2022-09-04T12:33:40Z</time>
      </trkpt>
      <trkpt lat="43.0417" lon="0.71838">
        <ele>432.2</ele>
        <time>2022-09-04T12:33:51Z</time>
      </trkpt>
      <trkpt lat="43.04132" lon="0.71814">
        <ele>432.2</ele>
        <time>2022-09-04T12:34:01Z</time>
      </trkpt>
      <trkpt lat="43.04106" lon="0.71801">
        <ele>432.6</ele>
        <time>2022-09-04T12:34:08Z</time>
      </trkpt>
      <trkpt lat="43.04073" lon="0.71785">
        <ele>431.8</ele>
        <time>2022-09-04T12:34:15Z</time>
      </trkpt>
      <trkpt lat="43.04053" lon="0.71776">
        <ele>431.2</ele>
        <time>2022-09-04T12:34:19Z</time>
      </trkpt>
      <trkpt lat="43.04027" lon="0.71759">
        <ele>430.6</ele>
        <time>2022-09-04T12:34:24Z</time>
      </trkpt>
      <trkpt lat="43.04012" lon="0.71748">
        <ele>430.2</ele>
        <time>2022-09-04T12:34:27Z</time>
      </trkpt>
      <trkpt lat="43.03983" lon="0.71723">
        <ele>429.4</ele>
        <time>2022-09-04T12:34:33Z</time>
      </trkpt>
      <trkpt lat="43.0395" lon="0.71696">
        <ele>429.4</ele>
        <time>2022-09-04T12:34:40Z</time>
      </trkpt>
      <trkpt lat="43.03933" lon="0.71677">
        <ele>429</ele>
        <time>2022-09-04T12:34:44Z</time>
      </trkpt>
      <trkpt lat="43.03911" lon="0.71653">
        <ele>428.8</ele>
        <time>2022-09-04T12:34:49Z</time>
      </trkpt>
      <trkpt lat="43.03872" lon="0.71608">
        <ele>428.2</ele>
        <time>2022-09-04T12:34:59Z</time>
      </trkpt>
      <trkpt lat="43.0386" lon="0.7159">
        <ele>427.8</ele>
        <time>2022-09-04T12:35:03Z</time>
      </trkpt>
      <trkpt lat="43.03848" lon="0.71572">
        <ele>427.6</ele>
        <time>2022-09-04T12:35:07Z</time>
      </trkpt>
      <trkpt lat="43.03832" lon="0.71536">
        <ele>426.8</ele>
        <time>2022-09-04T12:35:14Z</time>
      </trkpt>
      <trkpt lat="43.0383" lon="0.7153">
        <ele>426.8</ele>
        <time>2022-09-04T12:35:15Z</time>
      </trkpt>
      <trkpt lat="43.0382" lon="0.71514">
        <ele>426.8</ele>
        <time>2022-09-04T12:35:18Z</time>
      </trkpt>
      <trkpt lat="43.03815" lon="0.71507">
        <ele>426.4</ele>
        <time>2022-09-04T12:35:20Z</time>
      </trkpt>
      <trkpt lat="43.03813" lon="0.71503">
        <ele>425.8</ele>
        <time>2022-09-04T12:35:22Z</time>
      </trkpt>
      <trkpt lat="43.03812" lon="0.715">
        <ele>425.4</ele>
        <time>2022-09-04T12:35:24Z</time>
      </trkpt>
      <trkpt lat="43.03811" lon="0.71495">
        <ele>425.4</ele>
        <time>2022-09-04T12:35:56Z</time>
      </trkpt>
      <trkpt lat="43.03812" lon="0.71492">
        <ele>425.2</ele>
        <time>2022-09-04T12:35:57Z</time>
      </trkpt>
      <trkpt lat="43.03818" lon="0.71489">
        <ele>425.6</ele>
        <time>2022-09-04T12:36:00Z</time>
      </trkpt>
      <trkpt lat="43.03821" lon="0.71487">
        <ele>425.8</ele>
        <time>2022-09-04T12:36:01Z</time>
      </trkpt>
      <trkpt lat="43.03832" lon="0.71481">
        <ele>426.8</ele>
        <time>2022-09-04T12:36:06Z</time>
      </trkpt>
      <trkpt lat="43.03833" lon="0.7148">
        <ele>426.8</ele>
        <time>2022-09-04T12:36:07Z</time>
      </trkpt>
      <trkpt lat="43.03836" lon="0.71481">
        <ele>427</ele>
        <time>2022-09-04T12:36:09Z</time>
      </trkpt>
      <trkpt lat="43.03837" lon="0.7148">
        <ele>427.2</ele>
        <time>2022-09-04T12:36:11Z</time>
      </trkpt>
      <trkpt lat="43.03832" lon="0.71483">
        <ele>427.6</ele>
        <time>2022-09-04T12:36:19Z</time>
      </trkpt>
      <trkpt lat="43.03818" lon="0.71491">
        <ele>426.8</ele>
        <time>2022-09-04T12:36:24Z</time>
      </trkpt>
      <trkpt lat="43.0381" lon="0.71496">
        <ele>425.6</ele>
        <time>2022-09-04T12:36:28Z</time>
      </trkpt>
      <trkpt lat="43.03808" lon="0.71497">
        <ele>425.4</ele>
        <time>2022-09-04T12:36:29Z</time>
      </trkpt>
      <trkpt lat="43.03805" lon="0.71495">
        <ele>425</ele>
        <time>2022-09-04T12:36:30Z</time>
      </trkpt>
      <trkpt lat="43.03798" lon="0.71489">
        <ele>424.6</ele>
        <time>2022-09-04T12:36:32Z</time>
      </trkpt>
      <trkpt lat="43.03796" lon="0.71484">
        <ele>424.6</ele>
        <time>2022-09-04T12:36:33Z</time>
      </trkpt>
      <trkpt lat="43.03784" lon="0.71467">
        <ele>423.4</ele>
        <time>2022-09-04T12:36:36Z</time>
      </trkpt>
      <trkpt lat="43.0378" lon="0.7146">
        <ele>423</ele>
        <time>2022-09-04T12:36:37Z</time>
      </trkpt>
      <trkpt lat="43.0377" lon="0.71435">
        <ele>421.8</ele>
        <time>2022-09-04T12:36:40Z</time>
      </trkpt>
      <trkpt lat="43.03762" lon="0.71418">
        <ele>420.8</ele>
        <time>2022-09-04T12:36:42Z</time>
      </trkpt>
      <trkpt lat="43.03757" lon="0.71411">
        <ele>420.4</ele>
        <time>2022-09-04T12:36:43Z</time>
      </trkpt>
      <trkpt lat="43.03742" lon="0.71392">
        <ele>419.6</ele>
        <time>2022-09-04T12:36:46Z</time>
      </trkpt>
      <trkpt lat="43.0373" lon="0.71374">
        <ele>418.4</ele>
        <time>2022-09-04T12:36:49Z</time>
      </trkpt>
      <trkpt lat="43.03727" lon="0.71368">
        <ele>418.2</ele>
        <time>2022-09-04T12:36:50Z</time>
      </trkpt>
      <trkpt lat="43.03723" lon="0.71351">
        <ele>417.6</ele>
        <time>2022-09-04T12:36:52Z</time>
      </trkpt>
      <trkpt lat="43.03722" lon="0.71333">
        <ele>417.4</ele>
        <time>2022-09-04T12:36:54Z</time>
      </trkpt>
      <trkpt lat="43.03722" lon="0.71324">
        <ele>417</ele>
        <time>2022-09-04T12:36:55Z</time>
      </trkpt>
      <trkpt lat="43.03723" lon="0.71315">
        <ele>416.6</ele>
        <time>2022-09-04T12:36:56Z</time>
      </trkpt>
      <trkpt lat="43.03724" lon="0.71297">
        <ele>416</ele>
        <time>2022-09-04T12:36:58Z</time>
      </trkpt>
      <trkpt lat="43.03726" lon="0.71249">
        <ele>415.2</ele>
        <time>2022-09-04T12:37:03Z</time>
      </trkpt>
      <trkpt lat="43.03727" lon="0.71239">
        <ele>414.8</ele>
        <time>2022-09-04T12:37:04Z</time>
      </trkpt>
      <trkpt lat="43.03731" lon="0.71171">
        <ele>414.4</ele>
        <time>2022-09-04T12:37:11Z</time>
      </trkpt>
      <trkpt lat="43.03733" lon="0.71143">
        <ele>414.4</ele>
        <time>2022-09-04T12:37:15Z</time>
      </trkpt>
      <trkpt lat="43.03735" lon="0.71136">
        <ele>414.6</ele>
        <time>2022-09-04T12:37:17Z</time>
      </trkpt>
      <trkpt lat="43.03736" lon="0.71134">
        <ele>414.8</ele>
        <time>2022-09-04T12:37:18Z</time>
      </trkpt>
      <trkpt lat="43.03744" lon="0.71134">
        <ele>415.8</ele>
        <time>2022-09-04T12:37:22Z</time>
      </trkpt>
      <trkpt lat="43.03747" lon="0.71135">
        <ele>416</ele>
        <time>2022-09-04T12:37:23Z</time>
      </trkpt>
      <trkpt lat="43.03749" lon="0.71135">
        <ele>416.2</ele>
        <time>2022-09-04T12:37:24Z</time>
      </trkpt>
      <trkpt lat="43.03757" lon="0.71137">
        <ele>417</ele>
        <time>2022-09-04T12:37:28Z</time>
      </trkpt>
      <trkpt lat="43.0377" lon="0.71139">
        <ele>417.8</ele>
        <time>2022-09-04T12:37:34Z</time>
      </trkpt>
      <trkpt lat="43.03774" lon="0.7114">
        <ele>418.2</ele>
        <time>2022-09-04T12:37:36Z</time>
      </trkpt>
      <trkpt lat="43.03786" lon="0.71141">
        <ele>419.2</ele>
        <time>2022-09-04T12:37:42Z</time>
      </trkpt>
      <trkpt lat="43.03788" lon="0.71141">
        <ele>419.6</ele>
        <time>2022-09-04T12:37:43Z</time>
      </trkpt>
      <trkpt lat="43.03796" lon="0.71144">
        <ele>420.6</ele>
        <time>2022-09-04T12:37:47Z</time>
      </trkpt>
      <trkpt lat="43.03804" lon="0.71146">
        <ele>420.8</ele>
        <time>2022-09-04T12:37:51Z</time>
      </trkpt>
      <trkpt lat="43.03815" lon="0.71145">
        <ele>421.6</ele>
        <time>2022-09-04T12:37:57Z</time>
      </trkpt>
      <trkpt lat="43.03821" lon="0.71145">
        <ele>422</ele>
        <time>2022-09-04T12:38:00Z</time>
      </trkpt>
      <trkpt lat="43.03829" lon="0.71144">
        <ele>422.6</ele>
        <time>2022-09-04T12:38:04Z</time>
      </trkpt>
      <trkpt lat="43.03835" lon="0.71142">
        <ele>423</ele>
        <time>2022-09-04T12:38:07Z</time>
      </trkpt>
      <trkpt lat="43.03844" lon="0.7114">
        <ele>423.6</ele>
        <time>2022-09-04T12:38:12Z</time>
      </trkpt>
      <trkpt lat="43.03846" lon="0.71138">
        <ele>423.8</ele>
        <time>2022-09-04T12:38:13Z</time>
      </trkpt>
      <trkpt lat="43.03857" lon="0.71133">
        <ele>424.4</ele>
        <time>2022-09-04T12:38:19Z</time>
      </trkpt>
      <trkpt lat="43.03861" lon="0.7113">
        <ele>424.8</ele>
        <time>2022-09-04T12:38:21Z</time>
      </trkpt>
      <trkpt lat="43.03867" lon="0.71124">
        <ele>425.2</ele>
        <time>2022-09-04T12:38:25Z</time>
      </trkpt>
      <trkpt lat="43.03869" lon="0.71119">
        <ele>425.4</ele>
        <time>2022-09-04T12:38:27Z</time>
      </trkpt>
      <trkpt lat="43.03877" lon="0.711">
        <ele>425.6</ele>
        <time>2022-09-04T12:38:34Z</time>
      </trkpt>
      <trkpt lat="43.03878" lon="0.71094">
        <ele>425.8</ele>
        <time>2022-09-04T12:38:36Z</time>
      </trkpt>
      <trkpt lat="43.03883" lon="0.71068">
        <ele>425.8</ele>
        <time>2022-09-04T12:38:43Z</time>
      </trkpt>
      <trkpt lat="43.0389" lon="0.71038">
        <ele>426</ele>
        <time>2022-09-04T12:38:51Z</time>
      </trkpt>
      <trkpt lat="43.03902" lon="0.71012">
        <ele>426.2</ele>
        <time>2022-09-04T12:38:58Z</time>
      </trkpt>
      <trkpt lat="43.03922" lon="0.70993">
        <ele>426.8</ele>
        <time>2022-09-04T12:39:05Z</time>
      </trkpt>
      <trkpt lat="43.03937" lon="0.70979">
        <ele>426.8</ele>
        <time>2022-09-04T12:39:10Z</time>
      </trkpt>
      <trkpt lat="43.0395" lon="0.70964">
        <ele>427.2</ele>
        <time>2022-09-04T12:39:15Z</time>
      </trkpt>
      <trkpt lat="43.03969" lon="0.70931">
        <ele>427.6</ele>
        <time>2022-09-04T12:39:23Z</time>
      </trkpt>
      <trkpt lat="43.03991" lon="0.7088">
        <ele>427.8</ele>
        <time>2022-09-04T12:39:33Z</time>
      </trkpt>
      <trkpt lat="43.04" lon="0.70854">
        <ele>428</ele>
        <time>2022-09-04T12:39:38Z</time>
      </trkpt>
      <trkpt lat="43.04004" lon="0.70842">
        <ele>428.2</ele>
        <time>2022-09-04T12:39:40Z</time>
      </trkpt>
      <trkpt lat="43.04018" lon="0.70782">
        <ele>428</ele>
        <time>2022-09-04T12:39:50Z</time>
      </trkpt>
      <trkpt lat="43.04031" lon="0.70741">
        <ele>428.4</ele>
        <time>2022-09-04T12:39:57Z</time>
      </trkpt>
      <trkpt lat="43.04033" lon="0.70736">
        <ele>428.6</ele>
        <time>2022-09-04T12:39:58Z</time>
      </trkpt>
      <trkpt lat="43.04043" lon="0.70715">
        <ele>429</ele>
        <time>2022-09-04T12:40:02Z</time>
      </trkpt>
      <trkpt lat="43.04054" lon="0.70694">
        <ele>429.2</ele>
        <time>2022-09-04T12:40:06Z</time>
      </trkpt>
      <trkpt lat="43.04064" lon="0.70671">
        <ele>428.6</ele>
        <time>2022-09-04T12:40:10Z</time>
      </trkpt>
      <trkpt lat="43.04067" lon="0.70657">
        <ele>428.4</ele>
        <time>2022-09-04T12:40:12Z</time>
      </trkpt>
      <trkpt lat="43.04069" lon="0.70651">
        <ele>428.2</ele>
        <time>2022-09-04T12:40:13Z</time>
      </trkpt>
      <trkpt lat="43.0407" lon="0.70636">
        <ele>427.8</ele>
        <time>2022-09-04T12:40:15Z</time>
      </trkpt>
      <trkpt lat="43.04072" lon="0.70622">
        <ele>427.8</ele>
        <time>2022-09-04T12:40:17Z</time>
      </trkpt>
      <trkpt lat="43.04078" lon="0.70569">
        <ele>426.8</ele>
        <time>2022-09-04T12:40:24Z</time>
      </trkpt>
      <trkpt lat="43.04078" lon="0.70561">
        <ele>426.6</ele>
        <time>2022-09-04T12:40:25Z</time>
      </trkpt>
      <trkpt lat="43.04075" lon="0.70522">
        <ele>427.4</ele>
        <time>2022-09-04T12:40:31Z</time>
      </trkpt>
      <trkpt lat="43.04074" lon="0.70511">
        <ele>428</ele>
        <time>2022-09-04T12:40:33Z</time>
      </trkpt>
      <trkpt lat="43.0407" lon="0.70489">
        <ele>428.8</ele>
        <time>2022-09-04T12:40:38Z</time>
      </trkpt>
      <trkpt lat="43.0407" lon="0.70484">
        <ele>429</ele>
        <time>2022-09-04T12:40:39Z</time>
      </trkpt>
      <trkpt lat="43.04068" lon="0.70449">
        <ele>430</ele>
        <time>2022-09-04T12:40:47Z</time>
      </trkpt>
      <trkpt lat="43.04068" lon="0.70444">
        <ele>430.2</ele>
        <time>2022-09-04T12:40:48Z</time>
      </trkpt>
      <trkpt lat="43.04066" lon="0.70407">
        <ele>430.6</ele>
        <time>2022-09-04T12:40:56Z</time>
      </trkpt>
      <trkpt lat="43.04064" lon="0.70364">
        <ele>430.6</ele>
        <time>2022-09-04T12:41:05Z</time>
      </trkpt>
      <trkpt lat="43.04063" lon="0.70334">
        <ele>430.6</ele>
        <time>2022-09-04T12:41:11Z</time>
      </trkpt>
      <trkpt lat="43.04061" lon="0.70294">
        <ele>430.8</ele>
        <time>2022-09-04T12:41:19Z</time>
      </trkpt>
      <trkpt lat="43.04059" lon="0.7027">
        <ele>431.2</ele>
        <time>2022-09-04T12:41:24Z</time>
      </trkpt>
      <trkpt lat="43.04058" lon="0.70255">
        <ele>431.2</ele>
        <time>2022-09-04T12:41:27Z</time>
      </trkpt>
      <trkpt lat="43.04057" lon="0.70216">
        <ele>432</ele>
        <time>2022-09-04T12:41:35Z</time>
      </trkpt>
      <trkpt lat="43.04056" lon="0.70201">
        <ele>432.2</ele>
        <time>2022-09-04T12:41:38Z</time>
      </trkpt>
      <trkpt lat="43.04055" lon="0.70186">
        <ele>432.4</ele>
        <time>2022-09-04T12:41:41Z</time>
      </trkpt>
      <trkpt lat="43.04054" lon="0.70172">
        <ele>432.6</ele>
        <time>2022-09-04T12:41:44Z</time>
      </trkpt>
      <trkpt lat="43.04054" lon="0.70141">
        <ele>432.8</ele>
        <time>2022-09-04T12:41:50Z</time>
      </trkpt>
      <trkpt lat="43.04054" lon="0.70123">
        <ele>432.6</ele>
        <time>2022-09-04T12:41:53Z</time>
      </trkpt>
      <trkpt lat="43.04055" lon="0.70099">
        <ele>432.8</ele>
        <time>2022-09-04T12:41:57Z</time>
      </trkpt>
      <trkpt lat="43.04061" lon="0.70053">
        <ele>433.2</ele>
        <time>2022-09-04T12:42:05Z</time>
      </trkpt>
      <trkpt lat="43.04062" lon="0.70037">
        <ele>433</ele>
        <time>2022-09-04T12:42:08Z</time>
      </trkpt>
      <trkpt lat="43.04064" lon="0.70026">
        <ele>433</ele>
        <time>2022-09-04T12:42:10Z</time>
      </trkpt>
      <trkpt lat="43.04066" lon="0.70014">
        <ele>433</ele>
        <time>2022-09-04T12:42:12Z</time>
      </trkpt>
      <trkpt lat="43.04067" lon="0.70008">
        <ele>433.2</ele>
        <time>2022-09-04T12:42:13Z</time>
      </trkpt>
      <trkpt lat="43.04071" lon="0.69991">
        <ele>433.2</ele>
        <time>2022-09-04T12:42:16Z</time>
      </trkpt>
      <trkpt lat="43.04072" lon="0.69985">
        <ele>433.4</ele>
        <time>2022-09-04T12:42:17Z</time>
      </trkpt>
      <trkpt lat="43.0408" lon="0.6996">
        <ele>433.4</ele>
        <time>2022-09-04T12:42:21Z</time>
      </trkpt>
      <trkpt lat="43.04087" lon="0.69943">
        <ele>433.6</ele>
        <time>2022-09-04T12:42:24Z</time>
      </trkpt>
      <trkpt lat="43.04094" lon="0.69927">
        <ele>433.6</ele>
        <time>2022-09-04T12:42:27Z</time>
      </trkpt>
      <trkpt lat="43.04116" lon="0.69889">
        <ele>433.8</ele>
        <time>2022-09-04T12:42:35Z</time>
      </trkpt>
      <trkpt lat="43.0413" lon="0.69871">
        <ele>434.4</ele>
        <time>2022-09-04T12:42:40Z</time>
      </trkpt>
      <trkpt lat="43.04133" lon="0.69868">
        <ele>434.4</ele>
        <time>2022-09-04T12:42:41Z</time>
      </trkpt>
      <trkpt lat="43.04149" lon="0.69849">
        <ele>434.8</ele>
        <time>2022-09-04T12:42:47Z</time>
      </trkpt>
      <trkpt lat="43.0416" lon="0.69836">
        <ele>434.8</ele>
        <time>2022-09-04T12:42:52Z</time>
      </trkpt>
      <trkpt lat="43.04178" lon="0.69809">
        <ele>434.8</ele>
        <time>2022-09-04T12:42:59Z</time>
      </trkpt>
      <trkpt lat="43.04206" lon="0.69772">
        <ele>434.6</ele>
        <time>2022-09-04T12:43:09Z</time>
      </trkpt>
      <trkpt lat="43.04229" lon="0.69746">
        <ele>434.6</ele>
        <time>2022-09-04T12:43:16Z</time>
      </trkpt>
      <trkpt lat="43.04233" lon="0.69743">
        <ele>434.4</ele>
        <time>2022-09-04T12:43:17Z</time>
      </trkpt>
      <trkpt lat="43.04253" lon="0.69726">
        <ele>434.2</ele>
        <time>2022-09-04T12:43:22Z</time>
      </trkpt>
      <trkpt lat="43.04286" lon="0.69692">
        <ele>433.8</ele>
        <time>2022-09-04T12:43:30Z</time>
      </trkpt>
      <trkpt lat="43.04289" lon="0.69686">
        <ele>433.8</ele>
        <time>2022-09-04T12:43:31Z</time>
      </trkpt>
      <trkpt lat="43.04303" lon="0.69657">
        <ele>434.2</ele>
        <time>2022-09-04T12:43:36Z</time>
      </trkpt>
      <trkpt lat="43.04328" lon="0.69603">
        <ele>434.4</ele>
        <time>2022-09-04T12:43:45Z</time>
      </trkpt>
      <trkpt lat="43.04357" lon="0.69543">
        <ele>434.4</ele>
        <time>2022-09-04T12:43:55Z</time>
      </trkpt>
      <trkpt lat="43.04371" lon="0.69516">
        <ele>434.2</ele>
        <time>2022-09-04T12:44:00Z</time>
      </trkpt>
      <trkpt lat="43.04378" lon="0.69506">
        <ele>434.2</ele>
        <time>2022-09-04T12:44:02Z</time>
      </trkpt>
      <trkpt lat="43.04409" lon="0.6948">
        <ele>434.2</ele>
        <time>2022-09-04T12:44:09Z</time>
      </trkpt>
      <trkpt lat="43.04444" lon="0.69465">
        <ele>434.4</ele>
        <time>2022-09-04T12:44:16Z</time>
      </trkpt>
      <trkpt lat="43.04482" lon="0.6944">
        <ele>434</ele>
        <time>2022-09-04T12:44:24Z</time>
      </trkpt>
      <trkpt lat="43.04522" lon="0.69409">
        <ele>434</ele>
        <time>2022-09-04T12:44:33Z</time>
      </trkpt>
      <trkpt lat="43.04526" lon="0.69405">
        <ele>434</ele>
        <time>2022-09-04T12:44:34Z</time>
      </trkpt>
      <trkpt lat="43.04547" lon="0.69385">
        <ele>433.8</ele>
        <time>2022-09-04T12:44:39Z</time>
      </trkpt>
      <trkpt lat="43.04587" lon="0.6935">
        <ele>434</ele>
        <time>2022-09-04T12:44:48Z</time>
      </trkpt>
      <trkpt lat="43.04625" lon="0.69316">
        <ele>434.2</ele>
        <time>2022-09-04T12:44:57Z</time>
      </trkpt>
      <trkpt lat="43.04652" lon="0.69286">
        <ele>434.6</ele>
        <time>2022-09-04T12:45:04Z</time>
      </trkpt>
      <trkpt lat="43.04662" lon="0.69256">
        <ele>434.6</ele>
        <time>2022-09-04T12:45:09Z</time>
      </trkpt>
      <trkpt lat="43.04667" lon="0.69238">
        <ele>434.2</ele>
        <time>2022-09-04T12:45:13Z</time>
      </trkpt>
      <trkpt lat="43.04669" lon="0.6923">
        <ele>434</ele>
        <time>2022-09-04T12:45:58Z</time>
      </trkpt>
      <trkpt lat="43.04674" lon="0.6921">
        <ele>434</ele>
        <time>2022-09-04T12:46:03Z</time>
      </trkpt>
      <trkpt lat="43.04677" lon="0.69199">
        <ele>434</ele>
        <time>2022-09-04T12:46:05Z</time>
      </trkpt>
      <trkpt lat="43.04683" lon="0.69178">
        <ele>434.2</ele>
        <time>2022-09-04T12:46:09Z</time>
      </trkpt>
      <trkpt lat="43.04694" lon="0.69139">
        <ele>434.2</ele>
        <time>2022-09-04T12:46:16Z</time>
      </trkpt>
      <trkpt lat="43.04702" lon="0.69105">
        <ele>433.8</ele>
        <time>2022-09-04T12:46:21Z</time>
      </trkpt>
      <trkpt lat="43.04709" lon="0.69078">
        <ele>434.2</ele>
        <time>2022-09-04T12:46:25Z</time>
      </trkpt>
      <trkpt lat="43.0472" lon="0.69053">
        <ele>434</ele>
        <time>2022-09-04T12:46:29Z</time>
      </trkpt>
      <trkpt lat="43.04726" lon="0.69042">
        <ele>434</ele>
        <time>2022-09-04T12:46:31Z</time>
      </trkpt>
      <trkpt lat="43.04734" lon="0.69032">
        <ele>433.8</ele>
        <time>2022-09-04T12:46:33Z</time>
      </trkpt>
      <trkpt lat="43.04751" lon="0.69016">
        <ele>434</ele>
        <time>2022-09-04T12:46:37Z</time>
      </trkpt>
      <trkpt lat="43.04782" lon="0.68982">
        <ele>434.6</ele>
        <time>2022-09-04T12:46:45Z</time>
      </trkpt>
      <trkpt lat="43.04796" lon="0.68965">
        <ele>435.4</ele>
        <time>2022-09-04T12:46:49Z</time>
      </trkpt>
      <trkpt lat="43.04811" lon="0.68944">
        <ele>435.8</ele>
        <time>2022-09-04T12:46:54Z</time>
      </trkpt>
      <trkpt lat="43.04835" lon="0.68909">
        <ele>436</ele>
        <time>2022-09-04T12:47:02Z</time>
      </trkpt>
      <trkpt lat="43.04843" lon="0.68895">
        <ele>436.4</ele>
        <time>2022-09-04T12:47:05Z</time>
      </trkpt>
      <trkpt lat="43.04868" lon="0.68859">
        <ele>436.6</ele>
        <time>2022-09-04T12:47:13Z</time>
      </trkpt>
      <trkpt lat="43.04886" lon="0.68834">
        <ele>437.2</ele>
        <time>2022-09-04T12:47:19Z</time>
      </trkpt>
      <trkpt lat="43.0489" lon="0.68831">
        <ele>437.4</ele>
        <time>2022-09-04T12:47:20Z</time>
      </trkpt>
      <trkpt lat="43.04893" lon="0.68827">
        <ele>437.6</ele>
        <time>2022-09-04T12:47:21Z</time>
      </trkpt>
      <trkpt lat="43.04914" lon="0.68809">
        <ele>438.4</ele>
        <time>2022-09-04T12:47:27Z</time>
      </trkpt>
      <trkpt lat="43.04918" lon="0.68805">
        <ele>438.6</ele>
        <time>2022-09-04T12:47:28Z</time>
      </trkpt>
      <trkpt lat="43.0493" lon="0.68789">
        <ele>438.6</ele>
        <time>2022-09-04T12:47:32Z</time>
      </trkpt>
      <trkpt lat="43.04939" lon="0.68778">
        <ele>438.8</ele>
        <time>2022-09-04T12:47:35Z</time>
      </trkpt>
      <trkpt lat="43.04968" lon="0.68737">
        <ele>439.4</ele>
        <time>2022-09-04T12:47:45Z</time>
      </trkpt>
      <trkpt lat="43.04978" lon="0.68717">
        <ele>439.6</ele>
        <time>2022-09-04T12:47:49Z</time>
      </trkpt>
      <trkpt lat="43.04987" lon="0.68696">
        <ele>439.6</ele>
        <time>2022-09-04T12:47:53Z</time>
      </trkpt>
      <trkpt lat="43.05006" lon="0.68657">
        <ele>440.6</ele>
        <time>2022-09-04T12:48:01Z</time>
      </trkpt>
      <trkpt lat="43.05029" lon="0.68618">
        <ele>441.2</ele>
        <time>2022-09-04T12:48:10Z</time>
      </trkpt>
      <trkpt lat="43.0504" lon="0.68602">
        <ele>441.6</ele>
        <time>2022-09-04T12:48:14Z</time>
      </trkpt>
      <trkpt lat="43.05055" lon="0.68584">
        <ele>442</ele>
        <time>2022-09-04T12:48:19Z</time>
      </trkpt>
      <trkpt lat="43.05064" lon="0.68575">
        <ele>442.6</ele>
        <time>2022-09-04T12:48:22Z</time>
      </trkpt>
      <trkpt lat="43.05079" lon="0.68558">
        <ele>443</ele>
        <time>2022-09-04T12:48:27Z</time>
      </trkpt>
      <trkpt lat="43.05099" lon="0.68536">
        <ele>443.6</ele>
        <time>2022-09-04T12:48:34Z</time>
      </trkpt>
      <trkpt lat="43.05104" lon="0.68531">
        <ele>443.8</ele>
        <time>2022-09-04T12:48:36Z</time>
      </trkpt>
      <trkpt lat="43.05116" lon="0.68518">
        <ele>444.8</ele>
        <time>2022-09-04T12:48:41Z</time>
      </trkpt>
      <trkpt lat="43.05121" lon="0.68513">
        <ele>445</ele>
        <time>2022-09-04T12:48:43Z</time>
      </trkpt>
      <trkpt lat="43.05134" lon="0.68499">
        <ele>445.8</ele>
        <time>2022-09-04T12:48:49Z</time>
      </trkpt>
      <trkpt lat="43.05136" lon="0.68497">
        <ele>446</ele>
        <time>2022-09-04T12:48:50Z</time>
      </trkpt>
      <trkpt lat="43.0515" lon="0.68483">
        <ele>446.8</ele>
        <time>2022-09-04T12:48:57Z</time>
      </trkpt>
      <trkpt lat="43.05154" lon="0.68478">
        <ele>447</ele>
        <time>2022-09-04T12:48:59Z</time>
      </trkpt>
      <trkpt lat="43.05163" lon="0.68469">
        <ele>447.8</ele>
        <time>2022-09-04T12:49:04Z</time>
      </trkpt>
      <trkpt lat="43.05167" lon="0.68465">
        <ele>448</ele>
        <time>2022-09-04T12:49:06Z</time>
      </trkpt>
      <trkpt lat="43.05174" lon="0.68457">
        <ele>448.6</ele>
        <time>2022-09-04T12:49:10Z</time>
      </trkpt>
      <trkpt lat="43.05179" lon="0.68451">
        <ele>449</ele>
        <time>2022-09-04T12:49:13Z</time>
      </trkpt>
      <trkpt lat="43.05191" lon="0.6844">
        <ele>449.6</ele>
        <time>2022-09-04T12:49:19Z</time>
      </trkpt>
      <trkpt lat="43.05197" lon="0.68432">
        <ele>450</ele>
        <time>2022-09-04T12:49:23Z</time>
      </trkpt>
      <trkpt lat="43.05199" lon="0.68431">
        <ele>450.2</ele>
        <time>2022-09-04T12:49:24Z</time>
      </trkpt>
      <trkpt lat="43.05206" lon="0.68422">
        <ele>450.8</ele>
        <time>2022-09-04T12:49:29Z</time>
      </trkpt>
      <trkpt lat="43.05209" lon="0.68416">
        <ele>451.2</ele>
        <time>2022-09-04T12:49:32Z</time>
      </trkpt>
      <trkpt lat="43.05214" lon="0.6841">
        <ele>451.6</ele>
        <time>2022-09-04T12:49:35Z</time>
      </trkpt>
      <trkpt lat="43.05226" lon="0.68399">
        <ele>452</ele>
        <time>2022-09-04T12:49:43Z</time>
      </trkpt>
      <trkpt lat="43.05227" lon="0.68395">
        <ele>452.4</ele>
        <time>2022-09-04T12:49:45Z</time>
      </trkpt>
      <trkpt lat="43.0523" lon="0.68402">
        <ele>452.8</ele>
        <time>2022-09-04T12:50:47Z</time>
      </trkpt>
      <trkpt lat="43.05232" lon="0.68408">
        <ele>452.6</ele>
        <time>2022-09-04T12:50:49Z</time>
      </trkpt>
      <trkpt lat="43.05242" lon="0.68423">
        <ele>453.2</ele>
        <time>2022-09-04T12:50:55Z</time>
      </trkpt>
      <trkpt lat="43.05247" lon="0.6843">
        <ele>453.6</ele>
        <time>2022-09-04T12:50:58Z</time>
      </trkpt>
      <trkpt lat="43.05259" lon="0.68441">
        <ele>454.6</ele>
        <time>2022-09-04T12:51:05Z</time>
      </trkpt>
      <trkpt lat="43.05268" lon="0.68443">
        <ele>455.2</ele>
        <time>2022-09-04T12:51:10Z</time>
      </trkpt>
      <trkpt lat="43.05271" lon="0.68441">
        <ele>455.6</ele>
        <time>2022-09-04T12:51:12Z</time>
      </trkpt>
      <trkpt lat="43.05272" lon="0.68439">
        <ele>455.8</ele>
        <time>2022-09-04T12:51:13Z</time>
      </trkpt>
      <trkpt lat="43.05275" lon="0.68437">
        <ele>456</ele>
        <time>2022-09-04T12:51:15Z</time>
      </trkpt>
      <trkpt lat="43.05283" lon="0.6843">
        <ele>456.8</ele>
        <time>2022-09-04T12:51:21Z</time>
      </trkpt>
      <trkpt lat="43.05284" lon="0.68428">
        <ele>456.8</ele>
        <time>2022-09-04T12:51:22Z</time>
      </trkpt>
      <trkpt lat="43.05293" lon="0.68425">
        <ele>457.4</ele>
        <time>2022-09-04T12:51:28Z</time>
      </trkpt>
      <trkpt lat="43.05298" lon="0.68422">
        <ele>458</ele>
        <time>2022-09-04T12:51:31Z</time>
      </trkpt>
      <trkpt lat="43.05301" lon="0.68419">
        <ele>458.2</ele>
        <time>2022-09-04T12:51:34Z</time>
      </trkpt>
      <trkpt lat="43.053" lon="0.68418">
        <ele>458.2</ele>
        <time>2022-09-04T12:51:35Z</time>
      </trkpt>
      <trkpt lat="43.05299" lon="0.6842">
        <ele>458.2</ele>
        <time>2022-09-04T12:53:11Z</time>
      </trkpt>
      <trkpt lat="43.05305" lon="0.68421">
        <ele>458.6</ele>
        <time>2022-09-04T12:53:15Z</time>
      </trkpt>
      <trkpt lat="43.05309" lon="0.68413">
        <ele>458.8</ele>
        <time>2022-09-04T12:53:19Z</time>
      </trkpt>
      <trkpt lat="43.05311" lon="0.68409">
        <ele>459</ele>
        <time>2022-09-04T12:53:21Z</time>
      </trkpt>
      <trkpt lat="43.05312" lon="0.68407">
        <ele>459.2</ele>
        <time>2022-09-04T12:53:22Z</time>
      </trkpt>
      <trkpt lat="43.05313" lon="0.68391">
        <ele>459.6</ele>
        <time>2022-09-04T12:53:29Z</time>
      </trkpt>
      <trkpt lat="43.0531" lon="0.68375">
        <ele>459.8</ele>
        <time>2022-09-04T12:53:37Z</time>
      </trkpt>
      <trkpt lat="43.05314" lon="0.68376">
        <ele>460.4</ele>
        <time>2022-09-04T12:57:47Z</time>
      </trkpt>
      <trkpt lat="43.05315" lon="0.68389">
        <ele>460.4</ele>
        <time>2022-09-04T12:57:52Z</time>
      </trkpt>
      <trkpt lat="43.05312" lon="0.68415">
        <ele>460.2</ele>
        <time>2022-09-04T12:57:59Z</time>
      </trkpt>
      <trkpt lat="43.05308" lon="0.68419">
        <ele>460</ele>
        <time>2022-09-04T12:58:00Z</time>
      </trkpt>
      <trkpt lat="43.05299" lon="0.68425">
        <ele>459.6</ele>
        <time>2022-09-04T12:58:02Z</time>
      </trkpt>
      <trkpt lat="43.05293" lon="0.68427">
        <ele>459.2</ele>
        <time>2022-09-04T12:58:03Z</time>
      </trkpt>
      <trkpt lat="43.0527" lon="0.6844">
        <ele>458.4</ele>
        <time>2022-09-04T12:58:08Z</time>
      </trkpt>
      <trkpt lat="43.05265" lon="0.68442">
        <ele>458</ele>
        <time>2022-09-04T12:58:09Z</time>
      </trkpt>
      <trkpt lat="43.05255" lon="0.6844">
        <ele>456.8</ele>
        <time>2022-09-04T12:58:11Z</time>
      </trkpt>
      <trkpt lat="43.05251" lon="0.68436">
        <ele>456.2</ele>
        <time>2022-09-04T12:58:12Z</time>
      </trkpt>
      <trkpt lat="43.05247" lon="0.6843">
        <ele>455.8</ele>
        <time>2022-09-04T12:58:13Z</time>
      </trkpt>
      <trkpt lat="43.05243" lon="0.68424">
        <ele>455.4</ele>
        <time>2022-09-04T12:58:14Z</time>
      </trkpt>
      <trkpt lat="43.05235" lon="0.68413">
        <ele>454.8</ele>
        <time>2022-09-04T12:58:16Z</time>
      </trkpt>
      <trkpt lat="43.05232" lon="0.68409">
        <ele>454.6</ele>
        <time>2022-09-04T12:58:17Z</time>
      </trkpt>
      <trkpt lat="43.05224" lon="0.68399">
        <ele>453.8</ele>
        <time>2022-09-04T12:58:20Z</time>
      </trkpt>
      <trkpt lat="43.05217" lon="0.68393">
        <ele>453.4</ele>
        <time>2022-09-04T12:58:22Z</time>
      </trkpt>
      <trkpt lat="43.05215" lon="0.68388">
        <ele>453.2</ele>
        <time>2022-09-04T12:58:23Z</time>
      </trkpt>
      <trkpt lat="43.05212" lon="0.68382">
        <ele>453</ele>
        <time>2022-09-04T12:58:24Z</time>
      </trkpt>
      <trkpt lat="43.052" lon="0.68351">
        <ele>452.4</ele>
        <time>2022-09-04T12:58:29Z</time>
      </trkpt>
      <trkpt lat="43.05196" lon="0.68346">
        <ele>452.4</ele>
        <time>2022-09-04T12:58:30Z</time>
      </trkpt>
      <trkpt lat="43.0517" lon="0.68307">
        <ele>452.4</ele>
        <time>2022-09-04T12:58:37Z</time>
      </trkpt>
      <trkpt lat="43.05147" lon="0.68276">
        <ele>451.4</ele>
        <time>2022-09-04T12:58:44Z</time>
      </trkpt>
      <trkpt lat="43.05143" lon="0.68271">
        <ele>451</ele>
        <time>2022-09-04T12:58:45Z</time>
      </trkpt>
      <trkpt lat="43.05123" lon="0.6824">
        <ele>450.4</ele>
        <time>2022-09-04T12:58:51Z</time>
      </trkpt>
      <trkpt lat="43.05115" lon="0.68229">
        <ele>450</ele>
        <time>2022-09-04T12:58:53Z</time>
      </trkpt>
      <trkpt lat="43.05093" lon="0.68199">
        <ele>448.8</ele>
        <time>2022-09-04T12:58:58Z</time>
      </trkpt>
      <trkpt lat="43.05082" lon="0.68187">
        <ele>448.4</ele>
        <time>2022-09-04T12:59:00Z</time>
      </trkpt>
      <trkpt lat="43.05062" lon="0.6817">
        <ele>447.8</ele>
        <time>2022-09-04T12:59:03Z</time>
      </trkpt>
      <trkpt lat="43.05055" lon="0.68164">
        <ele>447.4</ele>
        <time>2022-09-04T12:59:04Z</time>
      </trkpt>
      <trkpt lat="43.05033" lon="0.6814">
        <ele>446.4</ele>
        <time>2022-09-04T12:59:08Z</time>
      </trkpt>
      <trkpt lat="43.05018" lon="0.68103">
        <ele>445.4</ele>
        <time>2022-09-04T12:59:13Z</time>
      </trkpt>
      <trkpt lat="43.05013" lon="0.68091">
        <ele>445.2</ele>
        <time>2022-09-04T12:59:15Z</time>
      </trkpt>
      <trkpt lat="43.05007" lon="0.68073">
        <ele>445.2</ele>
        <time>2022-09-04T12:59:18Z</time>
      </trkpt>
      <trkpt lat="43.04998" lon="0.68044">
        <ele>445.4</ele>
        <time>2022-09-04T12:59:24Z</time>
      </trkpt>
      <trkpt lat="43.0499" lon="0.68028">
        <ele>445.4</ele>
        <time>2022-09-04T12:59:30Z</time>
      </trkpt>
      <trkpt lat="43.04977" lon="0.68006">
        <ele>445.4</ele>
        <time>2022-09-04T12:59:37Z</time>
      </trkpt>
      <trkpt lat="43.04961" lon="0.67994">
        <ele>445.8</ele>
        <time>2022-09-04T12:59:42Z</time>
      </trkpt>
      <trkpt lat="43.04945" lon="0.6799">
        <ele>444.6</ele>
        <time>2022-09-04T12:59:48Z</time>
      </trkpt>
      <trkpt lat="43.0495" lon="0.6799">
        <ele>444.6</ele>
        <time>2022-09-04T13:00:00Z</time>
      </trkpt>
      <trkpt lat="43.04965" lon="0.67997">
        <ele>444.8</ele>
        <time>2022-09-04T13:00:07Z</time>
      </trkpt>
      <trkpt lat="43.04982" lon="0.68016">
        <ele>445.4</ele>
        <time>2022-09-04T13:00:16Z</time>
      </trkpt>
      <trkpt lat="43.0499" lon="0.68028">
        <ele>445.6</ele>
        <time>2022-09-04T13:00:22Z</time>
      </trkpt>
      <trkpt lat="43.04992" lon="0.68028">
        <ele>445.6</ele>
        <time>2022-09-04T13:00:23Z</time>
      </trkpt>
      <trkpt lat="43.04997" lon="0.68022">
        <ele>446</ele>
        <time>2022-09-04T13:00:28Z</time>
      </trkpt>
      <trkpt lat="43.04997" lon="0.6802">
        <ele>446.2</ele>
        <time>2022-09-04T13:00:29Z</time>
      </trkpt>
      <trkpt lat="43.04997" lon="0.68015">
        <ele>446.6</ele>
        <time>2022-09-04T13:00:31Z</time>
      </trkpt>
      <trkpt lat="43.04996" lon="0.68008">
        <ele>447</ele>
        <time>2022-09-04T13:00:34Z</time>
      </trkpt>
      <trkpt lat="43.04994" lon="0.67999">
        <ele>447.4</ele>
        <time>2022-09-04T13:00:39Z</time>
      </trkpt>
      <trkpt lat="43.04991" lon="0.67987">
        <ele>447.8</ele>
        <time>2022-09-04T13:00:44Z</time>
      </trkpt>
      <trkpt lat="43.04986" lon="0.67962">
        <ele>448</ele>
        <time>2022-09-04T13:00:52Z</time>
      </trkpt>
      <trkpt lat="43.04975" lon="0.67932">
        <ele>448</ele>
        <time>2022-09-04T13:01:01Z</time>
      </trkpt>
      <trkpt lat="43.04962" lon="0.67903">
        <ele>448.4</ele>
        <time>2022-09-04T13:01:09Z</time>
      </trkpt>
      <trkpt lat="43.0496" lon="0.679">
        <ele>448.4</ele>
        <time>2022-09-04T13:01:10Z</time>
      </trkpt>
      <trkpt lat="43.04948" lon="0.67866">
        <ele>448.8</ele>
        <time>2022-09-04T13:01:19Z</time>
      </trkpt>
      <trkpt lat="43.04942" lon="0.67834">
        <ele>448.8</ele>
        <time>2022-09-04T13:01:27Z</time>
      </trkpt>
      <trkpt lat="43.0494" lon="0.67796">
        <ele>449</ele>
        <time>2022-09-04T13:01:36Z</time>
      </trkpt>
      <trkpt lat="43.04936" lon="0.67781">
        <ele>449.6</ele>
        <time>2022-09-04T13:01:40Z</time>
      </trkpt>
      <trkpt lat="43.04932" lon="0.6777">
        <ele>450</ele>
        <time>2022-09-04T13:01:43Z</time>
      </trkpt>
      <trkpt lat="43.04919" lon="0.67753">
        <ele>450.6</ele>
        <time>2022-09-04T13:01:50Z</time>
      </trkpt>
      <trkpt lat="43.04917" lon="0.6775">
        <ele>450.6</ele>
        <time>2022-09-04T13:01:51Z</time>
      </trkpt>
      <trkpt lat="43.04904" lon="0.67728">
        <ele>451.2</ele>
        <time>2022-09-04T13:01:59Z</time>
      </trkpt>
      <trkpt lat="43.04896" lon="0.67697">
        <ele>451.4</ele>
        <time>2022-09-04T13:02:08Z</time>
      </trkpt>
      <trkpt lat="43.04891" lon="0.6768">
        <ele>451.6</ele>
        <time>2022-09-04T13:02:13Z</time>
      </trkpt>
      <trkpt lat="43.04886" lon="0.67663">
        <ele>452.2</ele>
        <time>2022-09-04T13:02:18Z</time>
      </trkpt>
      <trkpt lat="43.04883" lon="0.67649">
        <ele>452.8</ele>
        <time>2022-09-04T13:02:22Z</time>
      </trkpt>
      <trkpt lat="43.0488" lon="0.67636">
        <ele>453.2</ele>
        <time>2022-09-04T13:02:26Z</time>
      </trkpt>
      <trkpt lat="43.04878" lon="0.67609">
        <ele>453.8</ele>
        <time>2022-09-04T13:02:34Z</time>
      </trkpt>
      <trkpt lat="43.04877" lon="0.67599">
        <ele>454.2</ele>
        <time>2022-09-04T13:02:37Z</time>
      </trkpt>
      <trkpt lat="43.04874" lon="0.67581">
        <ele>454.6</ele>
        <time>2022-09-04T13:02:44Z</time>
      </trkpt>
      <trkpt lat="43.04873" lon="0.67565">
        <ele>454.6</ele>
        <time>2022-09-04T13:02:50Z</time>
      </trkpt>
      <trkpt lat="43.04867" lon="0.67537">
        <ele>454.8</ele>
        <time>2022-09-04T13:02:57Z</time>
      </trkpt>
      <trkpt lat="43.0486" lon="0.67509">
        <ele>455.2</ele>
        <time>2022-09-04T13:03:05Z</time>
      </trkpt>
      <trkpt lat="43.04856" lon="0.67479">
        <ele>456</ele>
        <time>2022-09-04T13:03:13Z</time>
      </trkpt>
      <trkpt lat="43.04855" lon="0.67454">
        <ele>456.8</ele>
        <time>2022-09-04T13:03:21Z</time>
      </trkpt>
      <trkpt lat="43.04856" lon="0.67447">
        <ele>457</ele>
        <time>2022-09-04T13:03:23Z</time>
      </trkpt>
      <trkpt lat="43.04856" lon="0.67433">
        <ele>457.6</ele>
        <time>2022-09-04T13:03:28Z</time>
      </trkpt>
      <trkpt lat="43.04855" lon="0.67426">
        <ele>458</ele>
        <time>2022-09-04T13:03:31Z</time>
      </trkpt>
      <trkpt lat="43.04855" lon="0.67416">
        <ele>459</ele>
        <time>2022-09-04T13:03:36Z</time>
      </trkpt>
      <trkpt lat="43.04853" lon="0.67409">
        <ele>460</ele>
        <time>2022-09-04T13:03:40Z</time>
      </trkpt>
      <trkpt lat="43.04851" lon="0.67404">
        <ele>460.6</ele>
        <time>2022-09-04T13:03:43Z</time>
      </trkpt>
      <trkpt lat="43.04851" lon="0.67397">
        <ele>461.2</ele>
        <time>2022-09-04T13:03:46Z</time>
      </trkpt>
      <trkpt lat="43.04849" lon="0.67394">
        <ele>461.6</ele>
        <time>2022-09-04T13:03:48Z</time>
      </trkpt>
      <trkpt lat="43.04846" lon="0.67387">
        <ele>462.4</ele>
        <time>2022-09-04T13:03:52Z</time>
      </trkpt>
      <trkpt lat="43.04845" lon="0.67378">
        <ele>462.8</ele>
        <time>2022-09-04T13:03:56Z</time>
      </trkpt>
      <trkpt lat="43.04845" lon="0.67374">
        <ele>462.8</ele>
        <time>2022-09-04T13:03:58Z</time>
      </trkpt>
      <trkpt lat="43.04843" lon="0.67366">
        <ele>463.4</ele>
        <time>2022-09-04T13:04:02Z</time>
      </trkpt>
      <trkpt lat="43.04838" lon="0.67344">
        <ele>464</ele>
        <time>2022-09-04T13:04:11Z</time>
      </trkpt>
      <trkpt lat="43.04833" lon="0.67325">
        <ele>464</ele>
        <time>2022-09-04T13:04:18Z</time>
      </trkpt>
      <trkpt lat="43.04829" lon="0.67303">
        <ele>463.8</ele>
        <time>2022-09-04T13:04:25Z</time>
      </trkpt>
      <trkpt lat="43.04825" lon="0.67285">
        <ele>463.6</ele>
        <time>2022-09-04T13:04:30Z</time>
      </trkpt>
      <trkpt lat="43.04824" lon="0.67258">
        <ele>463.6</ele>
        <time>2022-09-04T13:04:37Z</time>
      </trkpt>
      <trkpt lat="43.04821" lon="0.67238">
        <ele>463</ele>
        <time>2022-09-04T13:04:42Z</time>
      </trkpt>
      <trkpt lat="43.04822" lon="0.6722">
        <ele>463</ele>
        <time>2022-09-04T13:04:47Z</time>
      </trkpt>
      <trkpt lat="43.04829" lon="0.67213">
        <ele>463.6</ele>
        <time>2022-09-04T13:05:09Z</time>
      </trkpt>
      <trkpt lat="43.04842" lon="0.67208">
        <ele>464.4</ele>
        <time>2022-09-04T13:05:16Z</time>
      </trkpt>
      <trkpt lat="43.04844" lon="0.67208">
        <ele>464.6</ele>
        <time>2022-09-04T13:05:17Z</time>
      </trkpt>
      <trkpt lat="43.04857" lon="0.67204">
        <ele>465.4</ele>
        <time>2022-09-04T13:05:24Z</time>
      </trkpt>
      <trkpt lat="43.04869" lon="0.67199">
        <ele>466.4</ele>
        <time>2022-09-04T13:05:31Z</time>
      </trkpt>
      <trkpt lat="43.04871" lon="0.67198">
        <ele>466.6</ele>
        <time>2022-09-04T13:05:32Z</time>
      </trkpt>
      <trkpt lat="43.0488" lon="0.67194">
        <ele>467.4</ele>
        <time>2022-09-04T13:05:38Z</time>
      </trkpt>
      <trkpt lat="43.04883" lon="0.67193">
        <ele>467.6</ele>
        <time>2022-09-04T13:05:40Z</time>
      </trkpt>
      <trkpt lat="43.04889" lon="0.67189">
        <ele>468.2</ele>
        <time>2022-09-04T13:05:44Z</time>
      </trkpt>
      <trkpt lat="43.04891" lon="0.67186">
        <ele>468.4</ele>
        <time>2022-09-04T13:05:45Z</time>
      </trkpt>
      <trkpt lat="43.04895" lon="0.67181">
        <ele>468.6</ele>
        <time>2022-09-04T13:05:48Z</time>
      </trkpt>
      <trkpt lat="43.04896" lon="0.67172">
        <ele>469.2</ele>
        <time>2022-09-04T13:05:52Z</time>
      </trkpt>
      <trkpt lat="43.04889" lon="0.67159">
        <ele>468.8</ele>
        <time>2022-09-04T13:05:57Z</time>
      </trkpt>
      <trkpt lat="43.0487" lon="0.67142">
        <ele>468.6</ele>
        <time>2022-09-04T13:06:02Z</time>
      </trkpt>
      <trkpt lat="43.04842" lon="0.67121">
        <ele>469</ele>
        <time>2022-09-04T13:06:07Z</time>
      </trkpt>
      <trkpt lat="43.04817" lon="0.67103">
        <ele>467.4</ele>
        <time>2022-09-04T13:06:11Z</time>
      </trkpt>
      <trkpt lat="43.04792" lon="0.67087">
        <ele>467.4</ele>
        <time>2022-09-04T13:06:15Z</time>
      </trkpt>
      <trkpt lat="43.04775" lon="0.67076">
        <ele>466.4</ele>
        <time>2022-09-04T13:06:18Z</time>
      </trkpt>
      <trkpt lat="43.04772" lon="0.67068">
        <ele>466</ele>
        <time>2022-09-04T13:06:19Z</time>
      </trkpt>
      <trkpt lat="43.04769" lon="0.67048">
        <ele>466.2</ele>
        <time>2022-09-04T13:06:22Z</time>
      </trkpt>
      <trkpt lat="43.04766" lon="0.67024">
        <ele>466.6</ele>
        <time>2022-09-04T13:06:27Z</time>
      </trkpt>
      <trkpt lat="43.04761" lon="0.67001">
        <ele>467.2</ele>
        <time>2022-09-04T13:06:33Z</time>
      </trkpt>
      <trkpt lat="43.0476" lon="0.66993">
        <ele>467.4</ele>
        <time>2022-09-04T13:06:35Z</time>
      </trkpt>
      <trkpt lat="43.04758" lon="0.66971">
        <ele>468</ele>
        <time>2022-09-04T13:06:41Z</time>
      </trkpt>
      <trkpt lat="43.04753" lon="0.66943">
        <ele>468.2</ele>
        <time>2022-09-04T13:06:49Z</time>
      </trkpt>
      <trkpt lat="43.04751" lon="0.66924">
        <ele>468.4</ele>
        <time>2022-09-04T13:06:54Z</time>
      </trkpt>
      <trkpt lat="43.04751" lon="0.6692">
        <ele>468.6</ele>
        <time>2022-09-04T13:06:55Z</time>
      </trkpt>
      <trkpt lat="43.0475" lon="0.66888">
        <ele>469.2</ele>
        <time>2022-09-04T13:07:03Z</time>
      </trkpt>
      <trkpt lat="43.0475" lon="0.66881">
        <ele>469.6</ele>
        <time>2022-09-04T13:07:05Z</time>
      </trkpt>
      <trkpt lat="43.04748" lon="0.66868">
        <ele>469.8</ele>
        <time>2022-09-04T13:07:08Z</time>
      </trkpt>
      <trkpt lat="43.04741" lon="0.66844">
        <ele>470.2</ele>
        <time>2022-09-04T13:07:15Z</time>
      </trkpt>
      <trkpt lat="43.04739" lon="0.66837">
        <ele>469.8</ele>
        <time>2022-09-04T13:07:20Z</time>
      </trkpt>
      <trkpt lat="43.04736" lon="0.66829">
        <ele>470.2</ele>
        <time>2022-09-04T13:07:58Z</time>
      </trkpt>
      <trkpt lat="43.04735" lon="0.66826">
        <ele>470</ele>
        <time>2022-09-04T13:07:59Z</time>
      </trkpt>
      <trkpt lat="43.04731" lon="0.66813">
        <ele>470</ele>
        <time>2022-09-04T13:08:06Z</time>
      </trkpt>
      <trkpt lat="43.04729" lon="0.66805">
        <ele>470.4</ele>
        <time>2022-09-04T13:09:13Z</time>
      </trkpt>
      <trkpt lat="43.04728" lon="0.66802">
        <ele>470.4</ele>
        <time>2022-09-04T13:09:14Z</time>
      </trkpt>
      <trkpt lat="43.04726" lon="0.66792">
        <ele>470.6</ele>
        <time>2022-09-04T13:09:17Z</time>
      </trkpt>
      <trkpt lat="43.04721" lon="0.66774">
        <ele>471</ele>
        <time>2022-09-04T13:09:21Z</time>
      </trkpt>
      <trkpt lat="43.04712" lon="0.66741">
        <ele>471.4</ele>
        <time>2022-09-04T13:09:29Z</time>
      </trkpt>
      <trkpt lat="43.04707" lon="0.66726">
        <ele>471.6</ele>
        <time>2022-09-04T13:09:33Z</time>
      </trkpt>
      <trkpt lat="43.04703" lon="0.66714">
        <ele>471.8</ele>
        <time>2022-09-04T13:09:36Z</time>
      </trkpt>
      <trkpt lat="43.04693" lon="0.66682">
        <ele>472.4</ele>
        <time>2022-09-04T13:09:44Z</time>
      </trkpt>
      <trkpt lat="43.04689" lon="0.6667">
        <ele>472.6</ele>
        <time>2022-09-04T13:09:47Z</time>
      </trkpt>
      <trkpt lat="43.04682" lon="0.66645">
        <ele>473</ele>
        <time>2022-09-04T13:09:53Z</time>
      </trkpt>
      <trkpt lat="43.04669" lon="0.6661">
        <ele>473.6</ele>
        <time>2022-09-04T13:10:02Z</time>
      </trkpt>
      <trkpt lat="43.04656" lon="0.66581">
        <ele>473.6</ele>
        <time>2022-09-04T13:10:10Z</time>
      </trkpt>
      <trkpt lat="43.04653" lon="0.66574">
        <ele>473.6</ele>
        <time>2022-09-04T13:10:12Z</time>
      </trkpt>
      <trkpt lat="43.04646" lon="0.66553">
        <ele>474</ele>
        <time>2022-09-04T13:10:18Z</time>
      </trkpt>
      <trkpt lat="43.0464" lon="0.66525">
        <ele>474.6</ele>
        <time>2022-09-04T13:10:25Z</time>
      </trkpt>
      <trkpt lat="43.04637" lon="0.66502">
        <ele>475.2</ele>
        <time>2022-09-04T13:10:31Z</time>
      </trkpt>
      <trkpt lat="43.04634" lon="0.66469">
        <ele>475.6</ele>
        <time>2022-09-04T13:10:39Z</time>
      </trkpt>
      <trkpt lat="43.04634" lon="0.66438">
        <ele>475.8</ele>
        <time>2022-09-04T13:10:46Z</time>
      </trkpt>
      <trkpt lat="43.04635" lon="0.66398">
        <ele>476.4</ele>
        <time>2022-09-04T13:10:55Z</time>
      </trkpt>
      <trkpt lat="43.04632" lon="0.6636">
        <ele>476.6</ele>
        <time>2022-09-04T13:11:03Z</time>
      </trkpt>
      <trkpt lat="43.04629" lon="0.66326">
        <ele>476.4</ele>
        <time>2022-09-04T13:11:10Z</time>
      </trkpt>
      <trkpt lat="43.04623" lon="0.66277">
        <ele>476.6</ele>
        <time>2022-09-04T13:11:20Z</time>
      </trkpt>
      <trkpt lat="43.04612" lon="0.66242">
        <ele>476.8</ele>
        <time>2022-09-04T13:11:28Z</time>
      </trkpt>
      <trkpt lat="43.04594" lon="0.662">
        <ele>477.6</ele>
        <time>2022-09-04T13:11:38Z</time>
      </trkpt>
      <trkpt lat="43.04577" lon="0.66157">
        <ele>477.8</ele>
        <time>2022-09-04T13:11:48Z</time>
      </trkpt>
      <trkpt lat="43.04574" lon="0.66148">
        <ele>478</ele>
        <time>2022-09-04T13:11:50Z</time>
      </trkpt>
      <trkpt lat="43.04563" lon="0.66117">
        <ele>478.2</ele>
        <time>2022-09-04T13:11:57Z</time>
      </trkpt>
      <trkpt lat="43.04554" lon="0.66084">
        <ele>479</ele>
        <time>2022-09-04T13:12:05Z</time>
      </trkpt>
      <trkpt lat="43.04553" lon="0.66079">
        <ele>479.2</ele>
        <time>2022-09-04T13:12:06Z</time>
      </trkpt>
      <trkpt lat="43.04541" lon="0.66046">
        <ele>479.8</ele>
        <time>2022-09-04T13:12:15Z</time>
      </trkpt>
      <trkpt lat="43.04539" lon="0.66043">
        <ele>480.2</ele>
        <time>2022-09-04T13:12:16Z</time>
      </trkpt>
      <trkpt lat="43.04529" lon="0.66021">
        <ele>481</ele>
        <time>2022-09-04T13:12:23Z</time>
      </trkpt>
      <trkpt lat="43.04527" lon="0.66018">
        <ele>481.2</ele>
        <time>2022-09-04T13:12:24Z</time>
      </trkpt>
      <trkpt lat="43.04518" lon="0.66">
        <ele>482.2</ele>
        <time>2022-09-04T13:12:31Z</time>
      </trkpt>
      <trkpt lat="43.0451" lon="0.65988">
        <ele>482.8</ele>
        <time>2022-09-04T13:12:37Z</time>
      </trkpt>
      <trkpt lat="43.04505" lon="0.65979">
        <ele>483.2</ele>
        <time>2022-09-04T13:12:41Z</time>
      </trkpt>
      <trkpt lat="43.04502" lon="0.65975">
        <ele>483.4</ele>
        <time>2022-09-04T13:12:43Z</time>
      </trkpt>
      <trkpt lat="43.04492" lon="0.65962">
        <ele>484</ele>
        <time>2022-09-04T13:12:50Z</time>
      </trkpt>
      <trkpt lat="43.04476" lon="0.65955">
        <ele>483.8</ele>
        <time>2022-09-04T13:12:57Z</time>
      </trkpt>
      <trkpt lat="43.04469" lon="0.65949">
        <ele>483.6</ele>
        <time>2022-09-04T13:12:59Z</time>
      </trkpt>
      <trkpt lat="43.04465" lon="0.65938">
        <ele>483.2</ele>
        <time>2022-09-04T13:13:01Z</time>
      </trkpt>
      <trkpt lat="43.04462" lon="0.65926">
        <ele>483</ele>
        <time>2022-09-04T13:13:03Z</time>
      </trkpt>
      <trkpt lat="43.04459" lon="0.6591">
        <ele>483</ele>
        <time>2022-09-04T13:13:06Z</time>
      </trkpt>
      <trkpt lat="43.04456" lon="0.65871">
        <ele>482.8</ele>
        <time>2022-09-04T13:13:13Z</time>
      </trkpt>
      <trkpt lat="43.04449" lon="0.65816">
        <ele>483.2</ele>
        <time>2022-09-04T13:13:24Z</time>
      </trkpt>
      <trkpt lat="43.04444" lon="0.6579">
        <ele>483.6</ele>
        <time>2022-09-04T13:13:30Z</time>
      </trkpt>
      <trkpt lat="43.04433" lon="0.65756">
        <ele>483.2</ele>
        <time>2022-09-04T13:13:37Z</time>
      </trkpt>
      <trkpt lat="43.0443" lon="0.65751">
        <ele>483.2</ele>
        <time>2022-09-04T13:13:38Z</time>
      </trkpt>
      <trkpt lat="43.04422" lon="0.65743">
        <ele>483.2</ele>
        <time>2022-09-04T13:13:41Z</time>
      </trkpt>
      <trkpt lat="43.04412" lon="0.65737">
        <ele>483.6</ele>
        <time>2022-09-04T13:13:45Z</time>
      </trkpt>
      <trkpt lat="43.04407" lon="0.65733">
        <ele>483.6</ele>
        <time>2022-09-04T13:13:47Z</time>
      </trkpt>
      <trkpt lat="43.04396" lon="0.65715">
        <ele>483.4</ele>
        <time>2022-09-04T13:13:52Z</time>
      </trkpt>
      <trkpt lat="43.04382" lon="0.65692">
        <ele>483</ele>
        <time>2022-09-04T13:13:58Z</time>
      </trkpt>
      <trkpt lat="43.04371" lon="0.65675">
        <ele>483</ele>
        <time>2022-09-04T13:14:02Z</time>
      </trkpt>
      <trkpt lat="43.04366" lon="0.65663">
        <ele>482.8</ele>
        <time>2022-09-04T13:14:04Z</time>
      </trkpt>
      <trkpt lat="43.04355" lon="0.65624">
        <ele>482</ele>
        <time>2022-09-04T13:14:10Z</time>
      </trkpt>
      <trkpt lat="43.04353" lon="0.65618">
        <ele>481.8</ele>
        <time>2022-09-04T13:14:11Z</time>
      </trkpt>
      <trkpt lat="43.04339" lon="0.65575">
        <ele>481.8</ele>
        <time>2022-09-04T13:14:18Z</time>
      </trkpt>
      <trkpt lat="43.04336" lon="0.65558">
        <ele>482</ele>
        <time>2022-09-04T13:14:21Z</time>
      </trkpt>
      <trkpt lat="43.04333" lon="0.65533">
        <ele>481.4</ele>
        <time>2022-09-04T13:14:25Z</time>
      </trkpt>
      <trkpt lat="43.04326" lon="0.65486">
        <ele>482.2</ele>
        <time>2022-09-04T13:14:33Z</time>
      </trkpt>
      <trkpt lat="43.04322" lon="0.65463">
        <ele>481.8</ele>
        <time>2022-09-04T13:14:37Z</time>
      </trkpt>
      <trkpt lat="43.04318" lon="0.65445">
        <ele>482.4</ele>
        <time>2022-09-04T13:14:40Z</time>
      </trkpt>
      <trkpt lat="43.04306" lon="0.65387">
        <ele>483</ele>
        <time>2022-09-04T13:14:50Z</time>
      </trkpt>
      <trkpt lat="43.04302" lon="0.65371">
        <ele>483.2</ele>
        <time>2022-09-04T13:14:53Z</time>
      </trkpt>
      <trkpt lat="43.04294" lon="0.65345">
        <ele>483.2</ele>
        <time>2022-09-04T13:14:58Z</time>
      </trkpt>
      <trkpt lat="43.04291" lon="0.65335">
        <ele>483.4</ele>
        <time>2022-09-04T13:15:00Z</time>
      </trkpt>
      <trkpt lat="43.04284" lon="0.65316">
        <ele>483.4</ele>
        <time>2022-09-04T13:15:04Z</time>
      </trkpt>
      <trkpt lat="43.04279" lon="0.6529">
        <ele>483.4</ele>
        <time>2022-09-04T13:15:10Z</time>
      </trkpt>
      <trkpt lat="43.04273" lon="0.65265">
        <ele>484</ele>
        <time>2022-09-04T13:15:16Z</time>
      </trkpt>
      <trkpt lat="43.04264" lon="0.65231">
        <ele>484</ele>
        <time>2022-09-04T13:15:23Z</time>
      </trkpt>
      <trkpt lat="43.04256" lon="0.65205">
        <ele>484.2</ele>
        <time>2022-09-04T13:15:28Z</time>
      </trkpt>
      <trkpt lat="43.04255" lon="0.652">
        <ele>484.4</ele>
        <time>2022-09-04T13:15:29Z</time>
      </trkpt>
      <trkpt lat="43.04245" lon="0.65163">
        <ele>485.2</ele>
        <time>2022-09-04T13:15:37Z</time>
      </trkpt>
      <trkpt lat="43.04234" lon="0.65122">
        <ele>485</ele>
        <time>2022-09-04T13:15:46Z</time>
      </trkpt>
      <trkpt lat="43.04226" lon="0.65096">
        <ele>485.4</ele>
        <time>2022-09-04T13:15:52Z</time>
      </trkpt>
      <trkpt lat="43.04225" lon="0.65091">
        <ele>485.4</ele>
        <time>2022-09-04T13:15:53Z</time>
      </trkpt>
      <trkpt lat="43.04213" lon="0.65056">
        <ele>485.8</ele>
        <time>2022-09-04T13:16:01Z</time>
      </trkpt>
      <trkpt lat="43.04202" lon="0.65028">
        <ele>485.4</ele>
        <time>2022-09-04T13:16:08Z</time>
      </trkpt>
      <trkpt lat="43.04195" lon="0.65008">
        <ele>485.6</ele>
        <time>2022-09-04T13:16:13Z</time>
      </trkpt>
      <trkpt lat="43.04185" lon="0.6498">
        <ele>485.6</ele>
        <time>2022-09-04T13:16:20Z</time>
      </trkpt>
      <trkpt lat="43.04176" lon="0.64957">
        <ele>485.6</ele>
        <time>2022-09-04T13:16:26Z</time>
      </trkpt>
      <trkpt lat="43.04163" lon="0.64917">
        <ele>486.2</ele>
        <time>2022-09-04T13:16:35Z</time>
      </trkpt>
      <trkpt lat="43.04153" lon="0.64884">
        <ele>486</ele>
        <time>2022-09-04T13:16:43Z</time>
      </trkpt>
      <trkpt lat="43.04144" lon="0.64853">
        <ele>486.2</ele>
        <time>2022-09-04T13:16:51Z</time>
      </trkpt>
      <trkpt lat="43.04139" lon="0.64838">
        <ele>486.4</ele>
        <time>2022-09-04T13:16:55Z</time>
      </trkpt>
      <trkpt lat="43.04135" lon="0.64824">
        <ele>486.4</ele>
        <time>2022-09-04T13:17:00Z</time>
      </trkpt>
      <trkpt lat="43.04132" lon="0.64808">
        <ele>486.6</ele>
        <time>2022-09-04T13:17:07Z</time>
      </trkpt>
      <trkpt lat="43.0413" lon="0.64796">
        <ele>488.4</ele>
        <time>2022-09-04T13:22:18Z</time>
      </trkpt>
      <trkpt lat="43.0413" lon="0.64794">
        <ele>488.6</ele>
        <time>2022-09-04T13:22:19Z</time>
      </trkpt>
      <trkpt lat="43.04128" lon="0.6479">
        <ele>488.6</ele>
        <time>2022-09-04T13:22:21Z</time>
      </trkpt>
      <trkpt lat="43.04122" lon="0.64788">
        <ele>489.2</ele>
        <time>2022-09-04T13:22:24Z</time>
      </trkpt>
      <trkpt lat="43.04115" lon="0.64796">
        <ele>489</ele>
        <time>2022-09-04T13:22:28Z</time>
      </trkpt>
      <trkpt lat="43.04113" lon="0.64798">
        <ele>489</ele>
        <time>2022-09-04T13:22:29Z</time>
      </trkpt>
      <trkpt lat="43.04098" lon="0.64817">
        <ele>489.2</ele>
        <time>2022-09-04T13:22:36Z</time>
      </trkpt>
      <trkpt lat="43.04087" lon="0.64828">
        <ele>489.4</ele>
        <time>2022-09-04T13:22:41Z</time>
      </trkpt>
      <trkpt lat="43.04081" lon="0.64837">
        <ele>489.4</ele>
        <time>2022-09-04T13:22:44Z</time>
      </trkpt>
      <trkpt lat="43.0407" lon="0.64862">
        <ele>489.6</ele>
        <time>2022-09-04T13:22:51Z</time>
      </trkpt>
      <trkpt lat="43.04061" lon="0.64888">
        <ele>489.8</ele>
        <time>2022-09-04T13:22:58Z</time>
      </trkpt>
      <trkpt lat="43.04045" lon="0.64928">
        <ele>490</ele>
        <time>2022-09-04T13:23:08Z</time>
      </trkpt>
      <trkpt lat="43.04031" lon="0.64959">
        <ele>490.2</ele>
        <time>2022-09-04T13:23:16Z</time>
      </trkpt>
      <trkpt lat="43.04023" lon="0.64974">
        <ele>490.6</ele>
        <time>2022-09-04T13:23:20Z</time>
      </trkpt>
      <trkpt lat="43.0401" lon="0.64991">
        <ele>491</ele>
        <time>2022-09-04T13:23:26Z</time>
      </trkpt>
      <trkpt lat="43.04" lon="0.65">
        <ele>491.6</ele>
        <time>2022-09-04T13:23:30Z</time>
      </trkpt>
      <trkpt lat="43.0399" lon="0.65004">
        <ele>492.4</ele>
        <time>2022-09-04T13:23:34Z</time>
      </trkpt>
      <trkpt lat="43.03984" lon="0.65006">
        <ele>492.6</ele>
        <time>2022-09-04T13:23:37Z</time>
      </trkpt>
      <trkpt lat="43.03974" lon="0.65005">
        <ele>493.4</ele>
        <time>2022-09-04T13:23:41Z</time>
      </trkpt>
      <trkpt lat="43.0397" lon="0.65003">
        <ele>493.6</ele>
        <time>2022-09-04T13:23:43Z</time>
      </trkpt>
      <trkpt lat="43.03958" lon="0.65">
        <ele>494.6</ele>
        <time>2022-09-04T13:23:49Z</time>
      </trkpt>
      <trkpt lat="43.03957" lon="0.64999">
        <ele>494.8</ele>
        <time>2022-09-04T13:23:50Z</time>
      </trkpt>
      <trkpt lat="43.0395" lon="0.64991">
        <ele>495.4</ele>
        <time>2022-09-04T13:23:55Z</time>
      </trkpt>
      <trkpt lat="43.0395" lon="0.64979">
        <ele>495.2</ele>
        <time>2022-09-04T13:23:59Z</time>
      </trkpt>
      <trkpt lat="43.03957" lon="0.64946">
        <ele>494.6</ele>
        <time>2022-09-04T13:24:06Z</time>
      </trkpt>
      <trkpt lat="43.03963" lon="0.64903">
        <ele>494.4</ele>
        <time>2022-09-04T13:24:13Z</time>
      </trkpt>
      <trkpt lat="43.03968" lon="0.64847">
        <ele>494</ele>
        <time>2022-09-04T13:24:21Z</time>
      </trkpt>
      <trkpt lat="43.03969" lon="0.64797">
        <ele>494</ele>
        <time>2022-09-04T13:24:28Z</time>
      </trkpt>
      <trkpt lat="43.03969" lon="0.64724">
        <ele>493.6</ele>
        <time>2022-09-04T13:24:38Z</time>
      </trkpt>
      <trkpt lat="43.03969" lon="0.64717">
        <ele>493.6</ele>
        <time>2022-09-04T13:24:39Z</time>
      </trkpt>
      <trkpt lat="43.0397" lon="0.64656">
        <ele>492.6</ele>
        <time>2022-09-04T13:24:47Z</time>
      </trkpt>
      <trkpt lat="43.0397" lon="0.64582">
        <ele>492.2</ele>
        <time>2022-09-04T13:24:56Z</time>
      </trkpt>
      <trkpt lat="43.03969" lon="0.64507">
        <ele>492</ele>
        <time>2022-09-04T13:25:05Z</time>
      </trkpt>
      <trkpt lat="43.03967" lon="0.64445">
        <ele>492.4</ele>
        <time>2022-09-04T13:25:13Z</time>
      </trkpt>
      <trkpt lat="43.03964" lon="0.64379">
        <ele>492.8</ele>
        <time>2022-09-04T13:25:22Z</time>
      </trkpt>
      <trkpt lat="43.03962" lon="0.64333">
        <ele>493.8</ele>
        <time>2022-09-04T13:25:29Z</time>
      </trkpt>
      <trkpt lat="43.03962" lon="0.64321">
        <ele>493.8</ele>
        <time>2022-09-04T13:25:31Z</time>
      </trkpt>
      <trkpt lat="43.03962" lon="0.64266">
        <ele>494</ele>
        <time>2022-09-04T13:25:40Z</time>
      </trkpt>
      <trkpt lat="43.03963" lon="0.64241">
        <ele>494.4</ele>
        <time>2022-09-04T13:25:44Z</time>
      </trkpt>
      <trkpt lat="43.03964" lon="0.64218">
        <ele>494.8</ele>
        <time>2022-09-04T13:25:48Z</time>
      </trkpt>
      <trkpt lat="43.0397" lon="0.64166">
        <ele>495.2</ele>
        <time>2022-09-04T13:25:57Z</time>
      </trkpt>
      <trkpt lat="43.03976" lon="0.64135">
        <ele>496</ele>
        <time>2022-09-04T13:26:03Z</time>
      </trkpt>
      <trkpt lat="43.03977" lon="0.64124">
        <ele>496</ele>
        <time>2022-09-04T13:26:05Z</time>
      </trkpt>
      <trkpt lat="43.03985" lon="0.64093">
        <ele>496.6</ele>
        <time>2022-09-04T13:26:12Z</time>
      </trkpt>
      <trkpt lat="43.03992" lon="0.64067">
        <ele>496.8</ele>
        <time>2022-09-04T13:26:18Z</time>
      </trkpt>
      <trkpt lat="43.03993" lon="0.64063">
        <ele>497</ele>
        <time>2022-09-04T13:26:19Z</time>
      </trkpt>
      <trkpt lat="43.03997" lon="0.64034">
        <ele>497.4</ele>
        <time>2022-09-04T13:26:25Z</time>
      </trkpt>
      <trkpt lat="43.04001" lon="0.64005">
        <ele>497.8</ele>
        <time>2022-09-04T13:26:31Z</time>
      </trkpt>
      <trkpt lat="43.04003" lon="0.63983">
        <ele>498</ele>
        <time>2022-09-04T13:26:35Z</time>
      </trkpt>
      <trkpt lat="43.04004" lon="0.63971">
        <ele>498</ele>
        <time>2022-09-04T13:26:37Z</time>
      </trkpt>
      <trkpt lat="43.04003" lon="0.63925">
        <ele>498.8</ele>
        <time>2022-09-04T13:26:45Z</time>
      </trkpt>
      <trkpt lat="43.04003" lon="0.63887">
        <ele>499</ele>
        <time>2022-09-04T13:26:53Z</time>
      </trkpt>
      <trkpt lat="43.04003" lon="0.63882">
        <ele>499</ele>
        <time>2022-09-04T13:26:54Z</time>
      </trkpt>
      <trkpt lat="43.04" lon="0.63855">
        <ele>500</ele>
        <time>2022-09-04T13:27:00Z</time>
      </trkpt>
      <trkpt lat="43.03995" lon="0.63827">
        <ele>501</ele>
        <time>2022-09-04T13:27:07Z</time>
      </trkpt>
      <trkpt lat="43.03993" lon="0.6382">
        <ele>501.4</ele>
        <time>2022-09-04T13:27:09Z</time>
      </trkpt>
      <trkpt lat="43.03987" lon="0.63793">
        <ele>502.2</ele>
        <time>2022-09-04T13:27:16Z</time>
      </trkpt>
      <trkpt lat="43.03977" lon="0.63761">
        <ele>503.2</ele>
        <time>2022-09-04T13:27:25Z</time>
      </trkpt>
      <trkpt lat="43.03968" lon="0.63736">
        <ele>504</ele>
        <time>2022-09-04T13:27:32Z</time>
      </trkpt>
      <trkpt lat="43.03966" lon="0.63729">
        <ele>504.2</ele>
        <time>2022-09-04T13:27:34Z</time>
      </trkpt>
      <trkpt lat="43.0396" lon="0.63711">
        <ele>504.4</ele>
        <time>2022-09-04T13:27:39Z</time>
      </trkpt>
      <trkpt lat="43.03951" lon="0.63681">
        <ele>504.8</ele>
        <time>2022-09-04T13:27:46Z</time>
      </trkpt>
      <trkpt lat="43.03941" lon="0.63647">
        <ele>505</ele>
        <time>2022-09-04T13:27:54Z</time>
      </trkpt>
      <trkpt lat="43.03928" lon="0.63616">
        <ele>505</ele>
        <time>2022-09-04T13:28:01Z</time>
      </trkpt>
      <trkpt lat="43.03915" lon="0.63594">
        <ele>504.8</ele>
        <time>2022-09-04T13:28:06Z</time>
      </trkpt>
      <trkpt lat="43.03911" lon="0.63589">
        <ele>504.6</ele>
        <time>2022-09-04T13:28:07Z</time>
      </trkpt>
      <trkpt lat="43.03879" lon="0.63559">
        <ele>504.4</ele>
        <time>2022-09-04T13:28:15Z</time>
      </trkpt>
      <trkpt lat="43.03839" lon="0.63532">
        <ele>504.8</ele>
        <time>2022-09-04T13:28:25Z</time>
      </trkpt>
      <trkpt lat="43.03807" lon="0.63503">
        <ele>505.2</ele>
        <time>2022-09-04T13:28:34Z</time>
      </trkpt>
      <trkpt lat="43.03804" lon="0.63499">
        <ele>505.4</ele>
        <time>2022-09-04T13:28:35Z</time>
      </trkpt>
      <trkpt lat="43.03785" lon="0.63468">
        <ele>506</ele>
        <time>2022-09-04T13:28:42Z</time>
      </trkpt>
      <trkpt lat="43.03775" lon="0.63444">
        <ele>506.4</ele>
        <time>2022-09-04T13:28:47Z</time>
      </trkpt>
      <trkpt lat="43.03767" lon="0.63426">
        <ele>506.8</ele>
        <time>2022-09-04T13:28:51Z</time>
      </trkpt>
      <trkpt lat="43.03752" lon="0.6339">
        <ele>507.4</ele>
        <time>2022-09-04T13:28:59Z</time>
      </trkpt>
      <trkpt lat="43.0375" lon="0.63385">
        <ele>507.4</ele>
        <time>2022-09-04T13:29:00Z</time>
      </trkpt>
      <trkpt lat="43.03736" lon="0.63354">
        <ele>507.8</ele>
        <time>2022-09-04T13:29:07Z</time>
      </trkpt>
      <trkpt lat="43.03722" lon="0.63328">
        <ele>508.6</ele>
        <time>2022-09-04T13:29:14Z</time>
      </trkpt>
      <trkpt lat="43.0371" lon="0.63307">
        <ele>509</ele>
        <time>2022-09-04T13:29:20Z</time>
      </trkpt>
      <trkpt lat="43.037" lon="0.63289">
        <ele>509.6</ele>
        <time>2022-09-04T13:29:26Z</time>
      </trkpt>
      <trkpt lat="43.03698" lon="0.63286">
        <ele>509.8</ele>
        <time>2022-09-04T13:29:27Z</time>
      </trkpt>
      <trkpt lat="43.03686" lon="0.63266">
        <ele>510.8</ele>
        <time>2022-09-04T13:29:34Z</time>
      </trkpt>
      <trkpt lat="43.03685" lon="0.63263">
        <ele>511</ele>
        <time>2022-09-04T13:29:35Z</time>
      </trkpt>
      <trkpt lat="43.03675" lon="0.63249">
        <ele>511.6</ele>
        <time>2022-09-04T13:29:41Z</time>
      </trkpt>
      <trkpt lat="43.03673" lon="0.63246">
        <ele>511.8</ele>
        <time>2022-09-04T13:29:42Z</time>
      </trkpt>
      <trkpt lat="43.03666" lon="0.63234">
        <ele>512.6</ele>
        <time>2022-09-04T13:29:47Z</time>
      </trkpt>
      <trkpt lat="43.03661" lon="0.63225">
        <ele>513</ele>
        <time>2022-09-04T13:29:51Z</time>
      </trkpt>
      <trkpt lat="43.03656" lon="0.63218">
        <ele>513.6</ele>
        <time>2022-09-04T13:29:54Z</time>
      </trkpt>
      <trkpt lat="43.03652" lon="0.63212">
        <ele>514</ele>
        <time>2022-09-04T13:29:57Z</time>
      </trkpt>
      <trkpt lat="43.03649" lon="0.63208">
        <ele>514.4</ele>
        <time>2022-09-04T13:29:59Z</time>
      </trkpt>
      <trkpt lat="43.03643" lon="0.63201">
        <ele>515.2</ele>
        <time>2022-09-04T13:30:03Z</time>
      </trkpt>
      <trkpt lat="43.03639" lon="0.63198">
        <ele>515.6</ele>
        <time>2022-09-04T13:30:05Z</time>
      </trkpt>
      <trkpt lat="43.03631" lon="0.63187">
        <ele>516.2</ele>
        <time>2022-09-04T13:30:10Z</time>
      </trkpt>
      <trkpt lat="43.03625" lon="0.63179">
        <ele>516.8</ele>
        <time>2022-09-04T13:30:14Z</time>
      </trkpt>
      <trkpt lat="43.03625" lon="0.63177">
        <ele>516.8</ele>
        <time>2022-09-04T13:30:15Z</time>
      </trkpt>
      <trkpt lat="43.03624" lon="0.63171">
        <ele>517.2</ele>
        <time>2022-09-04T13:30:17Z</time>
      </trkpt>
      <trkpt lat="43.03622" lon="0.63166">
        <ele>517.4</ele>
        <time>2022-09-04T13:30:19Z</time>
      </trkpt>
      <trkpt lat="43.03618" lon="0.63159">
        <ele>517.6</ele>
        <time>2022-09-04T13:30:22Z</time>
      </trkpt>
      <trkpt lat="43.03615" lon="0.63155">
        <ele>517.8</ele>
        <time>2022-09-04T13:30:24Z</time>
      </trkpt>
      <trkpt lat="43.03608" lon="0.63143">
        <ele>518.4</ele>
        <time>2022-09-04T13:30:29Z</time>
      </trkpt>
      <trkpt lat="43.03607" lon="0.63141">
        <ele>518.4</ele>
        <time>2022-09-04T13:30:30Z</time>
      </trkpt>
      <trkpt lat="43.03606" lon="0.63138">
        <ele>518.6</ele>
        <time>2022-09-04T13:30:31Z</time>
      </trkpt>
      <trkpt lat="43.03603" lon="0.63131">
        <ele>519</ele>
        <time>2022-09-04T13:30:34Z</time>
      </trkpt>
      <trkpt lat="43.036" lon="0.63124">
        <ele>519.2</ele>
        <time>2022-09-04T13:30:37Z</time>
      </trkpt>
      <trkpt lat="43.03599" lon="0.63122">
        <ele>519.4</ele>
        <time>2022-09-04T13:30:38Z</time>
      </trkpt>
      <trkpt lat="43.03597" lon="0.63118">
        <ele>519.6</ele>
        <time>2022-09-04T13:30:40Z</time>
      </trkpt>
      <trkpt lat="43.03595" lon="0.63116">
        <ele>519.8</ele>
        <time>2022-09-04T13:30:41Z</time>
      </trkpt>
      <trkpt lat="43.03586" lon="0.63101">
        <ele>520</ele>
        <time>2022-09-04T13:30:49Z</time>
      </trkpt>
      <trkpt lat="43.03581" lon="0.6309">
        <ele>520.2</ele>
        <time>2022-09-04T13:30:53Z</time>
      </trkpt>
      <trkpt lat="43.0358" lon="0.63087">
        <ele>520.2</ele>
        <time>2022-09-04T13:30:54Z</time>
      </trkpt>
      <trkpt lat="43.03569" lon="0.6307">
        <ele>520.2</ele>
        <time>2022-09-04T13:31:00Z</time>
      </trkpt>
      <trkpt lat="43.03562" lon="0.63055">
        <ele>520.4</ele>
        <time>2022-09-04T13:31:05Z</time>
      </trkpt>
      <trkpt lat="43.0356" lon="0.63052">
        <ele>520.6</ele>
        <time>2022-09-04T13:31:06Z</time>
      </trkpt>
      <trkpt lat="43.03549" lon="0.63028">
        <ele>520.8</ele>
        <time>2022-09-04T13:31:13Z</time>
      </trkpt>
      <trkpt lat="43.03541" lon="0.63007">
        <ele>521.4</ele>
        <time>2022-09-04T13:31:19Z</time>
      </trkpt>
      <trkpt lat="43.0354" lon="0.63004">
        <ele>521.6</ele>
        <time>2022-09-04T13:31:20Z</time>
      </trkpt>
      <trkpt lat="43.03535" lon="0.62991">
        <ele>522.4</ele>
        <time>2022-09-04T13:31:25Z</time>
      </trkpt>
      <trkpt lat="43.03535" lon="0.62986">
        <ele>522.6</ele>
        <time>2022-09-04T13:31:27Z</time>
      </trkpt>
      <trkpt lat="43.03534" lon="0.62976">
        <ele>523.2</ele>
        <time>2022-09-04T13:31:31Z</time>
      </trkpt>
      <trkpt lat="43.03534" lon="0.62972">
        <ele>523.8</ele>
        <time>2022-09-04T13:31:33Z</time>
      </trkpt>
      <trkpt lat="43.03534" lon="0.62963">
        <ele>524.2</ele>
        <time>2022-09-04T13:31:37Z</time>
      </trkpt>
      <trkpt lat="43.03534" lon="0.62954">
        <ele>524.8</ele>
        <time>2022-09-04T13:31:41Z</time>
      </trkpt>
      <trkpt lat="43.03534" lon="0.62946">
        <ele>525</ele>
        <time>2022-09-04T13:31:44Z</time>
      </trkpt>
      <trkpt lat="43.03531" lon="0.62934">
        <ele>525.8</ele>
        <time>2022-09-04T13:31:49Z</time>
      </trkpt>
      <trkpt lat="43.0353" lon="0.62931">
        <ele>526</ele>
        <time>2022-09-04T13:31:50Z</time>
      </trkpt>
      <trkpt lat="43.03531" lon="0.62919">
        <ele>526.6</ele>
        <time>2022-09-04T13:31:55Z</time>
      </trkpt>
      <trkpt lat="43.0353" lon="0.62913">
        <ele>527</ele>
        <time>2022-09-04T13:31:57Z</time>
      </trkpt>
      <trkpt lat="43.03525" lon="0.62899">
        <ele>527.4</ele>
        <time>2022-09-04T13:32:01Z</time>
      </trkpt>
      <trkpt lat="43.03518" lon="0.62884">
        <ele>528</ele>
        <time>2022-09-04T13:32:05Z</time>
      </trkpt>
      <trkpt lat="43.03517" lon="0.62881">
        <ele>528.2</ele>
        <time>2022-09-04T13:32:06Z</time>
      </trkpt>
      <trkpt lat="43.03517" lon="0.62878">
        <ele>528.2</ele>
        <time>2022-09-04T13:32:07Z</time>
      </trkpt>
      <trkpt lat="43.0351" lon="0.6286">
        <ele>528.6</ele>
        <time>2022-09-04T13:32:13Z</time>
      </trkpt>
      <trkpt lat="43.03505" lon="0.62837">
        <ele>528</ele>
        <time>2022-09-04T13:32:18Z</time>
      </trkpt>
      <trkpt lat="43.03503" lon="0.62832">
        <ele>527.8</ele>
        <time>2022-09-04T13:32:19Z</time>
      </trkpt>
      <trkpt lat="43.03495" lon="0.62816">
        <ele>526.8</ele>
        <time>2022-09-04T13:32:22Z</time>
      </trkpt>
      <trkpt lat="43.03492" lon="0.62811">
        <ele>526.4</ele>
        <time>2022-09-04T13:32:23Z</time>
      </trkpt>
      <trkpt lat="43.03489" lon="0.62805">
        <ele>525.8</ele>
        <time>2022-09-04T13:32:25Z</time>
      </trkpt>
      <trkpt lat="43.03481" lon="0.62793">
        <ele>525</ele>
        <time>2022-09-04T13:33:33Z</time>
      </trkpt>
      <trkpt lat="43.03475" lon="0.62783">
        <ele>524.6</ele>
        <time>2022-09-04T13:33:35Z</time>
      </trkpt>
      <trkpt lat="43.03468" lon="0.6277">
        <ele>524.2</ele>
        <time>2022-09-04T13:33:37Z</time>
      </trkpt>
      <trkpt lat="43.03462" lon="0.62754">
        <ele>523.6</ele>
        <time>2022-09-04T13:33:39Z</time>
      </trkpt>
      <trkpt lat="43.03454" lon="0.62726">
        <ele>522.4</ele>
        <time>2022-09-04T13:33:42Z</time>
      </trkpt>
      <trkpt lat="43.03452" lon="0.62716">
        <ele>522</ele>
        <time>2022-09-04T13:33:43Z</time>
      </trkpt>
      <trkpt lat="43.0345" lon="0.62705">
        <ele>521.4</ele>
        <time>2022-09-04T13:33:44Z</time>
      </trkpt>
      <trkpt lat="43.03448" lon="0.62694">
        <ele>520.8</ele>
        <time>2022-09-04T13:33:45Z</time>
      </trkpt>
      <trkpt lat="43.03445" lon="0.62683">
        <ele>520.2</ele>
        <time>2022-09-04T13:33:46Z</time>
      </trkpt>
      <trkpt lat="43.03441" lon="0.62672">
        <ele>520</ele>
        <time>2022-09-04T13:33:47Z</time>
      </trkpt>
      <trkpt lat="43.03424" lon="0.62628">
        <ele>518.8</ele>
        <time>2022-09-04T13:33:51Z</time>
      </trkpt>
      <trkpt lat="43.03415" lon="0.62608">
        <ele>517.2</ele>
        <time>2022-09-04T13:33:53Z</time>
      </trkpt>
      <trkpt lat="43.03411" lon="0.62599">
        <ele>515.4</ele>
        <time>2022-09-04T13:33:54Z</time>
      </trkpt>
      <trkpt lat="43.03404" lon="0.62585">
        <ele>513.4</ele>
        <time>2022-09-04T13:33:56Z</time>
      </trkpt>
      <trkpt lat="43.03401" lon="0.6258">
        <ele>512.6</ele>
        <time>2022-09-04T13:33:57Z</time>
      </trkpt>
      <trkpt lat="43.03399" lon="0.62577">
        <ele>512.2</ele>
        <time>2022-09-04T13:33:58Z</time>
      </trkpt>
      <trkpt lat="43.03396" lon="0.62571">
        <ele>511.8</ele>
        <time>2022-09-04T13:34:00Z</time>
      </trkpt>
      <trkpt lat="43.03377" lon="0.62564">
        <ele>511.2</ele>
        <time>2022-09-04T13:34:05Z</time>
      </trkpt>
      <trkpt lat="43.03365" lon="0.62562">
        <ele>510.2</ele>
        <time>2022-09-04T13:34:08Z</time>
      </trkpt>
      <trkpt lat="43.0336" lon="0.6256">
        <ele>509.8</ele>
        <time>2022-09-04T13:34:09Z</time>
      </trkpt>
      <trkpt lat="43.03356" lon="0.62554">
        <ele>509.4</ele>
        <time>2022-09-04T13:34:10Z</time>
      </trkpt>
      <trkpt lat="43.03348" lon="0.6254">
        <ele>508.8</ele>
        <time>2022-09-04T13:34:12Z</time>
      </trkpt>
      <trkpt lat="43.03337" lon="0.62527">
        <ele>508</ele>
        <time>2022-09-04T13:34:14Z</time>
      </trkpt>
      <trkpt lat="43.03333" lon="0.62521">
        <ele>507.6</ele>
        <time>2022-09-04T13:34:15Z</time>
      </trkpt>
      <trkpt lat="43.03329" lon="0.62515">
        <ele>507</ele>
        <time>2022-09-04T13:34:16Z</time>
      </trkpt>
      <trkpt lat="43.03325" lon="0.62508">
        <ele>506.2</ele>
        <time>2022-09-04T13:34:17Z</time>
      </trkpt>
      <trkpt lat="43.03322" lon="0.62502">
        <ele>505.2</ele>
        <time>2022-09-04T13:34:18Z</time>
      </trkpt>
      <trkpt lat="43.03308" lon="0.6248">
        <ele>504.8</ele>
        <time>2022-09-04T13:34:22Z</time>
      </trkpt>
      <trkpt lat="43.03303" lon="0.62469">
        <ele>504.8</ele>
        <time>2022-09-04T13:34:24Z</time>
      </trkpt>
      <trkpt lat="43.03292" lon="0.62435">
        <ele>504.4</ele>
        <time>2022-09-04T13:34:30Z</time>
      </trkpt>
      <trkpt lat="43.0329" lon="0.6243">
        <ele>504.4</ele>
        <time>2022-09-04T13:34:31Z</time>
      </trkpt>
      <trkpt lat="43.03286" lon="0.62419">
        <ele>504</ele>
        <time>2022-09-04T13:34:33Z</time>
      </trkpt>
      <trkpt lat="43.03284" lon="0.62407">
        <ele>503.8</ele>
        <time>2022-09-04T13:34:35Z</time>
      </trkpt>
      <trkpt lat="43.03282" lon="0.62392">
        <ele>503.4</ele>
        <time>2022-09-04T13:34:37Z</time>
      </trkpt>
      <trkpt lat="43.03281" lon="0.62384">
        <ele>503</ele>
        <time>2022-09-04T13:34:38Z</time>
      </trkpt>
      <trkpt lat="43.03281" lon="0.62375">
        <ele>502.6</ele>
        <time>2022-09-04T13:34:39Z</time>
      </trkpt>
      <trkpt lat="43.03282" lon="0.62356">
        <ele>502</ele>
        <time>2022-09-04T13:34:41Z</time>
      </trkpt>
      <trkpt lat="43.03283" lon="0.62348">
        <ele>500.8</ele>
        <time>2022-09-04T13:34:42Z</time>
      </trkpt>
      <trkpt lat="43.03284" lon="0.62332">
        <ele>499.4</ele>
        <time>2022-09-04T13:34:44Z</time>
      </trkpt>
      <trkpt lat="43.03286" lon="0.6232">
        <ele>498</ele>
        <time>2022-09-04T13:34:46Z</time>
      </trkpt>
      <trkpt lat="43.03285" lon="0.62308">
        <ele>497.2</ele>
        <time>2022-09-04T13:34:48Z</time>
      </trkpt>
      <trkpt lat="43.03284" lon="0.62303">
        <ele>496.8</ele>
        <time>2022-09-04T13:34:49Z</time>
      </trkpt>
      <trkpt lat="43.03282" lon="0.62284">
        <ele>495.6</ele>
        <time>2022-09-04T13:34:52Z</time>
      </trkpt>
      <trkpt lat="43.0328" lon="0.62277">
        <ele>495.2</ele>
        <time>2022-09-04T13:34:53Z</time>
      </trkpt>
      <trkpt lat="43.03276" lon="0.62261">
        <ele>494.2</ele>
        <time>2022-09-04T13:34:55Z</time>
      </trkpt>
      <trkpt lat="43.03272" lon="0.62245">
        <ele>493</ele>
        <time>2022-09-04T13:34:57Z</time>
      </trkpt>
      <trkpt lat="43.03268" lon="0.62229">
        <ele>491.8</ele>
        <time>2022-09-04T13:34:59Z</time>
      </trkpt>
      <trkpt lat="43.03266" lon="0.62215">
        <ele>490</ele>
        <time>2022-09-04T13:35:01Z</time>
      </trkpt>
      <trkpt lat="43.03266" lon="0.62202">
        <ele>488.8</ele>
        <time>2022-09-04T13:35:03Z</time>
      </trkpt>
      <trkpt lat="43.03269" lon="0.62188">
        <ele>487.6</ele>
        <time>2022-09-04T13:35:05Z</time>
      </trkpt>
      <trkpt lat="43.03272" lon="0.62181">
        <ele>487</ele>
        <time>2022-09-04T13:35:06Z</time>
      </trkpt>
      <trkpt lat="43.03281" lon="0.62169">
        <ele>486.4</ele>
        <time>2022-09-04T13:35:08Z</time>
      </trkpt>
      <trkpt lat="43.03292" lon="0.62159">
        <ele>486.2</ele>
        <time>2022-09-04T13:35:10Z</time>
      </trkpt>
      <trkpt lat="43.03317" lon="0.62139">
        <ele>485.6</ele>
        <time>2022-09-04T13:35:14Z</time>
      </trkpt>
      <trkpt lat="43.03323" lon="0.62135">
        <ele>485.4</ele>
        <time>2022-09-04T13:35:15Z</time>
      </trkpt>
      <trkpt lat="43.0333" lon="0.6213">
        <ele>485.4</ele>
        <time>2022-09-04T13:35:16Z</time>
      </trkpt>
      <trkpt lat="43.03343" lon="0.62119">
        <ele>485</ele>
        <time>2022-09-04T13:35:18Z</time>
      </trkpt>
      <trkpt lat="43.03353" lon="0.62104">
        <ele>484.8</ele>
        <time>2022-09-04T13:35:20Z</time>
      </trkpt>
      <trkpt lat="43.03366" lon="0.6208">
        <ele>484.4</ele>
        <time>2022-09-04T13:35:23Z</time>
      </trkpt>
      <trkpt lat="43.03372" lon="0.62074">
        <ele>484.2</ele>
        <time>2022-09-04T13:35:24Z</time>
      </trkpt>
      <trkpt lat="43.03377" lon="0.62067">
        <ele>484.2</ele>
        <time>2022-09-04T13:35:25Z</time>
      </trkpt>
      <trkpt lat="43.03404" lon="0.6204">
        <ele>483.2</ele>
        <time>2022-09-04T13:35:29Z</time>
      </trkpt>
      <trkpt lat="43.03412" lon="0.62032">
        <ele>482</ele>
        <time>2022-09-04T13:35:30Z</time>
      </trkpt>
      <trkpt lat="43.03426" lon="0.62015">
        <ele>481</ele>
        <time>2022-09-04T13:35:32Z</time>
      </trkpt>
      <trkpt lat="43.03446" lon="0.61985">
        <ele>480.2</ele>
        <time>2022-09-04T13:35:35Z</time>
      </trkpt>
      <trkpt lat="43.03456" lon="0.61961">
        <ele>479.6</ele>
        <time>2022-09-04T13:35:37Z</time>
      </trkpt>
      <trkpt lat="43.03461" lon="0.61949">
        <ele>478.6</ele>
        <time>2022-09-04T13:35:38Z</time>
      </trkpt>
      <trkpt lat="43.03465" lon="0.61935">
        <ele>478</ele>
        <time>2022-09-04T13:35:39Z</time>
      </trkpt>
      <trkpt lat="43.03473" lon="0.6191">
        <ele>477.6</ele>
        <time>2022-09-04T13:35:41Z</time>
      </trkpt>
      <trkpt lat="43.03485" lon="0.61876">
        <ele>476.8</ele>
        <time>2022-09-04T13:35:44Z</time>
      </trkpt>
      <trkpt lat="43.03493" lon="0.61854">
        <ele>476.4</ele>
        <time>2022-09-04T13:35:46Z</time>
      </trkpt>
      <trkpt lat="43.03509" lon="0.61811">
        <ele>475.2</ele>
        <time>2022-09-04T13:35:50Z</time>
      </trkpt>
      <trkpt lat="43.03518" lon="0.6179">
        <ele>475</ele>
        <time>2022-09-04T13:35:52Z</time>
      </trkpt>
      <trkpt lat="43.03543" lon="0.61733">
        <ele>474.2</ele>
        <time>2022-09-04T13:35:58Z</time>
      </trkpt>
      <trkpt lat="43.03549" lon="0.61694">
        <ele>474</ele>
        <time>2022-09-04T13:36:02Z</time>
      </trkpt>
      <trkpt lat="43.0355" lon="0.61655">
        <ele>473</ele>
        <time>2022-09-04T13:36:06Z</time>
      </trkpt>
      <trkpt lat="43.03551" lon="0.61633">
        <ele>472.2</ele>
        <time>2022-09-04T13:36:08Z</time>
      </trkpt>
      <trkpt lat="43.03551" lon="0.61622">
        <ele>472</ele>
        <time>2022-09-04T13:36:09Z</time>
      </trkpt>
      <trkpt lat="43.03558" lon="0.61547">
        <ele>470.8</ele>
        <time>2022-09-04T13:36:16Z</time>
      </trkpt>
      <trkpt lat="43.03561" lon="0.61528">
        <ele>470.6</ele>
        <time>2022-09-04T13:36:18Z</time>
      </trkpt>
      <trkpt lat="43.03562" lon="0.61511">
        <ele>470.6</ele>
        <time>2022-09-04T13:36:20Z</time>
      </trkpt>
      <trkpt lat="43.03562" lon="0.61503">
        <ele>470.6</ele>
        <time>2022-09-04T13:36:21Z</time>
      </trkpt>
      <trkpt lat="43.03558" lon="0.61483">
        <ele>471</ele>
        <time>2022-09-04T13:36:24Z</time>
      </trkpt>
      <trkpt lat="43.0355" lon="0.61448">
        <ele>470.8</ele>
        <time>2022-09-04T13:36:30Z</time>
      </trkpt>
      <trkpt lat="43.03541" lon="0.61411">
        <ele>471</ele>
        <time>2022-09-04T13:36:37Z</time>
      </trkpt>
      <trkpt lat="43.03541" lon="0.6138">
        <ele>472</ele>
        <time>2022-09-04T13:36:43Z</time>
      </trkpt>
      <trkpt lat="43.03544" lon="0.61348">
        <ele>473.2</ele>
        <time>2022-09-04T13:36:51Z</time>
      </trkpt>
      <trkpt lat="43.03544" lon="0.6133">
        <ele>474.2</ele>
        <time>2022-09-04T13:36:56Z</time>
      </trkpt>
      <trkpt lat="43.03544" lon="0.61326">
        <ele>474.4</ele>
        <time>2022-09-04T13:36:57Z</time>
      </trkpt>
      <trkpt lat="43.03541" lon="0.61306">
        <ele>475</ele>
        <time>2022-09-04T13:37:03Z</time>
      </trkpt>
      <trkpt lat="43.03539" lon="0.613">
        <ele>475.2</ele>
        <time>2022-09-04T13:37:05Z</time>
      </trkpt>
      <trkpt lat="43.03536" lon="0.61287">
        <ele>475.6</ele>
        <time>2022-09-04T13:37:09Z</time>
      </trkpt>
      <trkpt lat="43.03533" lon="0.61259">
        <ele>476</ele>
        <time>2022-09-04T13:37:17Z</time>
      </trkpt>
      <trkpt lat="43.03532" lon="0.61244">
        <ele>476.2</ele>
        <time>2022-09-04T13:37:21Z</time>
      </trkpt>
      <trkpt lat="43.03532" lon="0.61231">
        <ele>476.4</ele>
        <time>2022-09-04T13:37:24Z</time>
      </trkpt>
      <trkpt lat="43.03535" lon="0.61188">
        <ele>475.8</ele>
        <time>2022-09-04T13:37:32Z</time>
      </trkpt>
      <trkpt lat="43.03538" lon="0.61174">
        <ele>475.4</ele>
        <time>2022-09-04T13:37:34Z</time>
      </trkpt>
      <trkpt lat="43.03544" lon="0.61158">
        <ele>475.6</ele>
        <time>2022-09-04T13:37:36Z</time>
      </trkpt>
      <trkpt lat="43.03552" lon="0.61142">
        <ele>474.4</ele>
        <time>2022-09-04T13:37:38Z</time>
      </trkpt>
      <trkpt lat="43.03557" lon="0.61134">
        <ele>474</ele>
        <time>2022-09-04T13:37:39Z</time>
      </trkpt>
      <trkpt lat="43.03562" lon="0.61125">
        <ele>473.4</ele>
        <time>2022-09-04T13:37:40Z</time>
      </trkpt>
      <trkpt lat="43.03572" lon="0.61105">
        <ele>472</ele>
        <time>2022-09-04T13:37:42Z</time>
      </trkpt>
      <trkpt lat="43.03592" lon="0.61063">
        <ele>470.6</ele>
        <time>2022-09-04T13:37:46Z</time>
      </trkpt>
      <trkpt lat="43.03601" lon="0.61039">
        <ele>469.2</ele>
        <time>2022-09-04T13:37:48Z</time>
      </trkpt>
      <trkpt lat="43.03604" lon="0.61027">
        <ele>468.6</ele>
        <time>2022-09-04T13:37:49Z</time>
      </trkpt>
      <trkpt lat="43.03607" lon="0.61014">
        <ele>468.6</ele>
        <time>2022-09-04T13:37:50Z</time>
      </trkpt>
      <trkpt lat="43.03615" lon="0.60954">
        <ele>468</ele>
        <time>2022-09-04T13:37:55Z</time>
      </trkpt>
      <trkpt lat="43.03616" lon="0.60943">
        <ele>467.8</ele>
        <time>2022-09-04T13:37:56Z</time>
      </trkpt>
      <trkpt lat="43.03629" lon="0.60881">
        <ele>467.8</ele>
        <time>2022-09-04T13:38:02Z</time>
      </trkpt>
      <trkpt lat="43.03645" lon="0.60841">
        <ele>468</ele>
        <time>2022-09-04T13:38:07Z</time>
      </trkpt>
      <trkpt lat="43.0366" lon="0.60802">
        <ele>468.4</ele>
        <time>2022-09-04T13:38:13Z</time>
      </trkpt>
      <trkpt lat="43.03668" lon="0.608">
        <ele>468.8</ele>
        <time>2022-09-04T13:38:15Z</time>
      </trkpt>
      <trkpt lat="43.03672" lon="0.60802">
        <ele>469</ele>
        <time>2022-09-04T13:38:16Z</time>
      </trkpt>
      <trkpt lat="43.0368" lon="0.60812">
        <ele>469</ele>
        <time>2022-09-04T13:38:18Z</time>
      </trkpt>
      <trkpt lat="43.03689" lon="0.60822">
        <ele>468.4</ele>
        <time>2022-09-04T13:38:20Z</time>
      </trkpt>
      <trkpt lat="43.037" lon="0.60828">
        <ele>468.2</ele>
        <time>2022-09-04T13:38:22Z</time>
      </trkpt>
      <trkpt lat="43.03706" lon="0.60829">
        <ele>468</ele>
        <time>2022-09-04T13:38:23Z</time>
      </trkpt>
      <trkpt lat="43.03719" lon="0.60826">
        <ele>467.8</ele>
        <time>2022-09-04T13:38:25Z</time>
      </trkpt>
      <trkpt lat="43.03735" lon="0.60811">
        <ele>467.8</ele>
        <time>2022-09-04T13:38:28Z</time>
      </trkpt>
      <trkpt lat="43.03746" lon="0.60778">
        <ele>468.6</ele>
        <time>2022-09-04T13:38:32Z</time>
      </trkpt>
      <trkpt lat="43.03747" lon="0.6077">
        <ele>468.6</ele>
        <time>2022-09-04T13:38:33Z</time>
      </trkpt>
      <trkpt lat="43.03756" lon="0.60708">
        <ele>468.2</ele>
        <time>2022-09-04T13:38:40Z</time>
      </trkpt>
      <trkpt lat="43.03767" lon="0.60631">
        <ele>468.4</ele>
        <time>2022-09-04T13:38:49Z</time>
      </trkpt>
      <trkpt lat="43.03778" lon="0.60558">
        <ele>468</ele>
        <time>2022-09-04T13:38:58Z</time>
      </trkpt>
      <trkpt lat="43.03787" lon="0.60508">
        <ele>468</ele>
        <time>2022-09-04T13:39:05Z</time>
      </trkpt>
      <trkpt lat="43.03801" lon="0.60464">
        <ele>468</ele>
        <time>2022-09-04T13:39:12Z</time>
      </trkpt>
      <trkpt lat="43.03819" lon="0.60438">
        <ele>468.4</ele>
        <time>2022-09-04T13:39:17Z</time>
      </trkpt>
      <trkpt lat="43.03823" lon="0.60434">
        <ele>468.4</ele>
        <time>2022-09-04T13:39:18Z</time>
      </trkpt>
      <trkpt lat="43.03847" lon="0.60421">
        <ele>468.4</ele>
        <time>2022-09-04T13:39:23Z</time>
      </trkpt>
      <trkpt lat="43.03857" lon="0.60421">
        <ele>468.4</ele>
        <time>2022-09-04T13:39:25Z</time>
      </trkpt>
      <trkpt lat="43.03872" lon="0.6042">
        <ele>468.4</ele>
        <time>2022-09-04T13:39:28Z</time>
      </trkpt>
      <trkpt lat="43.03876" lon="0.60419">
        <ele>468.4</ele>
        <time>2022-09-04T13:39:29Z</time>
      </trkpt>
      <trkpt lat="43.03887" lon="0.60408">
        <ele>468.2</ele>
        <time>2022-09-04T13:39:32Z</time>
      </trkpt>
      <trkpt lat="43.03897" lon="0.60378">
        <ele>468.2</ele>
        <time>2022-09-04T13:39:37Z</time>
      </trkpt>
      <trkpt lat="43.03903" lon="0.60354">
        <ele>468.4</ele>
        <time>2022-09-04T13:39:41Z</time>
      </trkpt>
      <trkpt lat="43.03905" lon="0.60348">
        <ele>468.2</ele>
        <time>2022-09-04T13:39:42Z</time>
      </trkpt>
      <trkpt lat="43.03908" lon="0.60336">
        <ele>468.4</ele>
        <time>2022-09-04T13:39:44Z</time>
      </trkpt>
      <trkpt lat="43.03921" lon="0.6028">
        <ele>467.8</ele>
        <time>2022-09-04T13:39:53Z</time>
      </trkpt>
      <trkpt lat="43.03933" lon="0.60237">
        <ele>467.8</ele>
        <time>2022-09-04T13:40:00Z</time>
      </trkpt>
      <trkpt lat="43.03952" lon="0.6019">
        <ele>467.6</ele>
        <time>2022-09-04T13:40:08Z</time>
      </trkpt>
      <trkpt lat="43.03972" lon="0.60152">
        <ele>468.4</ele>
        <time>2022-09-04T13:40:15Z</time>
      </trkpt>
      <trkpt lat="43.03991" lon="0.60115">
        <ele>468.2</ele>
        <time>2022-09-04T13:40:22Z</time>
      </trkpt>
      <trkpt lat="43.0401" lon="0.60075">
        <ele>467.4</ele>
        <time>2022-09-04T13:40:29Z</time>
      </trkpt>
      <trkpt lat="43.04024" lon="0.60048">
        <ele>467.4</ele>
        <time>2022-09-04T13:40:34Z</time>
      </trkpt>
      <trkpt lat="43.04033" lon="0.60025">
        <ele>467.4</ele>
        <time>2022-09-04T13:40:38Z</time>
      </trkpt>
      <trkpt lat="43.04035" lon="0.6002">
        <ele>467.4</ele>
        <time>2022-09-04T13:40:39Z</time>
      </trkpt>
      <trkpt lat="43.04044" lon="0.59994">
        <ele>467.4</ele>
        <time>2022-09-04T13:40:44Z</time>
      </trkpt>
      <trkpt lat="43.04046" lon="0.59988">
        <ele>467.2</ele>
        <time>2022-09-04T13:40:45Z</time>
      </trkpt>
      <trkpt lat="43.04054" lon="0.59961">
        <ele>467.6</ele>
        <time>2022-09-04T13:40:50Z</time>
      </trkpt>
      <trkpt lat="43.04061" lon="0.59944">
        <ele>467.6</ele>
        <time>2022-09-04T13:40:53Z</time>
      </trkpt>
      <trkpt lat="43.04066" lon="0.59932">
        <ele>467.6</ele>
        <time>2022-09-04T13:40:55Z</time>
      </trkpt>
      <trkpt lat="43.04085" lon="0.59889">
        <ele>468</ele>
        <time>2022-09-04T13:41:02Z</time>
      </trkpt>
      <trkpt lat="43.04106" lon="0.59848">
        <ele>467.8</ele>
        <time>2022-09-04T13:41:09Z</time>
      </trkpt>
      <trkpt lat="43.04126" lon="0.59804">
        <ele>467.8</ele>
        <time>2022-09-04T13:41:17Z</time>
      </trkpt>
      <trkpt lat="43.04147" lon="0.59749">
        <ele>468</ele>
        <time>2022-09-04T13:41:26Z</time>
      </trkpt>
      <trkpt lat="43.04163" lon="0.59703">
        <ele>467.8</ele>
        <time>2022-09-04T13:41:34Z</time>
      </trkpt>
      <trkpt lat="43.04179" lon="0.5965">
        <ele>467.6</ele>
        <time>2022-09-04T13:41:43Z</time>
      </trkpt>
      <trkpt lat="43.04186" lon="0.59617">
        <ele>467.8</ele>
        <time>2022-09-04T13:41:49Z</time>
      </trkpt>
      <trkpt lat="43.04193" lon="0.59591">
        <ele>467.6</ele>
        <time>2022-09-04T13:41:55Z</time>
      </trkpt>
      <trkpt lat="43.04198" lon="0.59576">
        <ele>467.4</ele>
        <time>2022-09-04T13:42:00Z</time>
      </trkpt>
      <trkpt lat="43.04199" lon="0.5957">
        <ele>467.6</ele>
        <time>2022-09-04T13:42:20Z</time>
      </trkpt>
      <trkpt lat="43.04201" lon="0.59566">
        <ele>467.4</ele>
        <time>2022-09-04T13:42:21Z</time>
      </trkpt>
      <trkpt lat="43.04215" lon="0.59546">
        <ele>468</ele>
        <time>2022-09-04T13:42:26Z</time>
      </trkpt>
      <trkpt lat="43.04242" lon="0.59514">
        <ele>467.8</ele>
        <time>2022-09-04T13:42:35Z</time>
      </trkpt>
      <trkpt lat="43.04267" lon="0.59486">
        <ele>468.2</ele>
        <time>2022-09-04T13:42:43Z</time>
      </trkpt>
      <trkpt lat="43.04304" lon="0.59446">
        <ele>468.6</ele>
        <time>2022-09-04T13:42:54Z</time>
      </trkpt>
      <trkpt lat="43.04323" lon="0.59423">
        <ele>468.4</ele>
        <time>2022-09-04T13:43:01Z</time>
      </trkpt>
      <trkpt lat="43.04335" lon="0.59404">
        <ele>468.8</ele>
        <time>2022-09-04T13:43:07Z</time>
      </trkpt>
      <trkpt lat="43.04336" lon="0.59396">
        <ele>469.2</ele>
        <time>2022-09-04T13:43:09Z</time>
      </trkpt>
      <trkpt lat="43.04341" lon="0.59382">
        <ele>469</ele>
        <time>2022-09-04T13:43:12Z</time>
      </trkpt>
      <trkpt lat="43.04367" lon="0.59334">
        <ele>469.2</ele>
        <time>2022-09-04T13:43:23Z</time>
      </trkpt>
      <trkpt lat="43.04371" lon="0.59309">
        <ele>469.6</ele>
        <time>2022-09-04T13:43:28Z</time>
      </trkpt>
      <trkpt lat="43.04363" lon="0.59299">
        <ele>469.2</ele>
        <time>2022-09-04T13:43:31Z</time>
      </trkpt>
      <trkpt lat="43.04348" lon="0.59294">
        <ele>468.8</ele>
        <time>2022-09-04T13:43:35Z</time>
      </trkpt>
      <trkpt lat="43.04346" lon="0.59279">
        <ele>468.8</ele>
        <time>2022-09-04T13:43:38Z</time>
      </trkpt>
      <trkpt lat="43.04346" lon="0.59261">
        <ele>468.6</ele>
        <time>2022-09-04T13:43:41Z</time>
      </trkpt>
      <trkpt lat="43.04344" lon="0.59244">
        <ele>468.6</ele>
        <time>2022-09-04T13:43:44Z</time>
      </trkpt>
      <trkpt lat="43.04349" lon="0.59237">
        <ele>468.4</ele>
        <time>2022-09-04T13:43:46Z</time>
      </trkpt>
      <trkpt lat="43.04361" lon="0.59236">
        <ele>468.4</ele>
        <time>2022-09-04T13:43:49Z</time>
      </trkpt>
      <trkpt lat="43.0437" lon="0.59235">
        <ele>468.4</ele>
        <time>2022-09-04T13:43:51Z</time>
      </trkpt>
      <trkpt lat="43.0439" lon="0.59222">
        <ele>468.6</ele>
        <time>2022-09-04T13:43:56Z</time>
      </trkpt>
      <trkpt lat="43.04398" lon="0.59214">
        <ele>468.8</ele>
        <time>2022-09-04T13:43:58Z</time>
      </trkpt>
      <trkpt lat="43.04414" lon="0.59195">
        <ele>469.2</ele>
        <time>2022-09-04T13:44:02Z</time>
      </trkpt>
      <trkpt lat="43.04428" lon="0.59175">
        <ele>469.4</ele>
        <time>2022-09-04T13:44:06Z</time>
      </trkpt>
      <trkpt lat="43.04443" lon="0.59157">
        <ele>469.2</ele>
        <time>2022-09-04T13:44:10Z</time>
      </trkpt>
      <trkpt lat="43.04472" lon="0.59127">
        <ele>469.2</ele>
        <time>2022-09-04T13:44:18Z</time>
      </trkpt>
      <trkpt lat="43.04507" lon="0.59094">
        <ele>469.8</ele>
        <time>2022-09-04T13:44:27Z</time>
      </trkpt>
      <trkpt lat="43.04524" lon="0.59081">
        <ele>470.2</ele>
        <time>2022-09-04T13:44:31Z</time>
      </trkpt>
      <trkpt lat="43.04541" lon="0.59069">
        <ele>470.2</ele>
        <time>2022-09-04T13:44:35Z</time>
      </trkpt>
      <trkpt lat="43.04579" lon="0.59046">
        <ele>470</ele>
        <time>2022-09-04T13:44:44Z</time>
      </trkpt>
      <trkpt lat="43.04601" lon="0.59033">
        <ele>469.2</ele>
        <time>2022-09-04T13:44:49Z</time>
      </trkpt>
      <trkpt lat="43.0461" lon="0.5903">
        <ele>469.2</ele>
        <time>2022-09-04T13:44:51Z</time>
      </trkpt>
      <trkpt lat="43.04636" lon="0.59018">
        <ele>468.8</ele>
        <time>2022-09-04T13:44:57Z</time>
      </trkpt>
      <trkpt lat="43.0466" lon="0.59011">
        <ele>468.6</ele>
        <time>2022-09-04T13:45:02Z</time>
      </trkpt>
      <trkpt lat="43.04669" lon="0.5901">
        <ele>468.6</ele>
        <time>2022-09-04T13:45:04Z</time>
      </trkpt>
      <trkpt lat="43.04694" lon="0.5901">
        <ele>469.4</ele>
        <time>2022-09-04T13:45:10Z</time>
      </trkpt>
      <trkpt lat="43.04703" lon="0.5901">
        <ele>470.4</ele>
        <time>2022-09-04T13:45:13Z</time>
      </trkpt>
      <trkpt lat="43.04705" lon="0.5901">
        <ele>470.8</ele>
        <time>2022-09-04T13:45:14Z</time>
      </trkpt>
      <trkpt lat="43.0471" lon="0.5901">
        <ele>471.6</ele>
        <time>2022-09-04T13:45:16Z</time>
      </trkpt>
      <trkpt lat="43.0472" lon="0.59009">
        <ele>472.2</ele>
        <time>2022-09-04T13:45:20Z</time>
      </trkpt>
      <trkpt lat="43.04731" lon="0.59008">
        <ele>472.6</ele>
        <time>2022-09-04T13:45:25Z</time>
      </trkpt>
      <trkpt lat="43.04736" lon="0.59009">
        <ele>472.8</ele>
        <time>2022-09-04T13:45:27Z</time>
      </trkpt>
      <trkpt lat="43.04754" lon="0.59008">
        <ele>473.4</ele>
        <time>2022-09-04T13:45:33Z</time>
      </trkpt>
      <trkpt lat="43.04756" lon="0.59009">
        <ele>473.6</ele>
        <time>2022-09-04T13:45:34Z</time>
      </trkpt>
      <trkpt lat="43.04768" lon="0.5901">
        <ele>474</ele>
        <time>2022-09-04T13:45:39Z</time>
      </trkpt>
      <trkpt lat="43.04782" lon="0.59012">
        <ele>474.8</ele>
        <time>2022-09-04T13:45:44Z</time>
      </trkpt>
      <trkpt lat="43.04789" lon="0.59013">
        <ele>474.8</ele>
        <time>2022-09-04T13:45:46Z</time>
      </trkpt>
      <trkpt lat="43.04809" lon="0.59017">
        <ele>475.4</ele>
        <time>2022-09-04T13:45:53Z</time>
      </trkpt>
      <trkpt lat="43.04826" lon="0.59021">
        <ele>475.8</ele>
        <time>2022-09-04T13:46:00Z</time>
      </trkpt>
      <trkpt lat="43.04838" lon="0.59025">
        <ele>476.4</ele>
        <time>2022-09-04T13:46:05Z</time>
      </trkpt>
      <trkpt lat="43.0484" lon="0.59024">
        <ele>476.4</ele>
        <time>2022-09-04T13:46:06Z</time>
      </trkpt>
      <trkpt lat="43.04848" lon="0.59026">
        <ele>476.8</ele>
        <time>2022-09-04T13:46:09Z</time>
      </trkpt>
      <trkpt lat="43.0485" lon="0.59027">
        <ele>476.8</ele>
        <time>2022-09-04T13:46:10Z</time>
      </trkpt>
      <trkpt lat="43.04865" lon="0.59031">
        <ele>477.8</ele>
        <time>2022-09-04T13:46:17Z</time>
      </trkpt>
      <trkpt lat="43.0488" lon="0.59035">
        <ele>479.4</ele>
        <time>2022-09-04T13:46:26Z</time>
      </trkpt>
      <trkpt lat="43.04889" lon="0.59037">
        <ele>480</ele>
        <time>2022-09-04T13:46:30Z</time>
      </trkpt>
      <trkpt lat="43.04895" lon="0.59039">
        <ele>480.4</ele>
        <time>2022-09-04T13:46:33Z</time>
      </trkpt>
      <trkpt lat="43.04903" lon="0.5904">
        <ele>481</ele>
        <time>2022-09-04T13:46:37Z</time>
      </trkpt>
      <trkpt lat="43.04913" lon="0.59041">
        <ele>481.4</ele>
        <time>2022-09-04T13:46:42Z</time>
      </trkpt>
      <trkpt lat="43.04917" lon="0.59042">
        <ele>481.8</ele>
        <time>2022-09-04T13:46:44Z</time>
      </trkpt>
      <trkpt lat="43.0493" lon="0.59044">
        <ele>482.4</ele>
        <time>2022-09-04T13:46:51Z</time>
      </trkpt>
      <trkpt lat="43.04932" lon="0.59044">
        <ele>482.6</ele>
        <time>2022-09-04T13:46:52Z</time>
      </trkpt>
      <trkpt lat="43.04947" lon="0.59049">
        <ele>483.2</ele>
        <time>2022-09-04T13:47:00Z</time>
      </trkpt>
      <trkpt lat="43.04959" lon="0.59052">
        <ele>483.6</ele>
        <time>2022-09-04T13:47:06Z</time>
      </trkpt>
      <trkpt lat="43.04962" lon="0.59053">
        <ele>483.8</ele>
        <time>2022-09-04T13:47:07Z</time>
      </trkpt>
      <trkpt lat="43.04979" lon="0.59058">
        <ele>484.2</ele>
        <time>2022-09-04T13:47:13Z</time>
      </trkpt>
      <trkpt lat="43.05" lon="0.59055">
        <ele>483.8</ele>
        <time>2022-09-04T13:47:18Z</time>
      </trkpt>
      <trkpt lat="43.05029" lon="0.59048">
        <ele>482.8</ele>
        <time>2022-09-04T13:47:23Z</time>
      </trkpt>
      <trkpt lat="43.05042" lon="0.59044">
        <ele>482.4</ele>
        <time>2022-09-04T13:47:25Z</time>
      </trkpt>
      <trkpt lat="43.05058" lon="0.5904">
        <ele>480.8</ele>
        <time>2022-09-04T13:47:27Z</time>
      </trkpt>
      <trkpt lat="43.05067" lon="0.59039">
        <ele>480</ele>
        <time>2022-09-04T13:47:28Z</time>
      </trkpt>
      <trkpt lat="43.05086" lon="0.59038">
        <ele>479.4</ele>
        <time>2022-09-04T13:47:30Z</time>
      </trkpt>
      <trkpt lat="43.05095" lon="0.59038">
        <ele>478.2</ele>
        <time>2022-09-04T13:47:31Z</time>
      </trkpt>
      <trkpt lat="43.05104" lon="0.59038">
        <ele>476.8</ele>
        <time>2022-09-04T13:47:32Z</time>
      </trkpt>
      <trkpt lat="43.05113" lon="0.59038">
        <ele>476.6</ele>
        <time>2022-09-04T13:47:33Z</time>
      </trkpt>
      <trkpt lat="43.05122" lon="0.59038">
        <ele>475.8</ele>
        <time>2022-09-04T13:47:34Z</time>
      </trkpt>
      <trkpt lat="43.0514" lon="0.59039">
        <ele>474.2</ele>
        <time>2022-09-04T13:47:36Z</time>
      </trkpt>
      <trkpt lat="43.05153" lon="0.59039">
        <ele>473</ele>
        <time>2022-09-04T13:47:38Z</time>
      </trkpt>
      <trkpt lat="43.05161" lon="0.59028">
        <ele>472</ele>
        <time>2022-09-04T13:47:40Z</time>
      </trkpt>
      <trkpt lat="43.05166" lon="0.59022">
        <ele>472</ele>
        <time>2022-09-04T13:47:41Z</time>
      </trkpt>
      <trkpt lat="43.05171" lon="0.59008">
        <ele>471.8</ele>
        <time>2022-09-04T13:47:43Z</time>
      </trkpt>
      <trkpt lat="43.05172" lon="0.59">
        <ele>471.6</ele>
        <time>2022-09-04T13:47:44Z</time>
      </trkpt>
      <trkpt lat="43.05173" lon="0.58961">
        <ele>470.8</ele>
        <time>2022-09-04T13:47:49Z</time>
      </trkpt>
      <trkpt lat="43.05173" lon="0.58945">
        <ele>470.8</ele>
        <time>2022-09-04T13:47:51Z</time>
      </trkpt>
      <trkpt lat="43.05169" lon="0.58864">
        <ele>472</ele>
        <time>2022-09-04T13:48:01Z</time>
      </trkpt>
      <trkpt lat="43.05162" lon="0.58822">
        <ele>471.8</ele>
        <time>2022-09-04T13:48:08Z</time>
      </trkpt>
      <trkpt lat="43.05156" lon="0.58781">
        <ele>472.2</ele>
        <time>2022-09-04T13:48:15Z</time>
      </trkpt>
      <trkpt lat="43.05157" lon="0.58754">
        <ele>473</ele>
        <time>2022-09-04T13:48:20Z</time>
      </trkpt>
      <trkpt lat="43.05158" lon="0.58749">
        <ele>473</ele>
        <time>2022-09-04T13:48:21Z</time>
      </trkpt>
      <trkpt lat="43.05159" lon="0.58699">
        <ele>473.6</ele>
        <time>2022-09-04T13:48:30Z</time>
      </trkpt>
      <trkpt lat="43.05157" lon="0.58645">
        <ele>473</ele>
        <time>2022-09-04T13:48:39Z</time>
      </trkpt>
      <trkpt lat="43.05154" lon="0.58613">
        <ele>472.6</ele>
        <time>2022-09-04T13:48:44Z</time>
      </trkpt>
      <trkpt lat="43.05151" lon="0.586">
        <ele>472.6</ele>
        <time>2022-09-04T13:48:46Z</time>
      </trkpt>
      <trkpt lat="43.05137" lon="0.58551">
        <ele>473</ele>
        <time>2022-09-04T13:48:54Z</time>
      </trkpt>
      <trkpt lat="43.05124" lon="0.58507">
        <ele>473.2</ele>
        <time>2022-09-04T13:49:01Z</time>
      </trkpt>
      <trkpt lat="43.05107" lon="0.58456">
        <ele>473.6</ele>
        <time>2022-09-04T13:49:09Z</time>
      </trkpt>
      <trkpt lat="43.05089" lon="0.58414">
        <ele>473.6</ele>
        <time>2022-09-04T13:49:16Z</time>
      </trkpt>
      <trkpt lat="43.05079" lon="0.58394">
        <ele>474</ele>
        <time>2022-09-04T13:49:20Z</time>
      </trkpt>
      <trkpt lat="43.05072" lon="0.58379">
        <ele>474.4</ele>
        <time>2022-09-04T13:49:23Z</time>
      </trkpt>
      <trkpt lat="43.05057" lon="0.58336">
        <ele>474.4</ele>
        <time>2022-09-04T13:49:31Z</time>
      </trkpt>
      <trkpt lat="43.05048" lon="0.58307">
        <ele>474.6</ele>
        <time>2022-09-04T13:49:36Z</time>
      </trkpt>
      <trkpt lat="43.05031" lon="0.58262">
        <ele>475</ele>
        <time>2022-09-04T13:49:44Z</time>
      </trkpt>
      <trkpt lat="43.0501" lon="0.5822">
        <ele>474.8</ele>
        <time>2022-09-04T13:49:52Z</time>
      </trkpt>
      <trkpt lat="43.04998" lon="0.58198">
        <ele>474.6</ele>
        <time>2022-09-04T13:49:56Z</time>
      </trkpt>
      <trkpt lat="43.04992" lon="0.58187">
        <ele>474.4</ele>
        <time>2022-09-04T13:49:58Z</time>
      </trkpt>
      <trkpt lat="43.04986" lon="0.58176">
        <ele>474.2</ele>
        <time>2022-09-04T13:50:00Z</time>
      </trkpt>
      <trkpt lat="43.04983" lon="0.58163">
        <ele>474</ele>
        <time>2022-09-04T13:50:02Z</time>
      </trkpt>
      <trkpt lat="43.04981" lon="0.58156">
        <ele>474</ele>
        <time>2022-09-04T13:50:03Z</time>
      </trkpt>
      <trkpt lat="43.04973" lon="0.58109">
        <ele>473.8</ele>
        <time>2022-09-04T13:50:10Z</time>
      </trkpt>
      <trkpt lat="43.04964" lon="0.58057">
        <ele>474</ele>
        <time>2022-09-04T13:50:18Z</time>
      </trkpt>
      <trkpt lat="43.04956" lon="0.58011">
        <ele>475</ele>
        <time>2022-09-04T13:50:26Z</time>
      </trkpt>
      <trkpt lat="43.04956" lon="0.58006">
        <ele>475</ele>
        <time>2022-09-04T13:50:27Z</time>
      </trkpt>
      <trkpt lat="43.04953" lon="0.5799">
        <ele>475.4</ele>
        <time>2022-09-04T13:50:31Z</time>
      </trkpt>
      <trkpt lat="43.04951" lon="0.5798">
        <ele>476.2</ele>
        <time>2022-09-04T13:50:35Z</time>
      </trkpt>
      <trkpt lat="43.04947" lon="0.57965">
        <ele>477.2</ele>
        <time>2022-09-04T13:50:40Z</time>
      </trkpt>
      <trkpt lat="43.04947" lon="0.57952">
        <ele>478.6</ele>
        <time>2022-09-04T13:50:45Z</time>
      </trkpt>
      <trkpt lat="43.04951" lon="0.57935">
        <ele>479.6</ele>
        <time>2022-09-04T13:50:52Z</time>
      </trkpt>
      <trkpt lat="43.04952" lon="0.5793">
        <ele>479.6</ele>
        <time>2022-09-04T13:50:54Z</time>
      </trkpt>
      <trkpt lat="43.04954" lon="0.57919">
        <ele>480</ele>
        <time>2022-09-04T13:50:58Z</time>
      </trkpt>
      <trkpt lat="43.04959" lon="0.57898">
        <ele>480</ele>
        <time>2022-09-04T13:51:04Z</time>
      </trkpt>
      <trkpt lat="43.04965" lon="0.5788">
        <ele>480</ele>
        <time>2022-09-04T13:51:09Z</time>
      </trkpt>
      <trkpt lat="43.04973" lon="0.5785">
        <ele>480.4</ele>
        <time>2022-09-04T13:51:16Z</time>
      </trkpt>
      <trkpt lat="43.04979" lon="0.57825">
        <ele>480.6</ele>
        <time>2022-09-04T13:51:22Z</time>
      </trkpt>
      <trkpt lat="43.0498" lon="0.57821">
        <ele>480.6</ele>
        <time>2022-09-04T13:51:23Z</time>
      </trkpt>
      <trkpt lat="43.04987" lon="0.57792">
        <ele>481.2</ele>
        <time>2022-09-04T13:51:30Z</time>
      </trkpt>
      <trkpt lat="43.04995" lon="0.57775">
        <ele>481.8</ele>
        <time>2022-09-04T13:51:35Z</time>
      </trkpt>
      <trkpt lat="43.04998" lon="0.57769">
        <ele>482</ele>
        <time>2022-09-04T13:51:37Z</time>
      </trkpt>
      <trkpt lat="43.05" lon="0.57766">
        <ele>482.2</ele>
        <time>2022-09-04T13:51:38Z</time>
      </trkpt>
      <trkpt lat="43.05013" lon="0.5774">
        <ele>482.6</ele>
        <time>2022-09-04T13:51:46Z</time>
      </trkpt>
      <trkpt lat="43.05018" lon="0.57731">
        <ele>482.8</ele>
        <time>2022-09-04T13:51:49Z</time>
      </trkpt>
      <trkpt lat="43.0503" lon="0.5771">
        <ele>483.4</ele>
        <time>2022-09-04T13:51:55Z</time>
      </trkpt>
      <trkpt lat="43.0504" lon="0.57693">
        <ele>484</ele>
        <time>2022-09-04T13:52:00Z</time>
      </trkpt>
      <trkpt lat="43.05047" lon="0.57683">
        <ele>484.2</ele>
        <time>2022-09-04T13:52:03Z</time>
      </trkpt>
      <trkpt lat="43.05057" lon="0.57658">
        <ele>485</ele>
        <time>2022-09-04T13:52:10Z</time>
      </trkpt>
      <trkpt lat="43.05059" lon="0.57626">
        <ele>486</ele>
        <time>2022-09-04T13:52:18Z</time>
      </trkpt>
      <trkpt lat="43.0506" lon="0.57622">
        <ele>486.2</ele>
        <time>2022-09-04T13:52:19Z</time>
      </trkpt>
      <trkpt lat="43.05066" lon="0.576">
        <ele>487.2</ele>
        <time>2022-09-04T13:52:25Z</time>
      </trkpt>
      <trkpt lat="43.05067" lon="0.57592">
        <ele>487.4</ele>
        <time>2022-09-04T13:52:27Z</time>
      </trkpt>
      <trkpt lat="43.05072" lon="0.5757">
        <ele>488</ele>
        <time>2022-09-04T13:52:33Z</time>
      </trkpt>
      <trkpt lat="43.05073" lon="0.57567">
        <ele>488.2</ele>
        <time>2022-09-04T13:52:34Z</time>
      </trkpt>
      <trkpt lat="43.05078" lon="0.57547">
        <ele>488.8</ele>
        <time>2022-09-04T13:52:41Z</time>
      </trkpt>
      <trkpt lat="43.05079" lon="0.57541">
        <ele>489.2</ele>
        <time>2022-09-04T13:52:43Z</time>
      </trkpt>
      <trkpt lat="43.05082" lon="0.57531">
        <ele>489.6</ele>
        <time>2022-09-04T13:52:47Z</time>
      </trkpt>
      <trkpt lat="43.05085" lon="0.57521">
        <ele>490.2</ele>
        <time>2022-09-04T13:52:51Z</time>
      </trkpt>
      <trkpt lat="43.05086" lon="0.57514">
        <ele>490.4</ele>
        <time>2022-09-04T13:52:54Z</time>
      </trkpt>
      <trkpt lat="43.05092" lon="0.57494">
        <ele>491.2</ele>
        <time>2022-09-04T13:53:02Z</time>
      </trkpt>
      <trkpt lat="43.05093" lon="0.57492">
        <ele>491.2</ele>
        <time>2022-09-04T13:53:03Z</time>
      </trkpt>
      <trkpt lat="43.05098" lon="0.57474">
        <ele>492.2</ele>
        <time>2022-09-04T13:53:10Z</time>
      </trkpt>
      <trkpt lat="43.05099" lon="0.57472">
        <ele>492.2</ele>
        <time>2022-09-04T13:53:11Z</time>
      </trkpt>
      <trkpt lat="43.05102" lon="0.57458">
        <ele>492.8</ele>
        <time>2022-09-04T13:53:16Z</time>
      </trkpt>
      <trkpt lat="43.05108" lon="0.57431">
        <ele>493.2</ele>
        <time>2022-09-04T13:53:25Z</time>
      </trkpt>
      <trkpt lat="43.05111" lon="0.57423">
        <ele>493.4</ele>
        <time>2022-09-04T13:53:28Z</time>
      </trkpt>
      <trkpt lat="43.05117" lon="0.57406">
        <ele>494</ele>
        <time>2022-09-04T13:53:34Z</time>
      </trkpt>
      <trkpt lat="43.05129" lon="0.57383">
        <ele>494.2</ele>
        <time>2022-09-04T13:53:42Z</time>
      </trkpt>
      <trkpt lat="43.05131" lon="0.57381">
        <ele>494.4</ele>
        <time>2022-09-04T13:53:43Z</time>
      </trkpt>
      <trkpt lat="43.05142" lon="0.5737">
        <ele>494.6</ele>
        <time>2022-09-04T13:53:49Z</time>
      </trkpt>
      <trkpt lat="43.05144" lon="0.57367">
        <ele>494.6</ele>
        <time>2022-09-04T13:53:51Z</time>
      </trkpt>
      <trkpt lat="43.05152" lon="0.57365">
        <ele>494.8</ele>
        <time>2022-09-04T13:56:37Z</time>
      </trkpt>
      <trkpt lat="43.05158" lon="0.57365">
        <ele>495</ele>
        <time>2022-09-04T13:56:39Z</time>
      </trkpt>
      <trkpt lat="43.05182" lon="0.57357">
        <ele>494.8</ele>
        <time>2022-09-04T13:56:46Z</time>
      </trkpt>
      <trkpt lat="43.0521" lon="0.57337">
        <ele>494.2</ele>
        <time>2022-09-04T13:56:53Z</time>
      </trkpt>
      <trkpt lat="43.05215" lon="0.57334">
        <ele>494.2</ele>
        <time>2022-09-04T13:56:54Z</time>
      </trkpt>
      <trkpt lat="43.05233" lon="0.57319">
        <ele>493.4</ele>
        <time>2022-09-04T13:56:58Z</time>
      </trkpt>
      <trkpt lat="43.05237" lon="0.57316">
        <ele>493.2</ele>
        <time>2022-09-04T13:56:59Z</time>
      </trkpt>
      <trkpt lat="43.05242" lon="0.57313">
        <ele>493.2</ele>
        <time>2022-09-04T13:57:00Z</time>
      </trkpt>
      <trkpt lat="43.05247" lon="0.57309">
        <ele>492.8</ele>
        <time>2022-09-04T13:57:01Z</time>
      </trkpt>
      <trkpt lat="43.05257" lon="0.57299">
        <ele>492</ele>
        <time>2022-09-04T13:57:03Z</time>
      </trkpt>
      <trkpt lat="43.05268" lon="0.57288">
        <ele>491.6</ele>
        <time>2022-09-04T13:57:05Z</time>
      </trkpt>
      <trkpt lat="43.05297" lon="0.57249">
        <ele>491.2</ele>
        <time>2022-09-04T13:57:12Z</time>
      </trkpt>
      <trkpt lat="43.0533" lon="0.5721">
        <ele>491.6</ele>
        <time>2022-09-04T13:57:20Z</time>
      </trkpt>
      <trkpt lat="43.05358" lon="0.57182">
        <ele>491.8</ele>
        <time>2022-09-04T13:57:27Z</time>
      </trkpt>
      <trkpt lat="43.05385" lon="0.57156">
        <ele>491</ele>
        <time>2022-09-04T13:57:34Z</time>
      </trkpt>
      <trkpt lat="43.0539" lon="0.57153">
        <ele>491</ele>
        <time>2022-09-04T13:57:35Z</time>
      </trkpt>
      <trkpt lat="43.05412" lon="0.57133">
        <ele>490.8</ele>
        <time>2022-09-04T13:57:40Z</time>
      </trkpt>
      <trkpt lat="43.0542" lon="0.57125">
        <ele>490.6</ele>
        <time>2022-09-04T13:57:42Z</time>
      </trkpt>
      <trkpt lat="43.05438" lon="0.57106">
        <ele>490.2</ele>
        <time>2022-09-04T13:57:47Z</time>
      </trkpt>
      <trkpt lat="43.05446" lon="0.57099">
        <ele>490</ele>
        <time>2022-09-04T13:57:49Z</time>
      </trkpt>
      <trkpt lat="43.0545" lon="0.57095">
        <ele>489.8</ele>
        <time>2022-09-04T13:57:50Z</time>
      </trkpt>
      <trkpt lat="43.05454" lon="0.57091">
        <ele>489.8</ele>
        <time>2022-09-04T13:57:51Z</time>
      </trkpt>
      <trkpt lat="43.05462" lon="0.57082">
        <ele>489.8</ele>
        <time>2022-09-04T13:57:54Z</time>
      </trkpt>
      <trkpt lat="43.05482" lon="0.57058">
        <ele>489.2</ele>
        <time>2022-09-04T13:57:59Z</time>
      </trkpt>
      <trkpt lat="43.05516" lon="0.5702">
        <ele>489.6</ele>
        <time>2022-09-04T13:58:07Z</time>
      </trkpt>
      <trkpt lat="43.05543" lon="0.56994">
        <ele>489</ele>
        <time>2022-09-04T13:58:13Z</time>
      </trkpt>
      <trkpt lat="43.05547" lon="0.5699">
        <ele>488.8</ele>
        <time>2022-09-04T13:58:14Z</time>
      </trkpt>
      <trkpt lat="43.05583" lon="0.56957">
        <ele>489.2</ele>
        <time>2022-09-04T13:58:22Z</time>
      </trkpt>
      <trkpt lat="43.05613" lon="0.56929">
        <ele>489.2</ele>
        <time>2022-09-04T13:58:29Z</time>
      </trkpt>
      <trkpt lat="43.05634" lon="0.5691">
        <ele>490.2</ele>
        <time>2022-09-04T13:58:34Z</time>
      </trkpt>
      <trkpt lat="43.05649" lon="0.56897">
        <ele>490.4</ele>
        <time>2022-09-04T13:58:38Z</time>
      </trkpt>
      <trkpt lat="43.05673" lon="0.56872">
        <ele>491</ele>
        <time>2022-09-04T13:58:45Z</time>
      </trkpt>
      <trkpt lat="43.05677" lon="0.56869">
        <ele>491.2</ele>
        <time>2022-09-04T13:58:46Z</time>
      </trkpt>
      <trkpt lat="43.05696" lon="0.56847">
        <ele>491.4</ele>
        <time>2022-09-04T13:58:52Z</time>
      </trkpt>
      <trkpt lat="43.05705" lon="0.56835">
        <ele>492.2</ele>
        <time>2022-09-04T13:58:55Z</time>
      </trkpt>
      <trkpt lat="43.05717" lon="0.56821">
        <ele>492.2</ele>
        <time>2022-09-04T13:58:59Z</time>
      </trkpt>
      <trkpt lat="43.05744" lon="0.56789">
        <ele>492.6</ele>
        <time>2022-09-04T13:59:08Z</time>
      </trkpt>
      <trkpt lat="43.05769" lon="0.56768">
        <ele>493.2</ele>
        <time>2022-09-04T13:59:15Z</time>
      </trkpt>
      <trkpt lat="43.05784" lon="0.5676">
        <ele>493.2</ele>
        <time>2022-09-04T13:59:19Z</time>
      </trkpt>
      <trkpt lat="43.05799" lon="0.56754">
        <ele>493.4</ele>
        <time>2022-09-04T13:59:23Z</time>
      </trkpt>
      <trkpt lat="43.05821" lon="0.56747">
        <ele>494</ele>
        <time>2022-09-04T13:59:29Z</time>
      </trkpt>
      <trkpt lat="43.05829" lon="0.56745">
        <ele>494.2</ele>
        <time>2022-09-04T13:59:31Z</time>
      </trkpt>
      <trkpt lat="43.05853" lon="0.56738">
        <ele>495</ele>
        <time>2022-09-04T13:59:37Z</time>
      </trkpt>
      <trkpt lat="43.05857" lon="0.56737">
        <ele>495.4</ele>
        <time>2022-09-04T13:59:38Z</time>
      </trkpt>
      <trkpt lat="43.05871" lon="0.56734">
        <ele>496.4</ele>
        <time>2022-09-04T13:59:42Z</time>
      </trkpt>
      <trkpt lat="43.05877" lon="0.56733">
        <ele>496.8</ele>
        <time>2022-09-04T13:59:44Z</time>
      </trkpt>
      <trkpt lat="43.0588" lon="0.56733">
        <ele>496.8</ele>
        <time>2022-09-04T13:59:45Z</time>
      </trkpt>
      <trkpt lat="43.05889" lon="0.56732">
        <ele>497.6</ele>
        <time>2022-09-04T13:59:48Z</time>
      </trkpt>
      <trkpt lat="43.05901" lon="0.56732">
        <ele>498</ele>
        <time>2022-09-04T13:59:53Z</time>
      </trkpt>
      <trkpt lat="43.05922" lon="0.56729">
        <ele>498.8</ele>
        <time>2022-09-04T14:00:01Z</time>
      </trkpt>
      <trkpt lat="43.05945" lon="0.56725">
        <ele>499.6</ele>
        <time>2022-09-04T14:00:09Z</time>
      </trkpt>
      <trkpt lat="43.05963" lon="0.56719">
        <ele>499.4</ele>
        <time>2022-09-04T14:00:15Z</time>
      </trkpt>
      <trkpt lat="43.05987" lon="0.56709">
        <ele>499.2</ele>
        <time>2022-09-04T14:00:21Z</time>
      </trkpt>
      <trkpt lat="43.06011" lon="0.56701">
        <ele>499.2</ele>
        <time>2022-09-04T14:00:27Z</time>
      </trkpt>
      <trkpt lat="43.06041" lon="0.56687">
        <ele>499.6</ele>
        <time>2022-09-04T14:00:34Z</time>
      </trkpt>
      <trkpt lat="43.06071" lon="0.56673">
        <ele>498</ele>
        <time>2022-09-04T14:00:40Z</time>
      </trkpt>
      <trkpt lat="43.06077" lon="0.56671">
        <ele>497.8</ele>
        <time>2022-09-04T14:00:41Z</time>
      </trkpt>
      <trkpt lat="43.06083" lon="0.56669">
        <ele>497.6</ele>
        <time>2022-09-04T14:00:42Z</time>
      </trkpt>
      <trkpt lat="43.06108" lon="0.5666">
        <ele>496.6</ele>
        <time>2022-09-04T14:00:46Z</time>
      </trkpt>
      <trkpt lat="43.06123" lon="0.56655">
        <ele>496.6</ele>
        <time>2022-09-04T14:00:48Z</time>
      </trkpt>
      <trkpt lat="43.06161" lon="0.56641">
        <ele>495.2</ele>
        <time>2022-09-04T14:00:53Z</time>
      </trkpt>
      <trkpt lat="43.06169" lon="0.56637">
        <ele>494.6</ele>
        <time>2022-09-04T14:00:54Z</time>
      </trkpt>
      <trkpt lat="43.06177" lon="0.56634">
        <ele>494.2</ele>
        <time>2022-09-04T14:00:55Z</time>
      </trkpt>
      <trkpt lat="43.06219" lon="0.56615">
        <ele>493</ele>
        <time>2022-09-04T14:01:00Z</time>
      </trkpt>
      <trkpt lat="43.06237" lon="0.56608">
        <ele>491.6</ele>
        <time>2022-09-04T14:01:02Z</time>
      </trkpt>
      <trkpt lat="43.06273" lon="0.56594">
        <ele>490.2</ele>
        <time>2022-09-04T14:01:06Z</time>
      </trkpt>
      <trkpt lat="43.06283" lon="0.56591">
        <ele>489.2</ele>
        <time>2022-09-04T14:01:07Z</time>
      </trkpt>
      <trkpt lat="43.06301" lon="0.56585">
        <ele>487.4</ele>
        <time>2022-09-04T14:01:09Z</time>
      </trkpt>
      <trkpt lat="43.06311" lon="0.56582">
        <ele>486</ele>
        <time>2022-09-04T14:01:10Z</time>
      </trkpt>
      <trkpt lat="43.0634" lon="0.56577">
        <ele>485</ele>
        <time>2022-09-04T14:01:13Z</time>
      </trkpt>
      <trkpt lat="43.06349" lon="0.56575">
        <ele>484.4</ele>
        <time>2022-09-04T14:01:14Z</time>
      </trkpt>
      <trkpt lat="43.06378" lon="0.56575">
        <ele>483.8</ele>
        <time>2022-09-04T14:01:17Z</time>
      </trkpt>
      <trkpt lat="43.06397" lon="0.56578">
        <ele>483.2</ele>
        <time>2022-09-04T14:01:19Z</time>
      </trkpt>
      <trkpt lat="43.06415" lon="0.5658">
        <ele>482.6</ele>
        <time>2022-09-04T14:01:21Z</time>
      </trkpt>
      <trkpt lat="43.0646" lon="0.56588">
        <ele>481.6</ele>
        <time>2022-09-04T14:01:26Z</time>
      </trkpt>
      <trkpt lat="43.06468" lon="0.56591">
        <ele>481</ele>
        <time>2022-09-04T14:01:27Z</time>
      </trkpt>
      <trkpt lat="43.0651" lon="0.56598">
        <ele>480.2</ele>
        <time>2022-09-04T14:01:32Z</time>
      </trkpt>
      <trkpt lat="43.06518" lon="0.56598">
        <ele>480</ele>
        <time>2022-09-04T14:01:33Z</time>
      </trkpt>
      <trkpt lat="43.06527" lon="0.56597">
        <ele>479</ele>
        <time>2022-09-04T14:01:34Z</time>
      </trkpt>
      <trkpt lat="43.0656" lon="0.56592">
        <ele>478.6</ele>
        <time>2022-09-04T14:01:38Z</time>
      </trkpt>
      <trkpt lat="43.06575" lon="0.56589">
        <ele>477.8</ele>
        <time>2022-09-04T14:01:40Z</time>
      </trkpt>
      <trkpt lat="43.06596" lon="0.56585">
        <ele>477.2</ele>
        <time>2022-09-04T14:01:43Z</time>
      </trkpt>
      <trkpt lat="43.06633" lon="0.5658">
        <ele>476.6</ele>
        <time>2022-09-04T14:01:48Z</time>
      </trkpt>
      <trkpt lat="43.06641" lon="0.56579">
        <ele>476.6</ele>
        <time>2022-09-04T14:01:49Z</time>
      </trkpt>
      <trkpt lat="43.06664" lon="0.56579">
        <ele>475</ele>
        <time>2022-09-04T14:01:52Z</time>
      </trkpt>
      <trkpt lat="43.06679" lon="0.56582">
        <ele>473.6</ele>
        <time>2022-09-04T14:01:54Z</time>
      </trkpt>
      <trkpt lat="43.06686" lon="0.56587">
        <ele>473.4</ele>
        <time>2022-09-04T14:01:55Z</time>
      </trkpt>
      <trkpt lat="43.067" lon="0.56609">
        <ele>472.2</ele>
        <time>2022-09-04T14:01:58Z</time>
      </trkpt>
      <trkpt lat="43.06706" lon="0.56626">
        <ele>472.4</ele>
        <time>2022-09-04T14:02:00Z</time>
      </trkpt>
      <trkpt lat="43.06715" lon="0.56649">
        <ele>472</ele>
        <time>2022-09-04T14:02:03Z</time>
      </trkpt>
      <trkpt lat="43.06731" lon="0.56689">
        <ele>471.8</ele>
        <time>2022-09-04T14:02:09Z</time>
      </trkpt>
      <trkpt lat="43.06742" lon="0.56711">
        <ele>472.6</ele>
        <time>2022-09-04T14:02:13Z</time>
      </trkpt>
      <trkpt lat="43.06746" lon="0.5672">
        <ele>472.8</ele>
        <time>2022-09-04T14:02:15Z</time>
      </trkpt>
      <trkpt lat="43.06752" lon="0.56733">
        <ele>473.4</ele>
        <time>2022-09-04T14:02:18Z</time>
      </trkpt>
      <trkpt lat="43.06758" lon="0.56748">
        <ele>475</ele>
        <time>2022-09-04T14:02:22Z</time>
      </trkpt>
      <trkpt lat="43.06765" lon="0.56779">
        <ele>475.8</ele>
        <time>2022-09-04T14:02:31Z</time>
      </trkpt>
      <trkpt lat="43.0677" lon="0.56792">
        <ele>476</ele>
        <time>2022-09-04T14:02:35Z</time>
      </trkpt>
      <trkpt lat="43.06774" lon="0.56807">
        <ele>476</ele>
        <time>2022-09-04T14:02:39Z</time>
      </trkpt>
      <trkpt lat="43.06785" lon="0.56834">
        <ele>475.2</ele>
        <time>2022-09-04T14:02:45Z</time>
      </trkpt>
      <trkpt lat="43.06787" lon="0.56839">
        <ele>475</ele>
        <time>2022-09-04T14:02:46Z</time>
      </trkpt>
      <trkpt lat="43.06802" lon="0.56872">
        <ele>474.2</ele>
        <time>2022-09-04T14:02:51Z</time>
      </trkpt>
      <trkpt lat="43.06805" lon="0.5688">
        <ele>473.8</ele>
        <time>2022-09-04T14:02:52Z</time>
      </trkpt>
      <trkpt lat="43.06816" lon="0.56908">
        <ele>472.4</ele>
        <time>2022-09-04T14:02:55Z</time>
      </trkpt>
      <trkpt lat="43.06819" lon="0.56919">
        <ele>471.8</ele>
        <time>2022-09-04T14:02:56Z</time>
      </trkpt>
      <trkpt lat="43.06827" lon="0.56941">
        <ele>471.2</ele>
        <time>2022-09-04T14:02:58Z</time>
      </trkpt>
      <trkpt lat="43.06839" lon="0.56976">
        <ele>469.8</ele>
        <time>2022-09-04T14:03:01Z</time>
      </trkpt>
      <trkpt lat="43.06843" lon="0.56988">
        <ele>470.2</ele>
        <time>2022-09-04T14:03:02Z</time>
      </trkpt>
      <trkpt lat="43.06858" lon="0.57038">
        <ele>468.4</ele>
        <time>2022-09-04T14:03:06Z</time>
      </trkpt>
      <trkpt lat="43.06861" lon="0.57052">
        <ele>467.8</ele>
        <time>2022-09-04T14:03:07Z</time>
      </trkpt>
      <trkpt lat="43.06864" lon="0.57065">
        <ele>467.2</ele>
        <time>2022-09-04T14:03:08Z</time>
      </trkpt>
      <trkpt lat="43.0687" lon="0.57092">
        <ele>466</ele>
        <time>2022-09-04T14:03:10Z</time>
      </trkpt>
      <trkpt lat="43.06883" lon="0.57143">
        <ele>465.8</ele>
        <time>2022-09-04T14:03:14Z</time>
      </trkpt>
      <trkpt lat="43.06886" lon="0.57156">
        <ele>464.6</ele>
        <time>2022-09-04T14:03:15Z</time>
      </trkpt>
      <trkpt lat="43.0689" lon="0.57168">
        <ele>463</ele>
        <time>2022-09-04T14:03:16Z</time>
      </trkpt>
      <trkpt lat="43.06894" lon="0.5718">
        <ele>462.2</ele>
        <time>2022-09-04T14:03:17Z</time>
      </trkpt>
      <trkpt lat="43.06899" lon="0.57192">
        <ele>461.6</ele>
        <time>2022-09-04T14:03:18Z</time>
      </trkpt>
      <trkpt lat="43.06904" lon="0.57204">
        <ele>461.8</ele>
        <time>2022-09-04T14:03:19Z</time>
      </trkpt>
      <trkpt lat="43.0692" lon="0.5724">
        <ele>460.2</ele>
        <time>2022-09-04T14:03:22Z</time>
      </trkpt>
      <trkpt lat="43.06936" lon="0.57274">
        <ele>459</ele>
        <time>2022-09-04T14:03:25Z</time>
      </trkpt>
      <trkpt lat="43.0694" lon="0.57286">
        <ele>458.2</ele>
        <time>2022-09-04T14:03:26Z</time>
      </trkpt>
      <trkpt lat="43.06944" lon="0.57297">
        <ele>457.6</ele>
        <time>2022-09-04T14:03:27Z</time>
      </trkpt>
      <trkpt lat="43.06947" lon="0.57309">
        <ele>457.4</ele>
        <time>2022-09-04T14:03:28Z</time>
      </trkpt>
      <trkpt lat="43.06951" lon="0.57333">
        <ele>457</ele>
        <time>2022-09-04T14:03:30Z</time>
      </trkpt>
      <trkpt lat="43.06951" lon="0.57345">
        <ele>456.2</ele>
        <time>2022-09-04T14:03:31Z</time>
      </trkpt>
      <trkpt lat="43.06952" lon="0.57357">
        <ele>455.8</ele>
        <time>2022-09-04T14:03:32Z</time>
      </trkpt>
      <trkpt lat="43.06954" lon="0.57389">
        <ele>455</ele>
        <time>2022-09-04T14:03:35Z</time>
      </trkpt>
      <trkpt lat="43.06964" lon="0.5744">
        <ele>454.8</ele>
        <time>2022-09-04T14:03:40Z</time>
      </trkpt>
      <trkpt lat="43.06972" lon="0.57458">
        <ele>453.8</ele>
        <time>2022-09-04T14:03:42Z</time>
      </trkpt>
      <trkpt lat="43.06981" lon="0.57471">
        <ele>453</ele>
        <time>2022-09-04T14:03:44Z</time>
      </trkpt>
      <trkpt lat="43.06984" lon="0.57476">
        <ele>452.6</ele>
        <time>2022-09-04T14:03:45Z</time>
      </trkpt>
      <trkpt lat="43.06989" lon="0.57481">
        <ele>451.8</ele>
        <time>2022-09-04T14:03:47Z</time>
      </trkpt>
      <trkpt lat="43.06991" lon="0.57484">
        <ele>451.4</ele>
        <time>2022-09-04T14:03:48Z</time>
      </trkpt>
      <trkpt lat="43.06995" lon="0.57488">
        <ele>450.4</ele>
        <time>2022-09-04T14:03:51Z</time>
      </trkpt>
      <trkpt lat="43.06997" lon="0.5749">
        <ele>450.2</ele>
        <time>2022-09-04T14:03:52Z</time>
      </trkpt>
      <trkpt lat="43.07" lon="0.57498">
        <ele>449.8</ele>
        <time>2022-09-04T14:03:56Z</time>
      </trkpt>
      <trkpt lat="43.07" lon="0.57501">
        <ele>449.8</ele>
        <time>2022-09-04T14:03:58Z</time>
      </trkpt>
      <trkpt lat="43.07001" lon="0.57508">
        <ele>449.6</ele>
        <time>2022-09-04T14:04:10Z</time>
      </trkpt>
      <trkpt lat="43.07002" lon="0.57511">
        <ele>449.6</ele>
        <time>2022-09-04T14:04:11Z</time>
      </trkpt>
      <trkpt lat="43.07007" lon="0.57526">
        <ele>449.8</ele>
        <time>2022-09-04T14:04:14Z</time>
      </trkpt>
      <trkpt lat="43.07009" lon="0.57532">
        <ele>449.6</ele>
        <time>2022-09-04T14:04:15Z</time>
      </trkpt>
      <trkpt lat="43.0702" lon="0.57554">
        <ele>449.4</ele>
        <time>2022-09-04T14:04:19Z</time>
      </trkpt>
      <trkpt lat="43.0703" lon="0.57576">
        <ele>449.2</ele>
        <time>2022-09-04T14:04:23Z</time>
      </trkpt>
      <trkpt lat="43.07053" lon="0.57636">
        <ele>449</ele>
        <time>2022-09-04T14:04:33Z</time>
      </trkpt>
      <trkpt lat="43.07081" lon="0.57695">
        <ele>448.6</ele>
        <time>2022-09-04T14:04:43Z</time>
      </trkpt>
      <trkpt lat="43.07099" lon="0.57729">
        <ele>448.2</ele>
        <time>2022-09-04T14:04:49Z</time>
      </trkpt>
      <trkpt lat="43.07107" lon="0.57746">
        <ele>448.4</ele>
        <time>2022-09-04T14:04:52Z</time>
      </trkpt>
      <trkpt lat="43.07124" lon="0.57779">
        <ele>448.4</ele>
        <time>2022-09-04T14:04:58Z</time>
      </trkpt>
      <trkpt lat="43.07131" lon="0.57797">
        <ele>448.4</ele>
        <time>2022-09-04T14:05:01Z</time>
      </trkpt>
      <trkpt lat="43.07148" lon="0.57859">
        <ele>448.6</ele>
        <time>2022-09-04T14:05:11Z</time>
      </trkpt>
      <trkpt lat="43.07158" lon="0.57918">
        <ele>448.8</ele>
        <time>2022-09-04T14:05:20Z</time>
      </trkpt>
      <trkpt lat="43.07166" lon="0.57957">
        <ele>449</ele>
        <time>2022-09-04T14:05:26Z</time>
      </trkpt>
      <trkpt lat="43.07171" lon="0.57968">
        <ele>449</ele>
        <time>2022-09-04T14:05:28Z</time>
      </trkpt>
      <trkpt lat="43.07184" lon="0.57987">
        <ele>448.8</ele>
        <time>2022-09-04T14:05:32Z</time>
      </trkpt>
      <trkpt lat="43.07211" lon="0.58023">
        <ele>448.8</ele>
        <time>2022-09-04T14:05:40Z</time>
      </trkpt>
      <trkpt lat="43.07236" lon="0.58055">
        <ele>448.4</ele>
        <time>2022-09-04T14:05:49Z</time>
      </trkpt>
      <trkpt lat="43.07239" lon="0.58055">
        <ele>448.4</ele>
        <time>2022-09-04T14:05:50Z</time>
      </trkpt>
      <trkpt lat="43.07245" lon="0.5805">
        <ele>448.2</ele>
        <time>2022-09-04T14:05:52Z</time>
      </trkpt>
      <trkpt lat="43.07253" lon="0.58033">
        <ele>447.6</ele>
        <time>2022-09-04T14:05:56Z</time>
      </trkpt>
      <trkpt lat="43.07258" lon="0.58025">
        <ele>447.6</ele>
        <time>2022-09-04T14:05:58Z</time>
      </trkpt>
      <trkpt lat="43.07271" lon="0.58004">
        <ele>447.8</ele>
        <time>2022-09-04T14:06:03Z</time>
      </trkpt>
      <trkpt lat="43.0729" lon="0.57968">
        <ele>447.2</ele>
        <time>2022-09-04T14:06:11Z</time>
      </trkpt>
      <trkpt lat="43.07298" lon="0.57954">
        <ele>447.2</ele>
        <time>2022-09-04T14:06:14Z</time>
      </trkpt>
      <trkpt lat="43.07312" lon="0.57927">
        <ele>446.6</ele>
        <time>2022-09-04T14:06:19Z</time>
      </trkpt>
      <trkpt lat="43.0732" lon="0.57917">
        <ele>446.2</ele>
        <time>2022-09-04T14:06:21Z</time>
      </trkpt>
      <trkpt lat="43.07331" lon="0.5791">
        <ele>446</ele>
        <time>2022-09-04T14:06:23Z</time>
      </trkpt>
      <trkpt lat="43.07345" lon="0.57907">
        <ele>445.4</ele>
        <time>2022-09-04T14:06:25Z</time>
      </trkpt>
      <trkpt lat="43.07353" lon="0.57907">
        <ele>445</ele>
        <time>2022-09-04T14:06:26Z</time>
      </trkpt>
      <trkpt lat="43.07361" lon="0.57907">
        <ele>444.8</ele>
        <time>2022-09-04T14:06:27Z</time>
      </trkpt>
      <trkpt lat="43.07377" lon="0.57909">
        <ele>444</ele>
        <time>2022-09-04T14:06:29Z</time>
      </trkpt>
      <trkpt lat="43.07394" lon="0.57912">
        <ele>442.6</ele>
        <time>2022-09-04T14:06:31Z</time>
      </trkpt>
      <trkpt lat="43.07411" lon="0.57914">
        <ele>441.6</ele>
        <time>2022-09-04T14:06:33Z</time>
      </trkpt>
      <trkpt lat="43.0746" lon="0.57916">
        <ele>440.6</ele>
        <time>2022-09-04T14:06:39Z</time>
      </trkpt>
      <trkpt lat="43.07467" lon="0.57916">
        <ele>440.2</ele>
        <time>2022-09-04T14:06:40Z</time>
      </trkpt>
      <trkpt lat="43.07503" lon="0.57907">
        <ele>439.8</ele>
        <time>2022-09-04T14:06:45Z</time>
      </trkpt>
      <trkpt lat="43.07516" lon="0.57903">
        <ele>439.2</ele>
        <time>2022-09-04T14:06:47Z</time>
      </trkpt>
      <trkpt lat="43.07539" lon="0.57896">
        <ele>438.6</ele>
        <time>2022-09-04T14:06:51Z</time>
      </trkpt>
      <trkpt lat="43.07578" lon="0.57884">
        <ele>438.2</ele>
        <time>2022-09-04T14:06:58Z</time>
      </trkpt>
      <trkpt lat="43.07584" lon="0.57883">
        <ele>437.8</ele>
        <time>2022-09-04T14:06:59Z</time>
      </trkpt>
      <trkpt lat="43.07601" lon="0.57876">
        <ele>437.6</ele>
        <time>2022-09-04T14:07:02Z</time>
      </trkpt>
      <trkpt lat="43.07616" lon="0.57866">
        <ele>437.4</ele>
        <time>2022-09-04T14:07:05Z</time>
      </trkpt>
      <trkpt lat="43.0763" lon="0.57855">
        <ele>437</ele>
        <time>2022-09-04T14:07:08Z</time>
      </trkpt>
      <trkpt lat="43.07642" lon="0.57842">
        <ele>436.8</ele>
        <time>2022-09-04T14:07:11Z</time>
      </trkpt>
      <trkpt lat="43.07657" lon="0.57824">
        <ele>436.8</ele>
        <time>2022-09-04T14:07:15Z</time>
      </trkpt>
      <trkpt lat="43.07667" lon="0.57824">
        <ele>437.4</ele>
        <time>2022-09-04T14:07:17Z</time>
      </trkpt>
      <trkpt lat="43.07679" lon="0.57832">
        <ele>436.8</ele>
        <time>2022-09-04T14:07:20Z</time>
      </trkpt>
      <trkpt lat="43.07683" lon="0.57834">
        <ele>436.6</ele>
        <time>2022-09-04T14:07:21Z</time>
      </trkpt>
      <trkpt lat="43.07692" lon="0.57839">
        <ele>436.2</ele>
        <time>2022-09-04T14:07:23Z</time>
      </trkpt>
      <trkpt lat="43.07703" lon="0.57848">
        <ele>436</ele>
        <time>2022-09-04T14:07:26Z</time>
      </trkpt>
      <trkpt lat="43.07716" lon="0.57856">
        <ele>436.2</ele>
        <time>2022-09-04T14:07:30Z</time>
      </trkpt>
      <trkpt lat="43.07725" lon="0.57845">
        <ele>436.4</ele>
        <time>2022-09-04T14:07:33Z</time>
      </trkpt>
      <trkpt lat="43.07728" lon="0.57841">
        <ele>436.4</ele>
        <time>2022-09-04T14:07:34Z</time>
      </trkpt>
      <trkpt lat="43.07743" lon="0.57829">
        <ele>436</ele>
        <time>2022-09-04T14:07:38Z</time>
      </trkpt>
      <trkpt lat="43.07768" lon="0.5782">
        <ele>436</ele>
        <time>2022-09-04T14:07:44Z</time>
      </trkpt>
      <trkpt lat="43.07791" lon="0.57806">
        <ele>435.4</ele>
        <time>2022-09-04T14:07:49Z</time>
      </trkpt>
      <trkpt lat="43.07795" lon="0.57802">
        <ele>435.4</ele>
        <time>2022-09-04T14:07:50Z</time>
      </trkpt>
      <trkpt lat="43.07824" lon="0.57781">
        <ele>435.4</ele>
        <time>2022-09-04T14:07:57Z</time>
      </trkpt>
      <trkpt lat="43.07852" lon="0.57761">
        <ele>435.4</ele>
        <time>2022-09-04T14:08:04Z</time>
      </trkpt>
      <trkpt lat="43.0787" lon="0.57747">
        <ele>435.4</ele>
        <time>2022-09-04T14:08:09Z</time>
      </trkpt>
      <trkpt lat="43.07874" lon="0.57745">
        <ele>435.6</ele>
        <time>2022-09-04T14:08:10Z</time>
      </trkpt>
      <trkpt lat="43.07905" lon="0.57723">
        <ele>435.4</ele>
        <time>2022-09-04T14:08:18Z</time>
      </trkpt>
      <trkpt lat="43.07928" lon="0.57707">
        <ele>434.8</ele>
        <time>2022-09-04T14:08:24Z</time>
      </trkpt>
      <trkpt lat="43.07937" lon="0.57701">
        <ele>434.8</ele>
        <time>2022-09-04T14:08:26Z</time>
      </trkpt>
      <trkpt lat="43.07973" lon="0.57679">
        <ele>433.8</ele>
        <time>2022-09-04T14:08:33Z</time>
      </trkpt>
      <trkpt lat="43.08012" lon="0.57657">
        <ele>432.8</ele>
        <time>2022-09-04T14:08:40Z</time>
      </trkpt>
      <trkpt lat="43.08017" lon="0.57655">
        <ele>432.8</ele>
        <time>2022-09-04T14:08:41Z</time>
      </trkpt>
      <trkpt lat="43.08068" lon="0.57626">
        <ele>432.8</ele>
        <time>2022-09-04T14:08:51Z</time>
      </trkpt>
      <trkpt lat="43.08109" lon="0.576">
        <ele>432.2</ele>
        <time>2022-09-04T14:09:00Z</time>
      </trkpt>
      <trkpt lat="43.08136" lon="0.57583">
        <ele>432.2</ele>
        <time>2022-09-04T14:09:06Z</time>
      </trkpt>
      <trkpt lat="43.08161" lon="0.57568">
        <ele>432.4</ele>
        <time>2022-09-04T14:09:12Z</time>
      </trkpt>
      <trkpt lat="43.08183" lon="0.57562">
        <ele>432.2</ele>
        <time>2022-09-04T14:09:18Z</time>
      </trkpt>
      <trkpt lat="43.08198" lon="0.57558">
        <ele>432</ele>
        <time>2022-09-04T14:09:23Z</time>
      </trkpt>
      <trkpt lat="43.08214" lon="0.5754">
        <ele>432.8</ele>
        <time>2022-09-04T14:09:29Z</time>
      </trkpt>
      <trkpt lat="43.08229" lon="0.5753">
        <ele>434</ele>
        <time>2022-09-04T14:09:34Z</time>
      </trkpt>
      <trkpt lat="43.08235" lon="0.57527">
        <ele>434.2</ele>
        <time>2022-09-04T14:09:36Z</time>
      </trkpt>
      <trkpt lat="43.08253" lon="0.57523">
        <ele>435</ele>
        <time>2022-09-04T14:09:42Z</time>
      </trkpt>
      <trkpt lat="43.08256" lon="0.57523">
        <ele>435</ele>
        <time>2022-09-04T14:09:43Z</time>
      </trkpt>
      <trkpt lat="43.08292" lon="0.5752">
        <ele>435.6</ele>
        <time>2022-09-04T14:09:54Z</time>
      </trkpt>
      <trkpt lat="43.08313" lon="0.57517">
        <ele>435.6</ele>
        <time>2022-09-04T14:10:00Z</time>
      </trkpt>
      <trkpt lat="43.08344" lon="0.57514">
        <ele>435</ele>
        <time>2022-09-04T14:10:08Z</time>
      </trkpt>
      <trkpt lat="43.08351" lon="0.5751">
        <ele>435.2</ele>
        <time>2022-09-04T14:10:10Z</time>
      </trkpt>
      <trkpt lat="43.08363" lon="0.57499">
        <ele>434.8</ele>
        <time>2022-09-04T14:10:13Z</time>
      </trkpt>
      <trkpt lat="43.08391" lon="0.57473">
        <ele>433.8</ele>
        <time>2022-09-04T14:10:19Z</time>
      </trkpt>
      <trkpt lat="43.08416" lon="0.5745">
        <ele>434.6</ele>
        <time>2022-09-04T14:10:26Z</time>
      </trkpt>
      <trkpt lat="43.08418" lon="0.57448">
        <ele>434.8</ele>
        <time>2022-09-04T14:10:27Z</time>
      </trkpt>
      <trkpt lat="43.08423" lon="0.57443">
        <ele>435</ele>
        <time>2022-09-04T14:10:29Z</time>
      </trkpt>
      <trkpt lat="43.08432" lon="0.57433">
        <ele>435.6</ele>
        <time>2022-09-04T14:10:33Z</time>
      </trkpt>
      <trkpt lat="43.08439" lon="0.5742">
        <ele>436.2</ele>
        <time>2022-09-04T14:10:37Z</time>
      </trkpt>
      <trkpt lat="43.0844" lon="0.57413">
        <ele>436.6</ele>
        <time>2022-09-04T14:10:39Z</time>
      </trkpt>
      <trkpt lat="43.08438" lon="0.57396">
        <ele>437.2</ele>
        <time>2022-09-04T14:10:44Z</time>
      </trkpt>
      <trkpt lat="43.08436" lon="0.57381">
        <ele>438.4</ele>
        <time>2022-09-04T14:10:50Z</time>
      </trkpt>
      <trkpt lat="43.08435" lon="0.57376">
        <ele>438.6</ele>
        <time>2022-09-04T14:10:52Z</time>
      </trkpt>
      <trkpt lat="43.08432" lon="0.57361">
        <ele>439.4</ele>
        <time>2022-09-04T14:10:58Z</time>
      </trkpt>
      <trkpt lat="43.08429" lon="0.57353">
        <ele>440</ele>
        <time>2022-09-04T14:11:02Z</time>
      </trkpt>
      <trkpt lat="43.08429" lon="0.57345">
        <ele>440.4</ele>
        <time>2022-09-04T14:11:05Z</time>
      </trkpt>
      <trkpt lat="43.08428" lon="0.57339">
        <ele>441</ele>
        <time>2022-09-04T14:11:08Z</time>
      </trkpt>
      <trkpt lat="43.08427" lon="0.57334">
        <ele>441.4</ele>
        <time>2022-09-04T14:11:10Z</time>
      </trkpt>
      <trkpt lat="43.08423" lon="0.5732">
        <ele>442.2</ele>
        <time>2022-09-04T14:11:16Z</time>
      </trkpt>
      <trkpt lat="43.08422" lon="0.57318">
        <ele>442.4</ele>
        <time>2022-09-04T14:11:17Z</time>
      </trkpt>
      <trkpt lat="43.08416" lon="0.57305">
        <ele>443.6</ele>
        <time>2022-09-04T14:11:24Z</time>
      </trkpt>
      <trkpt lat="43.0841" lon="0.57295">
        <ele>444.6</ele>
        <time>2022-09-04T14:11:30Z</time>
      </trkpt>
      <trkpt lat="43.08409" lon="0.57294">
        <ele>444.6</ele>
        <time>2022-09-04T14:11:31Z</time>
      </trkpt>
      <trkpt lat="43.084" lon="0.57283">
        <ele>445.8</ele>
        <time>2022-09-04T14:11:38Z</time>
      </trkpt>
      <trkpt lat="43.08393" lon="0.57273">
        <ele>447</ele>
        <time>2022-09-04T14:11:45Z</time>
      </trkpt>
      <trkpt lat="43.08392" lon="0.57271">
        <ele>447</ele>
        <time>2022-09-04T14:11:46Z</time>
      </trkpt>
      <trkpt lat="43.08387" lon="0.57265">
        <ele>447.8</ele>
        <time>2022-09-04T14:11:51Z</time>
      </trkpt>
      <trkpt lat="43.08386" lon="0.57265">
        <ele>448</ele>
        <time>2022-09-04T14:11:52Z</time>
      </trkpt>
      <trkpt lat="43.08384" lon="0.57265">
        <ele>448.2</ele>
        <time>2022-09-04T14:11:53Z</time>
      </trkpt>
      <trkpt lat="43.08382" lon="0.57262">
        <ele>448.4</ele>
        <time>2022-09-04T14:11:55Z</time>
      </trkpt>
      <trkpt lat="43.08379" lon="0.57257">
        <ele>449</ele>
        <time>2022-09-04T14:11:58Z</time>
      </trkpt>
      <trkpt lat="43.08379" lon="0.57255">
        <ele>449.2</ele>
        <time>2022-09-04T14:11:59Z</time>
      </trkpt>
      <trkpt lat="43.08377" lon="0.57249">
        <ele>450</ele>
        <time>2022-09-04T14:12:03Z</time>
      </trkpt>
      <trkpt lat="43.08376" lon="0.57247">
        <ele>450.2</ele>
        <time>2022-09-04T14:12:04Z</time>
      </trkpt>
      <trkpt lat="43.08376" lon="0.57244">
        <ele>450.6</ele>
        <time>2022-09-04T14:12:06Z</time>
      </trkpt>
      <trkpt lat="43.08375" lon="0.57231">
        <ele>452</ele>
        <time>2022-09-04T14:12:45Z</time>
      </trkpt>
      <trkpt lat="43.08376" lon="0.57223">
        <ele>453.2</ele>
        <time>2022-09-04T14:12:49Z</time>
      </trkpt>
      <trkpt lat="43.08374" lon="0.57217">
        <ele>454</ele>
        <time>2022-09-04T14:12:53Z</time>
      </trkpt>
      <trkpt lat="43.08373" lon="0.57213">
        <ele>454.4</ele>
        <time>2022-09-04T14:12:55Z</time>
      </trkpt>
      <trkpt lat="43.08376" lon="0.57209">
        <ele>455</ele>
        <time>2022-09-04T14:12:58Z</time>
      </trkpt>
      <trkpt lat="43.08376" lon="0.57206">
        <ele>455.4</ele>
        <time>2022-09-04T14:13:00Z</time>
      </trkpt>
      <trkpt lat="43.08375" lon="0.57205">
        <ele>455.6</ele>
        <time>2022-09-04T14:13:01Z</time>
      </trkpt>
      <trkpt lat="43.08372" lon="0.57203">
        <ele>456</ele>
        <time>2022-09-04T14:13:03Z</time>
      </trkpt>
      <trkpt lat="43.08372" lon="0.57196">
        <ele>456.6</ele>
        <time>2022-09-04T14:13:06Z</time>
      </trkpt>
      <trkpt lat="43.08372" lon="0.57194">
        <ele>456.6</ele>
        <time>2022-09-04T14:13:07Z</time>
      </trkpt>
      <trkpt lat="43.08372" lon="0.57193">
        <ele>456.8</ele>
        <time>2022-09-04T14:13:08Z</time>
      </trkpt>
      <trkpt lat="43.08373" lon="0.57189">
        <ele>457.4</ele>
        <time>2022-09-04T14:13:11Z</time>
      </trkpt>
      <trkpt lat="43.08374" lon="0.57188">
        <ele>457.6</ele>
        <time>2022-09-04T14:13:12Z</time>
      </trkpt>
      <trkpt lat="43.08409" lon="0.5711">
        <ele>474.6</ele>
        <time>2022-09-04T14:16:43Z</time>
      </trkpt>
      <trkpt lat="43.08416" lon="0.57107">
        <ele>474.8</ele>
        <time>2022-09-04T14:16:45Z</time>
      </trkpt>
      <trkpt lat="43.08428" lon="0.57098">
        <ele>475.2</ele>
        <time>2022-09-04T14:16:49Z</time>
      </trkpt>
      <trkpt lat="43.08435" lon="0.57086">
        <ele>475.6</ele>
        <time>2022-09-04T14:16:53Z</time>
      </trkpt>
      <trkpt lat="43.08436" lon="0.57084">
        <ele>475.8</ele>
        <time>2022-09-04T14:16:54Z</time>
      </trkpt>
      <trkpt lat="43.08444" lon="0.57069">
        <ele>476.6</ele>
        <time>2022-09-04T14:17:00Z</time>
      </trkpt>
      <trkpt lat="43.08447" lon="0.57064">
        <ele>477</ele>
        <time>2022-09-04T14:17:02Z</time>
      </trkpt>
      <trkpt lat="43.08453" lon="0.57047">
        <ele>477.4</ele>
        <time>2022-09-04T14:17:09Z</time>
      </trkpt>
      <trkpt lat="43.08458" lon="0.57037">
        <ele>477.8</ele>
        <time>2022-09-04T14:17:13Z</time>
      </trkpt>
      <trkpt lat="43.08462" lon="0.57026">
        <ele>478</ele>
        <time>2022-09-04T14:17:16Z</time>
      </trkpt>
      <trkpt lat="43.08472" lon="0.56996">
        <ele>478.6</ele>
        <time>2022-09-04T14:17:25Z</time>
      </trkpt>
      <trkpt lat="43.08479" lon="0.56979">
        <ele>478.8</ele>
        <time>2022-09-04T14:17:30Z</time>
      </trkpt>
      <trkpt lat="43.08482" lon="0.56971">
        <ele>479</ele>
        <time>2022-09-04T14:17:33Z</time>
      </trkpt>
      <trkpt lat="43.0849" lon="0.56948">
        <ele>479.2</ele>
        <time>2022-09-04T14:17:40Z</time>
      </trkpt>
      <trkpt lat="43.08501" lon="0.56926">
        <ele>479.6</ele>
        <time>2022-09-04T14:17:47Z</time>
      </trkpt>
      <trkpt lat="43.08504" lon="0.56918">
        <ele>479.8</ele>
        <time>2022-09-04T14:17:50Z</time>
      </trkpt>
      <trkpt lat="43.08506" lon="0.56914">
        <ele>480</ele>
        <time>2022-09-04T14:17:52Z</time>
      </trkpt>
    </trkseg>
  </trk>
</gpx>